<?xml version="1.0" encoding="UTF-8" standalone="no" ?>
<gpx xmlns="http://www.topografix.com/GPX/1/1" xmlns:xsi="http://www.w3.org/2001/XMLSchema-instance" xsi:schemaLocation="http://www.topografix.com/GPX/1/1 http://www.topografix.com/GPX/1/1/gpx.xsd" version="1.1" creator="VisuGPX - https://www.visugpx.com">
  <metadata>
    <name>161123HR3Jeunes</name>
    <desc><![CDATA[excellente sortie du cote de Carces]]></desc>
  </metadata>
  <trk>
    <name><![CDATA[161123HR3Jeunes]]></name>
    <trkseg>
      <trkpt lat="43.41583" lon="6.07036">
        <ele>202.19999694824</ele>
        <time>2016-11-23T13:01:18Z</time>
      </trkpt>
      <trkpt lat="43.41583" lon="6.07035">
        <ele>202.19999694824</ele>
        <time>2016-11-23T13:01:20Z</time>
      </trkpt>
      <trkpt lat="43.41582" lon="6.07036">
        <ele>201.80000305176</ele>
        <time>2016-11-23T13:01:30Z</time>
      </trkpt>
      <trkpt lat="43.41581" lon="6.07037">
        <ele>202.19999694824</ele>
        <time>2016-11-23T13:01:40Z</time>
      </trkpt>
      <trkpt lat="43.41581" lon="6.07038">
        <ele>201.80000305176</ele>
        <time>2016-11-23T13:01:50Z</time>
      </trkpt>
      <trkpt lat="43.41581" lon="6.07037">
        <ele>201.80000305176</ele>
        <time>2016-11-23T13:02:00Z</time>
      </trkpt>
      <trkpt lat="43.41581" lon="6.07036">
        <ele>202.19999694824</ele>
        <time>2016-11-23T13:02:10Z</time>
      </trkpt>
      <trkpt lat="43.41581" lon="6.07037">
        <ele>201.80000305176</ele>
        <time>2016-11-23T13:02:20Z</time>
      </trkpt>
      <trkpt lat="43.41581" lon="6.07038">
        <ele>201.60000610352</ele>
        <time>2016-11-23T13:02:30Z</time>
      </trkpt>
      <trkpt lat="43.41581" lon="6.07038">
        <ele>201.19999694824</ele>
        <time>2016-11-23T13:02:41Z</time>
      </trkpt>
      <trkpt lat="43.41581" lon="6.07038">
        <ele>201.80000305176</ele>
        <time>2016-11-23T13:03:10Z</time>
      </trkpt>
      <trkpt lat="43.41581" lon="6.07039">
        <ele>201.80000305176</ele>
        <time>2016-11-23T13:03:20Z</time>
      </trkpt>
      <trkpt lat="43.41581" lon="6.07039">
        <ele>202</ele>
        <time>2016-11-23T13:03:30Z</time>
      </trkpt>
      <trkpt lat="43.41581" lon="6.07039">
        <ele>202.19999694824</ele>
        <time>2016-11-23T13:03:34Z</time>
      </trkpt>
      <trkpt lat="43.41581" lon="6.07038">
        <ele>201.39999389648</ele>
        <time>2016-11-23T13:04:00Z</time>
      </trkpt>
      <trkpt lat="43.41581" lon="6.07038">
        <ele>202.19999694824</ele>
        <time>2016-11-23T13:04:40Z</time>
      </trkpt>
      <trkpt lat="43.41581" lon="6.07038">
        <ele>201.60000610352</ele>
        <time>2016-11-23T13:05:00Z</time>
      </trkpt>
      <trkpt lat="43.41581" lon="6.07038">
        <ele>201.80000305176</ele>
        <time>2016-11-23T13:05:10Z</time>
      </trkpt>
      <trkpt lat="43.41581" lon="6.07039">
        <ele>201.60000610352</ele>
        <time>2016-11-23T13:05:30Z</time>
      </trkpt>
      <trkpt lat="43.41581" lon="6.07039">
        <ele>201.60000610352</ele>
        <time>2016-11-23T13:05:40Z</time>
      </trkpt>
      <trkpt lat="43.41581" lon="6.07045">
        <ele>201</ele>
        <time>2016-11-23T13:05:43Z</time>
      </trkpt>
      <trkpt lat="43.41583" lon="6.07057">
        <ele>200.80000305176</ele>
        <time>2016-11-23T13:05:46Z</time>
      </trkpt>
      <trkpt lat="43.41585" lon="6.07076">
        <ele>201</ele>
        <time>2016-11-23T13:05:50Z</time>
      </trkpt>
      <trkpt lat="43.41588" lon="6.0711">
        <ele>201</ele>
        <time>2016-11-23T13:05:58Z</time>
      </trkpt>
      <trkpt lat="43.41587" lon="6.07112">
        <ele>200.80000305176</ele>
        <time>2016-11-23T13:06:00Z</time>
      </trkpt>
      <trkpt lat="43.4156" lon="6.0712">
        <ele>200.19999694824</ele>
        <time>2016-11-23T13:06:09Z</time>
      </trkpt>
      <trkpt lat="43.41556" lon="6.0712">
        <ele>200</ele>
        <time>2016-11-23T13:06:10Z</time>
      </trkpt>
      <trkpt lat="43.4155" lon="6.07111">
        <ele>199.80000305176</ele>
        <time>2016-11-23T13:06:13Z</time>
      </trkpt>
      <trkpt lat="43.41539" lon="6.07077">
        <ele>200.39999389648</ele>
        <time>2016-11-23T13:06:20Z</time>
      </trkpt>
      <trkpt lat="43.41535" lon="6.07076">
        <ele>200.39999389648</ele>
        <time>2016-11-23T13:06:21Z</time>
      </trkpt>
      <trkpt lat="43.41524" lon="6.07077">
        <ele>200.39999389648</ele>
        <time>2016-11-23T13:06:23Z</time>
      </trkpt>
      <trkpt lat="43.41504" lon="6.07081">
        <ele>199.39999389648</ele>
        <time>2016-11-23T13:06:27Z</time>
      </trkpt>
      <trkpt lat="43.41494" lon="6.0708">
        <ele>199.39999389648</ele>
        <time>2016-11-23T13:06:29Z</time>
      </trkpt>
      <trkpt lat="43.4149" lon="6.07078">
        <ele>199.39999389648</ele>
        <time>2016-11-23T13:06:30Z</time>
      </trkpt>
      <trkpt lat="43.41485" lon="6.07077">
        <ele>199.39999389648</ele>
        <time>2016-11-23T13:06:31Z</time>
      </trkpt>
      <trkpt lat="43.41471" lon="6.07076">
        <ele>199</ele>
        <time>2016-11-23T13:06:35Z</time>
      </trkpt>
      <trkpt lat="43.41466" lon="6.07076">
        <ele>198.60000610352</ele>
        <time>2016-11-23T13:06:40Z</time>
      </trkpt>
      <trkpt lat="43.41466" lon="6.07076">
        <ele>198.39999389648</ele>
        <time>2016-11-23T13:06:42Z</time>
      </trkpt>
      <trkpt lat="43.41461" lon="6.07078">
        <ele>198.19999694824</ele>
        <time>2016-11-23T13:06:45Z</time>
      </trkpt>
      <trkpt lat="43.41454" lon="6.07092">
        <ele>198.19999694824</ele>
        <time>2016-11-23T13:06:50Z</time>
      </trkpt>
      <trkpt lat="43.41448" lon="6.07106">
        <ele>198</ele>
        <time>2016-11-23T13:06:55Z</time>
      </trkpt>
      <trkpt lat="43.41444" lon="6.07115">
        <ele>197.80000305176</ele>
        <time>2016-11-23T13:06:59Z</time>
      </trkpt>
      <trkpt lat="43.41443" lon="6.07116">
        <ele>197.80000305176</ele>
        <time>2016-11-23T13:07:00Z</time>
      </trkpt>
      <trkpt lat="43.41443" lon="6.07118">
        <ele>197.80000305176</ele>
        <time>2016-11-23T13:07:04Z</time>
      </trkpt>
      <trkpt lat="43.41449" lon="6.07115">
        <ele>198</ele>
        <time>2016-11-23T13:07:08Z</time>
      </trkpt>
      <trkpt lat="43.41451" lon="6.07108">
        <ele>198</ele>
        <time>2016-11-23T13:07:10Z</time>
      </trkpt>
      <trkpt lat="43.41464" lon="6.07075">
        <ele>198.39999389648</ele>
        <time>2016-11-23T13:07:19Z</time>
      </trkpt>
      <trkpt lat="43.41464" lon="6.07073">
        <ele>198.39999389648</ele>
        <time>2016-11-23T13:07:20Z</time>
      </trkpt>
      <trkpt lat="43.41463" lon="6.07071">
        <ele>198.19999694824</ele>
        <time>2016-11-23T13:07:21Z</time>
      </trkpt>
      <trkpt lat="43.4146" lon="6.07071">
        <ele>197</ele>
        <time>2016-11-23T13:07:30Z</time>
      </trkpt>
      <trkpt lat="43.41459" lon="6.0707">
        <ele>197.39999389648</ele>
        <time>2016-11-23T13:07:36Z</time>
      </trkpt>
      <trkpt lat="43.41459" lon="6.0707">
        <ele>197.19999694824</ele>
        <time>2016-11-23T13:07:40Z</time>
      </trkpt>
      <trkpt lat="43.41458" lon="6.07071">
        <ele>197.60000610352</ele>
        <time>2016-11-23T13:07:50Z</time>
      </trkpt>
      <trkpt lat="43.41459" lon="6.07071">
        <ele>197.60000610352</ele>
        <time>2016-11-23T13:07:54Z</time>
      </trkpt>
      <trkpt lat="43.41459" lon="6.07071">
        <ele>197.39999389648</ele>
        <time>2016-11-23T13:08:00Z</time>
      </trkpt>
      <trkpt lat="43.41459" lon="6.07071">
        <ele>197.39999389648</ele>
        <time>2016-11-23T13:08:10Z</time>
      </trkpt>
      <trkpt lat="43.41459" lon="6.07071">
        <ele>197</ele>
        <time>2016-11-23T13:08:40Z</time>
      </trkpt>
      <trkpt lat="43.41459" lon="6.0707">
        <ele>197</ele>
        <time>2016-11-23T13:08:59Z</time>
      </trkpt>
      <trkpt lat="43.41459" lon="6.0707">
        <ele>197</ele>
        <time>2016-11-23T13:09:05Z</time>
      </trkpt>
      <trkpt lat="43.41459" lon="6.0707">
        <ele>197</ele>
        <time>2016-11-23T13:09:10Z</time>
      </trkpt>
      <trkpt lat="43.4146" lon="6.0707">
        <ele>197</ele>
        <time>2016-11-23T13:09:16Z</time>
      </trkpt>
      <trkpt lat="43.41459" lon="6.0707">
        <ele>197</ele>
        <time>2016-11-23T13:09:30Z</time>
      </trkpt>
      <trkpt lat="43.41459" lon="6.07071">
        <ele>197</ele>
        <time>2016-11-23T13:09:36Z</time>
      </trkpt>
      <trkpt lat="43.4146" lon="6.07073">
        <ele>197</ele>
        <time>2016-11-23T13:09:50Z</time>
      </trkpt>
      <trkpt lat="43.4146" lon="6.07072">
        <ele>197</ele>
        <time>2016-11-23T13:10:00Z</time>
      </trkpt>
      <trkpt lat="43.4146" lon="6.07071">
        <ele>197</ele>
        <time>2016-11-23T13:10:10Z</time>
      </trkpt>
      <trkpt lat="43.4146" lon="6.07071">
        <ele>197</ele>
        <time>2016-11-23T13:10:20Z</time>
      </trkpt>
      <trkpt lat="43.41459" lon="6.0707">
        <ele>197</ele>
        <time>2016-11-23T13:10:30Z</time>
      </trkpt>
      <trkpt lat="43.41459" lon="6.07069">
        <ele>197</ele>
        <time>2016-11-23T13:10:40Z</time>
      </trkpt>
      <trkpt lat="43.41459" lon="6.07069">
        <ele>197</ele>
        <time>2016-11-23T13:10:50Z</time>
      </trkpt>
      <trkpt lat="43.41459" lon="6.0707">
        <ele>197</ele>
        <time>2016-11-23T13:11:40Z</time>
      </trkpt>
      <trkpt lat="43.41459" lon="6.0707">
        <ele>197</ele>
        <time>2016-11-23T13:11:53Z</time>
      </trkpt>
      <trkpt lat="43.41459" lon="6.0707">
        <ele>197</ele>
        <time>2016-11-23T13:12:04Z</time>
      </trkpt>
      <trkpt lat="43.4146" lon="6.07069">
        <ele>197</ele>
        <time>2016-11-23T13:12:08Z</time>
      </trkpt>
      <trkpt lat="43.41459" lon="6.07069">
        <ele>197</ele>
        <time>2016-11-23T13:12:10Z</time>
      </trkpt>
      <trkpt lat="43.41459" lon="6.07069">
        <ele>197</ele>
        <time>2016-11-23T13:12:18Z</time>
      </trkpt>
      <trkpt lat="43.41458" lon="6.07068">
        <ele>197</ele>
        <time>2016-11-23T13:12:22Z</time>
      </trkpt>
      <trkpt lat="43.41459" lon="6.07069">
        <ele>197</ele>
        <time>2016-11-23T13:12:24Z</time>
      </trkpt>
      <trkpt lat="43.41458" lon="6.07069">
        <ele>197</ele>
        <time>2016-11-23T13:12:30Z</time>
      </trkpt>
      <trkpt lat="43.41459" lon="6.07069">
        <ele>197</ele>
        <time>2016-11-23T13:12:36Z</time>
      </trkpt>
      <trkpt lat="43.41459" lon="6.07069">
        <ele>197</ele>
        <time>2016-11-23T13:12:40Z</time>
      </trkpt>
      <trkpt lat="43.41459" lon="6.07069">
        <ele>197</ele>
        <time>2016-11-23T13:12:45Z</time>
      </trkpt>
      <trkpt lat="43.41459" lon="6.0707">
        <ele>197</ele>
        <time>2016-11-23T13:12:50Z</time>
      </trkpt>
      <trkpt lat="43.4146" lon="6.07072">
        <ele>197</ele>
        <time>2016-11-23T13:13:00Z</time>
      </trkpt>
      <trkpt lat="43.4146" lon="6.07073">
        <ele>197</ele>
        <time>2016-11-23T13:13:10Z</time>
      </trkpt>
      <trkpt lat="43.41459" lon="6.07075">
        <ele>197</ele>
        <time>2016-11-23T13:13:14Z</time>
      </trkpt>
      <trkpt lat="43.41457" lon="6.07082">
        <ele>195.19999694824</ele>
        <time>2016-11-23T13:13:17Z</time>
      </trkpt>
      <trkpt lat="43.41453" lon="6.07093">
        <ele>195.60000610352</ele>
        <time>2016-11-23T13:13:20Z</time>
      </trkpt>
      <trkpt lat="43.41441" lon="6.07123">
        <ele>195.19999694824</ele>
        <time>2016-11-23T13:13:27Z</time>
      </trkpt>
      <trkpt lat="43.41434" lon="6.07145">
        <ele>193.80000305176</ele>
        <time>2016-11-23T13:13:32Z</time>
      </trkpt>
      <trkpt lat="43.41428" lon="6.07165">
        <ele>193.60000610352</ele>
        <time>2016-11-23T13:13:36Z</time>
      </trkpt>
      <trkpt lat="43.41422" lon="6.07184">
        <ele>194.60000610352</ele>
        <time>2016-11-23T13:13:39Z</time>
      </trkpt>
      <trkpt lat="43.4142" lon="6.07191">
        <ele>194.80000305176</ele>
        <time>2016-11-23T13:13:40Z</time>
      </trkpt>
      <trkpt lat="43.41415" lon="6.07209">
        <ele>194.60000610352</ele>
        <time>2016-11-23T13:13:43Z</time>
      </trkpt>
      <trkpt lat="43.41402" lon="6.07249">
        <ele>193.80000305176</ele>
        <time>2016-11-23T13:13:50Z</time>
      </trkpt>
      <trkpt lat="43.41386" lon="6.07302">
        <ele>193.80000305176</ele>
        <time>2016-11-23T13:14:00Z</time>
      </trkpt>
      <trkpt lat="43.41385" lon="6.07337">
        <ele>193.60000610352</ele>
        <time>2016-11-23T13:14:07Z</time>
      </trkpt>
      <trkpt lat="43.41392" lon="6.07338">
        <ele>194.39999389648</ele>
        <time>2016-11-23T13:14:09Z</time>
      </trkpt>
      <trkpt lat="43.414" lon="6.07338">
        <ele>195.19999694824</ele>
        <time>2016-11-23T13:14:11Z</time>
      </trkpt>
      <trkpt lat="43.41417" lon="6.07338">
        <ele>195.60000610352</ele>
        <time>2016-11-23T13:14:15Z</time>
      </trkpt>
      <trkpt lat="43.41434" lon="6.07337">
        <ele>196.19999694824</ele>
        <time>2016-11-23T13:14:19Z</time>
      </trkpt>
      <trkpt lat="43.41439" lon="6.07338">
        <ele>196.39999389648</ele>
        <time>2016-11-23T13:14:20Z</time>
      </trkpt>
      <trkpt lat="43.41459" lon="6.07339">
        <ele>196.19999694824</ele>
        <time>2016-11-23T13:14:25Z</time>
      </trkpt>
      <trkpt lat="43.41477" lon="6.07346">
        <ele>195.39999389648</ele>
        <time>2016-11-23T13:14:30Z</time>
      </trkpt>
      <trkpt lat="43.41487" lon="6.07355">
        <ele>194.80000305176</ele>
        <time>2016-11-23T13:14:33Z</time>
      </trkpt>
      <trkpt lat="43.41511" lon="6.07384">
        <ele>195</ele>
        <time>2016-11-23T13:14:40Z</time>
      </trkpt>
      <trkpt lat="43.41539" lon="6.07433">
        <ele>196</ele>
        <time>2016-11-23T13:14:50Z</time>
      </trkpt>
      <trkpt lat="43.41541" lon="6.07437">
        <ele>196.39999389648</ele>
        <time>2016-11-23T13:14:51Z</time>
      </trkpt>
      <trkpt lat="43.41553" lon="6.07447">
        <ele>197</ele>
        <time>2016-11-23T13:14:55Z</time>
      </trkpt>
      <trkpt lat="43.41571" lon="6.07444">
        <ele>197.80000305176</ele>
        <time>2016-11-23T13:15:00Z</time>
      </trkpt>
      <trkpt lat="43.41586" lon="6.07442">
        <ele>198.60000610352</ele>
        <time>2016-11-23T13:15:04Z</time>
      </trkpt>
      <trkpt lat="43.41602" lon="6.07439">
        <ele>199.39999389648</ele>
        <time>2016-11-23T13:15:09Z</time>
      </trkpt>
      <trkpt lat="43.41605" lon="6.07439">
        <ele>199.39999389648</ele>
        <time>2016-11-23T13:15:10Z</time>
      </trkpt>
      <trkpt lat="43.41619" lon="6.07437">
        <ele>199.80000305176</ele>
        <time>2016-11-23T13:15:14Z</time>
      </trkpt>
      <trkpt lat="43.41634" lon="6.07436">
        <ele>199.80000305176</ele>
        <time>2016-11-23T13:15:18Z</time>
      </trkpt>
      <trkpt lat="43.41642" lon="6.07435">
        <ele>199.80000305176</ele>
        <time>2016-11-23T13:15:20Z</time>
      </trkpt>
      <trkpt lat="43.41667" lon="6.07432">
        <ele>201</ele>
        <time>2016-11-23T13:15:27Z</time>
      </trkpt>
      <trkpt lat="43.41681" lon="6.07429">
        <ele>202.19999694824</ele>
        <time>2016-11-23T13:15:31Z</time>
      </trkpt>
      <trkpt lat="43.41709" lon="6.07424">
        <ele>204.80000305176</ele>
        <time>2016-11-23T13:15:40Z</time>
      </trkpt>
      <trkpt lat="43.41718" lon="6.07422">
        <ele>205.39999389648</ele>
        <time>2016-11-23T13:15:43Z</time>
      </trkpt>
      <trkpt lat="43.4173" lon="6.07419">
        <ele>206.80000305176</ele>
        <time>2016-11-23T13:15:48Z</time>
      </trkpt>
      <trkpt lat="43.41736" lon="6.07418">
        <ele>208</ele>
        <time>2016-11-23T13:15:50Z</time>
      </trkpt>
      <trkpt lat="43.41748" lon="6.07415">
        <ele>209</ele>
        <time>2016-11-23T13:15:55Z</time>
      </trkpt>
      <trkpt lat="43.41757" lon="6.07412">
        <ele>210.19999694824</ele>
        <time>2016-11-23T13:16:00Z</time>
      </trkpt>
      <trkpt lat="43.41766" lon="6.07411">
        <ele>211.19999694824</ele>
        <time>2016-11-23T13:16:04Z</time>
      </trkpt>
      <trkpt lat="43.41775" lon="6.0741">
        <ele>212.19999694824</ele>
        <time>2016-11-23T13:16:08Z</time>
      </trkpt>
      <trkpt lat="43.41789" lon="6.07409">
        <ele>213.39999389648</ele>
        <time>2016-11-23T13:16:15Z</time>
      </trkpt>
      <trkpt lat="43.418" lon="6.0741">
        <ele>213.80000305176</ele>
        <time>2016-11-23T13:16:20Z</time>
      </trkpt>
      <trkpt lat="43.41806" lon="6.07414">
        <ele>214.39999389648</ele>
        <time>2016-11-23T13:16:24Z</time>
      </trkpt>
      <trkpt lat="43.41812" lon="6.07424">
        <ele>215.60000610352</ele>
        <time>2016-11-23T13:16:29Z</time>
      </trkpt>
      <trkpt lat="43.41813" lon="6.07427">
        <ele>216</ele>
        <time>2016-11-23T13:16:30Z</time>
      </trkpt>
      <trkpt lat="43.41818" lon="6.07437">
        <ele>216.80000305176</ele>
        <time>2016-11-23T13:16:35Z</time>
      </trkpt>
      <trkpt lat="43.41827" lon="6.07443">
        <ele>217.60000610352</ele>
        <time>2016-11-23T13:16:40Z</time>
      </trkpt>
      <trkpt lat="43.41834" lon="6.07446">
        <ele>217.60000610352</ele>
        <time>2016-11-23T13:16:44Z</time>
      </trkpt>
      <trkpt lat="43.41837" lon="6.07446">
        <ele>217.80000305176</ele>
        <time>2016-11-23T13:16:46Z</time>
      </trkpt>
      <trkpt lat="43.41838" lon="6.07445">
        <ele>217.80000305176</ele>
        <time>2016-11-23T13:16:48Z</time>
      </trkpt>
      <trkpt lat="43.4184" lon="6.07447">
        <ele>217.80000305176</ele>
        <time>2016-11-23T13:16:50Z</time>
      </trkpt>
      <trkpt lat="43.41842" lon="6.07448">
        <ele>218</ele>
        <time>2016-11-23T13:16:51Z</time>
      </trkpt>
      <trkpt lat="43.41843" lon="6.07443">
        <ele>218</ele>
        <time>2016-11-23T13:16:55Z</time>
      </trkpt>
      <trkpt lat="43.4184" lon="6.07443">
        <ele>218.19999694824</ele>
        <time>2016-11-23T13:16:59Z</time>
      </trkpt>
      <trkpt lat="43.4184" lon="6.07443">
        <ele>218.19999694824</ele>
        <time>2016-11-23T13:17:00Z</time>
      </trkpt>
      <trkpt lat="43.41838" lon="6.07443">
        <ele>218.19999694824</ele>
        <time>2016-11-23T13:17:02Z</time>
      </trkpt>
      <trkpt lat="43.41836" lon="6.07441">
        <ele>218.19999694824</ele>
        <time>2016-11-23T13:17:05Z</time>
      </trkpt>
      <trkpt lat="43.41834" lon="6.07443">
        <ele>218.19999694824</ele>
        <time>2016-11-23T13:17:07Z</time>
      </trkpt>
      <trkpt lat="43.41834" lon="6.07446">
        <ele>217.60000610352</ele>
        <time>2016-11-23T13:17:09Z</time>
      </trkpt>
      <trkpt lat="43.41835" lon="6.07447">
        <ele>217.80000305176</ele>
        <time>2016-11-23T13:17:10Z</time>
      </trkpt>
      <trkpt lat="43.4184" lon="6.07448">
        <ele>218</ele>
        <time>2016-11-23T13:17:15Z</time>
      </trkpt>
      <trkpt lat="43.4185" lon="6.07444">
        <ele>217.80000305176</ele>
        <time>2016-11-23T13:17:20Z</time>
      </trkpt>
      <trkpt lat="43.41879" lon="6.07442">
        <ele>218.39999389648</ele>
        <time>2016-11-23T13:17:30Z</time>
      </trkpt>
      <trkpt lat="43.41888" lon="6.07441">
        <ele>218.80000305176</ele>
        <time>2016-11-23T13:17:33Z</time>
      </trkpt>
      <trkpt lat="43.41897" lon="6.0744">
        <ele>219.39999389648</ele>
        <time>2016-11-23T13:17:36Z</time>
      </trkpt>
      <trkpt lat="43.41903" lon="6.0744">
        <ele>220</ele>
        <time>2016-11-23T13:17:38Z</time>
      </trkpt>
      <trkpt lat="43.41914" lon="6.07441">
        <ele>221</ele>
        <time>2016-11-23T13:17:42Z</time>
      </trkpt>
      <trkpt lat="43.41927" lon="6.07441">
        <ele>222</ele>
        <time>2016-11-23T13:17:47Z</time>
      </trkpt>
      <trkpt lat="43.41935" lon="6.07441">
        <ele>223</ele>
        <time>2016-11-23T13:17:50Z</time>
      </trkpt>
      <trkpt lat="43.41937" lon="6.07441">
        <ele>223.19999694824</ele>
        <time>2016-11-23T13:17:51Z</time>
      </trkpt>
      <trkpt lat="43.41948" lon="6.07438">
        <ele>224.19999694824</ele>
        <time>2016-11-23T13:17:55Z</time>
      </trkpt>
      <trkpt lat="43.41961" lon="6.07433">
        <ele>225</ele>
        <time>2016-11-23T13:18:00Z</time>
      </trkpt>
      <trkpt lat="43.41965" lon="6.07432">
        <ele>225.39999389648</ele>
        <time>2016-11-23T13:18:02Z</time>
      </trkpt>
      <trkpt lat="43.41982" lon="6.07431">
        <ele>226.39999389648</ele>
        <time>2016-11-23T13:18:08Z</time>
      </trkpt>
      <trkpt lat="43.41987" lon="6.0743">
        <ele>226.80000305176</ele>
        <time>2016-11-23T13:18:10Z</time>
      </trkpt>
      <trkpt lat="43.41998" lon="6.07432">
        <ele>227.39999389648</ele>
        <time>2016-11-23T13:18:16Z</time>
      </trkpt>
      <trkpt lat="43.42001" lon="6.07436">
        <ele>227.60000610352</ele>
        <time>2016-11-23T13:18:19Z</time>
      </trkpt>
      <trkpt lat="43.42001" lon="6.07438">
        <ele>227.60000610352</ele>
        <time>2016-11-23T13:18:20Z</time>
      </trkpt>
      <trkpt lat="43.42001" lon="6.07439">
        <ele>227.80000305176</ele>
        <time>2016-11-23T13:18:21Z</time>
      </trkpt>
      <trkpt lat="43.42002" lon="6.07445">
        <ele>227.80000305176</ele>
        <time>2016-11-23T13:18:24Z</time>
      </trkpt>
      <trkpt lat="43.42005" lon="6.07461">
        <ele>227.80000305176</ele>
        <time>2016-11-23T13:18:30Z</time>
      </trkpt>
      <trkpt lat="43.4202" lon="6.07499">
        <ele>227.80000305176</ele>
        <time>2016-11-23T13:18:40Z</time>
      </trkpt>
      <trkpt lat="43.42047" lon="6.07502">
        <ele>228.19999694824</ele>
        <time>2016-11-23T13:18:48Z</time>
      </trkpt>
      <trkpt lat="43.42055" lon="6.07502">
        <ele>228.19999694824</ele>
        <time>2016-11-23T13:18:50Z</time>
      </trkpt>
      <trkpt lat="43.42067" lon="6.07502">
        <ele>228</ele>
        <time>2016-11-23T13:18:54Z</time>
      </trkpt>
      <trkpt lat="43.42086" lon="6.07501">
        <ele>228</ele>
        <time>2016-11-23T13:19:00Z</time>
      </trkpt>
      <trkpt lat="43.42093" lon="6.075">
        <ele>228</ele>
        <time>2016-11-23T13:19:02Z</time>
      </trkpt>
      <trkpt lat="43.42099" lon="6.075">
        <ele>227.60000610352</ele>
        <time>2016-11-23T13:19:04Z</time>
      </trkpt>
      <trkpt lat="43.42105" lon="6.07498">
        <ele>227.39999389648</ele>
        <time>2016-11-23T13:19:06Z</time>
      </trkpt>
      <trkpt lat="43.42112" lon="6.07497">
        <ele>227.19999694824</ele>
        <time>2016-11-23T13:19:08Z</time>
      </trkpt>
      <trkpt lat="43.42116" lon="6.07496">
        <ele>227</ele>
        <time>2016-11-23T13:19:09Z</time>
      </trkpt>
      <trkpt lat="43.42124" lon="6.07491">
        <ele>226.60000610352</ele>
        <time>2016-11-23T13:19:11Z</time>
      </trkpt>
      <trkpt lat="43.42127" lon="6.07485">
        <ele>226.39999389648</ele>
        <time>2016-11-23T13:19:12Z</time>
      </trkpt>
      <trkpt lat="43.42129" lon="6.07479">
        <ele>226</ele>
        <time>2016-11-23T13:19:13Z</time>
      </trkpt>
      <trkpt lat="43.42133" lon="6.07463">
        <ele>225</ele>
        <time>2016-11-23T13:19:15Z</time>
      </trkpt>
      <trkpt lat="43.42138" lon="6.07437">
        <ele>224</ele>
        <time>2016-11-23T13:19:18Z</time>
      </trkpt>
      <trkpt lat="43.4214" lon="6.07428">
        <ele>223.80000305176</ele>
        <time>2016-11-23T13:19:19Z</time>
      </trkpt>
      <trkpt lat="43.42142" lon="6.0742">
        <ele>223.39999389648</ele>
        <time>2016-11-23T13:19:20Z</time>
      </trkpt>
      <trkpt lat="43.42149" lon="6.07365">
        <ele>222.39999389648</ele>
        <time>2016-11-23T13:19:27Z</time>
      </trkpt>
      <trkpt lat="43.42152" lon="6.07344">
        <ele>222.19999694824</ele>
        <time>2016-11-23T13:19:30Z</time>
      </trkpt>
      <trkpt lat="43.42153" lon="6.07336">
        <ele>222.39999389648</ele>
        <time>2016-11-23T13:19:31Z</time>
      </trkpt>
      <trkpt lat="43.42155" lon="6.0732">
        <ele>222.39999389648</ele>
        <time>2016-11-23T13:19:33Z</time>
      </trkpt>
      <trkpt lat="43.42159" lon="6.07296">
        <ele>222.19999694824</ele>
        <time>2016-11-23T13:19:36Z</time>
      </trkpt>
      <trkpt lat="43.42161" lon="6.07281">
        <ele>222.39999389648</ele>
        <time>2016-11-23T13:19:38Z</time>
      </trkpt>
      <trkpt lat="43.42164" lon="6.07267">
        <ele>222.80000305176</ele>
        <time>2016-11-23T13:19:40Z</time>
      </trkpt>
      <trkpt lat="43.42167" lon="6.07253">
        <ele>223.39999389648</ele>
        <time>2016-11-23T13:19:42Z</time>
      </trkpt>
      <trkpt lat="43.42168" lon="6.07246">
        <ele>223.80000305176</ele>
        <time>2016-11-23T13:19:43Z</time>
      </trkpt>
      <trkpt lat="43.42171" lon="6.07233">
        <ele>224.19999694824</ele>
        <time>2016-11-23T13:19:45Z</time>
      </trkpt>
      <trkpt lat="43.42176" lon="6.07205">
        <ele>224.80000305176</ele>
        <time>2016-11-23T13:19:50Z</time>
      </trkpt>
      <trkpt lat="43.42176" lon="6.07199">
        <ele>225</ele>
        <time>2016-11-23T13:19:51Z</time>
      </trkpt>
      <trkpt lat="43.42179" lon="6.07162">
        <ele>224.19999694824</ele>
        <time>2016-11-23T13:19:56Z</time>
      </trkpt>
      <trkpt lat="43.42179" lon="6.07154">
        <ele>223.60000610352</ele>
        <time>2016-11-23T13:19:57Z</time>
      </trkpt>
      <trkpt lat="43.42175" lon="6.07136">
        <ele>222.39999389648</ele>
        <time>2016-11-23T13:19:59Z</time>
      </trkpt>
      <trkpt lat="43.42173" lon="6.07128">
        <ele>222</ele>
        <time>2016-11-23T13:20:00Z</time>
      </trkpt>
      <trkpt lat="43.42168" lon="6.07103">
        <ele>221.60000610352</ele>
        <time>2016-11-23T13:20:03Z</time>
      </trkpt>
      <trkpt lat="43.42165" lon="6.07088">
        <ele>221.39999389648</ele>
        <time>2016-11-23T13:20:05Z</time>
      </trkpt>
      <trkpt lat="43.42163" lon="6.07082">
        <ele>221.39999389648</ele>
        <time>2016-11-23T13:20:06Z</time>
      </trkpt>
      <trkpt lat="43.4216" lon="6.07074">
        <ele>222</ele>
        <time>2016-11-23T13:20:08Z</time>
      </trkpt>
      <trkpt lat="43.42162" lon="6.07067">
        <ele>222.60000610352</ele>
        <time>2016-11-23T13:20:10Z</time>
      </trkpt>
      <trkpt lat="43.4217" lon="6.07063">
        <ele>223</ele>
        <time>2016-11-23T13:20:13Z</time>
      </trkpt>
      <trkpt lat="43.42182" lon="6.07064">
        <ele>223.39999389648</ele>
        <time>2016-11-23T13:20:17Z</time>
      </trkpt>
      <trkpt lat="43.42192" lon="6.07065">
        <ele>223.80000305176</ele>
        <time>2016-11-23T13:20:20Z</time>
      </trkpt>
      <trkpt lat="43.42214" lon="6.07073">
        <ele>224</ele>
        <time>2016-11-23T13:20:26Z</time>
      </trkpt>
      <trkpt lat="43.42225" lon="6.07077">
        <ele>224.60000610352</ele>
        <time>2016-11-23T13:20:30Z</time>
      </trkpt>
      <trkpt lat="43.4224" lon="6.07086">
        <ele>224.60000610352</ele>
        <time>2016-11-23T13:20:34Z</time>
      </trkpt>
      <trkpt lat="43.42242" lon="6.07091">
        <ele>224.60000610352</ele>
        <time>2016-11-23T13:20:35Z</time>
      </trkpt>
      <trkpt lat="43.42241" lon="6.07122">
        <ele>224</ele>
        <time>2016-11-23T13:20:40Z</time>
      </trkpt>
      <trkpt lat="43.42237" lon="6.07147">
        <ele>223.60000610352</ele>
        <time>2016-11-23T13:20:44Z</time>
      </trkpt>
      <trkpt lat="43.42232" lon="6.07182">
        <ele>223.19999694824</ele>
        <time>2016-11-23T13:20:50Z</time>
      </trkpt>
      <trkpt lat="43.42225" lon="6.07231">
        <ele>223.60000610352</ele>
        <time>2016-11-23T13:20:59Z</time>
      </trkpt>
      <trkpt lat="43.42224" lon="6.07237">
        <ele>223.60000610352</ele>
        <time>2016-11-23T13:21:00Z</time>
      </trkpt>
      <trkpt lat="43.42218" lon="6.07283">
        <ele>223.80000305176</ele>
        <time>2016-11-23T13:21:07Z</time>
      </trkpt>
      <trkpt lat="43.42214" lon="6.07304">
        <ele>223.80000305176</ele>
        <time>2016-11-23T13:21:10Z</time>
      </trkpt>
      <trkpt lat="43.42205" lon="6.07369">
        <ele>223.60000610352</ele>
        <time>2016-11-23T13:21:20Z</time>
      </trkpt>
      <trkpt lat="43.42198" lon="6.0743">
        <ele>223.80000305176</ele>
        <time>2016-11-23T13:21:30Z</time>
      </trkpt>
      <trkpt lat="43.42187" lon="6.07484">
        <ele>224.39999389648</ele>
        <time>2016-11-23T13:21:40Z</time>
      </trkpt>
      <trkpt lat="43.42182" lon="6.0751">
        <ele>224.60000610352</ele>
        <time>2016-11-23T13:21:45Z</time>
      </trkpt>
      <trkpt lat="43.42177" lon="6.07534">
        <ele>225</ele>
        <time>2016-11-23T13:21:50Z</time>
      </trkpt>
      <trkpt lat="43.42174" lon="6.07559">
        <ele>225.80000305176</ele>
        <time>2016-11-23T13:21:55Z</time>
      </trkpt>
      <trkpt lat="43.4217" lon="6.07585">
        <ele>225.60000610352</ele>
        <time>2016-11-23T13:22:00Z</time>
      </trkpt>
      <trkpt lat="43.42165" lon="6.07605">
        <ele>225.39999389648</ele>
        <time>2016-11-23T13:22:04Z</time>
      </trkpt>
      <trkpt lat="43.42157" lon="6.07633">
        <ele>226.39999389648</ele>
        <time>2016-11-23T13:22:10Z</time>
      </trkpt>
      <trkpt lat="43.42154" lon="6.07642">
        <ele>226.80000305176</ele>
        <time>2016-11-23T13:22:12Z</time>
      </trkpt>
      <trkpt lat="43.42146" lon="6.07668">
        <ele>228</ele>
        <time>2016-11-23T13:22:18Z</time>
      </trkpt>
      <trkpt lat="43.42144" lon="6.07676">
        <ele>228.60000610352</ele>
        <time>2016-11-23T13:22:20Z</time>
      </trkpt>
      <trkpt lat="43.42138" lon="6.07693">
        <ele>229.19999694824</ele>
        <time>2016-11-23T13:22:24Z</time>
      </trkpt>
      <trkpt lat="43.42133" lon="6.07709">
        <ele>230.19999694824</ele>
        <time>2016-11-23T13:22:28Z</time>
      </trkpt>
      <trkpt lat="43.42131" lon="6.07716">
        <ele>230.80000305176</ele>
        <time>2016-11-23T13:22:30Z</time>
      </trkpt>
      <trkpt lat="43.42128" lon="6.07727">
        <ele>231.39999389648</ele>
        <time>2016-11-23T13:22:33Z</time>
      </trkpt>
      <trkpt lat="43.42125" lon="6.07737">
        <ele>232.80000305176</ele>
        <time>2016-11-23T13:22:36Z</time>
      </trkpt>
      <trkpt lat="43.42121" lon="6.0775">
        <ele>234.19999694824</ele>
        <time>2016-11-23T13:22:40Z</time>
      </trkpt>
      <trkpt lat="43.42118" lon="6.0776">
        <ele>234.80000305176</ele>
        <time>2016-11-23T13:22:43Z</time>
      </trkpt>
      <trkpt lat="43.42116" lon="6.0777">
        <ele>235</ele>
        <time>2016-11-23T13:22:46Z</time>
      </trkpt>
      <trkpt lat="43.42112" lon="6.07784">
        <ele>235.19999694824</ele>
        <time>2016-11-23T13:22:50Z</time>
      </trkpt>
      <trkpt lat="43.42106" lon="6.07804">
        <ele>236</ele>
        <time>2016-11-23T13:22:56Z</time>
      </trkpt>
      <trkpt lat="43.42103" lon="6.07816">
        <ele>236.80000305176</ele>
        <time>2016-11-23T13:23:00Z</time>
      </trkpt>
      <trkpt lat="43.42102" lon="6.07819">
        <ele>237</ele>
        <time>2016-11-23T13:23:01Z</time>
      </trkpt>
      <trkpt lat="43.42097" lon="6.07842">
        <ele>238.19999694824</ele>
        <time>2016-11-23T13:23:09Z</time>
      </trkpt>
      <trkpt lat="43.42097" lon="6.07844">
        <ele>238.39999389648</ele>
        <time>2016-11-23T13:23:10Z</time>
      </trkpt>
      <trkpt lat="43.42094" lon="6.07857">
        <ele>238.80000305176</ele>
        <time>2016-11-23T13:23:18Z</time>
      </trkpt>
      <trkpt lat="43.42094" lon="6.07858">
        <ele>239.19999694824</ele>
        <time>2016-11-23T13:23:20Z</time>
      </trkpt>
      <trkpt lat="43.42094" lon="6.07858">
        <ele>239.39999389648</ele>
        <time>2016-11-23T13:23:21Z</time>
      </trkpt>
      <trkpt lat="43.42093" lon="6.07858">
        <ele>239.39999389648</ele>
        <time>2016-11-23T13:23:24Z</time>
      </trkpt>
      <trkpt lat="43.42093" lon="6.07858">
        <ele>239.39999389648</ele>
        <time>2016-11-23T13:23:27Z</time>
      </trkpt>
      <trkpt lat="43.42093" lon="6.07858">
        <ele>239.60000610352</ele>
        <time>2016-11-23T13:23:33Z</time>
      </trkpt>
      <trkpt lat="43.42093" lon="6.07858">
        <ele>239.39999389648</ele>
        <time>2016-11-23T13:23:47Z</time>
      </trkpt>
      <trkpt lat="43.42093" lon="6.07858">
        <ele>240</ele>
        <time>2016-11-23T13:23:56Z</time>
      </trkpt>
      <trkpt lat="43.42093" lon="6.07858">
        <ele>239.39999389648</ele>
        <time>2016-11-23T13:24:10Z</time>
      </trkpt>
      <trkpt lat="43.42093" lon="6.07862">
        <ele>239.19999694824</ele>
        <time>2016-11-23T13:24:14Z</time>
      </trkpt>
      <trkpt lat="43.42094" lon="6.07866">
        <ele>239.19999694824</ele>
        <time>2016-11-23T13:24:16Z</time>
      </trkpt>
      <trkpt lat="43.42097" lon="6.07878">
        <ele>239.60000610352</ele>
        <time>2016-11-23T13:24:20Z</time>
      </trkpt>
      <trkpt lat="43.42104" lon="6.07889">
        <ele>239.19999694824</ele>
        <time>2016-11-23T13:24:23Z</time>
      </trkpt>
      <trkpt lat="43.42115" lon="6.07891">
        <ele>237.80000305176</ele>
        <time>2016-11-23T13:24:25Z</time>
      </trkpt>
      <trkpt lat="43.42127" lon="6.07889">
        <ele>236.19999694824</ele>
        <time>2016-11-23T13:24:27Z</time>
      </trkpt>
      <trkpt lat="43.42141" lon="6.07887">
        <ele>234.39999389648</ele>
        <time>2016-11-23T13:24:29Z</time>
      </trkpt>
      <trkpt lat="43.42149" lon="6.07886">
        <ele>233.60000610352</ele>
        <time>2016-11-23T13:24:30Z</time>
      </trkpt>
      <trkpt lat="43.42157" lon="6.07884">
        <ele>233</ele>
        <time>2016-11-23T13:24:31Z</time>
      </trkpt>
      <trkpt lat="43.42174" lon="6.07882">
        <ele>231.19999694824</ele>
        <time>2016-11-23T13:24:33Z</time>
      </trkpt>
      <trkpt lat="43.42183" lon="6.07882">
        <ele>230.60000610352</ele>
        <time>2016-11-23T13:24:34Z</time>
      </trkpt>
      <trkpt lat="43.42191" lon="6.07882">
        <ele>230</ele>
        <time>2016-11-23T13:24:35Z</time>
      </trkpt>
      <trkpt lat="43.42215" lon="6.07888">
        <ele>229.39999389648</ele>
        <time>2016-11-23T13:24:39Z</time>
      </trkpt>
      <trkpt lat="43.42219" lon="6.0789">
        <ele>229.39999389648</ele>
        <time>2016-11-23T13:24:40Z</time>
      </trkpt>
      <trkpt lat="43.42228" lon="6.07894">
        <ele>230</ele>
        <time>2016-11-23T13:24:42Z</time>
      </trkpt>
      <trkpt lat="43.42234" lon="6.07899">
        <ele>230.80000305176</ele>
        <time>2016-11-23T13:24:44Z</time>
      </trkpt>
      <trkpt lat="43.42236" lon="6.07903">
        <ele>231.19999694824</ele>
        <time>2016-11-23T13:24:45Z</time>
      </trkpt>
      <trkpt lat="43.42237" lon="6.07906">
        <ele>231.60000610352</ele>
        <time>2016-11-23T13:24:46Z</time>
      </trkpt>
      <trkpt lat="43.42241" lon="6.07921">
        <ele>232.19999694824</ele>
        <time>2016-11-23T13:24:49Z</time>
      </trkpt>
      <trkpt lat="43.42242" lon="6.07926">
        <ele>232.39999389648</ele>
        <time>2016-11-23T13:24:50Z</time>
      </trkpt>
      <trkpt lat="43.42249" lon="6.07948">
        <ele>233.60000610352</ele>
        <time>2016-11-23T13:24:54Z</time>
      </trkpt>
      <trkpt lat="43.42253" lon="6.07962">
        <ele>233.80000305176</ele>
        <time>2016-11-23T13:24:56Z</time>
      </trkpt>
      <trkpt lat="43.4226" lon="6.07973">
        <ele>233.39999389648</ele>
        <time>2016-11-23T13:24:58Z</time>
      </trkpt>
      <trkpt lat="43.42269" lon="6.07973">
        <ele>232.80000305176</ele>
        <time>2016-11-23T13:25:00Z</time>
      </trkpt>
      <trkpt lat="43.42286" lon="6.07969">
        <ele>233.39999389648</ele>
        <time>2016-11-23T13:25:05Z</time>
      </trkpt>
      <trkpt lat="43.42299" lon="6.07979">
        <ele>233</ele>
        <time>2016-11-23T13:25:10Z</time>
      </trkpt>
      <trkpt lat="43.42306" lon="6.07988">
        <ele>232.80000305176</ele>
        <time>2016-11-23T13:25:12Z</time>
      </trkpt>
      <trkpt lat="43.4231" lon="6.07992">
        <ele>232.60000610352</ele>
        <time>2016-11-23T13:25:13Z</time>
      </trkpt>
      <trkpt lat="43.42321" lon="6.08004">
        <ele>233.19999694824</ele>
        <time>2016-11-23T13:25:17Z</time>
      </trkpt>
      <trkpt lat="43.42328" lon="6.08007">
        <ele>234.80000305176</ele>
        <time>2016-11-23T13:25:20Z</time>
      </trkpt>
      <trkpt lat="43.42331" lon="6.08007">
        <ele>235.19999694824</ele>
        <time>2016-11-23T13:25:21Z</time>
      </trkpt>
      <trkpt lat="43.42339" lon="6.07997">
        <ele>235.60000610352</ele>
        <time>2016-11-23T13:25:26Z</time>
      </trkpt>
      <trkpt lat="43.42341" lon="6.07993">
        <ele>236.39999389648</ele>
        <time>2016-11-23T13:25:28Z</time>
      </trkpt>
      <trkpt lat="43.42342" lon="6.07988">
        <ele>237.19999694824</ele>
        <time>2016-11-23T13:25:30Z</time>
      </trkpt>
      <trkpt lat="43.42343" lon="6.07986">
        <ele>237.80000305176</ele>
        <time>2016-11-23T13:25:31Z</time>
      </trkpt>
      <trkpt lat="43.42347" lon="6.07979">
        <ele>238.60000610352</ele>
        <time>2016-11-23T13:25:35Z</time>
      </trkpt>
      <trkpt lat="43.42352" lon="6.07972">
        <ele>238.60000610352</ele>
        <time>2016-11-23T13:25:38Z</time>
      </trkpt>
      <trkpt lat="43.42356" lon="6.07968">
        <ele>238.80000305176</ele>
        <time>2016-11-23T13:25:40Z</time>
      </trkpt>
      <trkpt lat="43.42377" lon="6.07941">
        <ele>239.39999389648</ele>
        <time>2016-11-23T13:25:50Z</time>
      </trkpt>
      <trkpt lat="43.424" lon="6.07919">
        <ele>239.60000610352</ele>
        <time>2016-11-23T13:25:59Z</time>
      </trkpt>
      <trkpt lat="43.42403" lon="6.07918">
        <ele>239.39999389648</ele>
        <time>2016-11-23T13:26:00Z</time>
      </trkpt>
      <trkpt lat="43.42426" lon="6.07916">
        <ele>239.39999389648</ele>
        <time>2016-11-23T13:26:08Z</time>
      </trkpt>
      <trkpt lat="43.42432" lon="6.07916">
        <ele>239.39999389648</ele>
        <time>2016-11-23T13:26:10Z</time>
      </trkpt>
      <trkpt lat="43.4245" lon="6.0792">
        <ele>239.60000610352</ele>
        <time>2016-11-23T13:26:16Z</time>
      </trkpt>
      <trkpt lat="43.4246" lon="6.07917">
        <ele>239.60000610352</ele>
        <time>2016-11-23T13:26:20Z</time>
      </trkpt>
      <trkpt lat="43.42464" lon="6.07914">
        <ele>239.80000305176</ele>
        <time>2016-11-23T13:26:22Z</time>
      </trkpt>
      <trkpt lat="43.42473" lon="6.07907">
        <ele>240.39999389648</ele>
        <time>2016-11-23T13:26:29Z</time>
      </trkpt>
      <trkpt lat="43.42473" lon="6.07907">
        <ele>240.39999389648</ele>
        <time>2016-11-23T13:26:30Z</time>
      </trkpt>
      <trkpt lat="43.42473" lon="6.07907">
        <ele>240.39999389648</ele>
        <time>2016-11-23T13:26:32Z</time>
      </trkpt>
      <trkpt lat="43.42473" lon="6.07907">
        <ele>240.39999389648</ele>
        <time>2016-11-23T13:26:36Z</time>
      </trkpt>
      <trkpt lat="43.42473" lon="6.07907">
        <ele>240.80000305176</ele>
        <time>2016-11-23T13:26:40Z</time>
      </trkpt>
      <trkpt lat="43.42473" lon="6.07907">
        <ele>240.80000305176</ele>
        <time>2016-11-23T13:26:42Z</time>
      </trkpt>
      <trkpt lat="43.42473" lon="6.07907">
        <ele>240.80000305176</ele>
        <time>2016-11-23T13:26:44Z</time>
      </trkpt>
      <trkpt lat="43.42474" lon="6.07908">
        <ele>240.39999389648</ele>
        <time>2016-11-23T13:26:56Z</time>
      </trkpt>
      <trkpt lat="43.42474" lon="6.07909">
        <ele>240.60000610352</ele>
        <time>2016-11-23T13:27:00Z</time>
      </trkpt>
      <trkpt lat="43.42476" lon="6.0791">
        <ele>240.60000610352</ele>
        <time>2016-11-23T13:27:02Z</time>
      </trkpt>
      <trkpt lat="43.42476" lon="6.0791">
        <ele>241</ele>
        <time>2016-11-23T13:27:06Z</time>
      </trkpt>
      <trkpt lat="43.42475" lon="6.0791">
        <ele>240.80000305176</ele>
        <time>2016-11-23T13:27:13Z</time>
      </trkpt>
      <trkpt lat="43.42476" lon="6.07911">
        <ele>240.60000610352</ele>
        <time>2016-11-23T13:27:20Z</time>
      </trkpt>
      <trkpt lat="43.42476" lon="6.07911">
        <ele>240.80000305176</ele>
        <time>2016-11-23T13:27:30Z</time>
      </trkpt>
      <trkpt lat="43.42476" lon="6.07912">
        <ele>240.80000305176</ele>
        <time>2016-11-23T13:27:33Z</time>
      </trkpt>
      <trkpt lat="43.42475" lon="6.07912">
        <ele>240.60000610352</ele>
        <time>2016-11-23T13:27:40Z</time>
      </trkpt>
      <trkpt lat="43.42473" lon="6.07912">
        <ele>240.60000610352</ele>
        <time>2016-11-23T13:27:44Z</time>
      </trkpt>
      <trkpt lat="43.42472" lon="6.07913">
        <ele>240.60000610352</ele>
        <time>2016-11-23T13:27:47Z</time>
      </trkpt>
      <trkpt lat="43.42472" lon="6.07913">
        <ele>240.60000610352</ele>
        <time>2016-11-23T13:27:50Z</time>
      </trkpt>
      <trkpt lat="43.42471" lon="6.07914">
        <ele>240.60000610352</ele>
        <time>2016-11-23T13:27:57Z</time>
      </trkpt>
      <trkpt lat="43.42471" lon="6.07915">
        <ele>240.60000610352</ele>
        <time>2016-11-23T13:28:00Z</time>
      </trkpt>
      <trkpt lat="43.42471" lon="6.07914">
        <ele>240.60000610352</ele>
        <time>2016-11-23T13:28:13Z</time>
      </trkpt>
      <trkpt lat="43.42471" lon="6.07916">
        <ele>240.60000610352</ele>
        <time>2016-11-23T13:28:23Z</time>
      </trkpt>
      <trkpt lat="43.42471" lon="6.07915">
        <ele>240.60000610352</ele>
        <time>2016-11-23T13:28:30Z</time>
      </trkpt>
      <trkpt lat="43.42471" lon="6.07914">
        <ele>240.60000610352</ele>
        <time>2016-11-23T13:28:33Z</time>
      </trkpt>
      <trkpt lat="43.42471" lon="6.07914">
        <ele>240.60000610352</ele>
        <time>2016-11-23T13:28:37Z</time>
      </trkpt>
      <trkpt lat="43.42472" lon="6.07915">
        <ele>240.60000610352</ele>
        <time>2016-11-23T13:28:40Z</time>
      </trkpt>
      <trkpt lat="43.42472" lon="6.07914">
        <ele>240.60000610352</ele>
        <time>2016-11-23T13:28:50Z</time>
      </trkpt>
      <trkpt lat="43.42473" lon="6.07914">
        <ele>240.60000610352</ele>
        <time>2016-11-23T13:29:00Z</time>
      </trkpt>
      <trkpt lat="43.42473" lon="6.07914">
        <ele>240.60000610352</ele>
        <time>2016-11-23T13:29:10Z</time>
      </trkpt>
      <trkpt lat="43.42474" lon="6.07916">
        <ele>240.60000610352</ele>
        <time>2016-11-23T13:29:20Z</time>
      </trkpt>
      <trkpt lat="43.42472" lon="6.07917">
        <ele>240.60000610352</ele>
        <time>2016-11-23T13:29:30Z</time>
      </trkpt>
      <trkpt lat="43.42471" lon="6.07916">
        <ele>240.60000610352</ele>
        <time>2016-11-23T13:29:40Z</time>
      </trkpt>
      <trkpt lat="43.42471" lon="6.07915">
        <ele>240.60000610352</ele>
        <time>2016-11-23T13:29:50Z</time>
      </trkpt>
      <trkpt lat="43.42471" lon="6.07912">
        <ele>240.60000610352</ele>
        <time>2016-11-23T13:30:00Z</time>
      </trkpt>
      <trkpt lat="43.42471" lon="6.07911">
        <ele>240.60000610352</ele>
        <time>2016-11-23T13:30:07Z</time>
      </trkpt>
      <trkpt lat="43.42473" lon="6.07913">
        <ele>240.60000610352</ele>
        <time>2016-11-23T13:30:20Z</time>
      </trkpt>
      <trkpt lat="43.42474" lon="6.07913">
        <ele>240.60000610352</ele>
        <time>2016-11-23T13:30:30Z</time>
      </trkpt>
      <trkpt lat="43.42474" lon="6.07914">
        <ele>240.60000610352</ele>
        <time>2016-11-23T13:30:40Z</time>
      </trkpt>
      <trkpt lat="43.42474" lon="6.07914">
        <ele>240.60000610352</ele>
        <time>2016-11-23T13:30:48Z</time>
      </trkpt>
      <trkpt lat="43.42474" lon="6.07914">
        <ele>240.60000610352</ele>
        <time>2016-11-23T13:30:50Z</time>
      </trkpt>
      <trkpt lat="43.42474" lon="6.07915">
        <ele>240.60000610352</ele>
        <time>2016-11-23T13:30:56Z</time>
      </trkpt>
      <trkpt lat="43.42474" lon="6.07914">
        <ele>240.60000610352</ele>
        <time>2016-11-23T13:31:00Z</time>
      </trkpt>
      <trkpt lat="43.42474" lon="6.07913">
        <ele>240.60000610352</ele>
        <time>2016-11-23T13:31:10Z</time>
      </trkpt>
      <trkpt lat="43.42474" lon="6.07914">
        <ele>240.60000610352</ele>
        <time>2016-11-23T13:31:17Z</time>
      </trkpt>
      <trkpt lat="43.42474" lon="6.07914">
        <ele>240.60000610352</ele>
        <time>2016-11-23T13:31:20Z</time>
      </trkpt>
      <trkpt lat="43.42474" lon="6.07917">
        <ele>240.60000610352</ele>
        <time>2016-11-23T13:31:30Z</time>
      </trkpt>
      <trkpt lat="43.42474" lon="6.07917">
        <ele>240.60000610352</ele>
        <time>2016-11-23T13:31:40Z</time>
      </trkpt>
      <trkpt lat="43.42473" lon="6.07916">
        <ele>240.60000610352</ele>
        <time>2016-11-23T13:31:49Z</time>
      </trkpt>
      <trkpt lat="43.42473" lon="6.07916">
        <ele>240.60000610352</ele>
        <time>2016-11-23T13:31:50Z</time>
      </trkpt>
      <trkpt lat="43.42472" lon="6.07915">
        <ele>240.60000610352</ele>
        <time>2016-11-23T13:32:10Z</time>
      </trkpt>
      <trkpt lat="43.42473" lon="6.07916">
        <ele>240.60000610352</ele>
        <time>2016-11-23T13:32:14Z</time>
      </trkpt>
      <trkpt lat="43.42472" lon="6.07915">
        <ele>240.60000610352</ele>
        <time>2016-11-23T13:32:20Z</time>
      </trkpt>
      <trkpt lat="43.42471" lon="6.07915">
        <ele>240.60000610352</ele>
        <time>2016-11-23T13:32:30Z</time>
      </trkpt>
      <trkpt lat="43.4247" lon="6.07916">
        <ele>240.60000610352</ele>
        <time>2016-11-23T13:32:40Z</time>
      </trkpt>
      <trkpt lat="43.4247" lon="6.07917">
        <ele>240.60000610352</ele>
        <time>2016-11-23T13:32:50Z</time>
      </trkpt>
      <trkpt lat="43.4247" lon="6.07916">
        <ele>240.60000610352</ele>
        <time>2016-11-23T13:33:00Z</time>
      </trkpt>
      <trkpt lat="43.4247" lon="6.07916">
        <ele>240.60000610352</ele>
        <time>2016-11-23T13:33:10Z</time>
      </trkpt>
      <trkpt lat="43.42469" lon="6.07916">
        <ele>240.60000610352</ele>
        <time>2016-11-23T13:33:20Z</time>
      </trkpt>
      <trkpt lat="43.42471" lon="6.07915">
        <ele>240.60000610352</ele>
        <time>2016-11-23T13:33:29Z</time>
      </trkpt>
      <trkpt lat="43.42471" lon="6.07915">
        <ele>240.60000610352</ele>
        <time>2016-11-23T13:33:30Z</time>
      </trkpt>
      <trkpt lat="43.42472" lon="6.07915">
        <ele>240.60000610352</ele>
        <time>2016-11-23T13:33:40Z</time>
      </trkpt>
      <trkpt lat="43.42473" lon="6.07915">
        <ele>240.60000610352</ele>
        <time>2016-11-23T13:33:50Z</time>
      </trkpt>
      <trkpt lat="43.42472" lon="6.07915">
        <ele>240.60000610352</ele>
        <time>2016-11-23T13:34:00Z</time>
      </trkpt>
      <trkpt lat="43.42472" lon="6.07914">
        <ele>240.60000610352</ele>
        <time>2016-11-23T13:34:04Z</time>
      </trkpt>
      <trkpt lat="43.42472" lon="6.07913">
        <ele>240.60000610352</ele>
        <time>2016-11-23T13:34:06Z</time>
      </trkpt>
      <trkpt lat="43.42472" lon="6.07911">
        <ele>240.60000610352</ele>
        <time>2016-11-23T13:34:10Z</time>
      </trkpt>
      <trkpt lat="43.42473" lon="6.07912">
        <ele>240.60000610352</ele>
        <time>2016-11-23T13:34:11Z</time>
      </trkpt>
      <trkpt lat="43.42475" lon="6.07911">
        <ele>240.60000610352</ele>
        <time>2016-11-23T13:34:17Z</time>
      </trkpt>
      <trkpt lat="43.42477" lon="6.07906">
        <ele>240.80000305176</ele>
        <time>2016-11-23T13:34:20Z</time>
      </trkpt>
      <trkpt lat="43.42478" lon="6.07903">
        <ele>241.19999694824</ele>
        <time>2016-11-23T13:34:21Z</time>
      </trkpt>
      <trkpt lat="43.4248" lon="6.079">
        <ele>242.39999389648</ele>
        <time>2016-11-23T13:34:23Z</time>
      </trkpt>
      <trkpt lat="43.4248" lon="6.07899">
        <ele>242.60000610352</ele>
        <time>2016-11-23T13:34:24Z</time>
      </trkpt>
      <trkpt lat="43.42484" lon="6.07897">
        <ele>242.80000305176</ele>
        <time>2016-11-23T13:34:27Z</time>
      </trkpt>
      <trkpt lat="43.42486" lon="6.07896">
        <ele>243</ele>
        <time>2016-11-23T13:34:29Z</time>
      </trkpt>
      <trkpt lat="43.42487" lon="6.07895">
        <ele>243.19999694824</ele>
        <time>2016-11-23T13:34:30Z</time>
      </trkpt>
      <trkpt lat="43.42494" lon="6.07892">
        <ele>243.39999389648</ele>
        <time>2016-11-23T13:34:35Z</time>
      </trkpt>
      <trkpt lat="43.42501" lon="6.07889">
        <ele>244</ele>
        <time>2016-11-23T13:34:40Z</time>
      </trkpt>
      <trkpt lat="43.42505" lon="6.07888">
        <ele>244.39999389648</ele>
        <time>2016-11-23T13:34:42Z</time>
      </trkpt>
      <trkpt lat="43.42513" lon="6.07885">
        <ele>245.39999389648</ele>
        <time>2016-11-23T13:34:49Z</time>
      </trkpt>
      <trkpt lat="43.42518" lon="6.07884">
        <ele>245.60000610352</ele>
        <time>2016-11-23T13:34:53Z</time>
      </trkpt>
      <trkpt lat="43.42522" lon="6.07883">
        <ele>246</ele>
        <time>2016-11-23T13:34:56Z</time>
      </trkpt>
      <trkpt lat="43.42526" lon="6.07883">
        <ele>246.39999389648</ele>
        <time>2016-11-23T13:35:00Z</time>
      </trkpt>
      <trkpt lat="43.4253" lon="6.07881">
        <ele>246.60000610352</ele>
        <time>2016-11-23T13:35:05Z</time>
      </trkpt>
      <trkpt lat="43.42536" lon="6.0788">
        <ele>247</ele>
        <time>2016-11-23T13:35:10Z</time>
      </trkpt>
      <trkpt lat="43.42538" lon="6.07879">
        <ele>247.80000305176</ele>
        <time>2016-11-23T13:35:12Z</time>
      </trkpt>
      <trkpt lat="43.42545" lon="6.07878">
        <ele>248.80000305176</ele>
        <time>2016-11-23T13:35:17Z</time>
      </trkpt>
      <trkpt lat="43.42548" lon="6.07878">
        <ele>249.60000610352</ele>
        <time>2016-11-23T13:35:20Z</time>
      </trkpt>
      <trkpt lat="43.4255" lon="6.07877">
        <ele>250.19999694824</ele>
        <time>2016-11-23T13:35:22Z</time>
      </trkpt>
      <trkpt lat="43.42556" lon="6.07873">
        <ele>251.19999694824</ele>
        <time>2016-11-23T13:35:27Z</time>
      </trkpt>
      <trkpt lat="43.42559" lon="6.07873">
        <ele>252.19999694824</ele>
        <time>2016-11-23T13:35:30Z</time>
      </trkpt>
      <trkpt lat="43.42561" lon="6.07873">
        <ele>252.60000610352</ele>
        <time>2016-11-23T13:35:31Z</time>
      </trkpt>
      <trkpt lat="43.42563" lon="6.07872">
        <ele>253.19999694824</ele>
        <time>2016-11-23T13:35:34Z</time>
      </trkpt>
      <trkpt lat="43.42566" lon="6.07872">
        <ele>253.39999389648</ele>
        <time>2016-11-23T13:35:37Z</time>
      </trkpt>
      <trkpt lat="43.42575" lon="6.07873">
        <ele>253.80000305176</ele>
        <time>2016-11-23T13:35:45Z</time>
      </trkpt>
      <trkpt lat="43.42582" lon="6.07874">
        <ele>254.60000610352</ele>
        <time>2016-11-23T13:35:50Z</time>
      </trkpt>
      <trkpt lat="43.42582" lon="6.07874">
        <ele>254.80000305176</ele>
        <time>2016-11-23T13:35:51Z</time>
      </trkpt>
      <trkpt lat="43.42588" lon="6.07878">
        <ele>255.39999389648</ele>
        <time>2016-11-23T13:35:57Z</time>
      </trkpt>
      <trkpt lat="43.42591" lon="6.0788">
        <ele>255.39999389648</ele>
        <time>2016-11-23T13:36:00Z</time>
      </trkpt>
      <trkpt lat="43.42602" lon="6.07888">
        <ele>256.79998779297</ele>
        <time>2016-11-23T13:36:10Z</time>
      </trkpt>
      <trkpt lat="43.42603" lon="6.07889">
        <ele>257</ele>
        <time>2016-11-23T13:36:11Z</time>
      </trkpt>
      <trkpt lat="43.42606" lon="6.07892">
        <ele>258.20001220703</ele>
        <time>2016-11-23T13:36:17Z</time>
      </trkpt>
      <trkpt lat="43.42607" lon="6.07893">
        <ele>258.20001220703</ele>
        <time>2016-11-23T13:36:20Z</time>
      </trkpt>
      <trkpt lat="43.42613" lon="6.07894">
        <ele>258.79998779297</ele>
        <time>2016-11-23T13:36:30Z</time>
      </trkpt>
      <trkpt lat="43.42615" lon="6.07895">
        <ele>259</ele>
        <time>2016-11-23T13:36:33Z</time>
      </trkpt>
      <trkpt lat="43.42616" lon="6.07896">
        <ele>259.20001220703</ele>
        <time>2016-11-23T13:36:35Z</time>
      </trkpt>
      <trkpt lat="43.4262" lon="6.07897">
        <ele>260.39999389648</ele>
        <time>2016-11-23T13:36:45Z</time>
      </trkpt>
      <trkpt lat="43.42623" lon="6.07897">
        <ele>261.79998779297</ele>
        <time>2016-11-23T13:36:50Z</time>
      </trkpt>
      <trkpt lat="43.42628" lon="6.079">
        <ele>262.60000610352</ele>
        <time>2016-11-23T13:36:59Z</time>
      </trkpt>
      <trkpt lat="43.42628" lon="6.079">
        <ele>263</ele>
        <time>2016-11-23T13:37:00Z</time>
      </trkpt>
      <trkpt lat="43.4263" lon="6.07902">
        <ele>263.79998779297</ele>
        <time>2016-11-23T13:37:05Z</time>
      </trkpt>
      <trkpt lat="43.42632" lon="6.07905">
        <ele>264.39999389648</ele>
        <time>2016-11-23T13:37:10Z</time>
      </trkpt>
      <trkpt lat="43.42633" lon="6.07905">
        <ele>264.60000610352</ele>
        <time>2016-11-23T13:37:15Z</time>
      </trkpt>
      <trkpt lat="43.42632" lon="6.07905">
        <ele>264.39999389648</ele>
        <time>2016-11-23T13:37:20Z</time>
      </trkpt>
      <trkpt lat="43.42634" lon="6.07907">
        <ele>264.39999389648</ele>
        <time>2016-11-23T13:37:30Z</time>
      </trkpt>
      <trkpt lat="43.42635" lon="6.07908">
        <ele>264.39999389648</ele>
        <time>2016-11-23T13:37:31Z</time>
      </trkpt>
      <trkpt lat="43.42636" lon="6.07911">
        <ele>264.79998779297</ele>
        <time>2016-11-23T13:37:33Z</time>
      </trkpt>
      <trkpt lat="43.42641" lon="6.07921">
        <ele>265.79998779297</ele>
        <time>2016-11-23T13:37:39Z</time>
      </trkpt>
      <trkpt lat="43.42642" lon="6.07923">
        <ele>266</ele>
        <time>2016-11-23T13:37:40Z</time>
      </trkpt>
      <trkpt lat="43.42653" lon="6.07938">
        <ele>265.79998779297</ele>
        <time>2016-11-23T13:37:50Z</time>
      </trkpt>
      <trkpt lat="43.42661" lon="6.07945">
        <ele>267</ele>
        <time>2016-11-23T13:37:56Z</time>
      </trkpt>
      <trkpt lat="43.42666" lon="6.07949">
        <ele>267.39999389648</ele>
        <time>2016-11-23T13:38:00Z</time>
      </trkpt>
      <trkpt lat="43.42672" lon="6.0795">
        <ele>268.20001220703</ele>
        <time>2016-11-23T13:38:04Z</time>
      </trkpt>
      <trkpt lat="43.42681" lon="6.0795">
        <ele>269</ele>
        <time>2016-11-23T13:38:10Z</time>
      </trkpt>
      <trkpt lat="43.42695" lon="6.07949">
        <ele>270.60000610352</ele>
        <time>2016-11-23T13:38:20Z</time>
      </trkpt>
      <trkpt lat="43.42704" lon="6.07949">
        <ele>271.39999389648</ele>
        <time>2016-11-23T13:38:26Z</time>
      </trkpt>
      <trkpt lat="43.4271" lon="6.07949">
        <ele>272</ele>
        <time>2016-11-23T13:38:30Z</time>
      </trkpt>
      <trkpt lat="43.42725" lon="6.07948">
        <ele>272.39999389648</ele>
        <time>2016-11-23T13:38:40Z</time>
      </trkpt>
      <trkpt lat="43.42735" lon="6.07941">
        <ele>273.39999389648</ele>
        <time>2016-11-23T13:38:48Z</time>
      </trkpt>
      <trkpt lat="43.42738" lon="6.07939">
        <ele>273.60000610352</ele>
        <time>2016-11-23T13:38:50Z</time>
      </trkpt>
      <trkpt lat="43.42751" lon="6.07927">
        <ele>274.20001220703</ele>
        <time>2016-11-23T13:39:00Z</time>
      </trkpt>
      <trkpt lat="43.42752" lon="6.07925">
        <ele>274.39999389648</ele>
        <time>2016-11-23T13:39:01Z</time>
      </trkpt>
      <trkpt lat="43.42762" lon="6.07911">
        <ele>275.39999389648</ele>
        <time>2016-11-23T13:39:10Z</time>
      </trkpt>
      <trkpt lat="43.42766" lon="6.07905">
        <ele>275.60000610352</ele>
        <time>2016-11-23T13:39:14Z</time>
      </trkpt>
      <trkpt lat="43.42772" lon="6.07895">
        <ele>276.20001220703</ele>
        <time>2016-11-23T13:39:20Z</time>
      </trkpt>
      <trkpt lat="43.42774" lon="6.07892">
        <ele>276.60000610352</ele>
        <time>2016-11-23T13:39:22Z</time>
      </trkpt>
      <trkpt lat="43.42776" lon="6.07888">
        <ele>277.79998779297</ele>
        <time>2016-11-23T13:39:25Z</time>
      </trkpt>
      <trkpt lat="43.42781" lon="6.07882">
        <ele>278.39999389648</ele>
        <time>2016-11-23T13:39:30Z</time>
      </trkpt>
      <trkpt lat="43.42785" lon="6.07874">
        <ele>278.39999389648</ele>
        <time>2016-11-23T13:39:36Z</time>
      </trkpt>
      <trkpt lat="43.42788" lon="6.07866">
        <ele>278.39999389648</ele>
        <time>2016-11-23T13:39:40Z</time>
      </trkpt>
      <trkpt lat="43.42796" lon="6.0786">
        <ele>278.79998779297</ele>
        <time>2016-11-23T13:39:46Z</time>
      </trkpt>
      <trkpt lat="43.42802" lon="6.0786">
        <ele>279</ele>
        <time>2016-11-23T13:39:50Z</time>
      </trkpt>
      <trkpt lat="43.42804" lon="6.07859">
        <ele>279.20001220703</ele>
        <time>2016-11-23T13:39:52Z</time>
      </trkpt>
      <trkpt lat="43.4281" lon="6.07857">
        <ele>280</ele>
        <time>2016-11-23T13:39:56Z</time>
      </trkpt>
      <trkpt lat="43.42815" lon="6.07855">
        <ele>280</ele>
        <time>2016-11-23T13:40:00Z</time>
      </trkpt>
      <trkpt lat="43.42826" lon="6.07857">
        <ele>280.39999389648</ele>
        <time>2016-11-23T13:40:07Z</time>
      </trkpt>
      <trkpt lat="43.42831" lon="6.07856">
        <ele>280.60000610352</ele>
        <time>2016-11-23T13:40:10Z</time>
      </trkpt>
      <trkpt lat="43.42834" lon="6.07856">
        <ele>281.20001220703</ele>
        <time>2016-11-23T13:40:12Z</time>
      </trkpt>
      <trkpt lat="43.42838" lon="6.07853">
        <ele>282.39999389648</ele>
        <time>2016-11-23T13:40:15Z</time>
      </trkpt>
      <trkpt lat="43.42841" lon="6.07849">
        <ele>283</ele>
        <time>2016-11-23T13:40:18Z</time>
      </trkpt>
      <trkpt lat="43.42843" lon="6.07848">
        <ele>283.20001220703</ele>
        <time>2016-11-23T13:40:20Z</time>
      </trkpt>
      <trkpt lat="43.42849" lon="6.07839">
        <ele>283.60000610352</ele>
        <time>2016-11-23T13:40:25Z</time>
      </trkpt>
      <trkpt lat="43.42853" lon="6.07833">
        <ele>284.60000610352</ele>
        <time>2016-11-23T13:40:30Z</time>
      </trkpt>
      <trkpt lat="43.42862" lon="6.07822">
        <ele>285.79998779297</ele>
        <time>2016-11-23T13:40:39Z</time>
      </trkpt>
      <trkpt lat="43.42863" lon="6.07821">
        <ele>285.79998779297</ele>
        <time>2016-11-23T13:40:40Z</time>
      </trkpt>
      <trkpt lat="43.4287" lon="6.0781">
        <ele>287</ele>
        <time>2016-11-23T13:40:47Z</time>
      </trkpt>
      <trkpt lat="43.4287" lon="6.07804">
        <ele>288</ele>
        <time>2016-11-23T13:40:50Z</time>
      </trkpt>
      <trkpt lat="43.4287" lon="6.07796">
        <ele>289.20001220703</ele>
        <time>2016-11-23T13:40:54Z</time>
      </trkpt>
      <trkpt lat="43.42873" lon="6.07781">
        <ele>289.20001220703</ele>
        <time>2016-11-23T13:41:00Z</time>
      </trkpt>
      <trkpt lat="43.42879" lon="6.07763">
        <ele>290</ele>
        <time>2016-11-23T13:41:10Z</time>
      </trkpt>
      <trkpt lat="43.42879" lon="6.07761">
        <ele>290.20001220703</ele>
        <time>2016-11-23T13:41:11Z</time>
      </trkpt>
      <trkpt lat="43.4289" lon="6.07749">
        <ele>291</ele>
        <time>2016-11-23T13:41:20Z</time>
      </trkpt>
      <trkpt lat="43.42895" lon="6.07746">
        <ele>290.79998779297</ele>
        <time>2016-11-23T13:41:24Z</time>
      </trkpt>
      <trkpt lat="43.429" lon="6.0774">
        <ele>291.20001220703</ele>
        <time>2016-11-23T13:41:30Z</time>
      </trkpt>
      <trkpt lat="43.429" lon="6.0774">
        <ele>292</ele>
        <time>2016-11-23T13:41:36Z</time>
      </trkpt>
      <trkpt lat="43.429" lon="6.07741">
        <ele>292</ele>
        <time>2016-11-23T13:41:40Z</time>
      </trkpt>
      <trkpt lat="43.429" lon="6.07741">
        <ele>291.79998779297</ele>
        <time>2016-11-23T13:41:46Z</time>
      </trkpt>
      <trkpt lat="43.429" lon="6.07741">
        <ele>291.79998779297</ele>
        <time>2016-11-23T13:41:55Z</time>
      </trkpt>
      <trkpt lat="43.429" lon="6.07741">
        <ele>291.20001220703</ele>
        <time>2016-11-23T13:42:00Z</time>
      </trkpt>
      <trkpt lat="43.429" lon="6.07741">
        <ele>291.20001220703</ele>
        <time>2016-11-23T13:42:04Z</time>
      </trkpt>
      <trkpt lat="43.429" lon="6.0774">
        <ele>291.39999389648</ele>
        <time>2016-11-23T13:42:10Z</time>
      </trkpt>
      <trkpt lat="43.429" lon="6.0774">
        <ele>291.60000610352</ele>
        <time>2016-11-23T13:42:27Z</time>
      </trkpt>
      <trkpt lat="43.429" lon="6.07739">
        <ele>291.39999389648</ele>
        <time>2016-11-23T13:42:47Z</time>
      </trkpt>
      <trkpt lat="43.429" lon="6.07739">
        <ele>291.20001220703</ele>
        <time>2016-11-23T13:42:50Z</time>
      </trkpt>
      <trkpt lat="43.42899" lon="6.07739">
        <ele>291</ele>
        <time>2016-11-23T13:42:57Z</time>
      </trkpt>
      <trkpt lat="43.42899" lon="6.0774">
        <ele>291</ele>
        <time>2016-11-23T13:43:00Z</time>
      </trkpt>
      <trkpt lat="43.42898" lon="6.07742">
        <ele>291.20001220703</ele>
        <time>2016-11-23T13:43:02Z</time>
      </trkpt>
      <trkpt lat="43.42894" lon="6.07743">
        <ele>291.39999389648</ele>
        <time>2016-11-23T13:43:04Z</time>
      </trkpt>
      <trkpt lat="43.42883" lon="6.0775">
        <ele>290.60000610352</ele>
        <time>2016-11-23T13:43:10Z</time>
      </trkpt>
      <trkpt lat="43.4288" lon="6.07757">
        <ele>290.39999389648</ele>
        <time>2016-11-23T13:43:15Z</time>
      </trkpt>
      <trkpt lat="43.42879" lon="6.07759">
        <ele>290.20001220703</ele>
        <time>2016-11-23T13:43:20Z</time>
      </trkpt>
      <trkpt lat="43.42878" lon="6.07761">
        <ele>290.20001220703</ele>
        <time>2016-11-23T13:43:25Z</time>
      </trkpt>
      <trkpt lat="43.42881" lon="6.07754">
        <ele>290.39999389648</ele>
        <time>2016-11-23T13:43:33Z</time>
      </trkpt>
      <trkpt lat="43.42888" lon="6.07748">
        <ele>290.79998779297</ele>
        <time>2016-11-23T13:43:40Z</time>
      </trkpt>
      <trkpt lat="43.42891" lon="6.07747">
        <ele>291.20001220703</ele>
        <time>2016-11-23T13:43:43Z</time>
      </trkpt>
      <trkpt lat="43.429" lon="6.07747">
        <ele>291</ele>
        <time>2016-11-23T13:43:52Z</time>
      </trkpt>
      <trkpt lat="43.42905" lon="6.07761">
        <ele>290.79998779297</ele>
        <time>2016-11-23T13:44:00Z</time>
      </trkpt>
      <trkpt lat="43.42911" lon="6.07776">
        <ele>291.39999389648</ele>
        <time>2016-11-23T13:44:06Z</time>
      </trkpt>
      <trkpt lat="43.42915" lon="6.07794">
        <ele>290.79998779297</ele>
        <time>2016-11-23T13:44:10Z</time>
      </trkpt>
      <trkpt lat="43.42916" lon="6.078">
        <ele>290.20001220703</ele>
        <time>2016-11-23T13:44:11Z</time>
      </trkpt>
      <trkpt lat="43.4292" lon="6.07813">
        <ele>288.60000610352</ele>
        <time>2016-11-23T13:44:13Z</time>
      </trkpt>
      <trkpt lat="43.42926" lon="6.07837">
        <ele>287.39999389648</ele>
        <time>2016-11-23T13:44:16Z</time>
      </trkpt>
      <trkpt lat="43.42929" lon="6.07853">
        <ele>286.39999389648</ele>
        <time>2016-11-23T13:44:18Z</time>
      </trkpt>
      <trkpt lat="43.42933" lon="6.07866">
        <ele>285.79998779297</ele>
        <time>2016-11-23T13:44:20Z</time>
      </trkpt>
      <trkpt lat="43.42938" lon="6.07889">
        <ele>285.79998779297</ele>
        <time>2016-11-23T13:44:24Z</time>
      </trkpt>
      <trkpt lat="43.42942" lon="6.07903">
        <ele>286.79998779297</ele>
        <time>2016-11-23T13:44:27Z</time>
      </trkpt>
      <trkpt lat="43.42943" lon="6.07907">
        <ele>287.60000610352</ele>
        <time>2016-11-23T13:44:28Z</time>
      </trkpt>
      <trkpt lat="43.42945" lon="6.07916">
        <ele>288.39999389648</ele>
        <time>2016-11-23T13:44:30Z</time>
      </trkpt>
      <trkpt lat="43.42947" lon="6.0792">
        <ele>289</ele>
        <time>2016-11-23T13:44:31Z</time>
      </trkpt>
      <trkpt lat="43.42949" lon="6.07929">
        <ele>289.39999389648</ele>
        <time>2016-11-23T13:44:33Z</time>
      </trkpt>
      <trkpt lat="43.42957" lon="6.0796">
        <ele>288.60000610352</ele>
        <time>2016-11-23T13:44:40Z</time>
      </trkpt>
      <trkpt lat="43.4297" lon="6.08004">
        <ele>289</ele>
        <time>2016-11-23T13:44:50Z</time>
      </trkpt>
      <trkpt lat="43.42981" lon="6.08043">
        <ele>290</ele>
        <time>2016-11-23T13:45:00Z</time>
      </trkpt>
      <trkpt lat="43.42987" lon="6.08069">
        <ele>291.39999389648</ele>
        <time>2016-11-23T13:45:10Z</time>
      </trkpt>
      <trkpt lat="43.4299" lon="6.08075">
        <ele>292.20001220703</ele>
        <time>2016-11-23T13:45:13Z</time>
      </trkpt>
      <trkpt lat="43.42994" lon="6.08088">
        <ele>294.20001220703</ele>
        <time>2016-11-23T13:45:20Z</time>
      </trkpt>
      <trkpt lat="43.42995" lon="6.08093">
        <ele>294.79998779297</ele>
        <time>2016-11-23T13:45:23Z</time>
      </trkpt>
      <trkpt lat="43.42996" lon="6.08096">
        <ele>295.79998779297</ele>
        <time>2016-11-23T13:45:25Z</time>
      </trkpt>
      <trkpt lat="43.42997" lon="6.08101">
        <ele>296.79998779297</ele>
        <time>2016-11-23T13:45:28Z</time>
      </trkpt>
      <trkpt lat="43.42997" lon="6.08104">
        <ele>297.39999389648</ele>
        <time>2016-11-23T13:45:30Z</time>
      </trkpt>
      <trkpt lat="43.42998" lon="6.08107">
        <ele>297.79998779297</ele>
        <time>2016-11-23T13:45:32Z</time>
      </trkpt>
      <trkpt lat="43.43001" lon="6.08115">
        <ele>299</ele>
        <time>2016-11-23T13:45:37Z</time>
      </trkpt>
      <trkpt lat="43.43003" lon="6.0812">
        <ele>300.20001220703</ele>
        <time>2016-11-23T13:45:41Z</time>
      </trkpt>
      <trkpt lat="43.43006" lon="6.08133">
        <ele>302.39999389648</ele>
        <time>2016-11-23T13:45:51Z</time>
      </trkpt>
      <trkpt lat="43.43008" lon="6.08137">
        <ele>303.39999389648</ele>
        <time>2016-11-23T13:45:55Z</time>
      </trkpt>
      <trkpt lat="43.43008" lon="6.08144">
        <ele>304.39999389648</ele>
        <time>2016-11-23T13:46:00Z</time>
      </trkpt>
      <trkpt lat="43.43009" lon="6.08145">
        <ele>304.60000610352</ele>
        <time>2016-11-23T13:46:01Z</time>
      </trkpt>
      <trkpt lat="43.43015" lon="6.08152">
        <ele>305.60000610352</ele>
        <time>2016-11-23T13:46:10Z</time>
      </trkpt>
      <trkpt lat="43.43015" lon="6.08153">
        <ele>305.60000610352</ele>
        <time>2016-11-23T13:46:11Z</time>
      </trkpt>
      <trkpt lat="43.43021" lon="6.08163">
        <ele>307.39999389648</ele>
        <time>2016-11-23T13:46:20Z</time>
      </trkpt>
      <trkpt lat="43.43026" lon="6.08175">
        <ele>308.60000610352</ele>
        <time>2016-11-23T13:46:30Z</time>
      </trkpt>
      <trkpt lat="43.43028" lon="6.08185">
        <ele>308.60000610352</ele>
        <time>2016-11-23T13:46:39Z</time>
      </trkpt>
      <trkpt lat="43.43028" lon="6.08186">
        <ele>308.79998779297</ele>
        <time>2016-11-23T13:46:40Z</time>
      </trkpt>
      <trkpt lat="43.43028" lon="6.08186">
        <ele>309</ele>
        <time>2016-11-23T13:46:45Z</time>
      </trkpt>
      <trkpt lat="43.43028" lon="6.08186">
        <ele>308.79998779297</ele>
        <time>2016-11-23T13:46:48Z</time>
      </trkpt>
      <trkpt lat="43.43028" lon="6.08186">
        <ele>308.60000610352</ele>
        <time>2016-11-23T13:46:50Z</time>
      </trkpt>
      <trkpt lat="43.43028" lon="6.08187">
        <ele>308.60000610352</ele>
        <time>2016-11-23T13:46:59Z</time>
      </trkpt>
      <trkpt lat="43.43028" lon="6.08185">
        <ele>308.79998779297</ele>
        <time>2016-11-23T13:47:06Z</time>
      </trkpt>
      <trkpt lat="43.43028" lon="6.08185">
        <ele>308.60000610352</ele>
        <time>2016-11-23T13:47:10Z</time>
      </trkpt>
      <trkpt lat="43.43028" lon="6.08185">
        <ele>309.20001220703</ele>
        <time>2016-11-23T13:47:15Z</time>
      </trkpt>
      <trkpt lat="43.43028" lon="6.08185">
        <ele>309.20001220703</ele>
        <time>2016-11-23T13:47:20Z</time>
      </trkpt>
      <trkpt lat="43.43027" lon="6.08186">
        <ele>308.60000610352</ele>
        <time>2016-11-23T13:47:34Z</time>
      </trkpt>
      <trkpt lat="43.43027" lon="6.08186">
        <ele>308.39999389648</ele>
        <time>2016-11-23T13:47:40Z</time>
      </trkpt>
      <trkpt lat="43.43026" lon="6.08186">
        <ele>309</ele>
        <time>2016-11-23T13:47:50Z</time>
      </trkpt>
      <trkpt lat="43.43026" lon="6.08186">
        <ele>308.79998779297</ele>
        <time>2016-11-23T13:47:54Z</time>
      </trkpt>
      <trkpt lat="43.43026" lon="6.08187">
        <ele>309.20001220703</ele>
        <time>2016-11-23T13:48:00Z</time>
      </trkpt>
      <trkpt lat="43.43026" lon="6.08187">
        <ele>309.79998779297</ele>
        <time>2016-11-23T13:48:06Z</time>
      </trkpt>
      <trkpt lat="43.43026" lon="6.08187">
        <ele>308.60000610352</ele>
        <time>2016-11-23T13:48:12Z</time>
      </trkpt>
      <trkpt lat="43.43026" lon="6.08187">
        <ele>309.20001220703</ele>
        <time>2016-11-23T13:48:20Z</time>
      </trkpt>
      <trkpt lat="43.43026" lon="6.08188">
        <ele>309.20001220703</ele>
        <time>2016-11-23T13:48:40Z</time>
      </trkpt>
      <trkpt lat="43.43026" lon="6.08188">
        <ele>309.20001220703</ele>
        <time>2016-11-23T13:48:43Z</time>
      </trkpt>
      <trkpt lat="43.43026" lon="6.08188">
        <ele>309.39999389648</ele>
        <time>2016-11-23T13:49:10Z</time>
      </trkpt>
      <trkpt lat="43.43025" lon="6.08189">
        <ele>309.20001220703</ele>
        <time>2016-11-23T13:49:20Z</time>
      </trkpt>
      <trkpt lat="43.43025" lon="6.08188">
        <ele>308.60000610352</ele>
        <time>2016-11-23T13:49:30Z</time>
      </trkpt>
      <trkpt lat="43.43025" lon="6.08188">
        <ele>308.79998779297</ele>
        <time>2016-11-23T13:49:40Z</time>
      </trkpt>
      <trkpt lat="43.43026" lon="6.08189">
        <ele>309.39999389648</ele>
        <time>2016-11-23T13:49:50Z</time>
      </trkpt>
      <trkpt lat="43.43025" lon="6.08189">
        <ele>309.39999389648</ele>
        <time>2016-11-23T13:49:57Z</time>
      </trkpt>
      <trkpt lat="43.43025" lon="6.08188">
        <ele>309.39999389648</ele>
        <time>2016-11-23T13:50:00Z</time>
      </trkpt>
      <trkpt lat="43.43024" lon="6.08187">
        <ele>309.39999389648</ele>
        <time>2016-11-23T13:50:10Z</time>
      </trkpt>
      <trkpt lat="43.43023" lon="6.08186">
        <ele>309.39999389648</ele>
        <time>2016-11-23T13:50:20Z</time>
      </trkpt>
      <trkpt lat="43.43023" lon="6.08186">
        <ele>309.39999389648</ele>
        <time>2016-11-23T13:50:30Z</time>
      </trkpt>
      <trkpt lat="43.43023" lon="6.08187">
        <ele>309.39999389648</ele>
        <time>2016-11-23T13:50:40Z</time>
      </trkpt>
      <trkpt lat="43.43024" lon="6.08187">
        <ele>309.39999389648</ele>
        <time>2016-11-23T13:50:54Z</time>
      </trkpt>
      <trkpt lat="43.43023" lon="6.08186">
        <ele>309.39999389648</ele>
        <time>2016-11-23T13:51:00Z</time>
      </trkpt>
      <trkpt lat="43.43024" lon="6.08187">
        <ele>309.39999389648</ele>
        <time>2016-11-23T13:51:20Z</time>
      </trkpt>
      <trkpt lat="43.43024" lon="6.08188">
        <ele>309.39999389648</ele>
        <time>2016-11-23T13:51:30Z</time>
      </trkpt>
      <trkpt lat="43.43025" lon="6.08188">
        <ele>309.39999389648</ele>
        <time>2016-11-23T13:51:35Z</time>
      </trkpt>
      <trkpt lat="43.43025" lon="6.08188">
        <ele>309.39999389648</ele>
        <time>2016-11-23T13:51:40Z</time>
      </trkpt>
      <trkpt lat="43.43026" lon="6.0819">
        <ele>309.39999389648</ele>
        <time>2016-11-23T13:51:45Z</time>
      </trkpt>
      <trkpt lat="43.43027" lon="6.08193">
        <ele>309</ele>
        <time>2016-11-23T13:51:47Z</time>
      </trkpt>
      <trkpt lat="43.43029" lon="6.08198">
        <ele>308.60000610352</ele>
        <time>2016-11-23T13:51:50Z</time>
      </trkpt>
      <trkpt lat="43.43034" lon="6.0821">
        <ele>308.20001220703</ele>
        <time>2016-11-23T13:51:55Z</time>
      </trkpt>
      <trkpt lat="43.4304" lon="6.08226">
        <ele>307.79998779297</ele>
        <time>2016-11-23T13:52:00Z</time>
      </trkpt>
      <trkpt lat="43.43044" lon="6.08242">
        <ele>306.39999389648</ele>
        <time>2016-11-23T13:52:04Z</time>
      </trkpt>
      <trkpt lat="43.43046" lon="6.08257">
        <ele>305.20001220703</ele>
        <time>2016-11-23T13:52:07Z</time>
      </trkpt>
      <trkpt lat="43.43047" lon="6.08266">
        <ele>303.60000610352</ele>
        <time>2016-11-23T13:52:09Z</time>
      </trkpt>
      <trkpt lat="43.43048" lon="6.08271">
        <ele>303.20001220703</ele>
        <time>2016-11-23T13:52:10Z</time>
      </trkpt>
      <trkpt lat="43.4305" lon="6.08275">
        <ele>302.60000610352</ele>
        <time>2016-11-23T13:52:11Z</time>
      </trkpt>
      <trkpt lat="43.43053" lon="6.08283">
        <ele>301.39999389648</ele>
        <time>2016-11-23T13:52:13Z</time>
      </trkpt>
      <trkpt lat="43.43056" lon="6.08292">
        <ele>300.20001220703</ele>
        <time>2016-11-23T13:52:15Z</time>
      </trkpt>
      <trkpt lat="43.43058" lon="6.08298">
        <ele>299.39999389648</ele>
        <time>2016-11-23T13:52:16Z</time>
      </trkpt>
      <trkpt lat="43.4306" lon="6.08305">
        <ele>298.20001220703</ele>
        <time>2016-11-23T13:52:17Z</time>
      </trkpt>
      <trkpt lat="43.43061" lon="6.08311">
        <ele>296.79998779297</ele>
        <time>2016-11-23T13:52:18Z</time>
      </trkpt>
      <trkpt lat="43.43063" lon="6.08318">
        <ele>295.60000610352</ele>
        <time>2016-11-23T13:52:19Z</time>
      </trkpt>
      <trkpt lat="43.43065" lon="6.08324">
        <ele>294.60000610352</ele>
        <time>2016-11-23T13:52:20Z</time>
      </trkpt>
      <trkpt lat="43.43067" lon="6.0833">
        <ele>294.20001220703</ele>
        <time>2016-11-23T13:52:21Z</time>
      </trkpt>
      <trkpt lat="43.43075" lon="6.08349">
        <ele>293.60000610352</ele>
        <time>2016-11-23T13:52:25Z</time>
      </trkpt>
      <trkpt lat="43.43082" lon="6.08362">
        <ele>293.39999389648</ele>
        <time>2016-11-23T13:52:28Z</time>
      </trkpt>
      <trkpt lat="43.43086" lon="6.0837">
        <ele>294.20001220703</ele>
        <time>2016-11-23T13:52:30Z</time>
      </trkpt>
      <trkpt lat="43.43093" lon="6.08391">
        <ele>294.39999389648</ele>
        <time>2016-11-23T13:52:35Z</time>
      </trkpt>
      <trkpt lat="43.43096" lon="6.08412">
        <ele>293</ele>
        <time>2016-11-23T13:52:38Z</time>
      </trkpt>
      <trkpt lat="43.43097" lon="6.08425">
        <ele>292.20001220703</ele>
        <time>2016-11-23T13:52:40Z</time>
      </trkpt>
      <trkpt lat="43.431" lon="6.08454">
        <ele>294</ele>
        <time>2016-11-23T13:52:46Z</time>
      </trkpt>
      <trkpt lat="43.43105" lon="6.08471">
        <ele>294</ele>
        <time>2016-11-23T13:52:50Z</time>
      </trkpt>
      <trkpt lat="43.43107" lon="6.08481">
        <ele>295.39999389648</ele>
        <time>2016-11-23T13:52:53Z</time>
      </trkpt>
      <trkpt lat="43.4311" lon="6.08491">
        <ele>296.39999389648</ele>
        <time>2016-11-23T13:52:56Z</time>
      </trkpt>
      <trkpt lat="43.43116" lon="6.08506">
        <ele>297.79998779297</ele>
        <time>2016-11-23T13:53:01Z</time>
      </trkpt>
      <trkpt lat="43.43121" lon="6.08517">
        <ele>299</ele>
        <time>2016-11-23T13:53:05Z</time>
      </trkpt>
      <trkpt lat="43.43123" lon="6.08521">
        <ele>299.39999389648</ele>
        <time>2016-11-23T13:53:07Z</time>
      </trkpt>
      <trkpt lat="43.43127" lon="6.08526">
        <ele>300.20001220703</ele>
        <time>2016-11-23T13:53:10Z</time>
      </trkpt>
      <trkpt lat="43.43129" lon="6.08529">
        <ele>300.79998779297</ele>
        <time>2016-11-23T13:53:12Z</time>
      </trkpt>
      <trkpt lat="43.43138" lon="6.08541">
        <ele>302.39999389648</ele>
        <time>2016-11-23T13:53:20Z</time>
      </trkpt>
      <trkpt lat="43.43146" lon="6.08555">
        <ele>303.20001220703</ele>
        <time>2016-11-23T13:53:30Z</time>
      </trkpt>
      <trkpt lat="43.43148" lon="6.08559">
        <ele>303.39999389648</ele>
        <time>2016-11-23T13:53:33Z</time>
      </trkpt>
      <trkpt lat="43.4315" lon="6.08561">
        <ele>303.79998779297</ele>
        <time>2016-11-23T13:53:35Z</time>
      </trkpt>
      <trkpt lat="43.43151" lon="6.08563">
        <ele>303.60000610352</ele>
        <time>2016-11-23T13:53:37Z</time>
      </trkpt>
      <trkpt lat="43.43154" lon="6.08568">
        <ele>302.79998779297</ele>
        <time>2016-11-23T13:53:40Z</time>
      </trkpt>
      <trkpt lat="43.43164" lon="6.08589">
        <ele>303.79998779297</ele>
        <time>2016-11-23T13:53:50Z</time>
      </trkpt>
      <trkpt lat="43.43174" lon="6.08621">
        <ele>302.79998779297</ele>
        <time>2016-11-23T13:53:59Z</time>
      </trkpt>
      <trkpt lat="43.43177" lon="6.08633">
        <ele>302.20001220703</ele>
        <time>2016-11-23T13:54:02Z</time>
      </trkpt>
      <trkpt lat="43.43185" lon="6.08669">
        <ele>301.79998779297</ele>
        <time>2016-11-23T13:54:10Z</time>
      </trkpt>
      <trkpt lat="43.43194" lon="6.0871">
        <ele>302.60000610352</ele>
        <time>2016-11-23T13:54:20Z</time>
      </trkpt>
      <trkpt lat="43.43196" lon="6.0872">
        <ele>303.39999389648</ele>
        <time>2016-11-23T13:54:23Z</time>
      </trkpt>
      <trkpt lat="43.43203" lon="6.08743">
        <ele>304.79998779297</ele>
        <time>2016-11-23T13:54:30Z</time>
      </trkpt>
      <trkpt lat="43.43204" lon="6.08749">
        <ele>305</ele>
        <time>2016-11-23T13:54:32Z</time>
      </trkpt>
      <trkpt lat="43.43206" lon="6.08757">
        <ele>305.60000610352</ele>
        <time>2016-11-23T13:54:35Z</time>
      </trkpt>
      <trkpt lat="43.43209" lon="6.08764">
        <ele>306.79998779297</ele>
        <time>2016-11-23T13:54:38Z</time>
      </trkpt>
      <trkpt lat="43.43212" lon="6.08776">
        <ele>307.79998779297</ele>
        <time>2016-11-23T13:54:43Z</time>
      </trkpt>
      <trkpt lat="43.43216" lon="6.08791">
        <ele>308.20001220703</ele>
        <time>2016-11-23T13:54:50Z</time>
      </trkpt>
      <trkpt lat="43.43217" lon="6.08796">
        <ele>309.20001220703</ele>
        <time>2016-11-23T13:54:52Z</time>
      </trkpt>
      <trkpt lat="43.43222" lon="6.0882">
        <ele>311.79998779297</ele>
        <time>2016-11-23T13:55:05Z</time>
      </trkpt>
      <trkpt lat="43.43223" lon="6.08828">
        <ele>312</ele>
        <time>2016-11-23T13:55:10Z</time>
      </trkpt>
      <trkpt lat="43.43225" lon="6.08833">
        <ele>312.39999389648</ele>
        <time>2016-11-23T13:55:14Z</time>
      </trkpt>
      <trkpt lat="43.43227" lon="6.08842">
        <ele>313.39999389648</ele>
        <time>2016-11-23T13:55:20Z</time>
      </trkpt>
      <trkpt lat="43.4323" lon="6.08859">
        <ele>313.60000610352</ele>
        <time>2016-11-23T13:55:30Z</time>
      </trkpt>
      <trkpt lat="43.43233" lon="6.08873">
        <ele>314.60000610352</ele>
        <time>2016-11-23T13:55:39Z</time>
      </trkpt>
      <trkpt lat="43.43234" lon="6.08875">
        <ele>314.60000610352</ele>
        <time>2016-11-23T13:55:40Z</time>
      </trkpt>
      <trkpt lat="43.43236" lon="6.08879">
        <ele>314.79998779297</ele>
        <time>2016-11-23T13:55:44Z</time>
      </trkpt>
      <trkpt lat="43.43236" lon="6.08879">
        <ele>314.60000610352</ele>
        <time>2016-11-23T13:55:49Z</time>
      </trkpt>
      <trkpt lat="43.43236" lon="6.08879">
        <ele>314.79998779297</ele>
        <time>2016-11-23T13:55:52Z</time>
      </trkpt>
      <trkpt lat="43.43236" lon="6.0888">
        <ele>315.20001220703</ele>
        <time>2016-11-23T13:56:00Z</time>
      </trkpt>
      <trkpt lat="43.43236" lon="6.0888">
        <ele>315.20001220703</ele>
        <time>2016-11-23T13:56:05Z</time>
      </trkpt>
      <trkpt lat="43.43236" lon="6.0888">
        <ele>315.20001220703</ele>
        <time>2016-11-23T13:56:13Z</time>
      </trkpt>
      <trkpt lat="43.43236" lon="6.0888">
        <ele>315.39999389648</ele>
        <time>2016-11-23T13:56:23Z</time>
      </trkpt>
      <trkpt lat="43.43236" lon="6.08879">
        <ele>315.20001220703</ele>
        <time>2016-11-23T13:56:29Z</time>
      </trkpt>
      <trkpt lat="43.43236" lon="6.08879">
        <ele>314.39999389648</ele>
        <time>2016-11-23T13:56:37Z</time>
      </trkpt>
      <trkpt lat="43.43236" lon="6.0888">
        <ele>314.39999389648</ele>
        <time>2016-11-23T13:56:50Z</time>
      </trkpt>
      <trkpt lat="43.43236" lon="6.08881">
        <ele>315</ele>
        <time>2016-11-23T13:56:55Z</time>
      </trkpt>
      <trkpt lat="43.43236" lon="6.08884">
        <ele>315.20001220703</ele>
        <time>2016-11-23T13:56:57Z</time>
      </trkpt>
      <trkpt lat="43.43237" lon="6.08885">
        <ele>315</ele>
        <time>2016-11-23T13:56:58Z</time>
      </trkpt>
      <trkpt lat="43.43238" lon="6.08889">
        <ele>314.79998779297</ele>
        <time>2016-11-23T13:57:00Z</time>
      </trkpt>
      <trkpt lat="43.43244" lon="6.08918">
        <ele>314.60000610352</ele>
        <time>2016-11-23T13:57:10Z</time>
      </trkpt>
      <trkpt lat="43.43251" lon="6.08947">
        <ele>314.79998779297</ele>
        <time>2016-11-23T13:57:19Z</time>
      </trkpt>
      <trkpt lat="43.43256" lon="6.08974">
        <ele>312.79998779297</ele>
        <time>2016-11-23T13:57:26Z</time>
      </trkpt>
      <trkpt lat="43.43256" lon="6.08989">
        <ele>311.79998779297</ele>
        <time>2016-11-23T13:57:29Z</time>
      </trkpt>
      <trkpt lat="43.43257" lon="6.08995">
        <ele>311.79998779297</ele>
        <time>2016-11-23T13:57:30Z</time>
      </trkpt>
      <trkpt lat="43.43262" lon="6.09045">
        <ele>310.60000610352</ele>
        <time>2016-11-23T13:57:38Z</time>
      </trkpt>
      <trkpt lat="43.4326" lon="6.09053">
        <ele>309.20001220703</ele>
        <time>2016-11-23T13:57:40Z</time>
      </trkpt>
      <trkpt lat="43.43256" lon="6.09062">
        <ele>308</ele>
        <time>2016-11-23T13:57:42Z</time>
      </trkpt>
      <trkpt lat="43.43254" lon="6.09066">
        <ele>307.39999389648</ele>
        <time>2016-11-23T13:57:43Z</time>
      </trkpt>
      <trkpt lat="43.4325" lon="6.0907">
        <ele>306.79998779297</ele>
        <time>2016-11-23T13:57:44Z</time>
      </trkpt>
      <trkpt lat="43.43246" lon="6.09074">
        <ele>306</ele>
        <time>2016-11-23T13:57:45Z</time>
      </trkpt>
      <trkpt lat="43.43241" lon="6.09078">
        <ele>305.39999389648</ele>
        <time>2016-11-23T13:57:46Z</time>
      </trkpt>
      <trkpt lat="43.43236" lon="6.09082">
        <ele>304.39999389648</ele>
        <time>2016-11-23T13:57:47Z</time>
      </trkpt>
      <trkpt lat="43.43231" lon="6.09086">
        <ele>303.60000610352</ele>
        <time>2016-11-23T13:57:48Z</time>
      </trkpt>
      <trkpt lat="43.43227" lon="6.09092">
        <ele>302.60000610352</ele>
        <time>2016-11-23T13:57:49Z</time>
      </trkpt>
      <trkpt lat="43.43224" lon="6.09098">
        <ele>302.20001220703</ele>
        <time>2016-11-23T13:57:50Z</time>
      </trkpt>
      <trkpt lat="43.43221" lon="6.09104">
        <ele>301.79998779297</ele>
        <time>2016-11-23T13:57:51Z</time>
      </trkpt>
      <trkpt lat="43.43236" lon="6.09144">
        <ele>301.20001220703</ele>
        <time>2016-11-23T13:58:00Z</time>
      </trkpt>
      <trkpt lat="43.43243" lon="6.09152">
        <ele>301</ele>
        <time>2016-11-23T13:58:02Z</time>
      </trkpt>
      <trkpt lat="43.43251" lon="6.09157">
        <ele>300.60000610352</ele>
        <time>2016-11-23T13:58:04Z</time>
      </trkpt>
      <trkpt lat="43.4326" lon="6.09159">
        <ele>300</ele>
        <time>2016-11-23T13:58:06Z</time>
      </trkpt>
      <trkpt lat="43.43277" lon="6.0916">
        <ele>300</ele>
        <time>2016-11-23T13:58:10Z</time>
      </trkpt>
      <trkpt lat="43.43282" lon="6.09161">
        <ele>299.79998779297</ele>
        <time>2016-11-23T13:58:11Z</time>
      </trkpt>
      <trkpt lat="43.43299" lon="6.09172">
        <ele>299</ele>
        <time>2016-11-23T13:58:15Z</time>
      </trkpt>
      <trkpt lat="43.43307" lon="6.09182">
        <ele>298.20001220703</ele>
        <time>2016-11-23T13:58:17Z</time>
      </trkpt>
      <trkpt lat="43.43311" lon="6.09189">
        <ele>297.79998779297</ele>
        <time>2016-11-23T13:58:18Z</time>
      </trkpt>
      <trkpt lat="43.43316" lon="6.09205">
        <ele>296.39999389648</ele>
        <time>2016-11-23T13:58:20Z</time>
      </trkpt>
      <trkpt lat="43.43318" lon="6.09212">
        <ele>294.79998779297</ele>
        <time>2016-11-23T13:58:21Z</time>
      </trkpt>
      <trkpt lat="43.43321" lon="6.09229">
        <ele>293</ele>
        <time>2016-11-23T13:58:23Z</time>
      </trkpt>
      <trkpt lat="43.43321" lon="6.09238">
        <ele>291.60000610352</ele>
        <time>2016-11-23T13:58:25Z</time>
      </trkpt>
      <trkpt lat="43.4332" lon="6.0924">
        <ele>291.39999389648</ele>
        <time>2016-11-23T13:58:26Z</time>
      </trkpt>
      <trkpt lat="43.43318" lon="6.09243">
        <ele>290.60000610352</ele>
        <time>2016-11-23T13:58:29Z</time>
      </trkpt>
      <trkpt lat="43.43318" lon="6.09243">
        <ele>290.39999389648</ele>
        <time>2016-11-23T13:58:30Z</time>
      </trkpt>
      <trkpt lat="43.43317" lon="6.09245">
        <ele>290.60000610352</ele>
        <time>2016-11-23T13:58:40Z</time>
      </trkpt>
      <trkpt lat="43.43319" lon="6.09249">
        <ele>290.39999389648</ele>
        <time>2016-11-23T13:58:50Z</time>
      </trkpt>
      <trkpt lat="43.43319" lon="6.09251">
        <ele>290.79998779297</ele>
        <time>2016-11-23T13:59:00Z</time>
      </trkpt>
      <trkpt lat="43.43319" lon="6.09251">
        <ele>290.39999389648</ele>
        <time>2016-11-23T13:59:10Z</time>
      </trkpt>
      <trkpt lat="43.43318" lon="6.09252">
        <ele>289.79998779297</ele>
        <time>2016-11-23T13:59:35Z</time>
      </trkpt>
      <trkpt lat="43.43318" lon="6.09252">
        <ele>289.79998779297</ele>
        <time>2016-11-23T13:59:40Z</time>
      </trkpt>
      <trkpt lat="43.43318" lon="6.09252">
        <ele>289.60000610352</ele>
        <time>2016-11-23T13:59:49Z</time>
      </trkpt>
      <trkpt lat="43.43319" lon="6.09253">
        <ele>289.60000610352</ele>
        <time>2016-11-23T13:59:56Z</time>
      </trkpt>
      <trkpt lat="43.4332" lon="6.09253">
        <ele>289.20001220703</ele>
        <time>2016-11-23T14:00:00Z</time>
      </trkpt>
      <trkpt lat="43.4332" lon="6.0925">
        <ele>290</ele>
        <time>2016-11-23T14:00:10Z</time>
      </trkpt>
      <trkpt lat="43.43317" lon="6.09251">
        <ele>289.79998779297</ele>
        <time>2016-11-23T14:00:30Z</time>
      </trkpt>
      <trkpt lat="43.43315" lon="6.09251">
        <ele>290.39999389648</ele>
        <time>2016-11-23T14:00:40Z</time>
      </trkpt>
      <trkpt lat="43.43314" lon="6.09249">
        <ele>290.39999389648</ele>
        <time>2016-11-23T14:00:50Z</time>
      </trkpt>
      <trkpt lat="43.43315" lon="6.09248">
        <ele>289.79998779297</ele>
        <time>2016-11-23T14:01:00Z</time>
      </trkpt>
      <trkpt lat="43.43315" lon="6.09248">
        <ele>289.79998779297</ele>
        <time>2016-11-23T14:01:06Z</time>
      </trkpt>
      <trkpt lat="43.43315" lon="6.09249">
        <ele>289.79998779297</ele>
        <time>2016-11-23T14:01:10Z</time>
      </trkpt>
      <trkpt lat="43.43314" lon="6.0925">
        <ele>290.39999389648</ele>
        <time>2016-11-23T14:01:15Z</time>
      </trkpt>
      <trkpt lat="43.43314" lon="6.09249">
        <ele>290.39999389648</ele>
        <time>2016-11-23T14:01:20Z</time>
      </trkpt>
      <trkpt lat="43.43313" lon="6.09249">
        <ele>290.39999389648</ele>
        <time>2016-11-23T14:01:30Z</time>
      </trkpt>
      <trkpt lat="43.43313" lon="6.09249">
        <ele>290</ele>
        <time>2016-11-23T14:01:35Z</time>
      </trkpt>
      <trkpt lat="43.43314" lon="6.09251">
        <ele>290.20001220703</ele>
        <time>2016-11-23T14:01:45Z</time>
      </trkpt>
      <trkpt lat="43.43314" lon="6.09251">
        <ele>290</ele>
        <time>2016-11-23T14:01:47Z</time>
      </trkpt>
      <trkpt lat="43.43314" lon="6.09251">
        <ele>289.79998779297</ele>
        <time>2016-11-23T14:01:50Z</time>
      </trkpt>
      <trkpt lat="43.43314" lon="6.09247">
        <ele>289.60000610352</ele>
        <time>2016-11-23T14:02:00Z</time>
      </trkpt>
      <trkpt lat="43.43312" lon="6.09247">
        <ele>290</ele>
        <time>2016-11-23T14:02:10Z</time>
      </trkpt>
      <trkpt lat="43.43313" lon="6.09249">
        <ele>290</ele>
        <time>2016-11-23T14:02:23Z</time>
      </trkpt>
      <trkpt lat="43.43313" lon="6.09249">
        <ele>289.79998779297</ele>
        <time>2016-11-23T14:02:30Z</time>
      </trkpt>
      <trkpt lat="43.43313" lon="6.09249">
        <ele>289.60000610352</ele>
        <time>2016-11-23T14:02:32Z</time>
      </trkpt>
      <trkpt lat="43.43316" lon="6.0925">
        <ele>289.79998779297</ele>
        <time>2016-11-23T14:02:40Z</time>
      </trkpt>
      <trkpt lat="43.43316" lon="6.0925">
        <ele>289.79998779297</ele>
        <time>2016-11-23T14:02:50Z</time>
      </trkpt>
      <trkpt lat="43.43316" lon="6.0925">
        <ele>289.79998779297</ele>
        <time>2016-11-23T14:03:00Z</time>
      </trkpt>
      <trkpt lat="43.43315" lon="6.09249">
        <ele>289.79998779297</ele>
        <time>2016-11-23T14:03:10Z</time>
      </trkpt>
      <trkpt lat="43.43314" lon="6.09248">
        <ele>289.79998779297</ele>
        <time>2016-11-23T14:03:20Z</time>
      </trkpt>
      <trkpt lat="43.43315" lon="6.09248">
        <ele>289.79998779297</ele>
        <time>2016-11-23T14:03:30Z</time>
      </trkpt>
      <trkpt lat="43.43315" lon="6.09248">
        <ele>289.79998779297</ele>
        <time>2016-11-23T14:03:50Z</time>
      </trkpt>
      <trkpt lat="43.43315" lon="6.09249">
        <ele>289.79998779297</ele>
        <time>2016-11-23T14:04:00Z</time>
      </trkpt>
      <trkpt lat="43.43314" lon="6.09249">
        <ele>289.79998779297</ele>
        <time>2016-11-23T14:04:10Z</time>
      </trkpt>
      <trkpt lat="43.43314" lon="6.09246">
        <ele>289.79998779297</ele>
        <time>2016-11-23T14:04:20Z</time>
      </trkpt>
      <trkpt lat="43.43314" lon="6.09245">
        <ele>289.79998779297</ele>
        <time>2016-11-23T14:04:28Z</time>
      </trkpt>
      <trkpt lat="43.43314" lon="6.09246">
        <ele>289.79998779297</ele>
        <time>2016-11-23T14:04:30Z</time>
      </trkpt>
      <trkpt lat="43.43313" lon="6.09247">
        <ele>289.79998779297</ele>
        <time>2016-11-23T14:04:40Z</time>
      </trkpt>
      <trkpt lat="43.43311" lon="6.09246">
        <ele>289.79998779297</ele>
        <time>2016-11-23T14:04:50Z</time>
      </trkpt>
      <trkpt lat="43.4331" lon="6.09249">
        <ele>289.79998779297</ele>
        <time>2016-11-23T14:05:00Z</time>
      </trkpt>
      <trkpt lat="43.43311" lon="6.09249">
        <ele>289.79998779297</ele>
        <time>2016-11-23T14:05:10Z</time>
      </trkpt>
      <trkpt lat="43.43311" lon="6.09249">
        <ele>289.79998779297</ele>
        <time>2016-11-23T14:05:16Z</time>
      </trkpt>
      <trkpt lat="43.43311" lon="6.09249">
        <ele>289.79998779297</ele>
        <time>2016-11-23T14:05:20Z</time>
      </trkpt>
      <trkpt lat="43.43311" lon="6.09251">
        <ele>289.79998779297</ele>
        <time>2016-11-23T14:05:30Z</time>
      </trkpt>
      <trkpt lat="43.43311" lon="6.09251">
        <ele>289.79998779297</ele>
        <time>2016-11-23T14:05:40Z</time>
      </trkpt>
      <trkpt lat="43.43312" lon="6.09252">
        <ele>289.79998779297</ele>
        <time>2016-11-23T14:05:50Z</time>
      </trkpt>
      <trkpt lat="43.43312" lon="6.09252">
        <ele>289.79998779297</ele>
        <time>2016-11-23T14:05:55Z</time>
      </trkpt>
      <trkpt lat="43.43312" lon="6.09253">
        <ele>289.79998779297</ele>
        <time>2016-11-23T14:05:58Z</time>
      </trkpt>
      <trkpt lat="43.43312" lon="6.09253">
        <ele>289.79998779297</ele>
        <time>2016-11-23T14:06:00Z</time>
      </trkpt>
      <trkpt lat="43.43311" lon="6.09252">
        <ele>289.79998779297</ele>
        <time>2016-11-23T14:06:10Z</time>
      </trkpt>
      <trkpt lat="43.43313" lon="6.09251">
        <ele>289.79998779297</ele>
        <time>2016-11-23T14:06:20Z</time>
      </trkpt>
      <trkpt lat="43.43313" lon="6.09251">
        <ele>289.79998779297</ele>
        <time>2016-11-23T14:06:26Z</time>
      </trkpt>
      <trkpt lat="43.43313" lon="6.0925">
        <ele>289.79998779297</ele>
        <time>2016-11-23T14:06:30Z</time>
      </trkpt>
      <trkpt lat="43.43314" lon="6.0925">
        <ele>289.79998779297</ele>
        <time>2016-11-23T14:06:40Z</time>
      </trkpt>
      <trkpt lat="43.43314" lon="6.0925">
        <ele>289.79998779297</ele>
        <time>2016-11-23T14:06:50Z</time>
      </trkpt>
      <trkpt lat="43.43315" lon="6.09248">
        <ele>289.79998779297</ele>
        <time>2016-11-23T14:07:10Z</time>
      </trkpt>
      <trkpt lat="43.43314" lon="6.09248">
        <ele>289.79998779297</ele>
        <time>2016-11-23T14:07:20Z</time>
      </trkpt>
      <trkpt lat="43.43313" lon="6.09247">
        <ele>289.79998779297</ele>
        <time>2016-11-23T14:07:30Z</time>
      </trkpt>
      <trkpt lat="43.43312" lon="6.09247">
        <ele>289.79998779297</ele>
        <time>2016-11-23T14:07:40Z</time>
      </trkpt>
      <trkpt lat="43.43312" lon="6.09249">
        <ele>289.79998779297</ele>
        <time>2016-11-23T14:07:50Z</time>
      </trkpt>
      <trkpt lat="43.43312" lon="6.09249">
        <ele>289.79998779297</ele>
        <time>2016-11-23T14:08:00Z</time>
      </trkpt>
      <trkpt lat="43.43314" lon="6.09249">
        <ele>289.79998779297</ele>
        <time>2016-11-23T14:08:09Z</time>
      </trkpt>
      <trkpt lat="43.43315" lon="6.0925">
        <ele>289.79998779297</ele>
        <time>2016-11-23T14:08:13Z</time>
      </trkpt>
      <trkpt lat="43.43316" lon="6.0925">
        <ele>289.79998779297</ele>
        <time>2016-11-23T14:08:20Z</time>
      </trkpt>
      <trkpt lat="43.43316" lon="6.09247">
        <ele>289.79998779297</ele>
        <time>2016-11-23T14:08:30Z</time>
      </trkpt>
      <trkpt lat="43.43316" lon="6.09248">
        <ele>289.79998779297</ele>
        <time>2016-11-23T14:08:40Z</time>
      </trkpt>
      <trkpt lat="43.43316" lon="6.09248">
        <ele>289.79998779297</ele>
        <time>2016-11-23T14:08:43Z</time>
      </trkpt>
      <trkpt lat="43.43314" lon="6.0925">
        <ele>290.60000610352</ele>
        <time>2016-11-23T14:08:46Z</time>
      </trkpt>
      <trkpt lat="43.43314" lon="6.0925">
        <ele>290.79998779297</ele>
        <time>2016-11-23T14:08:50Z</time>
      </trkpt>
      <trkpt lat="43.43314" lon="6.09251">
        <ele>290.60000610352</ele>
        <time>2016-11-23T14:09:00Z</time>
      </trkpt>
      <trkpt lat="43.43314" lon="6.09252">
        <ele>290.39999389648</ele>
        <time>2016-11-23T14:09:10Z</time>
      </trkpt>
      <trkpt lat="43.43312" lon="6.09254">
        <ele>290.39999389648</ele>
        <time>2016-11-23T14:09:20Z</time>
      </trkpt>
      <trkpt lat="43.43309" lon="6.09255">
        <ele>290.20001220703</ele>
        <time>2016-11-23T14:09:22Z</time>
      </trkpt>
      <trkpt lat="43.43296" lon="6.09258">
        <ele>289.60000610352</ele>
        <time>2016-11-23T14:09:26Z</time>
      </trkpt>
      <trkpt lat="43.43288" lon="6.09263">
        <ele>287.79998779297</ele>
        <time>2016-11-23T14:09:28Z</time>
      </trkpt>
      <trkpt lat="43.43281" lon="6.09268">
        <ele>286.20001220703</ele>
        <time>2016-11-23T14:09:30Z</time>
      </trkpt>
      <trkpt lat="43.4327" lon="6.09276">
        <ele>284.79998779297</ele>
        <time>2016-11-23T14:09:33Z</time>
      </trkpt>
      <trkpt lat="43.43265" lon="6.09287">
        <ele>283.39999389648</ele>
        <time>2016-11-23T14:09:35Z</time>
      </trkpt>
      <trkpt lat="43.43262" lon="6.09304">
        <ele>281.79998779297</ele>
        <time>2016-11-23T14:09:37Z</time>
      </trkpt>
      <trkpt lat="43.43261" lon="6.09321">
        <ele>280.79998779297</ele>
        <time>2016-11-23T14:09:39Z</time>
      </trkpt>
      <trkpt lat="43.4326" lon="6.09332">
        <ele>280.60000610352</ele>
        <time>2016-11-23T14:09:41Z</time>
      </trkpt>
      <trkpt lat="43.43256" lon="6.09358">
        <ele>279.20001220703</ele>
        <time>2016-11-23T14:09:45Z</time>
      </trkpt>
      <trkpt lat="43.43256" lon="6.09371">
        <ele>278</ele>
        <time>2016-11-23T14:09:47Z</time>
      </trkpt>
      <trkpt lat="43.43257" lon="6.09378">
        <ele>276.79998779297</ele>
        <time>2016-11-23T14:09:49Z</time>
      </trkpt>
      <trkpt lat="43.43259" lon="6.0938">
        <ele>276.20001220703</ele>
        <time>2016-11-23T14:09:50Z</time>
      </trkpt>
      <trkpt lat="43.43262" lon="6.0938">
        <ele>276</ele>
        <time>2016-11-23T14:09:51Z</time>
      </trkpt>
      <trkpt lat="43.43267" lon="6.09375">
        <ele>275.79998779297</ele>
        <time>2016-11-23T14:09:53Z</time>
      </trkpt>
      <trkpt lat="43.43275" lon="6.09369">
        <ele>275</ele>
        <time>2016-11-23T14:09:55Z</time>
      </trkpt>
      <trkpt lat="43.4328" lon="6.09367">
        <ele>274.39999389648</ele>
        <time>2016-11-23T14:09:56Z</time>
      </trkpt>
      <trkpt lat="43.43292" lon="6.09363">
        <ele>273.20001220703</ele>
        <time>2016-11-23T14:09:58Z</time>
      </trkpt>
      <trkpt lat="43.43305" lon="6.0936">
        <ele>271.39999389648</ele>
        <time>2016-11-23T14:10:00Z</time>
      </trkpt>
      <trkpt lat="43.43311" lon="6.0936">
        <ele>270.20001220703</ele>
        <time>2016-11-23T14:10:01Z</time>
      </trkpt>
      <trkpt lat="43.43316" lon="6.09359">
        <ele>269.20001220703</ele>
        <time>2016-11-23T14:10:02Z</time>
      </trkpt>
      <trkpt lat="43.43328" lon="6.09357">
        <ele>268</ele>
        <time>2016-11-23T14:10:04Z</time>
      </trkpt>
      <trkpt lat="43.43343" lon="6.09354">
        <ele>267</ele>
        <time>2016-11-23T14:10:07Z</time>
      </trkpt>
      <trkpt lat="43.43358" lon="6.0935">
        <ele>265.79998779297</ele>
        <time>2016-11-23T14:10:10Z</time>
      </trkpt>
      <trkpt lat="43.43368" lon="6.09346">
        <ele>263.79998779297</ele>
        <time>2016-11-23T14:10:12Z</time>
      </trkpt>
      <trkpt lat="43.43372" lon="6.09343">
        <ele>262.39999389648</ele>
        <time>2016-11-23T14:10:13Z</time>
      </trkpt>
      <trkpt lat="43.43375" lon="6.09341">
        <ele>261.20001220703</ele>
        <time>2016-11-23T14:10:14Z</time>
      </trkpt>
      <trkpt lat="43.43384" lon="6.09342">
        <ele>259.60000610352</ele>
        <time>2016-11-23T14:10:16Z</time>
      </trkpt>
      <trkpt lat="43.43407" lon="6.09353">
        <ele>258.20001220703</ele>
        <time>2016-11-23T14:10:20Z</time>
      </trkpt>
      <trkpt lat="43.43412" lon="6.09355">
        <ele>257</ele>
        <time>2016-11-23T14:10:21Z</time>
      </trkpt>
      <trkpt lat="43.43417" lon="6.09357">
        <ele>255.39999389648</ele>
        <time>2016-11-23T14:10:22Z</time>
      </trkpt>
      <trkpt lat="43.43422" lon="6.09359">
        <ele>254</ele>
        <time>2016-11-23T14:10:23Z</time>
      </trkpt>
      <trkpt lat="43.43432" lon="6.09367">
        <ele>252.39999389648</ele>
        <time>2016-11-23T14:10:25Z</time>
      </trkpt>
      <trkpt lat="43.43443" lon="6.0938">
        <ele>251.19999694824</ele>
        <time>2016-11-23T14:10:28Z</time>
      </trkpt>
      <trkpt lat="43.43448" lon="6.09389">
        <ele>249.39999389648</ele>
        <time>2016-11-23T14:10:30Z</time>
      </trkpt>
      <trkpt lat="43.43451" lon="6.09392">
        <ele>248.19999694824</ele>
        <time>2016-11-23T14:10:31Z</time>
      </trkpt>
      <trkpt lat="43.43452" lon="6.09392">
        <ele>247.19999694824</ele>
        <time>2016-11-23T14:10:32Z</time>
      </trkpt>
      <trkpt lat="43.43454" lon="6.09391">
        <ele>246.39999389648</ele>
        <time>2016-11-23T14:10:33Z</time>
      </trkpt>
      <trkpt lat="43.43456" lon="6.09389">
        <ele>245.80000305176</ele>
        <time>2016-11-23T14:10:34Z</time>
      </trkpt>
      <trkpt lat="43.43464" lon="6.09387">
        <ele>245.19999694824</ele>
        <time>2016-11-23T14:10:36Z</time>
      </trkpt>
      <trkpt lat="43.4347" lon="6.09387">
        <ele>244.80000305176</ele>
        <time>2016-11-23T14:10:37Z</time>
      </trkpt>
      <trkpt lat="43.43486" lon="6.09387">
        <ele>243.60000610352</ele>
        <time>2016-11-23T14:10:39Z</time>
      </trkpt>
      <trkpt lat="43.43493" lon="6.09387">
        <ele>243.19999694824</ele>
        <time>2016-11-23T14:10:40Z</time>
      </trkpt>
      <trkpt lat="43.43502" lon="6.09387">
        <ele>242.60000610352</ele>
        <time>2016-11-23T14:10:41Z</time>
      </trkpt>
      <trkpt lat="43.4352" lon="6.09387">
        <ele>241.19999694824</ele>
        <time>2016-11-23T14:10:43Z</time>
      </trkpt>
      <trkpt lat="43.43538" lon="6.09388">
        <ele>239.39999389648</ele>
        <time>2016-11-23T14:10:45Z</time>
      </trkpt>
      <trkpt lat="43.43548" lon="6.09389">
        <ele>238.39999389648</ele>
        <time>2016-11-23T14:10:46Z</time>
      </trkpt>
      <trkpt lat="43.43567" lon="6.09391">
        <ele>237</ele>
        <time>2016-11-23T14:10:48Z</time>
      </trkpt>
      <trkpt lat="43.43585" lon="6.0939">
        <ele>235.60000610352</ele>
        <time>2016-11-23T14:10:50Z</time>
      </trkpt>
      <trkpt lat="43.4361" lon="6.09388">
        <ele>234.19999694824</ele>
        <time>2016-11-23T14:10:53Z</time>
      </trkpt>
      <trkpt lat="43.43629" lon="6.09388">
        <ele>234.19999694824</ele>
        <time>2016-11-23T14:11:00Z</time>
      </trkpt>
      <trkpt lat="43.43629" lon="6.09388">
        <ele>234.80000305176</ele>
        <time>2016-11-23T14:11:10Z</time>
      </trkpt>
      <trkpt lat="43.43629" lon="6.09388">
        <ele>234.39999389648</ele>
        <time>2016-11-23T14:11:30Z</time>
      </trkpt>
      <trkpt lat="43.43629" lon="6.09388">
        <ele>234.39999389648</ele>
        <time>2016-11-23T14:12:00Z</time>
      </trkpt>
      <trkpt lat="43.43633" lon="6.09377">
        <ele>234.39999389648</ele>
        <time>2016-11-23T14:12:06Z</time>
      </trkpt>
      <trkpt lat="43.43635" lon="6.09359">
        <ele>233.80000305176</ele>
        <time>2016-11-23T14:12:10Z</time>
      </trkpt>
      <trkpt lat="43.43637" lon="6.09324">
        <ele>233</ele>
        <time>2016-11-23T14:12:16Z</time>
      </trkpt>
      <trkpt lat="43.43637" lon="6.09314">
        <ele>232.80000305176</ele>
        <time>2016-11-23T14:12:19Z</time>
      </trkpt>
      <trkpt lat="43.43638" lon="6.09314">
        <ele>232.80000305176</ele>
        <time>2016-11-23T14:12:20Z</time>
      </trkpt>
      <trkpt lat="43.43638" lon="6.09311">
        <ele>233</ele>
        <time>2016-11-23T14:12:30Z</time>
      </trkpt>
      <trkpt lat="43.43637" lon="6.09306">
        <ele>233</ele>
        <time>2016-11-23T14:12:33Z</time>
      </trkpt>
      <trkpt lat="43.43638" lon="6.09298">
        <ele>232.80000305176</ele>
        <time>2016-11-23T14:12:35Z</time>
      </trkpt>
      <trkpt lat="43.43642" lon="6.09265">
        <ele>232.39999389648</ele>
        <time>2016-11-23T14:12:40Z</time>
      </trkpt>
      <trkpt lat="43.43644" lon="6.09258">
        <ele>232</ele>
        <time>2016-11-23T14:12:41Z</time>
      </trkpt>
      <trkpt lat="43.43654" lon="6.09226">
        <ele>231.39999389648</ele>
        <time>2016-11-23T14:12:45Z</time>
      </trkpt>
      <trkpt lat="43.43668" lon="6.09187">
        <ele>231</ele>
        <time>2016-11-23T14:12:49Z</time>
      </trkpt>
      <trkpt lat="43.43671" lon="6.09175">
        <ele>230.80000305176</ele>
        <time>2016-11-23T14:12:50Z</time>
      </trkpt>
      <trkpt lat="43.43677" lon="6.0915">
        <ele>230</ele>
        <time>2016-11-23T14:12:52Z</time>
      </trkpt>
      <trkpt lat="43.43682" lon="6.09124">
        <ele>228.80000305176</ele>
        <time>2016-11-23T14:12:54Z</time>
      </trkpt>
      <trkpt lat="43.43689" lon="6.09096">
        <ele>227.80000305176</ele>
        <time>2016-11-23T14:12:56Z</time>
      </trkpt>
      <trkpt lat="43.43692" lon="6.09082">
        <ele>227.39999389648</ele>
        <time>2016-11-23T14:12:57Z</time>
      </trkpt>
      <trkpt lat="43.43701" lon="6.09043">
        <ele>226.60000610352</ele>
        <time>2016-11-23T14:13:00Z</time>
      </trkpt>
      <trkpt lat="43.43703" lon="6.0903">
        <ele>226.39999389648</ele>
        <time>2016-11-23T14:13:01Z</time>
      </trkpt>
      <trkpt lat="43.4371" lon="6.08969">
        <ele>226</ele>
        <time>2016-11-23T14:13:06Z</time>
      </trkpt>
      <trkpt lat="43.4371" lon="6.08948">
        <ele>226</ele>
        <time>2016-11-23T14:13:08Z</time>
      </trkpt>
      <trkpt lat="43.43706" lon="6.08932">
        <ele>226</ele>
        <time>2016-11-23T14:13:10Z</time>
      </trkpt>
      <trkpt lat="43.43706" lon="6.08914">
        <ele>226.80000305176</ele>
        <time>2016-11-23T14:13:16Z</time>
      </trkpt>
      <trkpt lat="43.43709" lon="6.0892">
        <ele>226.19999694824</ele>
        <time>2016-11-23T14:13:19Z</time>
      </trkpt>
      <trkpt lat="43.43711" lon="6.08923">
        <ele>226</ele>
        <time>2016-11-23T14:13:20Z</time>
      </trkpt>
      <trkpt lat="43.43718" lon="6.08934">
        <ele>225.19999694824</ele>
        <time>2016-11-23T14:13:24Z</time>
      </trkpt>
      <trkpt lat="43.43736" lon="6.08959">
        <ele>224.39999389648</ele>
        <time>2016-11-23T14:13:30Z</time>
      </trkpt>
      <trkpt lat="43.43739" lon="6.08964">
        <ele>224.19999694824</ele>
        <time>2016-11-23T14:13:31Z</time>
      </trkpt>
      <trkpt lat="43.43753" lon="6.0898">
        <ele>223</ele>
        <time>2016-11-23T14:13:34Z</time>
      </trkpt>
      <trkpt lat="43.43773" lon="6.08995">
        <ele>221.80000305176</ele>
        <time>2016-11-23T14:13:38Z</time>
      </trkpt>
      <trkpt lat="43.43784" lon="6.09003">
        <ele>221.19999694824</ele>
        <time>2016-11-23T14:13:40Z</time>
      </trkpt>
      <trkpt lat="43.43823" lon="6.09035">
        <ele>220.39999389648</ele>
        <time>2016-11-23T14:13:50Z</time>
      </trkpt>
      <trkpt lat="43.43831" lon="6.09042">
        <ele>220.80000305176</ele>
        <time>2016-11-23T14:13:52Z</time>
      </trkpt>
      <trkpt lat="43.43842" lon="6.09054">
        <ele>221</ele>
        <time>2016-11-23T14:13:55Z</time>
      </trkpt>
      <trkpt lat="43.43848" lon="6.09064">
        <ele>220.39999389648</ele>
        <time>2016-11-23T14:13:57Z</time>
      </trkpt>
      <trkpt lat="43.43857" lon="6.09083">
        <ele>219.80000305176</ele>
        <time>2016-11-23T14:14:00Z</time>
      </trkpt>
      <trkpt lat="43.43875" lon="6.09122">
        <ele>220</ele>
        <time>2016-11-23T14:14:06Z</time>
      </trkpt>
      <trkpt lat="43.43878" lon="6.09129">
        <ele>220</ele>
        <time>2016-11-23T14:14:07Z</time>
      </trkpt>
      <trkpt lat="43.43888" lon="6.09148">
        <ele>219.60000610352</ele>
        <time>2016-11-23T14:14:10Z</time>
      </trkpt>
      <trkpt lat="43.43892" lon="6.09154">
        <ele>219.60000610352</ele>
        <time>2016-11-23T14:14:11Z</time>
      </trkpt>
      <trkpt lat="43.43915" lon="6.09178">
        <ele>218.19999694824</ele>
        <time>2016-11-23T14:14:16Z</time>
      </trkpt>
      <trkpt lat="43.43933" lon="6.09202">
        <ele>217</ele>
        <time>2016-11-23T14:14:20Z</time>
      </trkpt>
      <trkpt lat="43.43952" lon="6.09233">
        <ele>216</ele>
        <time>2016-11-23T14:14:25Z</time>
      </trkpt>
      <trkpt lat="43.43967" lon="6.09273">
        <ele>214.80000305176</ele>
        <time>2016-11-23T14:14:30Z</time>
      </trkpt>
      <trkpt lat="43.43978" lon="6.09298">
        <ele>213.80000305176</ele>
        <time>2016-11-23T14:14:33Z</time>
      </trkpt>
      <trkpt lat="43.44002" lon="6.09359">
        <ele>213</ele>
        <time>2016-11-23T14:14:40Z</time>
      </trkpt>
      <trkpt lat="43.44022" lon="6.09419">
        <ele>212.39999389648</ele>
        <time>2016-11-23T14:14:47Z</time>
      </trkpt>
      <trkpt lat="43.44031" lon="6.09446">
        <ele>211.80000305176</ele>
        <time>2016-11-23T14:14:50Z</time>
      </trkpt>
      <trkpt lat="43.44037" lon="6.09464">
        <ele>211.39999389648</ele>
        <time>2016-11-23T14:14:52Z</time>
      </trkpt>
      <trkpt lat="43.44052" lon="6.0951">
        <ele>211</ele>
        <time>2016-11-23T14:14:57Z</time>
      </trkpt>
      <trkpt lat="43.44061" lon="6.09538">
        <ele>210.80000305176</ele>
        <time>2016-11-23T14:15:00Z</time>
      </trkpt>
      <trkpt lat="43.44081" lon="6.09598">
        <ele>210.60000610352</ele>
        <time>2016-11-23T14:15:07Z</time>
      </trkpt>
      <trkpt lat="43.44089" lon="6.09618">
        <ele>210.80000305176</ele>
        <time>2016-11-23T14:15:10Z</time>
      </trkpt>
      <trkpt lat="43.44093" lon="6.09624">
        <ele>211</ele>
        <time>2016-11-23T14:15:11Z</time>
      </trkpt>
      <trkpt lat="43.44116" lon="6.09653">
        <ele>212.39999389648</ele>
        <time>2016-11-23T14:15:17Z</time>
      </trkpt>
      <trkpt lat="43.4412" lon="6.09656">
        <ele>212.80000305176</ele>
        <time>2016-11-23T14:15:18Z</time>
      </trkpt>
      <trkpt lat="43.44129" lon="6.09662">
        <ele>213</ele>
        <time>2016-11-23T14:15:20Z</time>
      </trkpt>
      <trkpt lat="43.44138" lon="6.09669">
        <ele>213</ele>
        <time>2016-11-23T14:15:22Z</time>
      </trkpt>
      <trkpt lat="43.44145" lon="6.0968">
        <ele>212.60000610352</ele>
        <time>2016-11-23T14:15:24Z</time>
      </trkpt>
      <trkpt lat="43.44152" lon="6.09706">
        <ele>211.39999389648</ele>
        <time>2016-11-23T14:15:28Z</time>
      </trkpt>
      <trkpt lat="43.44156" lon="6.09719">
        <ele>210.80000305176</ele>
        <time>2016-11-23T14:15:30Z</time>
      </trkpt>
      <trkpt lat="43.4416" lon="6.09732">
        <ele>210.19999694824</ele>
        <time>2016-11-23T14:15:32Z</time>
      </trkpt>
      <trkpt lat="43.44171" lon="6.09767">
        <ele>209.80000305176</ele>
        <time>2016-11-23T14:15:37Z</time>
      </trkpt>
      <trkpt lat="43.44173" lon="6.09774">
        <ele>209.80000305176</ele>
        <time>2016-11-23T14:15:38Z</time>
      </trkpt>
      <trkpt lat="43.44178" lon="6.09789">
        <ele>209.60000610352</ele>
        <time>2016-11-23T14:15:40Z</time>
      </trkpt>
      <trkpt lat="43.44192" lon="6.09818">
        <ele>207.60000610352</ele>
        <time>2016-11-23T14:15:44Z</time>
      </trkpt>
      <trkpt lat="43.44198" lon="6.09834">
        <ele>206</ele>
        <time>2016-11-23T14:15:46Z</time>
      </trkpt>
      <trkpt lat="43.44205" lon="6.09852">
        <ele>204.80000305176</ele>
        <time>2016-11-23T14:15:48Z</time>
      </trkpt>
      <trkpt lat="43.44215" lon="6.09867">
        <ele>203.80000305176</ele>
        <time>2016-11-23T14:15:50Z</time>
      </trkpt>
      <trkpt lat="43.4422" lon="6.09875">
        <ele>203.19999694824</ele>
        <time>2016-11-23T14:15:51Z</time>
      </trkpt>
      <trkpt lat="43.44231" lon="6.0989">
        <ele>202</ele>
        <time>2016-11-23T14:15:53Z</time>
      </trkpt>
      <trkpt lat="43.44241" lon="6.09906">
        <ele>200.60000610352</ele>
        <time>2016-11-23T14:15:55Z</time>
      </trkpt>
      <trkpt lat="43.44253" lon="6.09931">
        <ele>199.60000610352</ele>
        <time>2016-11-23T14:15:58Z</time>
      </trkpt>
      <trkpt lat="43.44259" lon="6.09943">
        <ele>199.19999694824</ele>
        <time>2016-11-23T14:16:00Z</time>
      </trkpt>
      <trkpt lat="43.44268" lon="6.09964">
        <ele>198.60000610352</ele>
        <time>2016-11-23T14:16:05Z</time>
      </trkpt>
      <trkpt lat="43.4427" lon="6.0997">
        <ele>198.19999694824</ele>
        <time>2016-11-23T14:16:07Z</time>
      </trkpt>
      <trkpt lat="43.44273" lon="6.09979">
        <ele>198</ele>
        <time>2016-11-23T14:16:10Z</time>
      </trkpt>
      <trkpt lat="43.44278" lon="6.09986">
        <ele>198</ele>
        <time>2016-11-23T14:16:13Z</time>
      </trkpt>
      <trkpt lat="43.44287" lon="6.09994">
        <ele>198.19999694824</ele>
        <time>2016-11-23T14:16:17Z</time>
      </trkpt>
      <trkpt lat="43.44295" lon="6.10004">
        <ele>198.39999389648</ele>
        <time>2016-11-23T14:16:20Z</time>
      </trkpt>
      <trkpt lat="43.44299" lon="6.10015">
        <ele>198.60000610352</ele>
        <time>2016-11-23T14:16:23Z</time>
      </trkpt>
      <trkpt lat="43.44301" lon="6.10022">
        <ele>198.80000305176</ele>
        <time>2016-11-23T14:16:25Z</time>
      </trkpt>
      <trkpt lat="43.44304" lon="6.1003">
        <ele>199.39999389648</ele>
        <time>2016-11-23T14:16:27Z</time>
      </trkpt>
      <trkpt lat="43.44305" lon="6.10034">
        <ele>199.80000305176</ele>
        <time>2016-11-23T14:16:28Z</time>
      </trkpt>
      <trkpt lat="43.44307" lon="6.10042">
        <ele>200.39999389648</ele>
        <time>2016-11-23T14:16:30Z</time>
      </trkpt>
      <trkpt lat="43.44314" lon="6.10057">
        <ele>200.80000305176</ele>
        <time>2016-11-23T14:16:35Z</time>
      </trkpt>
      <trkpt lat="43.44311" lon="6.10065">
        <ele>201</ele>
        <time>2016-11-23T14:16:40Z</time>
      </trkpt>
      <trkpt lat="43.44308" lon="6.10069">
        <ele>201.19999694824</ele>
        <time>2016-11-23T14:16:42Z</time>
      </trkpt>
      <trkpt lat="43.44307" lon="6.10083">
        <ele>201.80000305176</ele>
        <time>2016-11-23T14:16:47Z</time>
      </trkpt>
      <trkpt lat="43.44304" lon="6.10088">
        <ele>202</ele>
        <time>2016-11-23T14:16:50Z</time>
      </trkpt>
      <trkpt lat="43.44304" lon="6.10092">
        <ele>202.39999389648</ele>
        <time>2016-11-23T14:16:52Z</time>
      </trkpt>
      <trkpt lat="43.44304" lon="6.10099">
        <ele>202.80000305176</ele>
        <time>2016-11-23T14:16:55Z</time>
      </trkpt>
      <trkpt lat="43.44301" lon="6.10109">
        <ele>203.80000305176</ele>
        <time>2016-11-23T14:16:59Z</time>
      </trkpt>
      <trkpt lat="43.44296" lon="6.10123">
        <ele>204.80000305176</ele>
        <time>2016-11-23T14:17:05Z</time>
      </trkpt>
      <trkpt lat="43.44297" lon="6.10128">
        <ele>205.19999694824</ele>
        <time>2016-11-23T14:17:07Z</time>
      </trkpt>
      <trkpt lat="43.44299" lon="6.10135">
        <ele>205.19999694824</ele>
        <time>2016-11-23T14:17:10Z</time>
      </trkpt>
      <trkpt lat="43.44295" lon="6.1016">
        <ele>206.80000305176</ele>
        <time>2016-11-23T14:17:20Z</time>
      </trkpt>
      <trkpt lat="43.44295" lon="6.10167">
        <ele>207.19999694824</ele>
        <time>2016-11-23T14:17:23Z</time>
      </trkpt>
      <trkpt lat="43.44292" lon="6.10179">
        <ele>207.39999389648</ele>
        <time>2016-11-23T14:17:28Z</time>
      </trkpt>
      <trkpt lat="43.44294" lon="6.10184">
        <ele>207.19999694824</ele>
        <time>2016-11-23T14:17:30Z</time>
      </trkpt>
      <trkpt lat="43.44294" lon="6.10187">
        <ele>207.19999694824</ele>
        <time>2016-11-23T14:17:32Z</time>
      </trkpt>
      <trkpt lat="43.44294" lon="6.10193">
        <ele>207.60000610352</ele>
        <time>2016-11-23T14:17:35Z</time>
      </trkpt>
      <trkpt lat="43.44294" lon="6.10205">
        <ele>208.19999694824</ele>
        <time>2016-11-23T14:17:40Z</time>
      </trkpt>
      <trkpt lat="43.44294" lon="6.10223">
        <ele>208.60000610352</ele>
        <time>2016-11-23T14:17:47Z</time>
      </trkpt>
      <trkpt lat="43.44294" lon="6.10228">
        <ele>208.60000610352</ele>
        <time>2016-11-23T14:17:50Z</time>
      </trkpt>
      <trkpt lat="43.44293" lon="6.10232">
        <ele>208.60000610352</ele>
        <time>2016-11-23T14:18:00Z</time>
      </trkpt>
      <trkpt lat="43.44293" lon="6.10232">
        <ele>208.60000610352</ele>
        <time>2016-11-23T14:18:16Z</time>
      </trkpt>
      <trkpt lat="43.44293" lon="6.10232">
        <ele>208.19999694824</ele>
        <time>2016-11-23T14:19:36Z</time>
      </trkpt>
      <trkpt lat="43.44293" lon="6.10239">
        <ele>208.80000305176</ele>
        <time>2016-11-23T14:19:39Z</time>
      </trkpt>
      <trkpt lat="43.44292" lon="6.10241">
        <ele>208.60000610352</ele>
        <time>2016-11-23T14:19:40Z</time>
      </trkpt>
      <trkpt lat="43.4428" lon="6.10267">
        <ele>207.80000305176</ele>
        <time>2016-11-23T14:19:48Z</time>
      </trkpt>
      <trkpt lat="43.44275" lon="6.10273">
        <ele>207.80000305176</ele>
        <time>2016-11-23T14:19:50Z</time>
      </trkpt>
      <trkpt lat="43.44267" lon="6.10302">
        <ele>207.80000305176</ele>
        <time>2016-11-23T14:20:00Z</time>
      </trkpt>
      <trkpt lat="43.44262" lon="6.10311">
        <ele>207.80000305176</ele>
        <time>2016-11-23T14:20:05Z</time>
      </trkpt>
      <trkpt lat="43.44255" lon="6.10322">
        <ele>208.19999694824</ele>
        <time>2016-11-23T14:20:09Z</time>
      </trkpt>
      <trkpt lat="43.44253" lon="6.10323">
        <ele>208.39999389648</ele>
        <time>2016-11-23T14:20:10Z</time>
      </trkpt>
      <trkpt lat="43.44231" lon="6.10306">
        <ele>208.39999389648</ele>
        <time>2016-11-23T14:20:20Z</time>
      </trkpt>
      <trkpt lat="43.4422" lon="6.10296">
        <ele>207.80000305176</ele>
        <time>2016-11-23T14:20:25Z</time>
      </trkpt>
      <trkpt lat="43.44216" lon="6.10295">
        <ele>207.60000610352</ele>
        <time>2016-11-23T14:20:27Z</time>
      </trkpt>
      <trkpt lat="43.4421" lon="6.10291">
        <ele>207.39999389648</ele>
        <time>2016-11-23T14:20:30Z</time>
      </trkpt>
      <trkpt lat="43.44204" lon="6.10289">
        <ele>207.39999389648</ele>
        <time>2016-11-23T14:20:34Z</time>
      </trkpt>
      <trkpt lat="43.44194" lon="6.10285">
        <ele>207.19999694824</ele>
        <time>2016-11-23T14:20:38Z</time>
      </trkpt>
      <trkpt lat="43.44189" lon="6.10284">
        <ele>207</ele>
        <time>2016-11-23T14:20:40Z</time>
      </trkpt>
      <trkpt lat="43.44179" lon="6.10287">
        <ele>207.19999694824</ele>
        <time>2016-11-23T14:20:46Z</time>
      </trkpt>
      <trkpt lat="43.44177" lon="6.10293">
        <ele>208</ele>
        <time>2016-11-23T14:20:50Z</time>
      </trkpt>
      <trkpt lat="43.44177" lon="6.10296">
        <ele>208.19999694824</ele>
        <time>2016-11-23T14:20:53Z</time>
      </trkpt>
      <trkpt lat="43.44177" lon="6.10295">
        <ele>208.19999694824</ele>
        <time>2016-11-23T14:20:54Z</time>
      </trkpt>
      <trkpt lat="43.44176" lon="6.10294">
        <ele>208.60000610352</ele>
        <time>2016-11-23T14:20:56Z</time>
      </trkpt>
      <trkpt lat="43.44176" lon="6.10294">
        <ele>208.80000305176</ele>
        <time>2016-11-23T14:21:00Z</time>
      </trkpt>
      <trkpt lat="43.44175" lon="6.10297">
        <ele>208.80000305176</ele>
        <time>2016-11-23T14:21:10Z</time>
      </trkpt>
      <trkpt lat="43.44175" lon="6.10297">
        <ele>209</ele>
        <time>2016-11-23T14:21:20Z</time>
      </trkpt>
      <trkpt lat="43.44174" lon="6.10298">
        <ele>209.19999694824</ele>
        <time>2016-11-23T14:21:30Z</time>
      </trkpt>
      <trkpt lat="43.44174" lon="6.103">
        <ele>209.60000610352</ele>
        <time>2016-11-23T14:21:40Z</time>
      </trkpt>
      <trkpt lat="43.44173" lon="6.10303">
        <ele>209.80000305176</ele>
        <time>2016-11-23T14:21:47Z</time>
      </trkpt>
      <trkpt lat="43.44172" lon="6.10306">
        <ele>209.80000305176</ele>
        <time>2016-11-23T14:21:50Z</time>
      </trkpt>
      <trkpt lat="43.4417" lon="6.10314">
        <ele>210.39999389648</ele>
        <time>2016-11-23T14:21:54Z</time>
      </trkpt>
      <trkpt lat="43.4417" lon="6.10319">
        <ele>211</ele>
        <time>2016-11-23T14:21:57Z</time>
      </trkpt>
      <trkpt lat="43.44168" lon="6.10324">
        <ele>211</ele>
        <time>2016-11-23T14:22:00Z</time>
      </trkpt>
      <trkpt lat="43.44166" lon="6.10329">
        <ele>211</ele>
        <time>2016-11-23T14:22:04Z</time>
      </trkpt>
      <trkpt lat="43.44164" lon="6.10339">
        <ele>211</ele>
        <time>2016-11-23T14:22:08Z</time>
      </trkpt>
      <trkpt lat="43.44163" lon="6.10346">
        <ele>211</ele>
        <time>2016-11-23T14:22:10Z</time>
      </trkpt>
      <trkpt lat="43.44161" lon="6.10375">
        <ele>211.39999389648</ele>
        <time>2016-11-23T14:22:18Z</time>
      </trkpt>
      <trkpt lat="43.44159" lon="6.10382">
        <ele>211.60000610352</ele>
        <time>2016-11-23T14:22:20Z</time>
      </trkpt>
      <trkpt lat="43.44155" lon="6.10408">
        <ele>212</ele>
        <time>2016-11-23T14:22:27Z</time>
      </trkpt>
      <trkpt lat="43.44154" lon="6.10419">
        <ele>212</ele>
        <time>2016-11-23T14:22:30Z</time>
      </trkpt>
      <trkpt lat="43.44151" lon="6.10437">
        <ele>212.60000610352</ele>
        <time>2016-11-23T14:22:35Z</time>
      </trkpt>
      <trkpt lat="43.44146" lon="6.10478">
        <ele>213.60000610352</ele>
        <time>2016-11-23T14:22:47Z</time>
      </trkpt>
      <trkpt lat="43.44144" lon="6.10489">
        <ele>214.19999694824</ele>
        <time>2016-11-23T14:22:50Z</time>
      </trkpt>
      <trkpt lat="43.44141" lon="6.10502">
        <ele>214.60000610352</ele>
        <time>2016-11-23T14:22:54Z</time>
      </trkpt>
      <trkpt lat="43.44129" lon="6.10518">
        <ele>215.80000305176</ele>
        <time>2016-11-23T14:23:02Z</time>
      </trkpt>
      <trkpt lat="43.4412" lon="6.10543">
        <ele>215.80000305176</ele>
        <time>2016-11-23T14:23:10Z</time>
      </trkpt>
      <trkpt lat="43.4411" lon="6.10577">
        <ele>215.80000305176</ele>
        <time>2016-11-23T14:23:20Z</time>
      </trkpt>
      <trkpt lat="43.4409" lon="6.10612">
        <ele>215.60000610352</ele>
        <time>2016-11-23T14:23:30Z</time>
      </trkpt>
      <trkpt lat="43.44073" lon="6.10646">
        <ele>215.39999389648</ele>
        <time>2016-11-23T14:23:40Z</time>
      </trkpt>
      <trkpt lat="43.44075" lon="6.10682">
        <ele>216.19999694824</ele>
        <time>2016-11-23T14:23:50Z</time>
      </trkpt>
      <trkpt lat="43.44075" lon="6.10712">
        <ele>216.80000305176</ele>
        <time>2016-11-23T14:23:58Z</time>
      </trkpt>
      <trkpt lat="43.44077" lon="6.1072">
        <ele>217</ele>
        <time>2016-11-23T14:24:00Z</time>
      </trkpt>
      <trkpt lat="43.4408" lon="6.10728">
        <ele>217.60000610352</ele>
        <time>2016-11-23T14:24:03Z</time>
      </trkpt>
      <trkpt lat="43.4408" lon="6.10735">
        <ele>217.80000305176</ele>
        <time>2016-11-23T14:24:05Z</time>
      </trkpt>
      <trkpt lat="43.44079" lon="6.10753">
        <ele>218</ele>
        <time>2016-11-23T14:24:10Z</time>
      </trkpt>
      <trkpt lat="43.44078" lon="6.10764">
        <ele>217.80000305176</ele>
        <time>2016-11-23T14:24:14Z</time>
      </trkpt>
      <trkpt lat="43.44072" lon="6.10777">
        <ele>218.80000305176</ele>
        <time>2016-11-23T14:24:19Z</time>
      </trkpt>
      <trkpt lat="43.4407" lon="6.10793">
        <ele>219.80000305176</ele>
        <time>2016-11-23T14:24:24Z</time>
      </trkpt>
      <trkpt lat="43.44067" lon="6.10803">
        <ele>220.19999694824</ele>
        <time>2016-11-23T14:24:27Z</time>
      </trkpt>
      <trkpt lat="43.44065" lon="6.10813">
        <ele>220.19999694824</ele>
        <time>2016-11-23T14:24:30Z</time>
      </trkpt>
      <trkpt lat="43.44063" lon="6.1083">
        <ele>220.60000610352</ele>
        <time>2016-11-23T14:24:36Z</time>
      </trkpt>
      <trkpt lat="43.44064" lon="6.10837">
        <ele>220.80000305176</ele>
        <time>2016-11-23T14:24:40Z</time>
      </trkpt>
      <trkpt lat="43.44063" lon="6.10842">
        <ele>220.80000305176</ele>
        <time>2016-11-23T14:24:44Z</time>
      </trkpt>
      <trkpt lat="43.44063" lon="6.10842">
        <ele>220.60000610352</ele>
        <time>2016-11-23T14:24:50Z</time>
      </trkpt>
      <trkpt lat="43.44063" lon="6.10842">
        <ele>220.80000305176</ele>
        <time>2016-11-23T14:25:00Z</time>
      </trkpt>
      <trkpt lat="43.44063" lon="6.10842">
        <ele>221.60000610352</ele>
        <time>2016-11-23T14:25:24Z</time>
      </trkpt>
      <trkpt lat="43.44062" lon="6.10843">
        <ele>221.19999694824</ele>
        <time>2016-11-23T14:25:30Z</time>
      </trkpt>
      <trkpt lat="43.44064" lon="6.10836">
        <ele>221.19999694824</ele>
        <time>2016-11-23T14:25:40Z</time>
      </trkpt>
      <trkpt lat="43.44064" lon="6.10834">
        <ele>221.19999694824</ele>
        <time>2016-11-23T14:25:43Z</time>
      </trkpt>
      <trkpt lat="43.44064" lon="6.10835">
        <ele>221.19999694824</ele>
        <time>2016-11-23T14:25:50Z</time>
      </trkpt>
      <trkpt lat="43.44064" lon="6.10835">
        <ele>221.19999694824</ele>
        <time>2016-11-23T14:25:55Z</time>
      </trkpt>
      <trkpt lat="43.44064" lon="6.10834">
        <ele>221.19999694824</ele>
        <time>2016-11-23T14:26:00Z</time>
      </trkpt>
      <trkpt lat="43.44064" lon="6.10834">
        <ele>221.19999694824</ele>
        <time>2016-11-23T14:26:20Z</time>
      </trkpt>
      <trkpt lat="43.44064" lon="6.10834">
        <ele>221.19999694824</ele>
        <time>2016-11-23T14:26:26Z</time>
      </trkpt>
      <trkpt lat="43.44064" lon="6.10833">
        <ele>221.19999694824</ele>
        <time>2016-11-23T14:26:50Z</time>
      </trkpt>
      <trkpt lat="43.44063" lon="6.10833">
        <ele>221.19999694824</ele>
        <time>2016-11-23T14:27:00Z</time>
      </trkpt>
      <trkpt lat="43.44063" lon="6.10834">
        <ele>221.19999694824</ele>
        <time>2016-11-23T14:27:10Z</time>
      </trkpt>
      <trkpt lat="43.44063" lon="6.10834">
        <ele>221.19999694824</ele>
        <time>2016-11-23T14:27:20Z</time>
      </trkpt>
      <trkpt lat="43.44063" lon="6.10836">
        <ele>221.19999694824</ele>
        <time>2016-11-23T14:27:40Z</time>
      </trkpt>
      <trkpt lat="43.44063" lon="6.10837">
        <ele>221.19999694824</ele>
        <time>2016-11-23T14:27:50Z</time>
      </trkpt>
      <trkpt lat="43.44063" lon="6.10837">
        <ele>221.19999694824</ele>
        <time>2016-11-23T14:28:00Z</time>
      </trkpt>
      <trkpt lat="43.44063" lon="6.10836">
        <ele>221.19999694824</ele>
        <time>2016-11-23T14:28:20Z</time>
      </trkpt>
      <trkpt lat="43.44063" lon="6.10836">
        <ele>221.19999694824</ele>
        <time>2016-11-23T14:28:40Z</time>
      </trkpt>
      <trkpt lat="43.44063" lon="6.10837">
        <ele>221.19999694824</ele>
        <time>2016-11-23T14:28:43Z</time>
      </trkpt>
      <trkpt lat="43.44063" lon="6.10836">
        <ele>221.19999694824</ele>
        <time>2016-11-23T14:28:50Z</time>
      </trkpt>
      <trkpt lat="43.44062" lon="6.10838">
        <ele>221.19999694824</ele>
        <time>2016-11-23T14:28:52Z</time>
      </trkpt>
      <trkpt lat="43.44061" lon="6.10841">
        <ele>222</ele>
        <time>2016-11-23T14:28:54Z</time>
      </trkpt>
      <trkpt lat="43.44056" lon="6.10856">
        <ele>222</ele>
        <time>2016-11-23T14:29:00Z</time>
      </trkpt>
      <trkpt lat="43.44055" lon="6.10863">
        <ele>222.19999694824</ele>
        <time>2016-11-23T14:29:02Z</time>
      </trkpt>
      <trkpt lat="43.44053" lon="6.10879">
        <ele>223</ele>
        <time>2016-11-23T14:29:06Z</time>
      </trkpt>
      <trkpt lat="43.4405" lon="6.10888">
        <ele>223.39999389648</ele>
        <time>2016-11-23T14:29:08Z</time>
      </trkpt>
      <trkpt lat="43.44046" lon="6.10895">
        <ele>223.39999389648</ele>
        <time>2016-11-23T14:29:10Z</time>
      </trkpt>
      <trkpt lat="43.44043" lon="6.10898">
        <ele>223.60000610352</ele>
        <time>2016-11-23T14:29:11Z</time>
      </trkpt>
      <trkpt lat="43.44035" lon="6.10917">
        <ele>224.60000610352</ele>
        <time>2016-11-23T14:29:16Z</time>
      </trkpt>
      <trkpt lat="43.44027" lon="6.10929">
        <ele>225.80000305176</ele>
        <time>2016-11-23T14:29:20Z</time>
      </trkpt>
      <trkpt lat="43.44017" lon="6.10943">
        <ele>227.19999694824</ele>
        <time>2016-11-23T14:29:25Z</time>
      </trkpt>
      <trkpt lat="43.44013" lon="6.10954">
        <ele>227.80000305176</ele>
        <time>2016-11-23T14:29:29Z</time>
      </trkpt>
      <trkpt lat="43.44012" lon="6.10957">
        <ele>227.80000305176</ele>
        <time>2016-11-23T14:29:30Z</time>
      </trkpt>
      <trkpt lat="43.4401" lon="6.10962">
        <ele>228.19999694824</ele>
        <time>2016-11-23T14:29:32Z</time>
      </trkpt>
      <trkpt lat="43.43998" lon="6.10978">
        <ele>228.80000305176</ele>
        <time>2016-11-23T14:29:40Z</time>
      </trkpt>
      <trkpt lat="43.43991" lon="6.10994">
        <ele>229.19999694824</ele>
        <time>2016-11-23T14:29:49Z</time>
      </trkpt>
      <trkpt lat="43.4399" lon="6.11004">
        <ele>229.60000610352</ele>
        <time>2016-11-23T14:29:54Z</time>
      </trkpt>
      <trkpt lat="43.43988" lon="6.11009">
        <ele>230.39999389648</ele>
        <time>2016-11-23T14:29:57Z</time>
      </trkpt>
      <trkpt lat="43.43985" lon="6.11015">
        <ele>231</ele>
        <time>2016-11-23T14:30:00Z</time>
      </trkpt>
      <trkpt lat="43.43976" lon="6.11025">
        <ele>232.19999694824</ele>
        <time>2016-11-23T14:30:08Z</time>
      </trkpt>
      <trkpt lat="43.43972" lon="6.11028">
        <ele>232.60000610352</ele>
        <time>2016-11-23T14:30:11Z</time>
      </trkpt>
      <trkpt lat="43.43968" lon="6.11034">
        <ele>233.60000610352</ele>
        <time>2016-11-23T14:30:15Z</time>
      </trkpt>
      <trkpt lat="43.43962" lon="6.1104">
        <ele>234</ele>
        <time>2016-11-23T14:30:20Z</time>
      </trkpt>
      <trkpt lat="43.43954" lon="6.11048">
        <ele>234.60000610352</ele>
        <time>2016-11-23T14:30:27Z</time>
      </trkpt>
      <trkpt lat="43.43951" lon="6.1105">
        <ele>235</ele>
        <time>2016-11-23T14:30:30Z</time>
      </trkpt>
      <trkpt lat="43.43946" lon="6.11054">
        <ele>235.80000305176</ele>
        <time>2016-11-23T14:30:35Z</time>
      </trkpt>
      <trkpt lat="43.4394" lon="6.1106">
        <ele>236.39999389648</ele>
        <time>2016-11-23T14:30:40Z</time>
      </trkpt>
      <trkpt lat="43.43937" lon="6.11061">
        <ele>237</ele>
        <time>2016-11-23T14:30:42Z</time>
      </trkpt>
      <trkpt lat="43.43933" lon="6.11067">
        <ele>237.60000610352</ele>
        <time>2016-11-23T14:30:48Z</time>
      </trkpt>
      <trkpt lat="43.43932" lon="6.11069">
        <ele>237.80000305176</ele>
        <time>2016-11-23T14:30:50Z</time>
      </trkpt>
      <trkpt lat="43.43931" lon="6.11071">
        <ele>238</ele>
        <time>2016-11-23T14:30:51Z</time>
      </trkpt>
      <trkpt lat="43.43929" lon="6.1108">
        <ele>239</ele>
        <time>2016-11-23T14:30:57Z</time>
      </trkpt>
      <trkpt lat="43.43926" lon="6.11089">
        <ele>240</ele>
        <time>2016-11-23T14:31:02Z</time>
      </trkpt>
      <trkpt lat="43.43923" lon="6.11103">
        <ele>241.19999694824</ele>
        <time>2016-11-23T14:31:10Z</time>
      </trkpt>
      <trkpt lat="43.43921" lon="6.11111">
        <ele>242.19999694824</ele>
        <time>2016-11-23T14:31:15Z</time>
      </trkpt>
      <trkpt lat="43.4392" lon="6.1112">
        <ele>242.80000305176</ele>
        <time>2016-11-23T14:31:20Z</time>
      </trkpt>
      <trkpt lat="43.43918" lon="6.11128">
        <ele>243.60000610352</ele>
        <time>2016-11-23T14:31:25Z</time>
      </trkpt>
      <trkpt lat="43.43913" lon="6.11136">
        <ele>244.39999389648</ele>
        <time>2016-11-23T14:31:30Z</time>
      </trkpt>
      <trkpt lat="43.4391" lon="6.11144">
        <ele>245.19999694824</ele>
        <time>2016-11-23T14:31:35Z</time>
      </trkpt>
      <trkpt lat="43.43905" lon="6.11153">
        <ele>245.19999694824</ele>
        <time>2016-11-23T14:31:40Z</time>
      </trkpt>
      <trkpt lat="43.43903" lon="6.11164">
        <ele>246</ele>
        <time>2016-11-23T14:31:46Z</time>
      </trkpt>
      <trkpt lat="43.439" lon="6.11172">
        <ele>246.60000610352</ele>
        <time>2016-11-23T14:31:50Z</time>
      </trkpt>
      <trkpt lat="43.43898" lon="6.11182">
        <ele>246</ele>
        <time>2016-11-23T14:31:55Z</time>
      </trkpt>
      <trkpt lat="43.43896" lon="6.11191">
        <ele>246.39999389648</ele>
        <time>2016-11-23T14:32:00Z</time>
      </trkpt>
      <trkpt lat="43.43894" lon="6.11199">
        <ele>247</ele>
        <time>2016-11-23T14:32:05Z</time>
      </trkpt>
      <trkpt lat="43.43894" lon="6.11199">
        <ele>247</ele>
        <time>2016-11-23T14:32:09Z</time>
      </trkpt>
      <trkpt lat="43.43894" lon="6.11199">
        <ele>247</ele>
        <time>2016-11-23T14:32:10Z</time>
      </trkpt>
      <trkpt lat="43.43894" lon="6.11199">
        <ele>247</ele>
        <time>2016-11-23T14:32:16Z</time>
      </trkpt>
      <trkpt lat="43.43894" lon="6.11199">
        <ele>246.39999389648</ele>
        <time>2016-11-23T14:33:40Z</time>
      </trkpt>
      <trkpt lat="43.43894" lon="6.11199">
        <ele>246.39999389648</ele>
        <time>2016-11-23T14:33:44Z</time>
      </trkpt>
      <trkpt lat="43.43893" lon="6.11201">
        <ele>246.39999389648</ele>
        <time>2016-11-23T14:33:53Z</time>
      </trkpt>
      <trkpt lat="43.43893" lon="6.11202">
        <ele>246.39999389648</ele>
        <time>2016-11-23T14:33:54Z</time>
      </trkpt>
      <trkpt lat="43.43891" lon="6.11209">
        <ele>246.19999694824</ele>
        <time>2016-11-23T14:33:58Z</time>
      </trkpt>
      <trkpt lat="43.43891" lon="6.11214">
        <ele>245.80000305176</ele>
        <time>2016-11-23T14:34:00Z</time>
      </trkpt>
      <trkpt lat="43.43892" lon="6.11218">
        <ele>246</ele>
        <time>2016-11-23T14:34:02Z</time>
      </trkpt>
      <trkpt lat="43.43891" lon="6.11219">
        <ele>245.80000305176</ele>
        <time>2016-11-23T14:34:07Z</time>
      </trkpt>
      <trkpt lat="43.43889" lon="6.11225">
        <ele>245.19999694824</ele>
        <time>2016-11-23T14:34:10Z</time>
      </trkpt>
      <trkpt lat="43.43886" lon="6.11235">
        <ele>244.60000610352</ele>
        <time>2016-11-23T14:34:13Z</time>
      </trkpt>
      <trkpt lat="43.43879" lon="6.11252">
        <ele>243.60000610352</ele>
        <time>2016-11-23T14:34:17Z</time>
      </trkpt>
      <trkpt lat="43.43874" lon="6.11266">
        <ele>242.80000305176</ele>
        <time>2016-11-23T14:34:20Z</time>
      </trkpt>
      <trkpt lat="43.43871" lon="6.11277">
        <ele>242.39999389648</ele>
        <time>2016-11-23T14:34:22Z</time>
      </trkpt>
      <trkpt lat="43.43866" lon="6.11294">
        <ele>240.80000305176</ele>
        <time>2016-11-23T14:34:25Z</time>
      </trkpt>
      <trkpt lat="43.43861" lon="6.11303">
        <ele>239.80000305176</ele>
        <time>2016-11-23T14:34:27Z</time>
      </trkpt>
      <trkpt lat="43.43858" lon="6.11305">
        <ele>239.39999389648</ele>
        <time>2016-11-23T14:34:28Z</time>
      </trkpt>
      <trkpt lat="43.4385" lon="6.11306">
        <ele>238.60000610352</ele>
        <time>2016-11-23T14:34:30Z</time>
      </trkpt>
      <trkpt lat="43.43838" lon="6.11308">
        <ele>237.60000610352</ele>
        <time>2016-11-23T14:34:33Z</time>
      </trkpt>
      <trkpt lat="43.43834" lon="6.11309">
        <ele>237.39999389648</ele>
        <time>2016-11-23T14:34:34Z</time>
      </trkpt>
      <trkpt lat="43.43829" lon="6.11311">
        <ele>237.60000610352</ele>
        <time>2016-11-23T14:34:35Z</time>
      </trkpt>
      <trkpt lat="43.43816" lon="6.11318">
        <ele>237.39999389648</ele>
        <time>2016-11-23T14:34:38Z</time>
      </trkpt>
      <trkpt lat="43.43808" lon="6.11323">
        <ele>237.39999389648</ele>
        <time>2016-11-23T14:34:40Z</time>
      </trkpt>
      <trkpt lat="43.43805" lon="6.11327">
        <ele>237.19999694824</ele>
        <time>2016-11-23T14:34:41Z</time>
      </trkpt>
      <trkpt lat="43.43798" lon="6.11336">
        <ele>237.39999389648</ele>
        <time>2016-11-23T14:34:44Z</time>
      </trkpt>
      <trkpt lat="43.43795" lon="6.1134">
        <ele>238</ele>
        <time>2016-11-23T14:34:46Z</time>
      </trkpt>
      <trkpt lat="43.4379" lon="6.11344">
        <ele>238.39999389648</ele>
        <time>2016-11-23T14:34:49Z</time>
      </trkpt>
      <trkpt lat="43.43786" lon="6.11349">
        <ele>238.39999389648</ele>
        <time>2016-11-23T14:34:52Z</time>
      </trkpt>
      <trkpt lat="43.43789" lon="6.11353">
        <ele>238.60000610352</ele>
        <time>2016-11-23T14:34:55Z</time>
      </trkpt>
      <trkpt lat="43.43792" lon="6.11352">
        <ele>238.80000305176</ele>
        <time>2016-11-23T14:34:57Z</time>
      </trkpt>
      <trkpt lat="43.43795" lon="6.11347">
        <ele>239</ele>
        <time>2016-11-23T14:35:00Z</time>
      </trkpt>
      <trkpt lat="43.43799" lon="6.11344">
        <ele>239.39999389648</ele>
        <time>2016-11-23T14:35:02Z</time>
      </trkpt>
      <trkpt lat="43.43803" lon="6.11342">
        <ele>239.60000610352</ele>
        <time>2016-11-23T14:35:04Z</time>
      </trkpt>
      <trkpt lat="43.43813" lon="6.1134">
        <ele>240.19999694824</ele>
        <time>2016-11-23T14:35:10Z</time>
      </trkpt>
      <trkpt lat="43.43829" lon="6.11348">
        <ele>240.60000610352</ele>
        <time>2016-11-23T14:35:19Z</time>
      </trkpt>
      <trkpt lat="43.43848" lon="6.11368">
        <ele>240.80000305176</ele>
        <time>2016-11-23T14:35:30Z</time>
      </trkpt>
      <trkpt lat="43.43853" lon="6.11382">
        <ele>241.60000610352</ele>
        <time>2016-11-23T14:35:36Z</time>
      </trkpt>
      <trkpt lat="43.43851" lon="6.11391">
        <ele>242</ele>
        <time>2016-11-23T14:35:40Z</time>
      </trkpt>
      <trkpt lat="43.43848" lon="6.114">
        <ele>242.80000305176</ele>
        <time>2016-11-23T14:35:44Z</time>
      </trkpt>
      <trkpt lat="43.43845" lon="6.11412">
        <ele>244</ele>
        <time>2016-11-23T14:35:50Z</time>
      </trkpt>
      <trkpt lat="43.43839" lon="6.11418">
        <ele>245</ele>
        <time>2016-11-23T14:35:55Z</time>
      </trkpt>
      <trkpt lat="43.43834" lon="6.11417">
        <ele>245.60000610352</ele>
        <time>2016-11-23T14:35:59Z</time>
      </trkpt>
      <trkpt lat="43.4383" lon="6.11416">
        <ele>246</ele>
        <time>2016-11-23T14:36:02Z</time>
      </trkpt>
      <trkpt lat="43.43826" lon="6.11417">
        <ele>247.39999389648</ele>
        <time>2016-11-23T14:36:05Z</time>
      </trkpt>
      <trkpt lat="43.43823" lon="6.1142">
        <ele>248.39999389648</ele>
        <time>2016-11-23T14:36:08Z</time>
      </trkpt>
      <trkpt lat="43.43822" lon="6.11421">
        <ele>248.80000305176</ele>
        <time>2016-11-23T14:36:09Z</time>
      </trkpt>
      <trkpt lat="43.43822" lon="6.11423">
        <ele>249</ele>
        <time>2016-11-23T14:36:10Z</time>
      </trkpt>
      <trkpt lat="43.4382" lon="6.11429">
        <ele>249.39999389648</ele>
        <time>2016-11-23T14:36:14Z</time>
      </trkpt>
      <trkpt lat="43.43818" lon="6.11431">
        <ele>249.60000610352</ele>
        <time>2016-11-23T14:36:17Z</time>
      </trkpt>
      <trkpt lat="43.43815" lon="6.11434">
        <ele>250</ele>
        <time>2016-11-23T14:36:20Z</time>
      </trkpt>
      <trkpt lat="43.43812" lon="6.11437">
        <ele>250.80000305176</ele>
        <time>2016-11-23T14:36:23Z</time>
      </trkpt>
      <trkpt lat="43.43808" lon="6.11439">
        <ele>251.80000305176</ele>
        <time>2016-11-23T14:36:26Z</time>
      </trkpt>
      <trkpt lat="43.43805" lon="6.11442">
        <ele>252.39999389648</ele>
        <time>2016-11-23T14:36:30Z</time>
      </trkpt>
      <trkpt lat="43.43797" lon="6.11448">
        <ele>252.39999389648</ele>
        <time>2016-11-23T14:36:39Z</time>
      </trkpt>
      <trkpt lat="43.43795" lon="6.11456">
        <ele>253</ele>
        <time>2016-11-23T14:36:44Z</time>
      </trkpt>
      <trkpt lat="43.43797" lon="6.11464">
        <ele>253.39999389648</ele>
        <time>2016-11-23T14:36:50Z</time>
      </trkpt>
      <trkpt lat="43.438" lon="6.11472">
        <ele>255.19999694824</ele>
        <time>2016-11-23T14:36:57Z</time>
      </trkpt>
      <trkpt lat="43.43801" lon="6.11476">
        <ele>256</ele>
        <time>2016-11-23T14:37:00Z</time>
      </trkpt>
      <trkpt lat="43.438" lon="6.11477">
        <ele>256.20001220703</ele>
        <time>2016-11-23T14:37:01Z</time>
      </trkpt>
      <trkpt lat="43.43798" lon="6.11481">
        <ele>257.39999389648</ele>
        <time>2016-11-23T14:37:05Z</time>
      </trkpt>
      <trkpt lat="43.43798" lon="6.11482">
        <ele>257.79998779297</ele>
        <time>2016-11-23T14:37:10Z</time>
      </trkpt>
      <trkpt lat="43.43798" lon="6.11482">
        <ele>257.39999389648</ele>
        <time>2016-11-23T14:37:20Z</time>
      </trkpt>
      <trkpt lat="43.43798" lon="6.11482">
        <ele>257.39999389648</ele>
        <time>2016-11-23T14:37:24Z</time>
      </trkpt>
      <trkpt lat="43.438" lon="6.11491">
        <ele>258.20001220703</ele>
        <time>2016-11-23T14:37:30Z</time>
      </trkpt>
      <trkpt lat="43.438" lon="6.11494">
        <ele>258.39999389648</ele>
        <time>2016-11-23T14:37:32Z</time>
      </trkpt>
      <trkpt lat="43.438" lon="6.11498">
        <ele>259</ele>
        <time>2016-11-23T14:37:35Z</time>
      </trkpt>
      <trkpt lat="43.438" lon="6.11504">
        <ele>259.39999389648</ele>
        <time>2016-11-23T14:37:39Z</time>
      </trkpt>
      <trkpt lat="43.438" lon="6.11506">
        <ele>259.60000610352</ele>
        <time>2016-11-23T14:37:40Z</time>
      </trkpt>
      <trkpt lat="43.43802" lon="6.11511">
        <ele>260.39999389648</ele>
        <time>2016-11-23T14:37:45Z</time>
      </trkpt>
      <trkpt lat="43.43806" lon="6.11515">
        <ele>261.20001220703</ele>
        <time>2016-11-23T14:37:50Z</time>
      </trkpt>
      <trkpt lat="43.43812" lon="6.11515">
        <ele>262.60000610352</ele>
        <time>2016-11-23T14:37:55Z</time>
      </trkpt>
      <trkpt lat="43.43817" lon="6.11515">
        <ele>263.79998779297</ele>
        <time>2016-11-23T14:38:00Z</time>
      </trkpt>
      <trkpt lat="43.4382" lon="6.11518">
        <ele>264.20001220703</ele>
        <time>2016-11-23T14:38:03Z</time>
      </trkpt>
      <trkpt lat="43.43821" lon="6.1152">
        <ele>264.60000610352</ele>
        <time>2016-11-23T14:38:05Z</time>
      </trkpt>
      <trkpt lat="43.43822" lon="6.11527">
        <ele>265.20001220703</ele>
        <time>2016-11-23T14:38:10Z</time>
      </trkpt>
      <trkpt lat="43.43822" lon="6.11533">
        <ele>266</ele>
        <time>2016-11-23T14:38:15Z</time>
      </trkpt>
      <trkpt lat="43.43821" lon="6.11536">
        <ele>266.39999389648</ele>
        <time>2016-11-23T14:38:18Z</time>
      </trkpt>
      <trkpt lat="43.43819" lon="6.1154">
        <ele>267</ele>
        <time>2016-11-23T14:38:21Z</time>
      </trkpt>
      <trkpt lat="43.43819" lon="6.11556">
        <ele>267.79998779297</ele>
        <time>2016-11-23T14:38:33Z</time>
      </trkpt>
      <trkpt lat="43.43819" lon="6.1156">
        <ele>268</ele>
        <time>2016-11-23T14:38:36Z</time>
      </trkpt>
      <trkpt lat="43.43819" lon="6.11564">
        <ele>268.60000610352</ele>
        <time>2016-11-23T14:38:39Z</time>
      </trkpt>
      <trkpt lat="43.43818" lon="6.11565">
        <ele>268.79998779297</ele>
        <time>2016-11-23T14:38:40Z</time>
      </trkpt>
      <trkpt lat="43.43818" lon="6.11568">
        <ele>268.60000610352</ele>
        <time>2016-11-23T14:38:43Z</time>
      </trkpt>
      <trkpt lat="43.43818" lon="6.11568">
        <ele>269.39999389648</ele>
        <time>2016-11-23T14:38:50Z</time>
      </trkpt>
      <trkpt lat="43.43818" lon="6.11568">
        <ele>269.79998779297</ele>
        <time>2016-11-23T14:38:55Z</time>
      </trkpt>
      <trkpt lat="43.43818" lon="6.11568">
        <ele>269.79998779297</ele>
        <time>2016-11-23T14:38:57Z</time>
      </trkpt>
      <trkpt lat="43.43818" lon="6.11567">
        <ele>269.79998779297</ele>
        <time>2016-11-23T14:39:02Z</time>
      </trkpt>
      <trkpt lat="43.43818" lon="6.11567">
        <ele>269.20001220703</ele>
        <time>2016-11-23T14:39:10Z</time>
      </trkpt>
      <trkpt lat="43.43818" lon="6.11568">
        <ele>269</ele>
        <time>2016-11-23T14:39:20Z</time>
      </trkpt>
      <trkpt lat="43.43818" lon="6.11568">
        <ele>269.20001220703</ele>
        <time>2016-11-23T14:39:22Z</time>
      </trkpt>
      <trkpt lat="43.43818" lon="6.11568">
        <ele>269.39999389648</ele>
        <time>2016-11-23T14:39:27Z</time>
      </trkpt>
      <trkpt lat="43.43818" lon="6.11568">
        <ele>269.20001220703</ele>
        <time>2016-11-23T14:39:32Z</time>
      </trkpt>
      <trkpt lat="43.43818" lon="6.11568">
        <ele>269.20001220703</ele>
        <time>2016-11-23T14:39:40Z</time>
      </trkpt>
      <trkpt lat="43.43818" lon="6.11569">
        <ele>269.20001220703</ele>
        <time>2016-11-23T14:39:47Z</time>
      </trkpt>
      <trkpt lat="43.43818" lon="6.11569">
        <ele>268.60000610352</ele>
        <time>2016-11-23T14:39:50Z</time>
      </trkpt>
      <trkpt lat="43.43818" lon="6.11568">
        <ele>268.39999389648</ele>
        <time>2016-11-23T14:39:54Z</time>
      </trkpt>
      <trkpt lat="43.43818" lon="6.11568">
        <ele>268.20001220703</ele>
        <time>2016-11-23T14:40:00Z</time>
      </trkpt>
      <trkpt lat="43.43817" lon="6.11568">
        <ele>268.60000610352</ele>
        <time>2016-11-23T14:40:20Z</time>
      </trkpt>
      <trkpt lat="43.43817" lon="6.11568">
        <ele>267.79998779297</ele>
        <time>2016-11-23T14:40:25Z</time>
      </trkpt>
      <trkpt lat="43.43819" lon="6.11574">
        <ele>267.60000610352</ele>
        <time>2016-11-23T14:40:29Z</time>
      </trkpt>
      <trkpt lat="43.43821" lon="6.11576">
        <ele>267.60000610352</ele>
        <time>2016-11-23T14:40:30Z</time>
      </trkpt>
      <trkpt lat="43.43831" lon="6.11591">
        <ele>266.79998779297</ele>
        <time>2016-11-23T14:40:35Z</time>
      </trkpt>
      <trkpt lat="43.43842" lon="6.11605">
        <ele>266.39999389648</ele>
        <time>2016-11-23T14:40:40Z</time>
      </trkpt>
      <trkpt lat="43.43845" lon="6.11611">
        <ele>267</ele>
        <time>2016-11-23T14:40:43Z</time>
      </trkpt>
      <trkpt lat="43.43847" lon="6.11617">
        <ele>267.79998779297</ele>
        <time>2016-11-23T14:40:46Z</time>
      </trkpt>
      <trkpt lat="43.43848" lon="6.11623">
        <ele>268.60000610352</ele>
        <time>2016-11-23T14:40:49Z</time>
      </trkpt>
      <trkpt lat="43.43848" lon="6.11625">
        <ele>268.79998779297</ele>
        <time>2016-11-23T14:40:50Z</time>
      </trkpt>
      <trkpt lat="43.43848" lon="6.11627">
        <ele>269</ele>
        <time>2016-11-23T14:40:51Z</time>
      </trkpt>
      <trkpt lat="43.43848" lon="6.11646">
        <ele>269.60000610352</ele>
        <time>2016-11-23T14:41:00Z</time>
      </trkpt>
      <trkpt lat="43.43848" lon="6.11651">
        <ele>270</ele>
        <time>2016-11-23T14:41:02Z</time>
      </trkpt>
      <trkpt lat="43.43848" lon="6.1166">
        <ele>271</ele>
        <time>2016-11-23T14:41:07Z</time>
      </trkpt>
      <trkpt lat="43.4385" lon="6.11666">
        <ele>271.39999389648</ele>
        <time>2016-11-23T14:41:10Z</time>
      </trkpt>
      <trkpt lat="43.43852" lon="6.11675">
        <ele>271.79998779297</ele>
        <time>2016-11-23T14:41:15Z</time>
      </trkpt>
      <trkpt lat="43.43853" lon="6.11676">
        <ele>272</ele>
        <time>2016-11-23T14:41:16Z</time>
      </trkpt>
      <trkpt lat="43.43855" lon="6.11679">
        <ele>272.39999389648</ele>
        <time>2016-11-23T14:41:18Z</time>
      </trkpt>
      <trkpt lat="43.43857" lon="6.11681">
        <ele>272.79998779297</ele>
        <time>2016-11-23T14:41:20Z</time>
      </trkpt>
      <trkpt lat="43.4386" lon="6.11681">
        <ele>273.20001220703</ele>
        <time>2016-11-23T14:41:22Z</time>
      </trkpt>
      <trkpt lat="43.43865" lon="6.11678">
        <ele>274.20001220703</ele>
        <time>2016-11-23T14:41:27Z</time>
      </trkpt>
      <trkpt lat="43.43866" lon="6.11677">
        <ele>274.39999389648</ele>
        <time>2016-11-23T14:41:28Z</time>
      </trkpt>
      <trkpt lat="43.43868" lon="6.11674">
        <ele>275</ele>
        <time>2016-11-23T14:41:30Z</time>
      </trkpt>
      <trkpt lat="43.43869" lon="6.11672">
        <ele>275.20001220703</ele>
        <time>2016-11-23T14:41:32Z</time>
      </trkpt>
      <trkpt lat="43.43872" lon="6.11667">
        <ele>276.39999389648</ele>
        <time>2016-11-23T14:41:37Z</time>
      </trkpt>
      <trkpt lat="43.43872" lon="6.11667">
        <ele>276.79998779297</ele>
        <time>2016-11-23T14:41:40Z</time>
      </trkpt>
      <trkpt lat="43.43873" lon="6.11665">
        <ele>277.60000610352</ele>
        <time>2016-11-23T14:41:49Z</time>
      </trkpt>
      <trkpt lat="43.43873" lon="6.11665">
        <ele>278.20001220703</ele>
        <time>2016-11-23T14:41:50Z</time>
      </trkpt>
      <trkpt lat="43.43874" lon="6.11665">
        <ele>278.79998779297</ele>
        <time>2016-11-23T14:41:51Z</time>
      </trkpt>
      <trkpt lat="43.43874" lon="6.11665">
        <ele>279.20001220703</ele>
        <time>2016-11-23T14:41:56Z</time>
      </trkpt>
      <trkpt lat="43.43874" lon="6.11664">
        <ele>279.79998779297</ele>
        <time>2016-11-23T14:42:06Z</time>
      </trkpt>
      <trkpt lat="43.43874" lon="6.11662">
        <ele>279.79998779297</ele>
        <time>2016-11-23T14:42:10Z</time>
      </trkpt>
      <trkpt lat="43.43874" lon="6.11662">
        <ele>280</ele>
        <time>2016-11-23T14:42:13Z</time>
      </trkpt>
      <trkpt lat="43.43875" lon="6.1166">
        <ele>280.39999389648</ele>
        <time>2016-11-23T14:42:20Z</time>
      </trkpt>
      <trkpt lat="43.43875" lon="6.11659">
        <ele>280.79998779297</ele>
        <time>2016-11-23T14:42:27Z</time>
      </trkpt>
      <trkpt lat="43.43875" lon="6.11659">
        <ele>281.39999389648</ele>
        <time>2016-11-23T14:42:30Z</time>
      </trkpt>
      <trkpt lat="43.43875" lon="6.11659">
        <ele>282</ele>
        <time>2016-11-23T14:42:32Z</time>
      </trkpt>
      <trkpt lat="43.43879" lon="6.11653">
        <ele>281.79998779297</ele>
        <time>2016-11-23T14:42:39Z</time>
      </trkpt>
      <trkpt lat="43.4388" lon="6.1165">
        <ele>281.79998779297</ele>
        <time>2016-11-23T14:42:40Z</time>
      </trkpt>
      <trkpt lat="43.43889" lon="6.11634">
        <ele>283</ele>
        <time>2016-11-23T14:42:49Z</time>
      </trkpt>
      <trkpt lat="43.43901" lon="6.11619">
        <ele>285</ele>
        <time>2016-11-23T14:43:00Z</time>
      </trkpt>
      <trkpt lat="43.43905" lon="6.11616">
        <ele>285.60000610352</ele>
        <time>2016-11-23T14:43:03Z</time>
      </trkpt>
      <trkpt lat="43.43909" lon="6.11614">
        <ele>286.60000610352</ele>
        <time>2016-11-23T14:43:06Z</time>
      </trkpt>
      <trkpt lat="43.43914" lon="6.11614">
        <ele>287.39999389648</ele>
        <time>2016-11-23T14:43:10Z</time>
      </trkpt>
      <trkpt lat="43.43917" lon="6.11615">
        <ele>287.79998779297</ele>
        <time>2016-11-23T14:43:13Z</time>
      </trkpt>
      <trkpt lat="43.43922" lon="6.11617">
        <ele>288.60000610352</ele>
        <time>2016-11-23T14:43:18Z</time>
      </trkpt>
      <trkpt lat="43.43923" lon="6.11617">
        <ele>288.79998779297</ele>
        <time>2016-11-23T14:43:19Z</time>
      </trkpt>
      <trkpt lat="43.43924" lon="6.11617">
        <ele>289</ele>
        <time>2016-11-23T14:43:20Z</time>
      </trkpt>
      <trkpt lat="43.43932" lon="6.11614">
        <ele>290</ele>
        <time>2016-11-23T14:43:28Z</time>
      </trkpt>
      <trkpt lat="43.43933" lon="6.11613">
        <ele>290.39999389648</ele>
        <time>2016-11-23T14:43:30Z</time>
      </trkpt>
      <trkpt lat="43.43935" lon="6.11613">
        <ele>290.39999389648</ele>
        <time>2016-11-23T14:43:32Z</time>
      </trkpt>
      <trkpt lat="43.43936" lon="6.11611">
        <ele>290.39999389648</ele>
        <time>2016-11-23T14:43:39Z</time>
      </trkpt>
      <trkpt lat="43.43936" lon="6.11611">
        <ele>290.79998779297</ele>
        <time>2016-11-23T14:43:44Z</time>
      </trkpt>
      <trkpt lat="43.43936" lon="6.11611">
        <ele>290.79998779297</ele>
        <time>2016-11-23T14:43:50Z</time>
      </trkpt>
      <trkpt lat="43.43936" lon="6.11611">
        <ele>290.60000610352</ele>
        <time>2016-11-23T14:43:57Z</time>
      </trkpt>
      <trkpt lat="43.43936" lon="6.11611">
        <ele>290.79998779297</ele>
        <time>2016-11-23T14:44:00Z</time>
      </trkpt>
      <trkpt lat="43.43936" lon="6.11611">
        <ele>291</ele>
        <time>2016-11-23T14:44:11Z</time>
      </trkpt>
      <trkpt lat="43.43936" lon="6.11611">
        <ele>290.79998779297</ele>
        <time>2016-11-23T14:44:15Z</time>
      </trkpt>
      <trkpt lat="43.43936" lon="6.1161">
        <ele>290.39999389648</ele>
        <time>2016-11-23T14:44:20Z</time>
      </trkpt>
      <trkpt lat="43.43936" lon="6.1161">
        <ele>290</ele>
        <time>2016-11-23T14:44:25Z</time>
      </trkpt>
      <trkpt lat="43.43937" lon="6.1161">
        <ele>290</ele>
        <time>2016-11-23T14:44:30Z</time>
      </trkpt>
      <trkpt lat="43.43936" lon="6.1161">
        <ele>290.20001220703</ele>
        <time>2016-11-23T14:44:50Z</time>
      </trkpt>
      <trkpt lat="43.43936" lon="6.1161">
        <ele>290</ele>
        <time>2016-11-23T14:45:10Z</time>
      </trkpt>
      <trkpt lat="43.43937" lon="6.11609">
        <ele>291.60000610352</ele>
        <time>2016-11-23T14:45:20Z</time>
      </trkpt>
      <trkpt lat="43.43939" lon="6.11604">
        <ele>291.20001220703</ele>
        <time>2016-11-23T14:45:24Z</time>
      </trkpt>
      <trkpt lat="43.43946" lon="6.11586">
        <ele>290</ele>
        <time>2016-11-23T14:45:30Z</time>
      </trkpt>
      <trkpt lat="43.43961" lon="6.11548">
        <ele>289.20001220703</ele>
        <time>2016-11-23T14:45:38Z</time>
      </trkpt>
      <trkpt lat="43.43967" lon="6.11539">
        <ele>288.60000610352</ele>
        <time>2016-11-23T14:45:40Z</time>
      </trkpt>
      <trkpt lat="43.43975" lon="6.11533">
        <ele>288</ele>
        <time>2016-11-23T14:45:42Z</time>
      </trkpt>
      <trkpt lat="43.4398" lon="6.11531">
        <ele>287.79998779297</ele>
        <time>2016-11-23T14:45:43Z</time>
      </trkpt>
      <trkpt lat="43.43999" lon="6.11522">
        <ele>286.60000610352</ele>
        <time>2016-11-23T14:45:47Z</time>
      </trkpt>
      <trkpt lat="43.44009" lon="6.11519">
        <ele>284.79998779297</ele>
        <time>2016-11-23T14:45:49Z</time>
      </trkpt>
      <trkpt lat="43.44013" lon="6.11517">
        <ele>284.20001220703</ele>
        <time>2016-11-23T14:45:50Z</time>
      </trkpt>
      <trkpt lat="43.44018" lon="6.11516">
        <ele>284</ele>
        <time>2016-11-23T14:45:51Z</time>
      </trkpt>
      <trkpt lat="43.44044" lon="6.11519">
        <ele>283.39999389648</ele>
        <time>2016-11-23T14:45:58Z</time>
      </trkpt>
      <trkpt lat="43.44049" lon="6.11524">
        <ele>283.39999389648</ele>
        <time>2016-11-23T14:46:00Z</time>
      </trkpt>
      <trkpt lat="43.4405" lon="6.11542">
        <ele>282.20001220703</ele>
        <time>2016-11-23T14:46:04Z</time>
      </trkpt>
      <trkpt lat="43.44047" lon="6.11562">
        <ele>281.20001220703</ele>
        <time>2016-11-23T14:46:08Z</time>
      </trkpt>
      <trkpt lat="43.44046" lon="6.11572">
        <ele>280</ele>
        <time>2016-11-23T14:46:10Z</time>
      </trkpt>
      <trkpt lat="43.44045" lon="6.11581">
        <ele>278.60000610352</ele>
        <time>2016-11-23T14:46:12Z</time>
      </trkpt>
      <trkpt lat="43.4405" lon="6.11595">
        <ele>277.39999389648</ele>
        <time>2016-11-23T14:46:15Z</time>
      </trkpt>
      <trkpt lat="43.4406" lon="6.11599">
        <ele>276.20001220703</ele>
        <time>2016-11-23T14:46:18Z</time>
      </trkpt>
      <trkpt lat="43.44065" lon="6.11604">
        <ele>275.79998779297</ele>
        <time>2016-11-23T14:46:20Z</time>
      </trkpt>
      <trkpt lat="43.44065" lon="6.11616">
        <ele>274.79998779297</ele>
        <time>2016-11-23T14:46:23Z</time>
      </trkpt>
      <trkpt lat="43.44054" lon="6.11637">
        <ele>273.60000610352</ele>
        <time>2016-11-23T14:46:28Z</time>
      </trkpt>
      <trkpt lat="43.44048" lon="6.11648">
        <ele>272.79998779297</ele>
        <time>2016-11-23T14:46:30Z</time>
      </trkpt>
      <trkpt lat="43.44045" lon="6.11655">
        <ele>272.39999389648</ele>
        <time>2016-11-23T14:46:31Z</time>
      </trkpt>
      <trkpt lat="43.44038" lon="6.11677">
        <ele>271.20001220703</ele>
        <time>2016-11-23T14:46:34Z</time>
      </trkpt>
      <trkpt lat="43.44035" lon="6.11702">
        <ele>270.39999389648</ele>
        <time>2016-11-23T14:46:37Z</time>
      </trkpt>
      <trkpt lat="43.44033" lon="6.1171">
        <ele>270.20001220703</ele>
        <time>2016-11-23T14:46:38Z</time>
      </trkpt>
      <trkpt lat="43.4403" lon="6.11728">
        <ele>269.60000610352</ele>
        <time>2016-11-23T14:46:40Z</time>
      </trkpt>
      <trkpt lat="43.44027" lon="6.11746">
        <ele>269</ele>
        <time>2016-11-23T14:46:42Z</time>
      </trkpt>
      <trkpt lat="43.4402" lon="6.11784">
        <ele>267.79998779297</ele>
        <time>2016-11-23T14:46:47Z</time>
      </trkpt>
      <trkpt lat="43.44015" lon="6.11806">
        <ele>266.79998779297</ele>
        <time>2016-11-23T14:46:50Z</time>
      </trkpt>
      <trkpt lat="43.44011" lon="6.1182">
        <ele>266.20001220703</ele>
        <time>2016-11-23T14:46:52Z</time>
      </trkpt>
      <trkpt lat="43.44006" lon="6.11833">
        <ele>265.79998779297</ele>
        <time>2016-11-23T14:46:54Z</time>
      </trkpt>
      <trkpt lat="43.43995" lon="6.11868">
        <ele>264.60000610352</ele>
        <time>2016-11-23T14:46:59Z</time>
      </trkpt>
      <trkpt lat="43.43992" lon="6.11875">
        <ele>264.39999389648</ele>
        <time>2016-11-23T14:47:00Z</time>
      </trkpt>
      <trkpt lat="43.43987" lon="6.11888">
        <ele>264.20001220703</ele>
        <time>2016-11-23T14:47:02Z</time>
      </trkpt>
      <trkpt lat="43.43979" lon="6.11905">
        <ele>264</ele>
        <time>2016-11-23T14:47:05Z</time>
      </trkpt>
      <trkpt lat="43.43975" lon="6.11918">
        <ele>263.39999389648</ele>
        <time>2016-11-23T14:47:07Z</time>
      </trkpt>
      <trkpt lat="43.43968" lon="6.11932">
        <ele>262.39999389648</ele>
        <time>2016-11-23T14:47:10Z</time>
      </trkpt>
      <trkpt lat="43.43965" lon="6.11936">
        <ele>262</ele>
        <time>2016-11-23T14:47:11Z</time>
      </trkpt>
      <trkpt lat="43.43956" lon="6.11952">
        <ele>260.79998779297</ele>
        <time>2016-11-23T14:47:14Z</time>
      </trkpt>
      <trkpt lat="43.43954" lon="6.11965">
        <ele>259.20001220703</ele>
        <time>2016-11-23T14:47:16Z</time>
      </trkpt>
      <trkpt lat="43.43956" lon="6.11975">
        <ele>258</ele>
        <time>2016-11-23T14:47:18Z</time>
      </trkpt>
      <trkpt lat="43.43958" lon="6.11981">
        <ele>257.79998779297</ele>
        <time>2016-11-23T14:47:20Z</time>
      </trkpt>
      <trkpt lat="43.43961" lon="6.11987">
        <ele>258.39999389648</ele>
        <time>2016-11-23T14:47:23Z</time>
      </trkpt>
      <trkpt lat="43.43962" lon="6.11993">
        <ele>259.20001220703</ele>
        <time>2016-11-23T14:47:25Z</time>
      </trkpt>
      <trkpt lat="43.43963" lon="6.11999">
        <ele>259.79998779297</ele>
        <time>2016-11-23T14:47:27Z</time>
      </trkpt>
      <trkpt lat="43.43963" lon="6.12002">
        <ele>260.39999389648</ele>
        <time>2016-11-23T14:47:28Z</time>
      </trkpt>
      <trkpt lat="43.43964" lon="6.12009">
        <ele>261.39999389648</ele>
        <time>2016-11-23T14:47:30Z</time>
      </trkpt>
      <trkpt lat="43.43967" lon="6.12017">
        <ele>262.60000610352</ele>
        <time>2016-11-23T14:47:33Z</time>
      </trkpt>
      <trkpt lat="43.43974" lon="6.12034">
        <ele>262.20001220703</ele>
        <time>2016-11-23T14:47:40Z</time>
      </trkpt>
      <trkpt lat="43.43979" lon="6.12044">
        <ele>263.39999389648</ele>
        <time>2016-11-23T14:47:45Z</time>
      </trkpt>
      <trkpt lat="43.43979" lon="6.12044">
        <ele>263.60000610352</ele>
        <time>2016-11-23T14:47:47Z</time>
      </trkpt>
      <trkpt lat="43.43979" lon="6.12044">
        <ele>263.39999389648</ele>
        <time>2016-11-23T14:47:50Z</time>
      </trkpt>
      <trkpt lat="43.43979" lon="6.12044">
        <ele>263.60000610352</ele>
        <time>2016-11-23T14:47:59Z</time>
      </trkpt>
      <trkpt lat="43.43979" lon="6.12044">
        <ele>263.20001220703</ele>
        <time>2016-11-23T14:48:13Z</time>
      </trkpt>
      <trkpt lat="43.43979" lon="6.12044">
        <ele>263.20001220703</ele>
        <time>2016-11-23T14:48:17Z</time>
      </trkpt>
      <trkpt lat="43.43978" lon="6.12044">
        <ele>263.20001220703</ele>
        <time>2016-11-23T14:48:20Z</time>
      </trkpt>
      <trkpt lat="43.43978" lon="6.12044">
        <ele>263</ele>
        <time>2016-11-23T14:48:24Z</time>
      </trkpt>
      <trkpt lat="43.43978" lon="6.12044">
        <ele>262.79998779297</ele>
        <time>2016-11-23T14:48:27Z</time>
      </trkpt>
      <trkpt lat="43.43978" lon="6.12044">
        <ele>263</ele>
        <time>2016-11-23T14:48:50Z</time>
      </trkpt>
      <trkpt lat="43.43978" lon="6.12044">
        <ele>262.60000610352</ele>
        <time>2016-11-23T14:48:59Z</time>
      </trkpt>
      <trkpt lat="43.43978" lon="6.12044">
        <ele>262.60000610352</ele>
        <time>2016-11-23T14:49:00Z</time>
      </trkpt>
      <trkpt lat="43.43979" lon="6.12047">
        <ele>262.60000610352</ele>
        <time>2016-11-23T14:49:02Z</time>
      </trkpt>
      <trkpt lat="43.4398" lon="6.12052">
        <ele>264</ele>
        <time>2016-11-23T14:49:04Z</time>
      </trkpt>
      <trkpt lat="43.43982" lon="6.12063">
        <ele>261.79998779297</ele>
        <time>2016-11-23T14:49:08Z</time>
      </trkpt>
      <trkpt lat="43.43984" lon="6.1207">
        <ele>263.60000610352</ele>
        <time>2016-11-23T14:49:10Z</time>
      </trkpt>
      <trkpt lat="43.43985" lon="6.12091">
        <ele>264.20001220703</ele>
        <time>2016-11-23T14:49:15Z</time>
      </trkpt>
      <trkpt lat="43.43985" lon="6.12104">
        <ele>264.60000610352</ele>
        <time>2016-11-23T14:49:18Z</time>
      </trkpt>
      <trkpt lat="43.43984" lon="6.12113">
        <ele>265.20001220703</ele>
        <time>2016-11-23T14:49:20Z</time>
      </trkpt>
      <trkpt lat="43.43982" lon="6.12126">
        <ele>265.20001220703</ele>
        <time>2016-11-23T14:49:23Z</time>
      </trkpt>
      <trkpt lat="43.4398" lon="6.12139">
        <ele>266</ele>
        <time>2016-11-23T14:49:26Z</time>
      </trkpt>
      <trkpt lat="43.43979" lon="6.12158">
        <ele>266</ele>
        <time>2016-11-23T14:49:30Z</time>
      </trkpt>
      <trkpt lat="43.43978" lon="6.12167">
        <ele>266.20001220703</ele>
        <time>2016-11-23T14:49:32Z</time>
      </trkpt>
      <trkpt lat="43.43977" lon="6.12186">
        <ele>267.39999389648</ele>
        <time>2016-11-23T14:49:36Z</time>
      </trkpt>
      <trkpt lat="43.43977" lon="6.12203">
        <ele>267.60000610352</ele>
        <time>2016-11-23T14:49:40Z</time>
      </trkpt>
      <trkpt lat="43.43976" lon="6.12232">
        <ele>267.79998779297</ele>
        <time>2016-11-23T14:49:47Z</time>
      </trkpt>
      <trkpt lat="43.43976" lon="6.12247">
        <ele>268.39999389648</ele>
        <time>2016-11-23T14:49:51Z</time>
      </trkpt>
      <trkpt lat="43.43974" lon="6.12257">
        <ele>269.79998779297</ele>
        <time>2016-11-23T14:49:54Z</time>
      </trkpt>
      <trkpt lat="43.4397" lon="6.12276">
        <ele>270</ele>
        <time>2016-11-23T14:50:00Z</time>
      </trkpt>
      <trkpt lat="43.43967" lon="6.1229">
        <ele>269.20001220703</ele>
        <time>2016-11-23T14:50:04Z</time>
      </trkpt>
      <trkpt lat="43.43966" lon="6.12303">
        <ele>270.39999389648</ele>
        <time>2016-11-23T14:50:08Z</time>
      </trkpt>
      <trkpt lat="43.43966" lon="6.12309">
        <ele>270.79998779297</ele>
        <time>2016-11-23T14:50:10Z</time>
      </trkpt>
      <trkpt lat="43.43968" lon="6.1232">
        <ele>270.60000610352</ele>
        <time>2016-11-23T14:50:15Z</time>
      </trkpt>
      <trkpt lat="43.43968" lon="6.12326">
        <ele>270.60000610352</ele>
        <time>2016-11-23T14:50:20Z</time>
      </trkpt>
      <trkpt lat="43.43968" lon="6.12332">
        <ele>269.79998779297</ele>
        <time>2016-11-23T14:50:25Z</time>
      </trkpt>
      <trkpt lat="43.43968" lon="6.12338">
        <ele>270.20001220703</ele>
        <time>2016-11-23T14:50:30Z</time>
      </trkpt>
      <trkpt lat="43.43968" lon="6.12339">
        <ele>270.60000610352</ele>
        <time>2016-11-23T14:50:31Z</time>
      </trkpt>
      <trkpt lat="43.43968" lon="6.12345">
        <ele>270.79998779297</ele>
        <time>2016-11-23T14:50:33Z</time>
      </trkpt>
      <trkpt lat="43.43968" lon="6.12347">
        <ele>271</ele>
        <time>2016-11-23T14:50:34Z</time>
      </trkpt>
      <trkpt lat="43.4397" lon="6.12362">
        <ele>271</ele>
        <time>2016-11-23T14:50:39Z</time>
      </trkpt>
      <trkpt lat="43.43971" lon="6.12364">
        <ele>271.20001220703</ele>
        <time>2016-11-23T14:50:40Z</time>
      </trkpt>
      <trkpt lat="43.43975" lon="6.12372">
        <ele>272</ele>
        <time>2016-11-23T14:50:43Z</time>
      </trkpt>
      <trkpt lat="43.43982" lon="6.1239">
        <ele>272.79998779297</ele>
        <time>2016-11-23T14:50:50Z</time>
      </trkpt>
      <trkpt lat="43.43983" lon="6.12392">
        <ele>273</ele>
        <time>2016-11-23T14:50:51Z</time>
      </trkpt>
      <trkpt lat="43.43987" lon="6.12404">
        <ele>274</ele>
        <time>2016-11-23T14:50:56Z</time>
      </trkpt>
      <trkpt lat="43.4399" lon="6.12412">
        <ele>274.39999389648</ele>
        <time>2016-11-23T14:51:00Z</time>
      </trkpt>
      <trkpt lat="43.43995" lon="6.12421">
        <ele>275.20001220703</ele>
        <time>2016-11-23T14:51:04Z</time>
      </trkpt>
      <trkpt lat="43.44002" lon="6.12435">
        <ele>276</ele>
        <time>2016-11-23T14:51:10Z</time>
      </trkpt>
      <trkpt lat="43.44002" lon="6.12437">
        <ele>276.20001220703</ele>
        <time>2016-11-23T14:51:11Z</time>
      </trkpt>
      <trkpt lat="43.44007" lon="6.12455">
        <ele>277.20001220703</ele>
        <time>2016-11-23T14:51:18Z</time>
      </trkpt>
      <trkpt lat="43.44007" lon="6.12461">
        <ele>277.20001220703</ele>
        <time>2016-11-23T14:51:20Z</time>
      </trkpt>
      <trkpt lat="43.44012" lon="6.12487">
        <ele>278</ele>
        <time>2016-11-23T14:51:30Z</time>
      </trkpt>
      <trkpt lat="43.44013" lon="6.12492">
        <ele>278.39999389648</ele>
        <time>2016-11-23T14:51:32Z</time>
      </trkpt>
      <trkpt lat="43.44014" lon="6.12514">
        <ele>279</ele>
        <time>2016-11-23T14:51:40Z</time>
      </trkpt>
      <trkpt lat="43.44014" lon="6.12519">
        <ele>279.60000610352</ele>
        <time>2016-11-23T14:51:42Z</time>
      </trkpt>
      <trkpt lat="43.44012" lon="6.12537">
        <ele>280.79998779297</ele>
        <time>2016-11-23T14:51:49Z</time>
      </trkpt>
      <trkpt lat="43.44011" lon="6.12558">
        <ele>282</ele>
        <time>2016-11-23T14:51:59Z</time>
      </trkpt>
      <trkpt lat="43.44009" lon="6.12565">
        <ele>282.39999389648</ele>
        <time>2016-11-23T14:52:02Z</time>
      </trkpt>
      <trkpt lat="43.44008" lon="6.12569">
        <ele>283</ele>
        <time>2016-11-23T14:52:04Z</time>
      </trkpt>
      <trkpt lat="43.44006" lon="6.12582">
        <ele>284.39999389648</ele>
        <time>2016-11-23T14:52:10Z</time>
      </trkpt>
      <trkpt lat="43.44003" lon="6.1259">
        <ele>285.60000610352</ele>
        <time>2016-11-23T14:52:15Z</time>
      </trkpt>
      <trkpt lat="43.44002" lon="6.12593">
        <ele>285.79998779297</ele>
        <time>2016-11-23T14:52:17Z</time>
      </trkpt>
      <trkpt lat="43.43999" lon="6.12599">
        <ele>286.60000610352</ele>
        <time>2016-11-23T14:52:20Z</time>
      </trkpt>
      <trkpt lat="43.43996" lon="6.12607">
        <ele>287.20001220703</ele>
        <time>2016-11-23T14:52:23Z</time>
      </trkpt>
      <trkpt lat="43.43995" lon="6.12613">
        <ele>287.79998779297</ele>
        <time>2016-11-23T14:52:25Z</time>
      </trkpt>
      <trkpt lat="43.43992" lon="6.12622">
        <ele>289</ele>
        <time>2016-11-23T14:52:29Z</time>
      </trkpt>
      <trkpt lat="43.43992" lon="6.12625">
        <ele>289</ele>
        <time>2016-11-23T14:52:30Z</time>
      </trkpt>
      <trkpt lat="43.43989" lon="6.12637">
        <ele>290</ele>
        <time>2016-11-23T14:52:36Z</time>
      </trkpt>
      <trkpt lat="43.43987" lon="6.12647">
        <ele>291</ele>
        <time>2016-11-23T14:52:40Z</time>
      </trkpt>
      <trkpt lat="43.43987" lon="6.12649">
        <ele>291.20001220703</ele>
        <time>2016-11-23T14:52:41Z</time>
      </trkpt>
      <trkpt lat="43.43984" lon="6.12665">
        <ele>291.39999389648</ele>
        <time>2016-11-23T14:52:50Z</time>
      </trkpt>
      <trkpt lat="43.43979" lon="6.12677">
        <ele>291.60000610352</ele>
        <time>2016-11-23T14:53:00Z</time>
      </trkpt>
      <trkpt lat="43.43977" lon="6.12682">
        <ele>291.79998779297</ele>
        <time>2016-11-23T14:53:05Z</time>
      </trkpt>
      <trkpt lat="43.43976" lon="6.12684">
        <ele>292.39999389648</ele>
        <time>2016-11-23T14:53:07Z</time>
      </trkpt>
      <trkpt lat="43.43975" lon="6.12686">
        <ele>293</ele>
        <time>2016-11-23T14:53:10Z</time>
      </trkpt>
      <trkpt lat="43.43975" lon="6.12687">
        <ele>293</ele>
        <time>2016-11-23T14:53:17Z</time>
      </trkpt>
      <trkpt lat="43.43975" lon="6.12687">
        <ele>293.20001220703</ele>
        <time>2016-11-23T14:53:20Z</time>
      </trkpt>
      <trkpt lat="43.43975" lon="6.12686">
        <ele>293.79998779297</ele>
        <time>2016-11-23T14:53:25Z</time>
      </trkpt>
      <trkpt lat="43.43975" lon="6.12685">
        <ele>293.20001220703</ele>
        <time>2016-11-23T14:53:39Z</time>
      </trkpt>
      <trkpt lat="43.43975" lon="6.12685">
        <ele>293.39999389648</ele>
        <time>2016-11-23T14:53:40Z</time>
      </trkpt>
      <trkpt lat="43.43975" lon="6.12685">
        <ele>293.39999389648</ele>
        <time>2016-11-23T14:53:43Z</time>
      </trkpt>
      <trkpt lat="43.43973" lon="6.12684">
        <ele>293.39999389648</ele>
        <time>2016-11-23T14:53:49Z</time>
      </trkpt>
      <trkpt lat="43.43972" lon="6.12683">
        <ele>293.60000610352</ele>
        <time>2016-11-23T14:53:50Z</time>
      </trkpt>
      <trkpt lat="43.43975" lon="6.12679">
        <ele>293.79998779297</ele>
        <time>2016-11-23T14:53:53Z</time>
      </trkpt>
      <trkpt lat="43.43983" lon="6.12672">
        <ele>293</ele>
        <time>2016-11-23T14:54:01Z</time>
      </trkpt>
      <trkpt lat="43.43985" lon="6.1267">
        <ele>292.79998779297</ele>
        <time>2016-11-23T14:54:03Z</time>
      </trkpt>
      <trkpt lat="43.43985" lon="6.12665">
        <ele>293</ele>
        <time>2016-11-23T14:54:10Z</time>
      </trkpt>
      <trkpt lat="43.43985" lon="6.12665">
        <ele>293.20001220703</ele>
        <time>2016-11-23T14:54:16Z</time>
      </trkpt>
      <trkpt lat="43.43985" lon="6.12665">
        <ele>293</ele>
        <time>2016-11-23T14:54:20Z</time>
      </trkpt>
      <trkpt lat="43.43985" lon="6.12666">
        <ele>293.39999389648</ele>
        <time>2016-11-23T14:54:50Z</time>
      </trkpt>
      <trkpt lat="43.43984" lon="6.12667">
        <ele>293</ele>
        <time>2016-11-23T14:55:00Z</time>
      </trkpt>
      <trkpt lat="43.43983" lon="6.12668">
        <ele>293.39999389648</ele>
        <time>2016-11-23T14:55:10Z</time>
      </trkpt>
      <trkpt lat="43.43983" lon="6.12668">
        <ele>293.39999389648</ele>
        <time>2016-11-23T14:55:20Z</time>
      </trkpt>
      <trkpt lat="43.43983" lon="6.12669">
        <ele>293.39999389648</ele>
        <time>2016-11-23T14:55:35Z</time>
      </trkpt>
      <trkpt lat="43.43983" lon="6.12669">
        <ele>293.39999389648</ele>
        <time>2016-11-23T14:55:40Z</time>
      </trkpt>
      <trkpt lat="43.43983" lon="6.12669">
        <ele>293.39999389648</ele>
        <time>2016-11-23T14:55:50Z</time>
      </trkpt>
      <trkpt lat="43.43983" lon="6.12668">
        <ele>293.39999389648</ele>
        <time>2016-11-23T14:56:30Z</time>
      </trkpt>
      <trkpt lat="43.43983" lon="6.12668">
        <ele>293.39999389648</ele>
        <time>2016-11-23T14:56:40Z</time>
      </trkpt>
      <trkpt lat="43.43983" lon="6.12668">
        <ele>293.39999389648</ele>
        <time>2016-11-23T14:56:50Z</time>
      </trkpt>
      <trkpt lat="43.43983" lon="6.12668">
        <ele>293.39999389648</ele>
        <time>2016-11-23T14:56:55Z</time>
      </trkpt>
      <trkpt lat="43.43983" lon="6.12668">
        <ele>293.39999389648</ele>
        <time>2016-11-23T14:57:00Z</time>
      </trkpt>
      <trkpt lat="43.43983" lon="6.12668">
        <ele>293.39999389648</ele>
        <time>2016-11-23T14:57:03Z</time>
      </trkpt>
      <trkpt lat="43.43983" lon="6.12669">
        <ele>293.39999389648</ele>
        <time>2016-11-23T14:57:20Z</time>
      </trkpt>
      <trkpt lat="43.43983" lon="6.12669">
        <ele>293.39999389648</ele>
        <time>2016-11-23T14:57:26Z</time>
      </trkpt>
      <trkpt lat="43.43983" lon="6.12669">
        <ele>293.39999389648</ele>
        <time>2016-11-23T14:57:30Z</time>
      </trkpt>
      <trkpt lat="43.43983" lon="6.12669">
        <ele>293.39999389648</ele>
        <time>2016-11-23T14:57:34Z</time>
      </trkpt>
      <trkpt lat="43.43983" lon="6.12669">
        <ele>293.39999389648</ele>
        <time>2016-11-23T14:57:40Z</time>
      </trkpt>
      <trkpt lat="43.43983" lon="6.12669">
        <ele>293.39999389648</ele>
        <time>2016-11-23T14:57:49Z</time>
      </trkpt>
      <trkpt lat="43.43982" lon="6.12669">
        <ele>293.39999389648</ele>
        <time>2016-11-23T14:57:55Z</time>
      </trkpt>
      <trkpt lat="43.4398" lon="6.12672">
        <ele>293</ele>
        <time>2016-11-23T14:57:58Z</time>
      </trkpt>
      <trkpt lat="43.43979" lon="6.12675">
        <ele>293.39999389648</ele>
        <time>2016-11-23T14:58:00Z</time>
      </trkpt>
      <trkpt lat="43.43973" lon="6.12686">
        <ele>294</ele>
        <time>2016-11-23T14:58:07Z</time>
      </trkpt>
      <trkpt lat="43.43968" lon="6.1269">
        <ele>293.60000610352</ele>
        <time>2016-11-23T14:58:10Z</time>
      </trkpt>
      <trkpt lat="43.43956" lon="6.12698">
        <ele>293.39999389648</ele>
        <time>2016-11-23T14:58:15Z</time>
      </trkpt>
      <trkpt lat="43.43937" lon="6.12707">
        <ele>292.60000610352</ele>
        <time>2016-11-23T14:58:20Z</time>
      </trkpt>
      <trkpt lat="43.43933" lon="6.12708">
        <ele>292.20001220703</ele>
        <time>2016-11-23T14:58:21Z</time>
      </trkpt>
      <trkpt lat="43.4392" lon="6.12738">
        <ele>291.39999389648</ele>
        <time>2016-11-23T14:58:30Z</time>
      </trkpt>
      <trkpt lat="43.43918" lon="6.12742">
        <ele>291.20001220703</ele>
        <time>2016-11-23T14:58:31Z</time>
      </trkpt>
      <trkpt lat="43.43906" lon="6.12755">
        <ele>289.39999389648</ele>
        <time>2016-11-23T14:58:34Z</time>
      </trkpt>
      <trkpt lat="43.43901" lon="6.1276">
        <ele>288.39999389648</ele>
        <time>2016-11-23T14:58:35Z</time>
      </trkpt>
      <trkpt lat="43.43897" lon="6.12766">
        <ele>287.60000610352</ele>
        <time>2016-11-23T14:58:36Z</time>
      </trkpt>
      <trkpt lat="43.43893" lon="6.12772">
        <ele>286.39999389648</ele>
        <time>2016-11-23T14:58:37Z</time>
      </trkpt>
      <trkpt lat="43.43888" lon="6.12779">
        <ele>285.20001220703</ele>
        <time>2016-11-23T14:58:38Z</time>
      </trkpt>
      <trkpt lat="43.43882" lon="6.12785">
        <ele>284.60000610352</ele>
        <time>2016-11-23T14:58:39Z</time>
      </trkpt>
      <trkpt lat="43.43877" lon="6.1279">
        <ele>283.79998779297</ele>
        <time>2016-11-23T14:58:40Z</time>
      </trkpt>
      <trkpt lat="43.43872" lon="6.12796">
        <ele>282.60000610352</ele>
        <time>2016-11-23T14:58:41Z</time>
      </trkpt>
      <trkpt lat="43.43868" lon="6.12804">
        <ele>281.39999389648</ele>
        <time>2016-11-23T14:58:42Z</time>
      </trkpt>
      <trkpt lat="43.43865" lon="6.12813">
        <ele>280.20001220703</ele>
        <time>2016-11-23T14:58:43Z</time>
      </trkpt>
      <trkpt lat="43.43859" lon="6.1283">
        <ele>279.79998779297</ele>
        <time>2016-11-23T14:58:45Z</time>
      </trkpt>
      <trkpt lat="43.43858" lon="6.12839">
        <ele>279</ele>
        <time>2016-11-23T14:58:46Z</time>
      </trkpt>
      <trkpt lat="43.43858" lon="6.12857">
        <ele>277.39999389648</ele>
        <time>2016-11-23T14:58:48Z</time>
      </trkpt>
      <trkpt lat="43.43858" lon="6.12874">
        <ele>276.79998779297</ele>
        <time>2016-11-23T14:58:50Z</time>
      </trkpt>
      <trkpt lat="43.43858" lon="6.12889">
        <ele>276.39999389648</ele>
        <time>2016-11-23T14:58:52Z</time>
      </trkpt>
      <trkpt lat="43.43858" lon="6.12897">
        <ele>276.20001220703</ele>
        <time>2016-11-23T14:58:53Z</time>
      </trkpt>
      <trkpt lat="43.43856" lon="6.12928">
        <ele>275.20001220703</ele>
        <time>2016-11-23T14:58:57Z</time>
      </trkpt>
      <trkpt lat="43.43854" lon="6.12936">
        <ele>274.60000610352</ele>
        <time>2016-11-23T14:58:58Z</time>
      </trkpt>
      <trkpt lat="43.43849" lon="6.12953">
        <ele>273.20001220703</ele>
        <time>2016-11-23T14:59:00Z</time>
      </trkpt>
      <trkpt lat="43.43847" lon="6.12969">
        <ele>271.39999389648</ele>
        <time>2016-11-23T14:59:02Z</time>
      </trkpt>
      <trkpt lat="43.43848" lon="6.12984">
        <ele>269.79998779297</ele>
        <time>2016-11-23T14:59:04Z</time>
      </trkpt>
      <trkpt lat="43.4385" lon="6.13001">
        <ele>268.60000610352</ele>
        <time>2016-11-23T14:59:06Z</time>
      </trkpt>
      <trkpt lat="43.43853" lon="6.13017">
        <ele>266.60000610352</ele>
        <time>2016-11-23T14:59:08Z</time>
      </trkpt>
      <trkpt lat="43.43854" lon="6.13035">
        <ele>265</ele>
        <time>2016-11-23T14:59:10Z</time>
      </trkpt>
      <trkpt lat="43.43853" lon="6.13054">
        <ele>263.39999389648</ele>
        <time>2016-11-23T14:59:12Z</time>
      </trkpt>
      <trkpt lat="43.43851" lon="6.13074">
        <ele>262.39999389648</ele>
        <time>2016-11-23T14:59:14Z</time>
      </trkpt>
      <trkpt lat="43.43851" lon="6.13084">
        <ele>262.20001220703</ele>
        <time>2016-11-23T14:59:15Z</time>
      </trkpt>
      <trkpt lat="43.43852" lon="6.13104">
        <ele>261.39999389648</ele>
        <time>2016-11-23T14:59:17Z</time>
      </trkpt>
      <trkpt lat="43.43854" lon="6.13113">
        <ele>260.39999389648</ele>
        <time>2016-11-23T14:59:18Z</time>
      </trkpt>
      <trkpt lat="43.43854" lon="6.13121">
        <ele>259.20001220703</ele>
        <time>2016-11-23T14:59:19Z</time>
      </trkpt>
      <trkpt lat="43.43855" lon="6.13129">
        <ele>258</ele>
        <time>2016-11-23T14:59:20Z</time>
      </trkpt>
      <trkpt lat="43.43855" lon="6.13137">
        <ele>256.60000610352</ele>
        <time>2016-11-23T14:59:21Z</time>
      </trkpt>
      <trkpt lat="43.43856" lon="6.13145">
        <ele>255</ele>
        <time>2016-11-23T14:59:22Z</time>
      </trkpt>
      <trkpt lat="43.43858" lon="6.13151">
        <ele>253.80000305176</ele>
        <time>2016-11-23T14:59:23Z</time>
      </trkpt>
      <trkpt lat="43.43858" lon="6.13157">
        <ele>252.60000610352</ele>
        <time>2016-11-23T14:59:24Z</time>
      </trkpt>
      <trkpt lat="43.43859" lon="6.13163">
        <ele>251.39999389648</ele>
        <time>2016-11-23T14:59:25Z</time>
      </trkpt>
      <trkpt lat="43.4386" lon="6.1317">
        <ele>250</ele>
        <time>2016-11-23T14:59:27Z</time>
      </trkpt>
      <trkpt lat="43.43862" lon="6.13174">
        <ele>249.80000305176</ele>
        <time>2016-11-23T14:59:29Z</time>
      </trkpt>
      <trkpt lat="43.43863" lon="6.13174">
        <ele>249.80000305176</ele>
        <time>2016-11-23T14:59:30Z</time>
      </trkpt>
      <trkpt lat="43.43864" lon="6.13169">
        <ele>250.19999694824</ele>
        <time>2016-11-23T14:59:36Z</time>
      </trkpt>
      <trkpt lat="43.43864" lon="6.13169">
        <ele>250</ele>
        <time>2016-11-23T14:59:40Z</time>
      </trkpt>
      <trkpt lat="43.43864" lon="6.13169">
        <ele>250</ele>
        <time>2016-11-23T14:59:48Z</time>
      </trkpt>
      <trkpt lat="43.43864" lon="6.13169">
        <ele>249.39999389648</ele>
        <time>2016-11-23T15:00:10Z</time>
      </trkpt>
      <trkpt lat="43.43864" lon="6.13167">
        <ele>250</ele>
        <time>2016-11-23T15:00:20Z</time>
      </trkpt>
      <trkpt lat="43.43865" lon="6.13164">
        <ele>250</ele>
        <time>2016-11-23T15:00:30Z</time>
      </trkpt>
      <trkpt lat="43.43866" lon="6.13162">
        <ele>249.80000305176</ele>
        <time>2016-11-23T15:00:32Z</time>
      </trkpt>
      <trkpt lat="43.43867" lon="6.13157">
        <ele>249.60000610352</ele>
        <time>2016-11-23T15:00:35Z</time>
      </trkpt>
      <trkpt lat="43.43871" lon="6.13147">
        <ele>249.39999389648</ele>
        <time>2016-11-23T15:00:39Z</time>
      </trkpt>
      <trkpt lat="43.43871" lon="6.13143">
        <ele>249.39999389648</ele>
        <time>2016-11-23T15:00:40Z</time>
      </trkpt>
      <trkpt lat="43.4388" lon="6.13108">
        <ele>249.39999389648</ele>
        <time>2016-11-23T15:00:47Z</time>
      </trkpt>
      <trkpt lat="43.43884" lon="6.13097">
        <ele>249.39999389648</ele>
        <time>2016-11-23T15:00:49Z</time>
      </trkpt>
      <trkpt lat="43.43886" lon="6.13093">
        <ele>249.19999694824</ele>
        <time>2016-11-23T15:00:50Z</time>
      </trkpt>
      <trkpt lat="43.43893" lon="6.1309">
        <ele>249.19999694824</ele>
        <time>2016-11-23T15:00:52Z</time>
      </trkpt>
      <trkpt lat="43.43899" lon="6.13094">
        <ele>249</ele>
        <time>2016-11-23T15:00:54Z</time>
      </trkpt>
      <trkpt lat="43.43906" lon="6.13101">
        <ele>249.39999389648</ele>
        <time>2016-11-23T15:00:57Z</time>
      </trkpt>
      <trkpt lat="43.43912" lon="6.13106">
        <ele>250.60000610352</ele>
        <time>2016-11-23T15:01:00Z</time>
      </trkpt>
      <trkpt lat="43.43916" lon="6.13107">
        <ele>251.19999694824</ele>
        <time>2016-11-23T15:01:02Z</time>
      </trkpt>
      <trkpt lat="43.43926" lon="6.13106">
        <ele>251.80000305176</ele>
        <time>2016-11-23T15:01:07Z</time>
      </trkpt>
      <trkpt lat="43.43932" lon="6.13102">
        <ele>251.80000305176</ele>
        <time>2016-11-23T15:01:10Z</time>
      </trkpt>
      <trkpt lat="43.43939" lon="6.13097">
        <ele>252.19999694824</ele>
        <time>2016-11-23T15:01:14Z</time>
      </trkpt>
      <trkpt lat="43.43941" lon="6.13096">
        <ele>252.39999389648</ele>
        <time>2016-11-23T15:01:15Z</time>
      </trkpt>
      <trkpt lat="43.43951" lon="6.13092">
        <ele>253.39999389648</ele>
        <time>2016-11-23T15:01:20Z</time>
      </trkpt>
      <trkpt lat="43.4397" lon="6.13099">
        <ele>255</ele>
        <time>2016-11-23T15:01:30Z</time>
      </trkpt>
      <trkpt lat="43.43987" lon="6.13106">
        <ele>255.60000610352</ele>
        <time>2016-11-23T15:01:38Z</time>
      </trkpt>
      <trkpt lat="43.43992" lon="6.13107">
        <ele>255.80000305176</ele>
        <time>2016-11-23T15:01:40Z</time>
      </trkpt>
      <trkpt lat="43.44012" lon="6.1311">
        <ele>256.60000610352</ele>
        <time>2016-11-23T15:01:50Z</time>
      </trkpt>
      <trkpt lat="43.44035" lon="6.13119">
        <ele>258</ele>
        <time>2016-11-23T15:02:01Z</time>
      </trkpt>
      <trkpt lat="43.44047" lon="6.13119">
        <ele>259</ele>
        <time>2016-11-23T15:02:08Z</time>
      </trkpt>
      <trkpt lat="43.4405" lon="6.13119">
        <ele>259.20001220703</ele>
        <time>2016-11-23T15:02:10Z</time>
      </trkpt>
      <trkpt lat="43.44067" lon="6.13115">
        <ele>260</ele>
        <time>2016-11-23T15:02:20Z</time>
      </trkpt>
      <trkpt lat="43.44082" lon="6.13114">
        <ele>261</ele>
        <time>2016-11-23T15:02:30Z</time>
      </trkpt>
      <trkpt lat="43.44083" lon="6.13115">
        <ele>261.20001220703</ele>
        <time>2016-11-23T15:02:31Z</time>
      </trkpt>
      <trkpt lat="43.44093" lon="6.13119">
        <ele>262.39999389648</ele>
        <time>2016-11-23T15:02:37Z</time>
      </trkpt>
      <trkpt lat="43.44098" lon="6.13123">
        <ele>262.79998779297</ele>
        <time>2016-11-23T15:02:40Z</time>
      </trkpt>
      <trkpt lat="43.44107" lon="6.13132">
        <ele>263.20001220703</ele>
        <time>2016-11-23T15:02:47Z</time>
      </trkpt>
      <trkpt lat="43.44112" lon="6.13135">
        <ele>263.60000610352</ele>
        <time>2016-11-23T15:02:50Z</time>
      </trkpt>
      <trkpt lat="43.44124" lon="6.13156">
        <ele>263.20001220703</ele>
        <time>2016-11-23T15:03:00Z</time>
      </trkpt>
      <trkpt lat="43.44127" lon="6.13169">
        <ele>264.39999389648</ele>
        <time>2016-11-23T15:03:05Z</time>
      </trkpt>
      <trkpt lat="43.44135" lon="6.13207">
        <ele>266.60000610352</ele>
        <time>2016-11-23T15:03:20Z</time>
      </trkpt>
      <trkpt lat="43.44133" lon="6.13231">
        <ele>267.20001220703</ele>
        <time>2016-11-23T15:03:30Z</time>
      </trkpt>
      <trkpt lat="43.44132" lon="6.13252">
        <ele>267.79998779297</ele>
        <time>2016-11-23T15:03:37Z</time>
      </trkpt>
      <trkpt lat="43.44133" lon="6.1326">
        <ele>268.60000610352</ele>
        <time>2016-11-23T15:03:40Z</time>
      </trkpt>
      <trkpt lat="43.44136" lon="6.13277">
        <ele>270</ele>
        <time>2016-11-23T15:03:47Z</time>
      </trkpt>
      <trkpt lat="43.44138" lon="6.13287">
        <ele>271.20001220703</ele>
        <time>2016-11-23T15:03:51Z</time>
      </trkpt>
      <trkpt lat="43.44139" lon="6.13298">
        <ele>272.20001220703</ele>
        <time>2016-11-23T15:03:56Z</time>
      </trkpt>
      <trkpt lat="43.44144" lon="6.13333">
        <ele>274</ele>
        <time>2016-11-23T15:04:10Z</time>
      </trkpt>
      <trkpt lat="43.44144" lon="6.13338">
        <ele>274.39999389648</ele>
        <time>2016-11-23T15:04:12Z</time>
      </trkpt>
      <trkpt lat="43.44146" lon="6.13348">
        <ele>275.39999389648</ele>
        <time>2016-11-23T15:04:17Z</time>
      </trkpt>
      <trkpt lat="43.44147" lon="6.13355">
        <ele>276</ele>
        <time>2016-11-23T15:04:20Z</time>
      </trkpt>
      <trkpt lat="43.44147" lon="6.13362">
        <ele>276.60000610352</ele>
        <time>2016-11-23T15:04:23Z</time>
      </trkpt>
      <trkpt lat="43.4415" lon="6.13378">
        <ele>277.39999389648</ele>
        <time>2016-11-23T15:04:30Z</time>
      </trkpt>
      <trkpt lat="43.4415" lon="6.13379">
        <ele>277.60000610352</ele>
        <time>2016-11-23T15:04:35Z</time>
      </trkpt>
      <trkpt lat="43.4415" lon="6.13379">
        <ele>278</ele>
        <time>2016-11-23T15:04:37Z</time>
      </trkpt>
      <trkpt lat="43.4415" lon="6.1338">
        <ele>277.79998779297</ele>
        <time>2016-11-23T15:04:40Z</time>
      </trkpt>
      <trkpt lat="43.4415" lon="6.1338">
        <ele>277.20001220703</ele>
        <time>2016-11-23T15:04:48Z</time>
      </trkpt>
      <trkpt lat="43.4415" lon="6.13381">
        <ele>277.79998779297</ele>
        <time>2016-11-23T15:05:20Z</time>
      </trkpt>
      <trkpt lat="43.4415" lon="6.13381">
        <ele>277.79998779297</ele>
        <time>2016-11-23T15:05:27Z</time>
      </trkpt>
      <trkpt lat="43.4415" lon="6.13381">
        <ele>277.79998779297</ele>
        <time>2016-11-23T15:05:30Z</time>
      </trkpt>
      <trkpt lat="43.44149" lon="6.13383">
        <ele>277.20001220703</ele>
        <time>2016-11-23T15:06:15Z</time>
      </trkpt>
      <trkpt lat="43.44149" lon="6.13384">
        <ele>277.20001220703</ele>
        <time>2016-11-23T15:06:20Z</time>
      </trkpt>
      <trkpt lat="43.44149" lon="6.13384">
        <ele>277</ele>
        <time>2016-11-23T15:06:24Z</time>
      </trkpt>
      <trkpt lat="43.4415" lon="6.13384">
        <ele>276.79998779297</ele>
        <time>2016-11-23T15:06:30Z</time>
      </trkpt>
      <trkpt lat="43.44149" lon="6.13385">
        <ele>277.39999389648</ele>
        <time>2016-11-23T15:06:40Z</time>
      </trkpt>
      <trkpt lat="43.44149" lon="6.13385">
        <ele>277.39999389648</ele>
        <time>2016-11-23T15:06:47Z</time>
      </trkpt>
      <trkpt lat="43.44149" lon="6.13385">
        <ele>277.39999389648</ele>
        <time>2016-11-23T15:06:53Z</time>
      </trkpt>
      <trkpt lat="43.4415" lon="6.13385">
        <ele>277.39999389648</ele>
        <time>2016-11-23T15:07:00Z</time>
      </trkpt>
      <trkpt lat="43.4415" lon="6.13387">
        <ele>277.39999389648</ele>
        <time>2016-11-23T15:07:01Z</time>
      </trkpt>
      <trkpt lat="43.44152" lon="6.13401">
        <ele>278</ele>
        <time>2016-11-23T15:07:06Z</time>
      </trkpt>
      <trkpt lat="43.44154" lon="6.13414">
        <ele>278</ele>
        <time>2016-11-23T15:07:10Z</time>
      </trkpt>
      <trkpt lat="43.44155" lon="6.1343">
        <ele>278.79998779297</ele>
        <time>2016-11-23T15:07:16Z</time>
      </trkpt>
      <trkpt lat="43.44158" lon="6.13452">
        <ele>279.20001220703</ele>
        <time>2016-11-23T15:07:23Z</time>
      </trkpt>
      <trkpt lat="43.44158" lon="6.13458">
        <ele>279.60000610352</ele>
        <time>2016-11-23T15:07:25Z</time>
      </trkpt>
      <trkpt lat="43.44159" lon="6.13468">
        <ele>280</ele>
        <time>2016-11-23T15:07:28Z</time>
      </trkpt>
      <trkpt lat="43.44159" lon="6.13474">
        <ele>280.39999389648</ele>
        <time>2016-11-23T15:07:30Z</time>
      </trkpt>
      <trkpt lat="43.4416" lon="6.13487">
        <ele>281</ele>
        <time>2016-11-23T15:07:34Z</time>
      </trkpt>
      <trkpt lat="43.4416" lon="6.135">
        <ele>281.79998779297</ele>
        <time>2016-11-23T15:07:38Z</time>
      </trkpt>
      <trkpt lat="43.44159" lon="6.13517">
        <ele>282.20001220703</ele>
        <time>2016-11-23T15:07:43Z</time>
      </trkpt>
      <trkpt lat="43.44158" lon="6.13541">
        <ele>283</ele>
        <time>2016-11-23T15:07:50Z</time>
      </trkpt>
      <trkpt lat="43.44158" lon="6.13548">
        <ele>283.20001220703</ele>
        <time>2016-11-23T15:07:52Z</time>
      </trkpt>
      <trkpt lat="43.44159" lon="6.13568">
        <ele>284.20001220703</ele>
        <time>2016-11-23T15:07:58Z</time>
      </trkpt>
      <trkpt lat="43.44159" lon="6.13575">
        <ele>284.60000610352</ele>
        <time>2016-11-23T15:08:00Z</time>
      </trkpt>
      <trkpt lat="43.44157" lon="6.13606">
        <ele>285.39999389648</ele>
        <time>2016-11-23T15:08:09Z</time>
      </trkpt>
      <trkpt lat="43.44157" lon="6.13609">
        <ele>285.60000610352</ele>
        <time>2016-11-23T15:08:10Z</time>
      </trkpt>
      <trkpt lat="43.44155" lon="6.1362">
        <ele>286.39999389648</ele>
        <time>2016-11-23T15:08:14Z</time>
      </trkpt>
      <trkpt lat="43.44154" lon="6.13656">
        <ele>289</ele>
        <time>2016-11-23T15:08:27Z</time>
      </trkpt>
      <trkpt lat="43.44154" lon="6.13664">
        <ele>289.20001220703</ele>
        <time>2016-11-23T15:08:30Z</time>
      </trkpt>
      <trkpt lat="43.44154" lon="6.13678">
        <ele>290</ele>
        <time>2016-11-23T15:08:36Z</time>
      </trkpt>
      <trkpt lat="43.44153" lon="6.13687">
        <ele>290.60000610352</ele>
        <time>2016-11-23T15:08:40Z</time>
      </trkpt>
      <trkpt lat="43.44149" lon="6.13716">
        <ele>291</ele>
        <time>2016-11-23T15:08:50Z</time>
      </trkpt>
      <trkpt lat="43.44149" lon="6.13722">
        <ele>291.20001220703</ele>
        <time>2016-11-23T15:08:52Z</time>
      </trkpt>
      <trkpt lat="43.44145" lon="6.1375">
        <ele>292.20001220703</ele>
        <time>2016-11-23T15:09:03Z</time>
      </trkpt>
      <trkpt lat="43.44143" lon="6.13768">
        <ele>293.20001220703</ele>
        <time>2016-11-23T15:09:10Z</time>
      </trkpt>
      <trkpt lat="43.44143" lon="6.13795">
        <ele>295</ele>
        <time>2016-11-23T15:09:20Z</time>
      </trkpt>
      <trkpt lat="43.44143" lon="6.13807">
        <ele>295.39999389648</ele>
        <time>2016-11-23T15:09:24Z</time>
      </trkpt>
      <trkpt lat="43.44144" lon="6.13823">
        <ele>296</ele>
        <time>2016-11-23T15:09:29Z</time>
      </trkpt>
      <trkpt lat="43.44144" lon="6.13832">
        <ele>296.39999389648</ele>
        <time>2016-11-23T15:09:32Z</time>
      </trkpt>
      <trkpt lat="43.44146" lon="6.13849">
        <ele>296.79998779297</ele>
        <time>2016-11-23T15:09:37Z</time>
      </trkpt>
      <trkpt lat="43.44147" lon="6.13859">
        <ele>297</ele>
        <time>2016-11-23T15:09:40Z</time>
      </trkpt>
      <trkpt lat="43.44147" lon="6.13871">
        <ele>297.60000610352</ele>
        <time>2016-11-23T15:09:44Z</time>
      </trkpt>
      <trkpt lat="43.44147" lon="6.13882">
        <ele>298.79998779297</ele>
        <time>2016-11-23T15:09:48Z</time>
      </trkpt>
      <trkpt lat="43.44146" lon="6.13887">
        <ele>299.20001220703</ele>
        <time>2016-11-23T15:09:50Z</time>
      </trkpt>
      <trkpt lat="43.44147" lon="6.13914">
        <ele>300.39999389648</ele>
        <time>2016-11-23T15:10:00Z</time>
      </trkpt>
      <trkpt lat="43.44147" lon="6.13945">
        <ele>300.39999389648</ele>
        <time>2016-11-23T15:10:10Z</time>
      </trkpt>
      <trkpt lat="43.44146" lon="6.13951">
        <ele>301</ele>
        <time>2016-11-23T15:10:12Z</time>
      </trkpt>
      <trkpt lat="43.44146" lon="6.13971">
        <ele>303.60000610352</ele>
        <time>2016-11-23T15:10:19Z</time>
      </trkpt>
      <trkpt lat="43.44146" lon="6.13974">
        <ele>303.79998779297</ele>
        <time>2016-11-23T15:10:20Z</time>
      </trkpt>
      <trkpt lat="43.44147" lon="6.13996">
        <ele>304.39999389648</ele>
        <time>2016-11-23T15:10:28Z</time>
      </trkpt>
      <trkpt lat="43.44149" lon="6.14017">
        <ele>305.79998779297</ele>
        <time>2016-11-23T15:10:35Z</time>
      </trkpt>
      <trkpt lat="43.44151" lon="6.14032">
        <ele>306.79998779297</ele>
        <time>2016-11-23T15:10:40Z</time>
      </trkpt>
      <trkpt lat="43.44151" lon="6.14059">
        <ele>306.79998779297</ele>
        <time>2016-11-23T15:10:50Z</time>
      </trkpt>
      <trkpt lat="43.44153" lon="6.14082">
        <ele>308</ele>
        <time>2016-11-23T15:10:58Z</time>
      </trkpt>
      <trkpt lat="43.44154" lon="6.14087">
        <ele>308.20001220703</ele>
        <time>2016-11-23T15:11:00Z</time>
      </trkpt>
      <trkpt lat="43.44154" lon="6.14099">
        <ele>309</ele>
        <time>2016-11-23T15:11:05Z</time>
      </trkpt>
      <trkpt lat="43.44154" lon="6.14107">
        <ele>310</ele>
        <time>2016-11-23T15:11:08Z</time>
      </trkpt>
      <trkpt lat="43.44154" lon="6.14112">
        <ele>310.39999389648</ele>
        <time>2016-11-23T15:11:10Z</time>
      </trkpt>
      <trkpt lat="43.44154" lon="6.14128">
        <ele>310.60000610352</ele>
        <time>2016-11-23T15:11:20Z</time>
      </trkpt>
      <trkpt lat="43.44155" lon="6.14131">
        <ele>311</ele>
        <time>2016-11-23T15:11:23Z</time>
      </trkpt>
      <trkpt lat="43.44155" lon="6.14131">
        <ele>311.20001220703</ele>
        <time>2016-11-23T15:11:24Z</time>
      </trkpt>
      <trkpt lat="43.44155" lon="6.14131">
        <ele>311.60000610352</ele>
        <time>2016-11-23T15:11:26Z</time>
      </trkpt>
      <trkpt lat="43.44155" lon="6.1413">
        <ele>311.79998779297</ele>
        <time>2016-11-23T15:11:28Z</time>
      </trkpt>
      <trkpt lat="43.44156" lon="6.1413">
        <ele>312</ele>
        <time>2016-11-23T15:11:30Z</time>
      </trkpt>
      <trkpt lat="43.44156" lon="6.1413">
        <ele>312.39999389648</ele>
        <time>2016-11-23T15:11:35Z</time>
      </trkpt>
      <trkpt lat="43.44156" lon="6.1413">
        <ele>312.79998779297</ele>
        <time>2016-11-23T15:11:38Z</time>
      </trkpt>
      <trkpt lat="43.44156" lon="6.14129">
        <ele>311.60000610352</ele>
        <time>2016-11-23T15:12:05Z</time>
      </trkpt>
      <trkpt lat="43.44156" lon="6.14129">
        <ele>311.79998779297</ele>
        <time>2016-11-23T15:12:15Z</time>
      </trkpt>
      <trkpt lat="43.44156" lon="6.14129">
        <ele>311.39999389648</ele>
        <time>2016-11-23T15:12:20Z</time>
      </trkpt>
      <trkpt lat="43.44156" lon="6.14129">
        <ele>311.60000610352</ele>
        <time>2016-11-23T15:12:24Z</time>
      </trkpt>
      <trkpt lat="43.44155" lon="6.14129">
        <ele>312.39999389648</ele>
        <time>2016-11-23T15:12:30Z</time>
      </trkpt>
      <trkpt lat="43.44155" lon="6.14129">
        <ele>312.39999389648</ele>
        <time>2016-11-23T15:12:31Z</time>
      </trkpt>
      <trkpt lat="43.44155" lon="6.14129">
        <ele>312.39999389648</ele>
        <time>2016-11-23T15:12:33Z</time>
      </trkpt>
      <trkpt lat="43.44155" lon="6.14129">
        <ele>312.39999389648</ele>
        <time>2016-11-23T15:12:40Z</time>
      </trkpt>
      <trkpt lat="43.44156" lon="6.14129">
        <ele>312.39999389648</ele>
        <time>2016-11-23T15:12:50Z</time>
      </trkpt>
      <trkpt lat="43.44155" lon="6.1413">
        <ele>312.39999389648</ele>
        <time>2016-11-23T15:12:59Z</time>
      </trkpt>
      <trkpt lat="43.44156" lon="6.14131">
        <ele>312.39999389648</ele>
        <time>2016-11-23T15:13:05Z</time>
      </trkpt>
      <trkpt lat="43.44157" lon="6.14136">
        <ele>312.39999389648</ele>
        <time>2016-11-23T15:13:08Z</time>
      </trkpt>
      <trkpt lat="43.44157" lon="6.14139">
        <ele>312.20001220703</ele>
        <time>2016-11-23T15:13:09Z</time>
      </trkpt>
      <trkpt lat="43.44157" lon="6.14142">
        <ele>310.60000610352</ele>
        <time>2016-11-23T15:13:10Z</time>
      </trkpt>
      <trkpt lat="43.44157" lon="6.14152">
        <ele>312</ele>
        <time>2016-11-23T15:13:13Z</time>
      </trkpt>
      <trkpt lat="43.44157" lon="6.1418">
        <ele>311</ele>
        <time>2016-11-23T15:13:20Z</time>
      </trkpt>
      <trkpt lat="43.44154" lon="6.14192">
        <ele>309.79998779297</ele>
        <time>2016-11-23T15:13:22Z</time>
      </trkpt>
      <trkpt lat="43.44152" lon="6.14206">
        <ele>308.60000610352</ele>
        <time>2016-11-23T15:13:24Z</time>
      </trkpt>
      <trkpt lat="43.44148" lon="6.14229">
        <ele>307.60000610352</ele>
        <time>2016-11-23T15:13:27Z</time>
      </trkpt>
      <trkpt lat="43.44146" lon="6.14237">
        <ele>307.39999389648</ele>
        <time>2016-11-23T15:13:28Z</time>
      </trkpt>
      <trkpt lat="43.44144" lon="6.14254">
        <ele>306.79998779297</ele>
        <time>2016-11-23T15:13:30Z</time>
      </trkpt>
      <trkpt lat="43.44143" lon="6.14271">
        <ele>306.20001220703</ele>
        <time>2016-11-23T15:13:32Z</time>
      </trkpt>
      <trkpt lat="43.44144" lon="6.14296">
        <ele>304.79998779297</ele>
        <time>2016-11-23T15:13:35Z</time>
      </trkpt>
      <trkpt lat="43.44146" lon="6.14315">
        <ele>303.39999389648</ele>
        <time>2016-11-23T15:13:37Z</time>
      </trkpt>
      <trkpt lat="43.44149" lon="6.14324">
        <ele>303</ele>
        <time>2016-11-23T15:13:38Z</time>
      </trkpt>
      <trkpt lat="43.44155" lon="6.14344">
        <ele>302.39999389648</ele>
        <time>2016-11-23T15:13:40Z</time>
      </trkpt>
      <trkpt lat="43.44159" lon="6.14353">
        <ele>302</ele>
        <time>2016-11-23T15:13:41Z</time>
      </trkpt>
      <trkpt lat="43.44172" lon="6.14384">
        <ele>300.79998779297</ele>
        <time>2016-11-23T15:13:44Z</time>
      </trkpt>
      <trkpt lat="43.4418" lon="6.14404">
        <ele>299.60000610352</ele>
        <time>2016-11-23T15:13:46Z</time>
      </trkpt>
      <trkpt lat="43.44188" lon="6.14424">
        <ele>298.20001220703</ele>
        <time>2016-11-23T15:13:48Z</time>
      </trkpt>
      <trkpt lat="43.44194" lon="6.14443">
        <ele>296.79998779297</ele>
        <time>2016-11-23T15:13:50Z</time>
      </trkpt>
      <trkpt lat="43.44201" lon="6.14464">
        <ele>294.79998779297</ele>
        <time>2016-11-23T15:13:52Z</time>
      </trkpt>
      <trkpt lat="43.44204" lon="6.14475">
        <ele>293.79998779297</ele>
        <time>2016-11-23T15:13:53Z</time>
      </trkpt>
      <trkpt lat="43.44214" lon="6.14496">
        <ele>292.20001220703</ele>
        <time>2016-11-23T15:13:55Z</time>
      </trkpt>
      <trkpt lat="43.44219" lon="6.14506">
        <ele>291.20001220703</ele>
        <time>2016-11-23T15:13:56Z</time>
      </trkpt>
      <trkpt lat="43.4423" lon="6.14528">
        <ele>289.39999389648</ele>
        <time>2016-11-23T15:13:58Z</time>
      </trkpt>
      <trkpt lat="43.4424" lon="6.1455">
        <ele>288</ele>
        <time>2016-11-23T15:14:00Z</time>
      </trkpt>
      <trkpt lat="43.44246" lon="6.14574">
        <ele>286.39999389648</ele>
        <time>2016-11-23T15:14:02Z</time>
      </trkpt>
      <trkpt lat="43.44256" lon="6.14617">
        <ele>281.79998779297</ele>
        <time>2016-11-23T15:14:06Z</time>
      </trkpt>
      <trkpt lat="43.4426" lon="6.14627">
        <ele>281</ele>
        <time>2016-11-23T15:14:07Z</time>
      </trkpt>
      <trkpt lat="43.44263" lon="6.14636">
        <ele>280.79998779297</ele>
        <time>2016-11-23T15:14:08Z</time>
      </trkpt>
      <trkpt lat="43.44284" lon="6.14673">
        <ele>279.79998779297</ele>
        <time>2016-11-23T15:14:13Z</time>
      </trkpt>
      <trkpt lat="43.44292" lon="6.14687">
        <ele>280</ele>
        <time>2016-11-23T15:14:15Z</time>
      </trkpt>
      <trkpt lat="43.44302" lon="6.14713">
        <ele>279.60000610352</ele>
        <time>2016-11-23T15:14:18Z</time>
      </trkpt>
      <trkpt lat="43.4431" lon="6.14729">
        <ele>278.79998779297</ele>
        <time>2016-11-23T15:14:20Z</time>
      </trkpt>
      <trkpt lat="43.44332" lon="6.14769">
        <ele>275.60000610352</ele>
        <time>2016-11-23T15:14:25Z</time>
      </trkpt>
      <trkpt lat="43.44336" lon="6.14789">
        <ele>275.39999389648</ele>
        <time>2016-11-23T15:14:27Z</time>
      </trkpt>
      <trkpt lat="43.44339" lon="6.14809">
        <ele>275.39999389648</ele>
        <time>2016-11-23T15:14:29Z</time>
      </trkpt>
      <trkpt lat="43.44342" lon="6.14819">
        <ele>275.39999389648</ele>
        <time>2016-11-23T15:14:30Z</time>
      </trkpt>
      <trkpt lat="43.44354" lon="6.14876">
        <ele>274.39999389648</ele>
        <time>2016-11-23T15:14:37Z</time>
      </trkpt>
      <trkpt lat="43.44355" lon="6.14884">
        <ele>274</ele>
        <time>2016-11-23T15:14:38Z</time>
      </trkpt>
      <trkpt lat="43.44357" lon="6.14901">
        <ele>273</ele>
        <time>2016-11-23T15:14:40Z</time>
      </trkpt>
      <trkpt lat="43.44361" lon="6.14939">
        <ele>272.20001220703</ele>
        <time>2016-11-23T15:14:44Z</time>
      </trkpt>
      <trkpt lat="43.4436" lon="6.14949">
        <ele>271.39999389648</ele>
        <time>2016-11-23T15:14:45Z</time>
      </trkpt>
      <trkpt lat="43.44358" lon="6.14957">
        <ele>271</ele>
        <time>2016-11-23T15:14:46Z</time>
      </trkpt>
      <trkpt lat="43.44356" lon="6.14966">
        <ele>270</ele>
        <time>2016-11-23T15:14:47Z</time>
      </trkpt>
      <trkpt lat="43.4435" lon="6.14982">
        <ele>269</ele>
        <time>2016-11-23T15:14:49Z</time>
      </trkpt>
      <trkpt lat="43.44348" lon="6.14989">
        <ele>268.39999389648</ele>
        <time>2016-11-23T15:14:50Z</time>
      </trkpt>
      <trkpt lat="43.44339" lon="6.1501">
        <ele>269.39999389648</ele>
        <time>2016-11-23T15:14:53Z</time>
      </trkpt>
      <trkpt lat="43.44337" lon="6.15026">
        <ele>269.39999389648</ele>
        <time>2016-11-23T15:14:56Z</time>
      </trkpt>
      <trkpt lat="43.44339" lon="6.1503">
        <ele>269</ele>
        <time>2016-11-23T15:15:00Z</time>
      </trkpt>
      <trkpt lat="43.44339" lon="6.15031">
        <ele>269.20001220703</ele>
        <time>2016-11-23T15:15:10Z</time>
      </trkpt>
      <trkpt lat="43.44339" lon="6.15031">
        <ele>269.20001220703</ele>
        <time>2016-11-23T15:15:20Z</time>
      </trkpt>
      <trkpt lat="43.44339" lon="6.15031">
        <ele>269.39999389648</ele>
        <time>2016-11-23T15:15:30Z</time>
      </trkpt>
      <trkpt lat="43.44342" lon="6.15031">
        <ele>269.20001220703</ele>
        <time>2016-11-23T15:15:34Z</time>
      </trkpt>
      <trkpt lat="43.44347" lon="6.15029">
        <ele>269</ele>
        <time>2016-11-23T15:15:37Z</time>
      </trkpt>
      <trkpt lat="43.44348" lon="6.15028">
        <ele>269</ele>
        <time>2016-11-23T15:15:38Z</time>
      </trkpt>
      <trkpt lat="43.44351" lon="6.15025">
        <ele>268.79998779297</ele>
        <time>2016-11-23T15:15:40Z</time>
      </trkpt>
      <trkpt lat="43.44357" lon="6.1502">
        <ele>270.20001220703</ele>
        <time>2016-11-23T15:15:44Z</time>
      </trkpt>
      <trkpt lat="43.44365" lon="6.15009">
        <ele>270.79998779297</ele>
        <time>2016-11-23T15:15:49Z</time>
      </trkpt>
      <trkpt lat="43.44366" lon="6.15007">
        <ele>270.79998779297</ele>
        <time>2016-11-23T15:15:50Z</time>
      </trkpt>
      <trkpt lat="43.44372" lon="6.15001">
        <ele>270.60000610352</ele>
        <time>2016-11-23T15:15:53Z</time>
      </trkpt>
      <trkpt lat="43.44378" lon="6.14996">
        <ele>271</ele>
        <time>2016-11-23T15:15:56Z</time>
      </trkpt>
      <trkpt lat="43.44382" lon="6.14993">
        <ele>271.20001220703</ele>
        <time>2016-11-23T15:15:58Z</time>
      </trkpt>
      <trkpt lat="43.44384" lon="6.14991">
        <ele>271.39999389648</ele>
        <time>2016-11-23T15:16:00Z</time>
      </trkpt>
      <trkpt lat="43.44396" lon="6.14983">
        <ele>272.39999389648</ele>
        <time>2016-11-23T15:16:08Z</time>
      </trkpt>
      <trkpt lat="43.44399" lon="6.1498">
        <ele>273.79998779297</ele>
        <time>2016-11-23T15:16:10Z</time>
      </trkpt>
      <trkpt lat="43.44402" lon="6.14978">
        <ele>275.20001220703</ele>
        <time>2016-11-23T15:16:12Z</time>
      </trkpt>
      <trkpt lat="43.44405" lon="6.14975">
        <ele>276.20001220703</ele>
        <time>2016-11-23T15:16:14Z</time>
      </trkpt>
      <trkpt lat="43.44413" lon="6.1497">
        <ele>277.20001220703</ele>
        <time>2016-11-23T15:16:19Z</time>
      </trkpt>
      <trkpt lat="43.44415" lon="6.14969">
        <ele>277.20001220703</ele>
        <time>2016-11-23T15:16:20Z</time>
      </trkpt>
      <trkpt lat="43.44423" lon="6.14964">
        <ele>277.20001220703</ele>
        <time>2016-11-23T15:16:24Z</time>
      </trkpt>
      <trkpt lat="43.44424" lon="6.14963">
        <ele>277.20001220703</ele>
        <time>2016-11-23T15:16:25Z</time>
      </trkpt>
      <trkpt lat="43.44428" lon="6.14959">
        <ele>278.60000610352</ele>
        <time>2016-11-23T15:16:28Z</time>
      </trkpt>
      <trkpt lat="43.44431" lon="6.14956">
        <ele>279</ele>
        <time>2016-11-23T15:16:30Z</time>
      </trkpt>
      <trkpt lat="43.44437" lon="6.14951">
        <ele>279.39999389648</ele>
        <time>2016-11-23T15:16:35Z</time>
      </trkpt>
      <trkpt lat="43.44438" lon="6.1495">
        <ele>279.60000610352</ele>
        <time>2016-11-23T15:16:36Z</time>
      </trkpt>
      <trkpt lat="43.44443" lon="6.14947">
        <ele>280.39999389648</ele>
        <time>2016-11-23T15:16:40Z</time>
      </trkpt>
      <trkpt lat="43.44445" lon="6.14945">
        <ele>280.79998779297</ele>
        <time>2016-11-23T15:16:42Z</time>
      </trkpt>
      <trkpt lat="43.44455" lon="6.14938">
        <ele>281.79998779297</ele>
        <time>2016-11-23T15:16:50Z</time>
      </trkpt>
      <trkpt lat="43.44466" lon="6.14927">
        <ele>282.60000610352</ele>
        <time>2016-11-23T15:17:00Z</time>
      </trkpt>
      <trkpt lat="43.44469" lon="6.14922">
        <ele>282.79998779297</ele>
        <time>2016-11-23T15:17:04Z</time>
      </trkpt>
      <trkpt lat="43.4447" lon="6.14921">
        <ele>282.79998779297</ele>
        <time>2016-11-23T15:17:05Z</time>
      </trkpt>
      <trkpt lat="43.44473" lon="6.14919">
        <ele>283</ele>
        <time>2016-11-23T15:17:09Z</time>
      </trkpt>
      <trkpt lat="43.44473" lon="6.14919">
        <ele>283</ele>
        <time>2016-11-23T15:17:10Z</time>
      </trkpt>
      <trkpt lat="43.44474" lon="6.1492">
        <ele>283.39999389648</ele>
        <time>2016-11-23T15:17:13Z</time>
      </trkpt>
      <trkpt lat="43.44474" lon="6.1492">
        <ele>283.39999389648</ele>
        <time>2016-11-23T15:17:17Z</time>
      </trkpt>
      <trkpt lat="43.44473" lon="6.1492">
        <ele>283.39999389648</ele>
        <time>2016-11-23T15:17:20Z</time>
      </trkpt>
      <trkpt lat="43.44474" lon="6.14919">
        <ele>283.79998779297</ele>
        <time>2016-11-23T15:17:26Z</time>
      </trkpt>
      <trkpt lat="43.44473" lon="6.14919">
        <ele>284.20001220703</ele>
        <time>2016-11-23T15:17:29Z</time>
      </trkpt>
      <trkpt lat="43.44473" lon="6.14919">
        <ele>284.20001220703</ele>
        <time>2016-11-23T15:17:30Z</time>
      </trkpt>
      <trkpt lat="43.44473" lon="6.14919">
        <ele>284.20001220703</ele>
        <time>2016-11-23T15:17:32Z</time>
      </trkpt>
      <trkpt lat="43.44473" lon="6.14919">
        <ele>284.39999389648</ele>
        <time>2016-11-23T15:17:39Z</time>
      </trkpt>
      <trkpt lat="43.44474" lon="6.14919">
        <ele>284.39999389648</ele>
        <time>2016-11-23T15:17:40Z</time>
      </trkpt>
      <trkpt lat="43.44474" lon="6.14919">
        <ele>284.39999389648</ele>
        <time>2016-11-23T15:17:42Z</time>
      </trkpt>
      <trkpt lat="43.44473" lon="6.14919">
        <ele>284.20001220703</ele>
        <time>2016-11-23T15:17:44Z</time>
      </trkpt>
      <trkpt lat="43.44473" lon="6.1492">
        <ele>284.20001220703</ele>
        <time>2016-11-23T15:17:50Z</time>
      </trkpt>
      <trkpt lat="43.44473" lon="6.14921">
        <ele>284.20001220703</ele>
        <time>2016-11-23T15:17:55Z</time>
      </trkpt>
      <trkpt lat="43.44473" lon="6.1492">
        <ele>283.79998779297</ele>
        <time>2016-11-23T15:17:58Z</time>
      </trkpt>
      <trkpt lat="43.44473" lon="6.14921">
        <ele>283.79998779297</ele>
        <time>2016-11-23T15:18:00Z</time>
      </trkpt>
      <trkpt lat="43.44473" lon="6.14921">
        <ele>283.79998779297</ele>
        <time>2016-11-23T15:18:02Z</time>
      </trkpt>
      <trkpt lat="43.44473" lon="6.14921">
        <ele>284</ele>
        <time>2016-11-23T15:18:06Z</time>
      </trkpt>
      <trkpt lat="43.44473" lon="6.14921">
        <ele>284</ele>
        <time>2016-11-23T15:18:08Z</time>
      </trkpt>
      <trkpt lat="43.44473" lon="6.14921">
        <ele>283.79998779297</ele>
        <time>2016-11-23T15:18:10Z</time>
      </trkpt>
      <trkpt lat="43.44473" lon="6.1492">
        <ele>283.79998779297</ele>
        <time>2016-11-23T15:18:18Z</time>
      </trkpt>
      <trkpt lat="43.44473" lon="6.1492">
        <ele>283.79998779297</ele>
        <time>2016-11-23T15:18:20Z</time>
      </trkpt>
      <trkpt lat="43.44473" lon="6.14918">
        <ele>284.39999389648</ele>
        <time>2016-11-23T15:18:27Z</time>
      </trkpt>
      <trkpt lat="43.44475" lon="6.14915">
        <ele>284.39999389648</ele>
        <time>2016-11-23T15:18:29Z</time>
      </trkpt>
      <trkpt lat="43.44477" lon="6.14914">
        <ele>284.20001220703</ele>
        <time>2016-11-23T15:18:30Z</time>
      </trkpt>
      <trkpt lat="43.44489" lon="6.14903">
        <ele>282.79998779297</ele>
        <time>2016-11-23T15:18:35Z</time>
      </trkpt>
      <trkpt lat="43.44497" lon="6.14897">
        <ele>282.39999389648</ele>
        <time>2016-11-23T15:18:37Z</time>
      </trkpt>
      <trkpt lat="43.44504" lon="6.14893">
        <ele>280.79998779297</ele>
        <time>2016-11-23T15:18:39Z</time>
      </trkpt>
      <trkpt lat="43.44508" lon="6.14892">
        <ele>279.60000610352</ele>
        <time>2016-11-23T15:18:40Z</time>
      </trkpt>
      <trkpt lat="43.44514" lon="6.14893">
        <ele>278.20001220703</ele>
        <time>2016-11-23T15:18:42Z</time>
      </trkpt>
      <trkpt lat="43.44521" lon="6.14902">
        <ele>277</ele>
        <time>2016-11-23T15:18:44Z</time>
      </trkpt>
      <trkpt lat="43.44525" lon="6.14928">
        <ele>273.60000610352</ele>
        <time>2016-11-23T15:18:47Z</time>
      </trkpt>
      <trkpt lat="43.44527" lon="6.14938">
        <ele>273</ele>
        <time>2016-11-23T15:18:48Z</time>
      </trkpt>
      <trkpt lat="43.44531" lon="6.14948">
        <ele>272.39999389648</ele>
        <time>2016-11-23T15:18:49Z</time>
      </trkpt>
      <trkpt lat="43.44536" lon="6.14958">
        <ele>272.20001220703</ele>
        <time>2016-11-23T15:18:50Z</time>
      </trkpt>
      <trkpt lat="43.44542" lon="6.14968">
        <ele>271.60000610352</ele>
        <time>2016-11-23T15:18:51Z</time>
      </trkpt>
      <trkpt lat="43.44556" lon="6.14979">
        <ele>270.20001220703</ele>
        <time>2016-11-23T15:18:53Z</time>
      </trkpt>
      <trkpt lat="43.44574" lon="6.14983">
        <ele>269</ele>
        <time>2016-11-23T15:18:55Z</time>
      </trkpt>
      <trkpt lat="43.44588" lon="6.14977">
        <ele>267.79998779297</ele>
        <time>2016-11-23T15:18:57Z</time>
      </trkpt>
      <trkpt lat="43.44606" lon="6.14962">
        <ele>267.20001220703</ele>
        <time>2016-11-23T15:19:00Z</time>
      </trkpt>
      <trkpt lat="43.44621" lon="6.1495">
        <ele>266.79998779297</ele>
        <time>2016-11-23T15:19:03Z</time>
      </trkpt>
      <trkpt lat="43.44627" lon="6.14947">
        <ele>266.60000610352</ele>
        <time>2016-11-23T15:19:04Z</time>
      </trkpt>
      <trkpt lat="43.44643" lon="6.14944">
        <ele>266</ele>
        <time>2016-11-23T15:19:07Z</time>
      </trkpt>
      <trkpt lat="43.44649" lon="6.14945">
        <ele>265.60000610352</ele>
        <time>2016-11-23T15:19:08Z</time>
      </trkpt>
      <trkpt lat="43.44654" lon="6.14948">
        <ele>264.79998779297</ele>
        <time>2016-11-23T15:19:09Z</time>
      </trkpt>
      <trkpt lat="43.44658" lon="6.14952">
        <ele>264.39999389648</ele>
        <time>2016-11-23T15:19:10Z</time>
      </trkpt>
      <trkpt lat="43.44667" lon="6.14967">
        <ele>263</ele>
        <time>2016-11-23T15:19:13Z</time>
      </trkpt>
      <trkpt lat="43.44677" lon="6.14984">
        <ele>262.60000610352</ele>
        <time>2016-11-23T15:19:16Z</time>
      </trkpt>
      <trkpt lat="43.44685" lon="6.14997">
        <ele>261.60000610352</ele>
        <time>2016-11-23T15:19:18Z</time>
      </trkpt>
      <trkpt lat="43.44693" lon="6.1501">
        <ele>261.60000610352</ele>
        <time>2016-11-23T15:19:20Z</time>
      </trkpt>
      <trkpt lat="43.44705" lon="6.15031">
        <ele>261.39999389648</ele>
        <time>2016-11-23T15:19:23Z</time>
      </trkpt>
      <trkpt lat="43.44713" lon="6.15045">
        <ele>262.60000610352</ele>
        <time>2016-11-23T15:19:25Z</time>
      </trkpt>
      <trkpt lat="43.44734" lon="6.15075">
        <ele>262.60000610352</ele>
        <time>2016-11-23T15:19:30Z</time>
      </trkpt>
      <trkpt lat="43.44744" lon="6.15095">
        <ele>263.39999389648</ele>
        <time>2016-11-23T15:19:33Z</time>
      </trkpt>
      <trkpt lat="43.44748" lon="6.15102">
        <ele>264</ele>
        <time>2016-11-23T15:19:34Z</time>
      </trkpt>
      <trkpt lat="43.44755" lon="6.15115">
        <ele>265</ele>
        <time>2016-11-23T15:19:36Z</time>
      </trkpt>
      <trkpt lat="43.44763" lon="6.15133">
        <ele>265.39999389648</ele>
        <time>2016-11-23T15:19:39Z</time>
      </trkpt>
      <trkpt lat="43.44766" lon="6.15138">
        <ele>265.39999389648</ele>
        <time>2016-11-23T15:19:40Z</time>
      </trkpt>
      <trkpt lat="43.44784" lon="6.15174">
        <ele>265.20001220703</ele>
        <time>2016-11-23T15:19:46Z</time>
      </trkpt>
      <trkpt lat="43.44793" lon="6.15197">
        <ele>266</ele>
        <time>2016-11-23T15:19:50Z</time>
      </trkpt>
      <trkpt lat="43.44794" lon="6.15202">
        <ele>266.39999389648</ele>
        <time>2016-11-23T15:19:51Z</time>
      </trkpt>
      <trkpt lat="43.44804" lon="6.15225">
        <ele>267.39999389648</ele>
        <time>2016-11-23T15:19:56Z</time>
      </trkpt>
      <trkpt lat="43.44809" lon="6.15238">
        <ele>269</ele>
        <time>2016-11-23T15:19:59Z</time>
      </trkpt>
      <trkpt lat="43.44824" lon="6.15273">
        <ele>269.60000610352</ele>
        <time>2016-11-23T15:20:08Z</time>
      </trkpt>
      <trkpt lat="43.44827" lon="6.15279">
        <ele>269.60000610352</ele>
        <time>2016-11-23T15:20:10Z</time>
      </trkpt>
      <trkpt lat="43.4483" lon="6.15289">
        <ele>270</ele>
        <time>2016-11-23T15:20:13Z</time>
      </trkpt>
      <trkpt lat="43.44833" lon="6.15298">
        <ele>271.20001220703</ele>
        <time>2016-11-23T15:20:16Z</time>
      </trkpt>
      <trkpt lat="43.44837" lon="6.15312">
        <ele>271.79998779297</ele>
        <time>2016-11-23T15:20:20Z</time>
      </trkpt>
      <trkpt lat="43.4484" lon="6.15328">
        <ele>272.39999389648</ele>
        <time>2016-11-23T15:20:25Z</time>
      </trkpt>
      <trkpt lat="43.44841" lon="6.1534">
        <ele>273.39999389648</ele>
        <time>2016-11-23T15:20:29Z</time>
      </trkpt>
      <trkpt lat="43.44842" lon="6.15343">
        <ele>273.60000610352</ele>
        <time>2016-11-23T15:20:30Z</time>
      </trkpt>
      <trkpt lat="43.44852" lon="6.15374">
        <ele>274.60000610352</ele>
        <time>2016-11-23T15:20:40Z</time>
      </trkpt>
      <trkpt lat="43.4486" lon="6.15402">
        <ele>275.39999389648</ele>
        <time>2016-11-23T15:20:50Z</time>
      </trkpt>
      <trkpt lat="43.44868" lon="6.1542">
        <ele>275.39999389648</ele>
        <time>2016-11-23T15:20:56Z</time>
      </trkpt>
      <trkpt lat="43.44874" lon="6.1543">
        <ele>275.79998779297</ele>
        <time>2016-11-23T15:21:00Z</time>
      </trkpt>
      <trkpt lat="43.44883" lon="6.15448">
        <ele>276.39999389648</ele>
        <time>2016-11-23T15:21:09Z</time>
      </trkpt>
      <trkpt lat="43.44884" lon="6.1545">
        <ele>276.60000610352</ele>
        <time>2016-11-23T15:21:10Z</time>
      </trkpt>
      <trkpt lat="43.44889" lon="6.15459">
        <ele>277.60000610352</ele>
        <time>2016-11-23T15:21:14Z</time>
      </trkpt>
      <trkpt lat="43.44893" lon="6.15465">
        <ele>278.60000610352</ele>
        <time>2016-11-23T15:21:17Z</time>
      </trkpt>
      <trkpt lat="43.44895" lon="6.15469">
        <ele>279</ele>
        <time>2016-11-23T15:21:20Z</time>
      </trkpt>
      <trkpt lat="43.44896" lon="6.15475">
        <ele>279</ele>
        <time>2016-11-23T15:21:23Z</time>
      </trkpt>
      <trkpt lat="43.44896" lon="6.15477">
        <ele>278.79998779297</ele>
        <time>2016-11-23T15:21:25Z</time>
      </trkpt>
      <trkpt lat="43.44896" lon="6.15478">
        <ele>278</ele>
        <time>2016-11-23T15:21:30Z</time>
      </trkpt>
      <trkpt lat="43.44896" lon="6.15478">
        <ele>279.20001220703</ele>
        <time>2016-11-23T15:21:36Z</time>
      </trkpt>
      <trkpt lat="43.44896" lon="6.15478">
        <ele>277.60000610352</ele>
        <time>2016-11-23T15:22:30Z</time>
      </trkpt>
      <trkpt lat="43.44895" lon="6.1548">
        <ele>278</ele>
        <time>2016-11-23T15:22:38Z</time>
      </trkpt>
      <trkpt lat="43.44891" lon="6.15482">
        <ele>277.79998779297</ele>
        <time>2016-11-23T15:22:40Z</time>
      </trkpt>
      <trkpt lat="43.44888" lon="6.15485">
        <ele>277.60000610352</ele>
        <time>2016-11-23T15:22:41Z</time>
      </trkpt>
      <trkpt lat="43.44886" lon="6.15494">
        <ele>277.20001220703</ele>
        <time>2016-11-23T15:22:43Z</time>
      </trkpt>
      <trkpt lat="43.44887" lon="6.1551">
        <ele>277</ele>
        <time>2016-11-23T15:22:46Z</time>
      </trkpt>
      <trkpt lat="43.44885" lon="6.15524">
        <ele>276.60000610352</ele>
        <time>2016-11-23T15:22:48Z</time>
      </trkpt>
      <trkpt lat="43.44886" lon="6.1554">
        <ele>275.60000610352</ele>
        <time>2016-11-23T15:22:50Z</time>
      </trkpt>
      <trkpt lat="43.44888" lon="6.15554">
        <ele>274.20001220703</ele>
        <time>2016-11-23T15:22:52Z</time>
      </trkpt>
      <trkpt lat="43.44886" lon="6.15566">
        <ele>273</ele>
        <time>2016-11-23T15:22:54Z</time>
      </trkpt>
      <trkpt lat="43.4488" lon="6.15581">
        <ele>271.79998779297</ele>
        <time>2016-11-23T15:22:56Z</time>
      </trkpt>
      <trkpt lat="43.44879" lon="6.15598">
        <ele>270.79998779297</ele>
        <time>2016-11-23T15:22:58Z</time>
      </trkpt>
      <trkpt lat="43.44878" lon="6.15606">
        <ele>270.60000610352</ele>
        <time>2016-11-23T15:22:59Z</time>
      </trkpt>
      <trkpt lat="43.44878" lon="6.15616">
        <ele>270.20001220703</ele>
        <time>2016-11-23T15:23:00Z</time>
      </trkpt>
      <trkpt lat="43.44877" lon="6.15624">
        <ele>269.79998779297</ele>
        <time>2016-11-23T15:23:01Z</time>
      </trkpt>
      <trkpt lat="43.44877" lon="6.15633">
        <ele>269.20001220703</ele>
        <time>2016-11-23T15:23:02Z</time>
      </trkpt>
      <trkpt lat="43.44878" lon="6.15641">
        <ele>268.39999389648</ele>
        <time>2016-11-23T15:23:03Z</time>
      </trkpt>
      <trkpt lat="43.44878" lon="6.15647">
        <ele>267.60000610352</ele>
        <time>2016-11-23T15:23:04Z</time>
      </trkpt>
      <trkpt lat="43.44876" lon="6.15654">
        <ele>267</ele>
        <time>2016-11-23T15:23:05Z</time>
      </trkpt>
      <trkpt lat="43.44874" lon="6.1566">
        <ele>266.60000610352</ele>
        <time>2016-11-23T15:23:06Z</time>
      </trkpt>
      <trkpt lat="43.44869" lon="6.15672">
        <ele>266</ele>
        <time>2016-11-23T15:23:08Z</time>
      </trkpt>
      <trkpt lat="43.44866" lon="6.15684">
        <ele>265.39999389648</ele>
        <time>2016-11-23T15:23:10Z</time>
      </trkpt>
      <trkpt lat="43.44864" lon="6.15695">
        <ele>265.20001220703</ele>
        <time>2016-11-23T15:23:12Z</time>
      </trkpt>
      <trkpt lat="43.44862" lon="6.15701">
        <ele>265</ele>
        <time>2016-11-23T15:23:13Z</time>
      </trkpt>
      <trkpt lat="43.44858" lon="6.15721">
        <ele>263.39999389648</ele>
        <time>2016-11-23T15:23:16Z</time>
      </trkpt>
      <trkpt lat="43.44841" lon="6.15755">
        <ele>263</ele>
        <time>2016-11-23T15:23:23Z</time>
      </trkpt>
      <trkpt lat="43.44836" lon="6.15765">
        <ele>263.39999389648</ele>
        <time>2016-11-23T15:23:25Z</time>
      </trkpt>
      <trkpt lat="43.44833" lon="6.15777">
        <ele>263.39999389648</ele>
        <time>2016-11-23T15:23:27Z</time>
      </trkpt>
      <trkpt lat="43.44836" lon="6.1579">
        <ele>262.20001220703</ele>
        <time>2016-11-23T15:23:29Z</time>
      </trkpt>
      <trkpt lat="43.44838" lon="6.15797">
        <ele>261.39999389648</ele>
        <time>2016-11-23T15:23:30Z</time>
      </trkpt>
      <trkpt lat="43.44838" lon="6.15803">
        <ele>260.39999389648</ele>
        <time>2016-11-23T15:23:31Z</time>
      </trkpt>
      <trkpt lat="43.44837" lon="6.15805">
        <ele>259.39999389648</ele>
        <time>2016-11-23T15:23:32Z</time>
      </trkpt>
      <trkpt lat="43.44836" lon="6.15806">
        <ele>258.60000610352</ele>
        <time>2016-11-23T15:23:33Z</time>
      </trkpt>
      <trkpt lat="43.44834" lon="6.15806">
        <ele>258</ele>
        <time>2016-11-23T15:23:39Z</time>
      </trkpt>
      <trkpt lat="43.44835" lon="6.15807">
        <ele>257.79998779297</ele>
        <time>2016-11-23T15:23:40Z</time>
      </trkpt>
      <trkpt lat="43.44835" lon="6.15806">
        <ele>257.60000610352</ele>
        <time>2016-11-23T15:23:42Z</time>
      </trkpt>
      <trkpt lat="43.44836" lon="6.15806">
        <ele>256.20001220703</ele>
        <time>2016-11-23T15:23:47Z</time>
      </trkpt>
      <trkpt lat="43.44837" lon="6.15805">
        <ele>256</ele>
        <time>2016-11-23T15:23:50Z</time>
      </trkpt>
      <trkpt lat="43.44837" lon="6.15805">
        <ele>257.20001220703</ele>
        <time>2016-11-23T15:23:57Z</time>
      </trkpt>
      <trkpt lat="43.44838" lon="6.15806">
        <ele>257.39999389648</ele>
        <time>2016-11-23T15:24:00Z</time>
      </trkpt>
      <trkpt lat="43.44834" lon="6.15806">
        <ele>258</ele>
        <time>2016-11-23T15:24:10Z</time>
      </trkpt>
      <trkpt lat="43.44833" lon="6.15806">
        <ele>258.39999389648</ele>
        <time>2016-11-23T15:24:11Z</time>
      </trkpt>
      <trkpt lat="43.44831" lon="6.15806">
        <ele>259.39999389648</ele>
        <time>2016-11-23T15:24:16Z</time>
      </trkpt>
      <trkpt lat="43.44827" lon="6.15806">
        <ele>259.39999389648</ele>
        <time>2016-11-23T15:24:20Z</time>
      </trkpt>
      <trkpt lat="43.44825" lon="6.15807">
        <ele>259.39999389648</ele>
        <time>2016-11-23T15:24:21Z</time>
      </trkpt>
      <trkpt lat="43.4482" lon="6.15812">
        <ele>260.60000610352</ele>
        <time>2016-11-23T15:24:26Z</time>
      </trkpt>
      <trkpt lat="43.44814" lon="6.15813">
        <ele>261.20001220703</ele>
        <time>2016-11-23T15:24:30Z</time>
      </trkpt>
      <trkpt lat="43.44812" lon="6.15813">
        <ele>261.60000610352</ele>
        <time>2016-11-23T15:24:31Z</time>
      </trkpt>
      <trkpt lat="43.44809" lon="6.15813">
        <ele>263</ele>
        <time>2016-11-23T15:24:34Z</time>
      </trkpt>
      <trkpt lat="43.44807" lon="6.15812">
        <ele>263.39999389648</ele>
        <time>2016-11-23T15:24:35Z</time>
      </trkpt>
      <trkpt lat="43.44805" lon="6.15812">
        <ele>264.20001220703</ele>
        <time>2016-11-23T15:24:37Z</time>
      </trkpt>
      <trkpt lat="43.44801" lon="6.15813">
        <ele>265.39999389648</ele>
        <time>2016-11-23T15:24:40Z</time>
      </trkpt>
      <trkpt lat="43.44799" lon="6.15815">
        <ele>266</ele>
        <time>2016-11-23T15:24:42Z</time>
      </trkpt>
      <trkpt lat="43.44797" lon="6.15816">
        <ele>266.60000610352</ele>
        <time>2016-11-23T15:24:44Z</time>
      </trkpt>
      <trkpt lat="43.44792" lon="6.15817">
        <ele>267.20001220703</ele>
        <time>2016-11-23T15:24:49Z</time>
      </trkpt>
      <trkpt lat="43.44791" lon="6.15818">
        <ele>267.39999389648</ele>
        <time>2016-11-23T15:24:50Z</time>
      </trkpt>
      <trkpt lat="43.4479" lon="6.15818">
        <ele>267.79998779297</ele>
        <time>2016-11-23T15:24:51Z</time>
      </trkpt>
      <trkpt lat="43.44788" lon="6.1582">
        <ele>268.39999389648</ele>
        <time>2016-11-23T15:24:53Z</time>
      </trkpt>
      <trkpt lat="43.44785" lon="6.15826">
        <ele>268.60000610352</ele>
        <time>2016-11-23T15:24:58Z</time>
      </trkpt>
      <trkpt lat="43.44785" lon="6.15827">
        <ele>268.20001220703</ele>
        <time>2016-11-23T15:25:06Z</time>
      </trkpt>
      <trkpt lat="43.44785" lon="6.15827">
        <ele>268.20001220703</ele>
        <time>2016-11-23T15:25:08Z</time>
      </trkpt>
      <trkpt lat="43.44785" lon="6.15827">
        <ele>268.20001220703</ele>
        <time>2016-11-23T15:25:16Z</time>
      </trkpt>
      <trkpt lat="43.44785" lon="6.15828">
        <ele>268.20001220703</ele>
        <time>2016-11-23T15:25:24Z</time>
      </trkpt>
      <trkpt lat="43.44783" lon="6.15834">
        <ele>268.39999389648</ele>
        <time>2016-11-23T15:25:27Z</time>
      </trkpt>
      <trkpt lat="43.44781" lon="6.1584">
        <ele>268.39999389648</ele>
        <time>2016-11-23T15:25:30Z</time>
      </trkpt>
      <trkpt lat="43.44775" lon="6.15867">
        <ele>269</ele>
        <time>2016-11-23T15:25:40Z</time>
      </trkpt>
      <trkpt lat="43.44762" lon="6.15899">
        <ele>268</ele>
        <time>2016-11-23T15:25:46Z</time>
      </trkpt>
      <trkpt lat="43.4476" lon="6.15906">
        <ele>266.60000610352</ele>
        <time>2016-11-23T15:25:47Z</time>
      </trkpt>
      <trkpt lat="43.44759" lon="6.15914">
        <ele>265.60000610352</ele>
        <time>2016-11-23T15:25:48Z</time>
      </trkpt>
      <trkpt lat="43.4476" lon="6.15929">
        <ele>264</ele>
        <time>2016-11-23T15:25:50Z</time>
      </trkpt>
      <trkpt lat="43.44762" lon="6.15947">
        <ele>262.79998779297</ele>
        <time>2016-11-23T15:25:52Z</time>
      </trkpt>
      <trkpt lat="43.44765" lon="6.15963">
        <ele>262.39999389648</ele>
        <time>2016-11-23T15:25:54Z</time>
      </trkpt>
      <trkpt lat="43.44769" lon="6.15977">
        <ele>262.60000610352</ele>
        <time>2016-11-23T15:25:56Z</time>
      </trkpt>
      <trkpt lat="43.4477" lon="6.15983">
        <ele>262.79998779297</ele>
        <time>2016-11-23T15:25:57Z</time>
      </trkpt>
      <trkpt lat="43.44772" lon="6.15998">
        <ele>263</ele>
        <time>2016-11-23T15:26:00Z</time>
      </trkpt>
      <trkpt lat="43.44772" lon="6.16006">
        <ele>263.39999389648</ele>
        <time>2016-11-23T15:26:02Z</time>
      </trkpt>
      <trkpt lat="43.44775" lon="6.16018">
        <ele>263.39999389648</ele>
        <time>2016-11-23T15:26:05Z</time>
      </trkpt>
      <trkpt lat="43.44779" lon="6.1603">
        <ele>263.60000610352</ele>
        <time>2016-11-23T15:26:08Z</time>
      </trkpt>
      <trkpt lat="43.44782" lon="6.16039">
        <ele>263.79998779297</ele>
        <time>2016-11-23T15:26:10Z</time>
      </trkpt>
      <trkpt lat="43.44784" lon="6.16073">
        <ele>264</ele>
        <time>2016-11-23T15:26:18Z</time>
      </trkpt>
      <trkpt lat="43.44784" lon="6.1608">
        <ele>264.20001220703</ele>
        <time>2016-11-23T15:26:20Z</time>
      </trkpt>
      <trkpt lat="43.44779" lon="6.16118">
        <ele>264.20001220703</ele>
        <time>2016-11-23T15:26:30Z</time>
      </trkpt>
      <trkpt lat="43.44775" lon="6.16141">
        <ele>262.60000610352</ele>
        <time>2016-11-23T15:26:35Z</time>
      </trkpt>
      <trkpt lat="43.44775" lon="6.1615">
        <ele>261.39999389648</ele>
        <time>2016-11-23T15:26:37Z</time>
      </trkpt>
      <trkpt lat="43.44775" lon="6.1616">
        <ele>260.39999389648</ele>
        <time>2016-11-23T15:26:39Z</time>
      </trkpt>
      <trkpt lat="43.44772" lon="6.16171">
        <ele>259.20001220703</ele>
        <time>2016-11-23T15:26:41Z</time>
      </trkpt>
      <trkpt lat="43.44769" lon="6.16182">
        <ele>257.79998779297</ele>
        <time>2016-11-23T15:26:43Z</time>
      </trkpt>
      <trkpt lat="43.44768" lon="6.16187">
        <ele>257</ele>
        <time>2016-11-23T15:26:44Z</time>
      </trkpt>
      <trkpt lat="43.44769" lon="6.16194">
        <ele>256.20001220703</ele>
        <time>2016-11-23T15:26:45Z</time>
      </trkpt>
      <trkpt lat="43.44769" lon="6.16201">
        <ele>255.60000610352</ele>
        <time>2016-11-23T15:26:46Z</time>
      </trkpt>
      <trkpt lat="43.44773" lon="6.16232">
        <ele>254.80000305176</ele>
        <time>2016-11-23T15:26:50Z</time>
      </trkpt>
      <trkpt lat="43.44775" lon="6.16249">
        <ele>253.39999389648</ele>
        <time>2016-11-23T15:26:52Z</time>
      </trkpt>
      <trkpt lat="43.44778" lon="6.16264">
        <ele>251.60000610352</ele>
        <time>2016-11-23T15:26:54Z</time>
      </trkpt>
      <trkpt lat="43.44778" lon="6.1628">
        <ele>250.19999694824</ele>
        <time>2016-11-23T15:26:56Z</time>
      </trkpt>
      <trkpt lat="43.4478" lon="6.16292">
        <ele>248.60000610352</ele>
        <time>2016-11-23T15:26:58Z</time>
      </trkpt>
      <trkpt lat="43.44783" lon="6.16304">
        <ele>246.80000305176</ele>
        <time>2016-11-23T15:27:00Z</time>
      </trkpt>
      <trkpt lat="43.44785" lon="6.16311">
        <ele>245.39999389648</ele>
        <time>2016-11-23T15:27:01Z</time>
      </trkpt>
      <trkpt lat="43.44787" lon="6.16318">
        <ele>244</ele>
        <time>2016-11-23T15:27:02Z</time>
      </trkpt>
      <trkpt lat="43.44788" lon="6.16326">
        <ele>242.60000610352</ele>
        <time>2016-11-23T15:27:03Z</time>
      </trkpt>
      <trkpt lat="43.44786" lon="6.16334">
        <ele>242</ele>
        <time>2016-11-23T15:27:04Z</time>
      </trkpt>
      <trkpt lat="43.44783" lon="6.1635">
        <ele>241.19999694824</ele>
        <time>2016-11-23T15:27:06Z</time>
      </trkpt>
      <trkpt lat="43.44781" lon="6.16359">
        <ele>241</ele>
        <time>2016-11-23T15:27:07Z</time>
      </trkpt>
      <trkpt lat="43.44778" lon="6.16375">
        <ele>240.39999389648</ele>
        <time>2016-11-23T15:27:09Z</time>
      </trkpt>
      <trkpt lat="43.44774" lon="6.16388">
        <ele>240.19999694824</ele>
        <time>2016-11-23T15:27:11Z</time>
      </trkpt>
      <trkpt lat="43.44772" lon="6.16402">
        <ele>240.39999389648</ele>
        <time>2016-11-23T15:27:13Z</time>
      </trkpt>
      <trkpt lat="43.4477" lon="6.16439">
        <ele>239.80000305176</ele>
        <time>2016-11-23T15:27:18Z</time>
      </trkpt>
      <trkpt lat="43.44768" lon="6.16453">
        <ele>239</ele>
        <time>2016-11-23T15:27:20Z</time>
      </trkpt>
      <trkpt lat="43.44765" lon="6.16474">
        <ele>238.39999389648</ele>
        <time>2016-11-23T15:27:23Z</time>
      </trkpt>
      <trkpt lat="43.44759" lon="6.165">
        <ele>238.80000305176</ele>
        <time>2016-11-23T15:27:27Z</time>
      </trkpt>
      <trkpt lat="43.44758" lon="6.16514">
        <ele>238.80000305176</ele>
        <time>2016-11-23T15:27:29Z</time>
      </trkpt>
      <trkpt lat="43.44759" lon="6.1652">
        <ele>238.80000305176</ele>
        <time>2016-11-23T15:27:30Z</time>
      </trkpt>
      <trkpt lat="43.44759" lon="6.16555">
        <ele>238</ele>
        <time>2016-11-23T15:27:36Z</time>
      </trkpt>
      <trkpt lat="43.44762" lon="6.16559">
        <ele>237.60000610352</ele>
        <time>2016-11-23T15:27:37Z</time>
      </trkpt>
      <trkpt lat="43.4477" lon="6.16565">
        <ele>236.19999694824</ele>
        <time>2016-11-23T15:27:40Z</time>
      </trkpt>
      <trkpt lat="43.4478" lon="6.16566">
        <ele>235</ele>
        <time>2016-11-23T15:27:42Z</time>
      </trkpt>
      <trkpt lat="43.44787" lon="6.16568">
        <ele>233</ele>
        <time>2016-11-23T15:27:44Z</time>
      </trkpt>
      <trkpt lat="43.4479" lon="6.16569">
        <ele>232</ele>
        <time>2016-11-23T15:27:45Z</time>
      </trkpt>
      <trkpt lat="43.44792" lon="6.1657">
        <ele>231.39999389648</ele>
        <time>2016-11-23T15:27:46Z</time>
      </trkpt>
      <trkpt lat="43.44794" lon="6.16572">
        <ele>230.80000305176</ele>
        <time>2016-11-23T15:27:47Z</time>
      </trkpt>
      <trkpt lat="43.44799" lon="6.16585">
        <ele>229.60000610352</ele>
        <time>2016-11-23T15:27:50Z</time>
      </trkpt>
      <trkpt lat="43.44803" lon="6.16598">
        <ele>228.39999389648</ele>
        <time>2016-11-23T15:27:53Z</time>
      </trkpt>
      <trkpt lat="43.44814" lon="6.16614">
        <ele>228.80000305176</ele>
        <time>2016-11-23T15:27:59Z</time>
      </trkpt>
      <trkpt lat="43.44815" lon="6.16623">
        <ele>229.60000610352</ele>
        <time>2016-11-23T15:28:02Z</time>
      </trkpt>
      <trkpt lat="43.44817" lon="6.16631">
        <ele>230.80000305176</ele>
        <time>2016-11-23T15:28:05Z</time>
      </trkpt>
      <trkpt lat="43.44818" lon="6.16637">
        <ele>231.19999694824</ele>
        <time>2016-11-23T15:28:08Z</time>
      </trkpt>
      <trkpt lat="43.44819" lon="6.16641">
        <ele>232</ele>
        <time>2016-11-23T15:28:10Z</time>
      </trkpt>
      <trkpt lat="43.44819" lon="6.16644">
        <ele>232.60000610352</ele>
        <time>2016-11-23T15:28:12Z</time>
      </trkpt>
      <trkpt lat="43.44819" lon="6.16645">
        <ele>233</ele>
        <time>2016-11-23T15:28:13Z</time>
      </trkpt>
      <trkpt lat="43.4482" lon="6.16645">
        <ele>233.39999389648</ele>
        <time>2016-11-23T15:28:14Z</time>
      </trkpt>
      <trkpt lat="43.4482" lon="6.16645">
        <ele>233.39999389648</ele>
        <time>2016-11-23T15:28:16Z</time>
      </trkpt>
      <trkpt lat="43.4482" lon="6.16645">
        <ele>234</ele>
        <time>2016-11-23T15:28:27Z</time>
      </trkpt>
      <trkpt lat="43.4482" lon="6.16647">
        <ele>233.80000305176</ele>
        <time>2016-11-23T15:28:40Z</time>
      </trkpt>
      <trkpt lat="43.44821" lon="6.1665">
        <ele>234</ele>
        <time>2016-11-23T15:28:50Z</time>
      </trkpt>
      <trkpt lat="43.4482" lon="6.16656">
        <ele>235.19999694824</ele>
        <time>2016-11-23T15:28:53Z</time>
      </trkpt>
      <trkpt lat="43.4482" lon="6.16658">
        <ele>236.39999389648</ele>
        <time>2016-11-23T15:28:57Z</time>
      </trkpt>
      <trkpt lat="43.4482" lon="6.16662">
        <ele>237</ele>
        <time>2016-11-23T15:29:00Z</time>
      </trkpt>
      <trkpt lat="43.44819" lon="6.16664">
        <ele>237</ele>
        <time>2016-11-23T15:29:10Z</time>
      </trkpt>
      <trkpt lat="43.44819" lon="6.16664">
        <ele>237.19999694824</ele>
        <time>2016-11-23T15:29:14Z</time>
      </trkpt>
      <trkpt lat="43.44819" lon="6.16666">
        <ele>236.80000305176</ele>
        <time>2016-11-23T15:29:19Z</time>
      </trkpt>
      <trkpt lat="43.44819" lon="6.16667">
        <ele>236.60000610352</ele>
        <time>2016-11-23T15:29:20Z</time>
      </trkpt>
      <trkpt lat="43.4482" lon="6.16673">
        <ele>237.39999389648</ele>
        <time>2016-11-23T15:29:27Z</time>
      </trkpt>
      <trkpt lat="43.4482" lon="6.16673">
        <ele>237.60000610352</ele>
        <time>2016-11-23T15:29:30Z</time>
      </trkpt>
      <trkpt lat="43.44817" lon="6.16673">
        <ele>237.39999389648</ele>
        <time>2016-11-23T15:29:35Z</time>
      </trkpt>
      <trkpt lat="43.44818" lon="6.16678">
        <ele>238</ele>
        <time>2016-11-23T15:29:40Z</time>
      </trkpt>
      <trkpt lat="43.4482" lon="6.16684">
        <ele>238.60000610352</ele>
        <time>2016-11-23T15:29:45Z</time>
      </trkpt>
      <trkpt lat="43.44821" lon="6.16687">
        <ele>239</ele>
        <time>2016-11-23T15:29:47Z</time>
      </trkpt>
      <trkpt lat="43.44823" lon="6.1669">
        <ele>239.60000610352</ele>
        <time>2016-11-23T15:29:50Z</time>
      </trkpt>
      <trkpt lat="43.44829" lon="6.16701">
        <ele>240.19999694824</ele>
        <time>2016-11-23T15:30:00Z</time>
      </trkpt>
      <trkpt lat="43.4483" lon="6.16704">
        <ele>240.19999694824</ele>
        <time>2016-11-23T15:30:03Z</time>
      </trkpt>
      <trkpt lat="43.4483" lon="6.16706">
        <ele>239.80000305176</ele>
        <time>2016-11-23T15:30:10Z</time>
      </trkpt>
      <trkpt lat="43.4483" lon="6.16707">
        <ele>240</ele>
        <time>2016-11-23T15:30:15Z</time>
      </trkpt>
      <trkpt lat="43.4483" lon="6.16707">
        <ele>240</ele>
        <time>2016-11-23T15:30:20Z</time>
      </trkpt>
      <trkpt lat="43.4483" lon="6.16707">
        <ele>240.39999389648</ele>
        <time>2016-11-23T15:30:27Z</time>
      </trkpt>
      <trkpt lat="43.4483" lon="6.16707">
        <ele>240</ele>
        <time>2016-11-23T15:30:34Z</time>
      </trkpt>
      <trkpt lat="43.4483" lon="6.16707">
        <ele>239.80000305176</ele>
        <time>2016-11-23T15:30:40Z</time>
      </trkpt>
      <trkpt lat="43.4483" lon="6.16707">
        <ele>240</ele>
        <time>2016-11-23T15:30:43Z</time>
      </trkpt>
      <trkpt lat="43.4483" lon="6.16707">
        <ele>239.80000305176</ele>
        <time>2016-11-23T15:31:02Z</time>
      </trkpt>
      <trkpt lat="43.4483" lon="6.16709">
        <ele>239.80000305176</ele>
        <time>2016-11-23T15:31:16Z</time>
      </trkpt>
      <trkpt lat="43.4483" lon="6.16711">
        <ele>239.80000305176</ele>
        <time>2016-11-23T15:31:17Z</time>
      </trkpt>
      <trkpt lat="43.44831" lon="6.16715">
        <ele>240.39999389648</ele>
        <time>2016-11-23T15:31:19Z</time>
      </trkpt>
      <trkpt lat="43.44832" lon="6.16717">
        <ele>239.39999389648</ele>
        <time>2016-11-23T15:31:20Z</time>
      </trkpt>
      <trkpt lat="43.44833" lon="6.16721">
        <ele>238.60000610352</ele>
        <time>2016-11-23T15:31:21Z</time>
      </trkpt>
      <trkpt lat="43.4484" lon="6.16758">
        <ele>238.80000305176</ele>
        <time>2016-11-23T15:31:28Z</time>
      </trkpt>
      <trkpt lat="43.44841" lon="6.16773">
        <ele>237.19999694824</ele>
        <time>2016-11-23T15:31:30Z</time>
      </trkpt>
      <trkpt lat="43.44842" lon="6.16781">
        <ele>236</ele>
        <time>2016-11-23T15:31:31Z</time>
      </trkpt>
      <trkpt lat="43.44844" lon="6.16799">
        <ele>234</ele>
        <time>2016-11-23T15:31:33Z</time>
      </trkpt>
      <trkpt lat="43.44842" lon="6.16816">
        <ele>232.80000305176</ele>
        <time>2016-11-23T15:31:35Z</time>
      </trkpt>
      <trkpt lat="43.44838" lon="6.16842">
        <ele>231.80000305176</ele>
        <time>2016-11-23T15:31:38Z</time>
      </trkpt>
      <trkpt lat="43.44837" lon="6.16851">
        <ele>231.19999694824</ele>
        <time>2016-11-23T15:31:39Z</time>
      </trkpt>
      <trkpt lat="43.44837" lon="6.1686">
        <ele>230.60000610352</ele>
        <time>2016-11-23T15:31:40Z</time>
      </trkpt>
      <trkpt lat="43.44839" lon="6.16876">
        <ele>229.39999389648</ele>
        <time>2016-11-23T15:31:42Z</time>
      </trkpt>
      <trkpt lat="43.44839" lon="6.16881">
        <ele>228.80000305176</ele>
        <time>2016-11-23T15:31:43Z</time>
      </trkpt>
      <trkpt lat="43.44838" lon="6.16886">
        <ele>228.19999694824</ele>
        <time>2016-11-23T15:31:44Z</time>
      </trkpt>
      <trkpt lat="43.44832" lon="6.16898">
        <ele>227.60000610352</ele>
        <time>2016-11-23T15:31:47Z</time>
      </trkpt>
      <trkpt lat="43.44826" lon="6.16909">
        <ele>228.60000610352</ele>
        <time>2016-11-23T15:31:50Z</time>
      </trkpt>
      <trkpt lat="43.44822" lon="6.16914">
        <ele>229.39999389648</ele>
        <time>2016-11-23T15:31:52Z</time>
      </trkpt>
      <trkpt lat="43.44815" lon="6.16921">
        <ele>230</ele>
        <time>2016-11-23T15:31:55Z</time>
      </trkpt>
      <trkpt lat="43.44807" lon="6.16929">
        <ele>230.80000305176</ele>
        <time>2016-11-23T15:31:59Z</time>
      </trkpt>
      <trkpt lat="43.44804" lon="6.16931">
        <ele>231</ele>
        <time>2016-11-23T15:32:00Z</time>
      </trkpt>
      <trkpt lat="43.44799" lon="6.16933">
        <ele>231.80000305176</ele>
        <time>2016-11-23T15:32:02Z</time>
      </trkpt>
      <trkpt lat="43.44793" lon="6.16936">
        <ele>232.60000610352</ele>
        <time>2016-11-23T15:32:04Z</time>
      </trkpt>
      <trkpt lat="43.44791" lon="6.16938">
        <ele>233</ele>
        <time>2016-11-23T15:32:05Z</time>
      </trkpt>
      <trkpt lat="43.44785" lon="6.16942">
        <ele>233.80000305176</ele>
        <time>2016-11-23T15:32:08Z</time>
      </trkpt>
      <trkpt lat="43.44783" lon="6.16946">
        <ele>234.19999694824</ele>
        <time>2016-11-23T15:32:10Z</time>
      </trkpt>
      <trkpt lat="43.44767" lon="6.16968">
        <ele>234.19999694824</ele>
        <time>2016-11-23T15:32:20Z</time>
      </trkpt>
      <trkpt lat="43.44758" lon="6.16979">
        <ele>234.19999694824</ele>
        <time>2016-11-23T15:32:25Z</time>
      </trkpt>
      <trkpt lat="43.44753" lon="6.16984">
        <ele>234.60000610352</ele>
        <time>2016-11-23T15:32:30Z</time>
      </trkpt>
      <trkpt lat="43.44751" lon="6.16991">
        <ele>234.60000610352</ele>
        <time>2016-11-23T15:32:34Z</time>
      </trkpt>
      <trkpt lat="43.44749" lon="6.17001">
        <ele>233.39999389648</ele>
        <time>2016-11-23T15:32:38Z</time>
      </trkpt>
      <trkpt lat="43.44749" lon="6.17007">
        <ele>233</ele>
        <time>2016-11-23T15:32:40Z</time>
      </trkpt>
      <trkpt lat="43.44745" lon="6.17039">
        <ele>232.39999389648</ele>
        <time>2016-11-23T15:32:48Z</time>
      </trkpt>
      <trkpt lat="43.44745" lon="6.17044">
        <ele>232.19999694824</ele>
        <time>2016-11-23T15:32:49Z</time>
      </trkpt>
      <trkpt lat="43.44744" lon="6.17049">
        <ele>232.19999694824</ele>
        <time>2016-11-23T15:32:50Z</time>
      </trkpt>
      <trkpt lat="43.44743" lon="6.17055">
        <ele>231.80000305176</ele>
        <time>2016-11-23T15:32:51Z</time>
      </trkpt>
      <trkpt lat="43.4474" lon="6.17068">
        <ele>230.39999389648</ele>
        <time>2016-11-23T15:32:54Z</time>
      </trkpt>
      <trkpt lat="43.44728" lon="6.17079">
        <ele>230.60000610352</ele>
        <time>2016-11-23T15:33:00Z</time>
      </trkpt>
      <trkpt lat="43.44722" lon="6.17085">
        <ele>231.39999389648</ele>
        <time>2016-11-23T15:33:03Z</time>
      </trkpt>
      <trkpt lat="43.44717" lon="6.171">
        <ele>232.39999389648</ele>
        <time>2016-11-23T15:33:10Z</time>
      </trkpt>
      <trkpt lat="43.44716" lon="6.17102">
        <ele>232.39999389648</ele>
        <time>2016-11-23T15:33:11Z</time>
      </trkpt>
      <trkpt lat="43.44714" lon="6.1713">
        <ele>231.60000610352</ele>
        <time>2016-11-23T15:33:20Z</time>
      </trkpt>
      <trkpt lat="43.44704" lon="6.17157">
        <ele>233.60000610352</ele>
        <time>2016-11-23T15:33:30Z</time>
      </trkpt>
      <trkpt lat="43.44703" lon="6.17171">
        <ele>233.80000305176</ele>
        <time>2016-11-23T15:33:36Z</time>
      </trkpt>
      <trkpt lat="43.44703" lon="6.17174">
        <ele>233.39999389648</ele>
        <time>2016-11-23T15:33:40Z</time>
      </trkpt>
      <trkpt lat="43.44703" lon="6.17174">
        <ele>233.60000610352</ele>
        <time>2016-11-23T15:33:50Z</time>
      </trkpt>
      <trkpt lat="43.44703" lon="6.17174">
        <ele>233</ele>
        <time>2016-11-23T15:33:55Z</time>
      </trkpt>
      <trkpt lat="43.44702" lon="6.17176">
        <ele>232.60000610352</ele>
        <time>2016-11-23T15:33:59Z</time>
      </trkpt>
      <trkpt lat="43.44701" lon="6.17179">
        <ele>232.39999389648</ele>
        <time>2016-11-23T15:34:00Z</time>
      </trkpt>
      <trkpt lat="43.44701" lon="6.17182">
        <ele>232.39999389648</ele>
        <time>2016-11-23T15:34:01Z</time>
      </trkpt>
      <trkpt lat="43.44695" lon="6.17205">
        <ele>231.19999694824</ele>
        <time>2016-11-23T15:34:06Z</time>
      </trkpt>
      <trkpt lat="43.44695" lon="6.1722">
        <ele>230</ele>
        <time>2016-11-23T15:34:09Z</time>
      </trkpt>
      <trkpt lat="43.44696" lon="6.17225">
        <ele>229.80000305176</ele>
        <time>2016-11-23T15:34:10Z</time>
      </trkpt>
      <trkpt lat="43.44694" lon="6.17238">
        <ele>230.80000305176</ele>
        <time>2016-11-23T15:34:13Z</time>
      </trkpt>
      <trkpt lat="43.44694" lon="6.17242">
        <ele>231.39999389648</ele>
        <time>2016-11-23T15:34:14Z</time>
      </trkpt>
      <trkpt lat="43.44693" lon="6.17252">
        <ele>232.39999389648</ele>
        <time>2016-11-23T15:34:16Z</time>
      </trkpt>
      <trkpt lat="43.44693" lon="6.17269">
        <ele>232.39999389648</ele>
        <time>2016-11-23T15:34:20Z</time>
      </trkpt>
      <trkpt lat="43.44691" lon="6.17284">
        <ele>231.39999389648</ele>
        <time>2016-11-23T15:34:24Z</time>
      </trkpt>
      <trkpt lat="43.4469" lon="6.1731">
        <ele>231.60000610352</ele>
        <time>2016-11-23T15:34:29Z</time>
      </trkpt>
      <trkpt lat="43.4469" lon="6.17316">
        <ele>231.60000610352</ele>
        <time>2016-11-23T15:34:30Z</time>
      </trkpt>
      <trkpt lat="43.44691" lon="6.17329">
        <ele>231</ele>
        <time>2016-11-23T15:34:32Z</time>
      </trkpt>
      <trkpt lat="43.44694" lon="6.17333">
        <ele>229.80000305176</ele>
        <time>2016-11-23T15:34:33Z</time>
      </trkpt>
      <trkpt lat="43.44696" lon="6.17337">
        <ele>228.60000610352</ele>
        <time>2016-11-23T15:34:34Z</time>
      </trkpt>
      <trkpt lat="43.44701" lon="6.17344">
        <ele>227.19999694824</ele>
        <time>2016-11-23T15:34:36Z</time>
      </trkpt>
      <trkpt lat="43.44706" lon="6.17353">
        <ele>226</ele>
        <time>2016-11-23T15:34:38Z</time>
      </trkpt>
      <trkpt lat="43.44713" lon="6.17366">
        <ele>225.19999694824</ele>
        <time>2016-11-23T15:34:40Z</time>
      </trkpt>
      <trkpt lat="43.44717" lon="6.1737">
        <ele>224.39999389648</ele>
        <time>2016-11-23T15:34:41Z</time>
      </trkpt>
      <trkpt lat="43.44726" lon="6.17374">
        <ele>223</ele>
        <time>2016-11-23T15:34:43Z</time>
      </trkpt>
      <trkpt lat="43.44735" lon="6.17375">
        <ele>222</ele>
        <time>2016-11-23T15:34:45Z</time>
      </trkpt>
      <trkpt lat="43.4474" lon="6.17376">
        <ele>221.60000610352</ele>
        <time>2016-11-23T15:34:46Z</time>
      </trkpt>
      <trkpt lat="43.44748" lon="6.17377">
        <ele>220.60000610352</ele>
        <time>2016-11-23T15:34:48Z</time>
      </trkpt>
      <trkpt lat="43.44756" lon="6.17378">
        <ele>219</ele>
        <time>2016-11-23T15:34:50Z</time>
      </trkpt>
      <trkpt lat="43.44764" lon="6.17381">
        <ele>218.39999389648</ele>
        <time>2016-11-23T15:34:52Z</time>
      </trkpt>
      <trkpt lat="43.44773" lon="6.1738">
        <ele>217.80000305176</ele>
        <time>2016-11-23T15:34:54Z</time>
      </trkpt>
      <trkpt lat="43.44777" lon="6.17379">
        <ele>217.19999694824</ele>
        <time>2016-11-23T15:34:55Z</time>
      </trkpt>
      <trkpt lat="43.44782" lon="6.17377">
        <ele>216.60000610352</ele>
        <time>2016-11-23T15:34:56Z</time>
      </trkpt>
      <trkpt lat="43.44786" lon="6.17376">
        <ele>216.19999694824</ele>
        <time>2016-11-23T15:34:57Z</time>
      </trkpt>
      <trkpt lat="43.44794" lon="6.17376">
        <ele>215.39999389648</ele>
        <time>2016-11-23T15:34:59Z</time>
      </trkpt>
      <trkpt lat="43.44797" lon="6.17378">
        <ele>215.19999694824</ele>
        <time>2016-11-23T15:35:00Z</time>
      </trkpt>
      <trkpt lat="43.44802" lon="6.17389">
        <ele>215</ele>
        <time>2016-11-23T15:35:04Z</time>
      </trkpt>
      <trkpt lat="43.44803" lon="6.17395">
        <ele>215.60000610352</ele>
        <time>2016-11-23T15:35:06Z</time>
      </trkpt>
      <trkpt lat="43.44803" lon="6.174">
        <ele>215.80000305176</ele>
        <time>2016-11-23T15:35:08Z</time>
      </trkpt>
      <trkpt lat="43.44802" lon="6.17408">
        <ele>216</ele>
        <time>2016-11-23T15:35:11Z</time>
      </trkpt>
      <trkpt lat="43.44804" lon="6.17412">
        <ele>215.80000305176</ele>
        <time>2016-11-23T15:35:13Z</time>
      </trkpt>
      <trkpt lat="43.44819" lon="6.17406">
        <ele>216.39999389648</ele>
        <time>2016-11-23T15:35:20Z</time>
      </trkpt>
      <trkpt lat="43.44827" lon="6.1741">
        <ele>214.39999389648</ele>
        <time>2016-11-23T15:35:23Z</time>
      </trkpt>
      <trkpt lat="43.4483" lon="6.17416">
        <ele>212.80000305176</ele>
        <time>2016-11-23T15:35:25Z</time>
      </trkpt>
      <trkpt lat="43.4483" lon="6.17422">
        <ele>211.60000610352</ele>
        <time>2016-11-23T15:35:28Z</time>
      </trkpt>
      <trkpt lat="43.4483" lon="6.17422">
        <ele>210.80000305176</ele>
        <time>2016-11-23T15:35:30Z</time>
      </trkpt>
      <trkpt lat="43.4483" lon="6.17422">
        <ele>211.39999389648</ele>
        <time>2016-11-23T15:35:50Z</time>
      </trkpt>
      <trkpt lat="43.4483" lon="6.17422">
        <ele>211.39999389648</ele>
        <time>2016-11-23T15:36:00Z</time>
      </trkpt>
      <trkpt lat="43.44832" lon="6.1743">
        <ele>211.39999389648</ele>
        <time>2016-11-23T15:36:08Z</time>
      </trkpt>
      <trkpt lat="43.44834" lon="6.17437">
        <ele>211.39999389648</ele>
        <time>2016-11-23T15:36:10Z</time>
      </trkpt>
      <trkpt lat="43.44838" lon="6.17446">
        <ele>210.60000610352</ele>
        <time>2016-11-23T15:36:13Z</time>
      </trkpt>
      <trkpt lat="43.44847" lon="6.17455">
        <ele>209.39999389648</ele>
        <time>2016-11-23T15:36:18Z</time>
      </trkpt>
      <trkpt lat="43.44848" lon="6.17455">
        <ele>208.80000305176</ele>
        <time>2016-11-23T15:36:20Z</time>
      </trkpt>
      <trkpt lat="43.44848" lon="6.17456">
        <ele>208.39999389648</ele>
        <time>2016-11-23T15:36:25Z</time>
      </trkpt>
      <trkpt lat="43.44846" lon="6.17456">
        <ele>208.39999389648</ele>
        <time>2016-11-23T15:36:30Z</time>
      </trkpt>
      <trkpt lat="43.44845" lon="6.17455">
        <ele>208.60000610352</ele>
        <time>2016-11-23T15:36:35Z</time>
      </trkpt>
      <trkpt lat="43.44843" lon="6.17453">
        <ele>209.19999694824</ele>
        <time>2016-11-23T15:36:40Z</time>
      </trkpt>
      <trkpt lat="43.4484" lon="6.1745">
        <ele>210.39999389648</ele>
        <time>2016-11-23T15:36:45Z</time>
      </trkpt>
      <trkpt lat="43.44839" lon="6.17445">
        <ele>210.80000305176</ele>
        <time>2016-11-23T15:36:50Z</time>
      </trkpt>
      <trkpt lat="43.44838" lon="6.17443">
        <ele>210.39999389648</ele>
        <time>2016-11-23T15:36:52Z</time>
      </trkpt>
      <trkpt lat="43.44838" lon="6.17439">
        <ele>209.39999389648</ele>
        <time>2016-11-23T15:37:00Z</time>
      </trkpt>
      <trkpt lat="43.44837" lon="6.1744">
        <ele>209.19999694824</ele>
        <time>2016-11-23T15:37:05Z</time>
      </trkpt>
      <trkpt lat="43.44837" lon="6.1744">
        <ele>209.19999694824</ele>
        <time>2016-11-23T15:37:10Z</time>
      </trkpt>
      <trkpt lat="43.44837" lon="6.17439">
        <ele>208.80000305176</ele>
        <time>2016-11-23T15:37:20Z</time>
      </trkpt>
      <trkpt lat="43.44837" lon="6.17437">
        <ele>209.19999694824</ele>
        <time>2016-11-23T15:37:30Z</time>
      </trkpt>
      <trkpt lat="43.44836" lon="6.17434">
        <ele>209</ele>
        <time>2016-11-23T15:37:38Z</time>
      </trkpt>
      <trkpt lat="43.44836" lon="6.17433">
        <ele>208.80000305176</ele>
        <time>2016-11-23T15:37:40Z</time>
      </trkpt>
      <trkpt lat="43.44836" lon="6.17433">
        <ele>209</ele>
        <time>2016-11-23T15:37:50Z</time>
      </trkpt>
      <trkpt lat="43.44836" lon="6.17434">
        <ele>210.19999694824</ele>
        <time>2016-11-23T15:38:00Z</time>
      </trkpt>
      <trkpt lat="43.44836" lon="6.17435">
        <ele>209.80000305176</ele>
        <time>2016-11-23T15:38:17Z</time>
      </trkpt>
      <trkpt lat="43.44836" lon="6.17435">
        <ele>209.80000305176</ele>
        <time>2016-11-23T15:38:20Z</time>
      </trkpt>
      <trkpt lat="43.44836" lon="6.17435">
        <ele>210.19999694824</ele>
        <time>2016-11-23T15:38:30Z</time>
      </trkpt>
      <trkpt lat="43.44836" lon="6.17435">
        <ele>210.19999694824</ele>
        <time>2016-11-23T15:38:40Z</time>
      </trkpt>
      <trkpt lat="43.44836" lon="6.17435">
        <ele>209.39999389648</ele>
        <time>2016-11-23T15:38:50Z</time>
      </trkpt>
      <trkpt lat="43.44836" lon="6.17435">
        <ele>209</ele>
        <time>2016-11-23T15:39:00Z</time>
      </trkpt>
      <trkpt lat="43.44836" lon="6.17434">
        <ele>209.60000610352</ele>
        <time>2016-11-23T15:39:20Z</time>
      </trkpt>
      <trkpt lat="43.44836" lon="6.17434">
        <ele>209.80000305176</ele>
        <time>2016-11-23T15:39:30Z</time>
      </trkpt>
      <trkpt lat="43.44836" lon="6.17435">
        <ele>210</ele>
        <time>2016-11-23T15:39:40Z</time>
      </trkpt>
      <trkpt lat="43.44836" lon="6.17436">
        <ele>209.60000610352</ele>
        <time>2016-11-23T15:39:48Z</time>
      </trkpt>
      <trkpt lat="43.44836" lon="6.17436">
        <ele>209.19999694824</ele>
        <time>2016-11-23T15:40:00Z</time>
      </trkpt>
      <trkpt lat="43.44835" lon="6.17436">
        <ele>209.19999694824</ele>
        <time>2016-11-23T15:40:16Z</time>
      </trkpt>
      <trkpt lat="43.44835" lon="6.17436">
        <ele>209.19999694824</ele>
        <time>2016-11-23T15:40:20Z</time>
      </trkpt>
      <trkpt lat="43.44835" lon="6.17437">
        <ele>209.19999694824</ele>
        <time>2016-11-23T15:40:30Z</time>
      </trkpt>
      <trkpt lat="43.44835" lon="6.17437">
        <ele>209.19999694824</ele>
        <time>2016-11-23T15:40:36Z</time>
      </trkpt>
      <trkpt lat="43.44835" lon="6.17437">
        <ele>209.19999694824</ele>
        <time>2016-11-23T15:40:40Z</time>
      </trkpt>
      <trkpt lat="43.44835" lon="6.17437">
        <ele>209.19999694824</ele>
        <time>2016-11-23T15:40:50Z</time>
      </trkpt>
      <trkpt lat="43.44835" lon="6.17437">
        <ele>209.19999694824</ele>
        <time>2016-11-23T15:41:00Z</time>
      </trkpt>
      <trkpt lat="43.44836" lon="6.17437">
        <ele>209.19999694824</ele>
        <time>2016-11-23T15:41:20Z</time>
      </trkpt>
      <trkpt lat="43.44836" lon="6.17435">
        <ele>209.19999694824</ele>
        <time>2016-11-23T15:41:30Z</time>
      </trkpt>
      <trkpt lat="43.44836" lon="6.17435">
        <ele>209.19999694824</ele>
        <time>2016-11-23T15:41:33Z</time>
      </trkpt>
      <trkpt lat="43.44836" lon="6.17434">
        <ele>209.19999694824</ele>
        <time>2016-11-23T15:41:40Z</time>
      </trkpt>
      <trkpt lat="43.44838" lon="6.17434">
        <ele>209.19999694824</ele>
        <time>2016-11-23T15:41:50Z</time>
      </trkpt>
      <trkpt lat="43.44838" lon="6.17433">
        <ele>209.19999694824</ele>
        <time>2016-11-23T15:42:00Z</time>
      </trkpt>
      <trkpt lat="43.44838" lon="6.17433">
        <ele>209.19999694824</ele>
        <time>2016-11-23T15:42:10Z</time>
      </trkpt>
      <trkpt lat="43.44839" lon="6.17432">
        <ele>209.19999694824</ele>
        <time>2016-11-23T15:42:20Z</time>
      </trkpt>
      <trkpt lat="43.44839" lon="6.17432">
        <ele>209.19999694824</ele>
        <time>2016-11-23T15:42:30Z</time>
      </trkpt>
      <trkpt lat="43.44839" lon="6.17432">
        <ele>209.19999694824</ele>
        <time>2016-11-23T15:42:40Z</time>
      </trkpt>
      <trkpt lat="43.44839" lon="6.17431">
        <ele>209.19999694824</ele>
        <time>2016-11-23T15:42:50Z</time>
      </trkpt>
      <trkpt lat="43.44839" lon="6.17431">
        <ele>209.19999694824</ele>
        <time>2016-11-23T15:43:00Z</time>
      </trkpt>
      <trkpt lat="43.44839" lon="6.17432">
        <ele>209.19999694824</ele>
        <time>2016-11-23T15:43:10Z</time>
      </trkpt>
      <trkpt lat="43.44839" lon="6.17433">
        <ele>209.19999694824</ele>
        <time>2016-11-23T15:43:20Z</time>
      </trkpt>
      <trkpt lat="43.44839" lon="6.17433">
        <ele>209.19999694824</ele>
        <time>2016-11-23T15:43:30Z</time>
      </trkpt>
      <trkpt lat="43.44839" lon="6.17434">
        <ele>209.19999694824</ele>
        <time>2016-11-23T15:43:40Z</time>
      </trkpt>
      <trkpt lat="43.44838" lon="6.17436">
        <ele>209.19999694824</ele>
        <time>2016-11-23T15:43:49Z</time>
      </trkpt>
      <trkpt lat="43.44838" lon="6.17436">
        <ele>209.19999694824</ele>
        <time>2016-11-23T15:43:50Z</time>
      </trkpt>
      <trkpt lat="43.44837" lon="6.17438">
        <ele>209.19999694824</ele>
        <time>2016-11-23T15:44:00Z</time>
      </trkpt>
      <trkpt lat="43.44837" lon="6.17439">
        <ele>209.19999694824</ele>
        <time>2016-11-23T15:44:10Z</time>
      </trkpt>
      <trkpt lat="43.44837" lon="6.17438">
        <ele>209.19999694824</ele>
        <time>2016-11-23T15:44:19Z</time>
      </trkpt>
      <trkpt lat="43.44837" lon="6.17438">
        <ele>209.19999694824</ele>
        <time>2016-11-23T15:44:30Z</time>
      </trkpt>
      <trkpt lat="43.44837" lon="6.17438">
        <ele>209.19999694824</ele>
        <time>2016-11-23T15:44:40Z</time>
      </trkpt>
      <trkpt lat="43.44837" lon="6.17439">
        <ele>209.19999694824</ele>
        <time>2016-11-23T15:44:50Z</time>
      </trkpt>
      <trkpt lat="43.44836" lon="6.1744">
        <ele>209.19999694824</ele>
        <time>2016-11-23T15:44:57Z</time>
      </trkpt>
      <trkpt lat="43.44835" lon="6.17441">
        <ele>209.19999694824</ele>
        <time>2016-11-23T15:45:00Z</time>
      </trkpt>
      <trkpt lat="43.44835" lon="6.17443">
        <ele>209.19999694824</ele>
        <time>2016-11-23T15:45:10Z</time>
      </trkpt>
      <trkpt lat="43.44836" lon="6.17446">
        <ele>209.19999694824</ele>
        <time>2016-11-23T15:45:15Z</time>
      </trkpt>
      <trkpt lat="43.44842" lon="6.17452">
        <ele>209.19999694824</ele>
        <time>2016-11-23T15:45:20Z</time>
      </trkpt>
      <trkpt lat="43.44851" lon="6.17458">
        <ele>209</ele>
        <time>2016-11-23T15:45:24Z</time>
      </trkpt>
      <trkpt lat="43.44862" lon="6.17469">
        <ele>208.39999389648</ele>
        <time>2016-11-23T15:45:28Z</time>
      </trkpt>
      <trkpt lat="43.44865" lon="6.17469">
        <ele>208.39999389648</ele>
        <time>2016-11-23T15:45:29Z</time>
      </trkpt>
      <trkpt lat="43.44871" lon="6.17465">
        <ele>207.80000305176</ele>
        <time>2016-11-23T15:45:31Z</time>
      </trkpt>
      <trkpt lat="43.44889" lon="6.17436">
        <ele>206</ele>
        <time>2016-11-23T15:45:38Z</time>
      </trkpt>
      <trkpt lat="43.44897" lon="6.1743">
        <ele>205</ele>
        <time>2016-11-23T15:45:40Z</time>
      </trkpt>
      <trkpt lat="43.44905" lon="6.17423">
        <ele>204.80000305176</ele>
        <time>2016-11-23T15:45:42Z</time>
      </trkpt>
      <trkpt lat="43.44916" lon="6.17417">
        <ele>204.19999694824</ele>
        <time>2016-11-23T15:45:45Z</time>
      </trkpt>
      <trkpt lat="43.4492" lon="6.17419">
        <ele>204</ele>
        <time>2016-11-23T15:45:46Z</time>
      </trkpt>
      <trkpt lat="43.44932" lon="6.17428">
        <ele>203</ele>
        <time>2016-11-23T15:45:49Z</time>
      </trkpt>
      <trkpt lat="43.44936" lon="6.17429">
        <ele>202.80000305176</ele>
        <time>2016-11-23T15:45:50Z</time>
      </trkpt>
      <trkpt lat="43.44948" lon="6.17435">
        <ele>201.80000305176</ele>
        <time>2016-11-23T15:45:53Z</time>
      </trkpt>
      <trkpt lat="43.44952" lon="6.17437">
        <ele>201.39999389648</ele>
        <time>2016-11-23T15:45:54Z</time>
      </trkpt>
      <trkpt lat="43.44965" lon="6.17443">
        <ele>200.60000610352</ele>
        <time>2016-11-23T15:45:57Z</time>
      </trkpt>
      <trkpt lat="43.44969" lon="6.17445">
        <ele>200.39999389648</ele>
        <time>2016-11-23T15:45:58Z</time>
      </trkpt>
      <trkpt lat="43.44978" lon="6.1745">
        <ele>200.19999694824</ele>
        <time>2016-11-23T15:46:00Z</time>
      </trkpt>
      <trkpt lat="43.44991" lon="6.17456">
        <ele>201.80000305176</ele>
        <time>2016-11-23T15:46:04Z</time>
      </trkpt>
      <trkpt lat="43.44996" lon="6.17458">
        <ele>203</ele>
        <time>2016-11-23T15:46:06Z</time>
      </trkpt>
      <trkpt lat="43.45009" lon="6.17461">
        <ele>203</ele>
        <time>2016-11-23T15:46:10Z</time>
      </trkpt>
      <trkpt lat="43.45014" lon="6.17462">
        <ele>202.19999694824</ele>
        <time>2016-11-23T15:46:11Z</time>
      </trkpt>
      <trkpt lat="43.45028" lon="6.17463">
        <ele>199.19999694824</ele>
        <time>2016-11-23T15:46:14Z</time>
      </trkpt>
      <trkpt lat="43.45041" lon="6.17464">
        <ele>198</ele>
        <time>2016-11-23T15:46:16Z</time>
      </trkpt>
      <trkpt lat="43.45052" lon="6.17472">
        <ele>197.60000610352</ele>
        <time>2016-11-23T15:46:18Z</time>
      </trkpt>
      <trkpt lat="43.45063" lon="6.17483">
        <ele>197.39999389648</ele>
        <time>2016-11-23T15:46:20Z</time>
      </trkpt>
      <trkpt lat="43.45075" lon="6.17493">
        <ele>197.19999694824</ele>
        <time>2016-11-23T15:46:22Z</time>
      </trkpt>
      <trkpt lat="43.45081" lon="6.17498">
        <ele>196.60000610352</ele>
        <time>2016-11-23T15:46:23Z</time>
      </trkpt>
      <trkpt lat="43.45085" lon="6.17505">
        <ele>195.80000305176</ele>
        <time>2016-11-23T15:46:24Z</time>
      </trkpt>
      <trkpt lat="43.45087" lon="6.17511">
        <ele>194.80000305176</ele>
        <time>2016-11-23T15:46:25Z</time>
      </trkpt>
      <trkpt lat="43.45097" lon="6.17536">
        <ele>194.19999694824</ele>
        <time>2016-11-23T15:46:30Z</time>
      </trkpt>
      <trkpt lat="43.45107" lon="6.17561">
        <ele>195</ele>
        <time>2016-11-23T15:46:34Z</time>
      </trkpt>
      <trkpt lat="43.45112" lon="6.17579">
        <ele>194.80000305176</ele>
        <time>2016-11-23T15:46:36Z</time>
      </trkpt>
      <trkpt lat="43.4512" lon="6.17596">
        <ele>193.19999694824</ele>
        <time>2016-11-23T15:46:38Z</time>
      </trkpt>
      <trkpt lat="43.45128" lon="6.17612">
        <ele>192</ele>
        <time>2016-11-23T15:46:40Z</time>
      </trkpt>
      <trkpt lat="43.45147" lon="6.17638">
        <ele>190.80000305176</ele>
        <time>2016-11-23T15:46:44Z</time>
      </trkpt>
      <trkpt lat="43.45164" lon="6.17663">
        <ele>190.19999694824</ele>
        <time>2016-11-23T15:46:48Z</time>
      </trkpt>
      <trkpt lat="43.45167" lon="6.17678">
        <ele>189.60000610352</ele>
        <time>2016-11-23T15:46:50Z</time>
      </trkpt>
      <trkpt lat="43.45171" lon="6.1769">
        <ele>188.39999389648</ele>
        <time>2016-11-23T15:46:52Z</time>
      </trkpt>
      <trkpt lat="43.45177" lon="6.17699">
        <ele>187.39999389648</ele>
        <time>2016-11-23T15:46:57Z</time>
      </trkpt>
      <trkpt lat="43.45177" lon="6.17701">
        <ele>187.39999389648</ele>
        <time>2016-11-23T15:47:00Z</time>
      </trkpt>
      <trkpt lat="43.45177" lon="6.17701">
        <ele>188.39999389648</ele>
        <time>2016-11-23T15:47:05Z</time>
      </trkpt>
      <trkpt lat="43.45177" lon="6.17701">
        <ele>188.80000305176</ele>
        <time>2016-11-23T15:47:10Z</time>
      </trkpt>
      <trkpt lat="43.45177" lon="6.17701">
        <ele>188.80000305176</ele>
        <time>2016-11-23T15:47:15Z</time>
      </trkpt>
      <trkpt lat="43.45175" lon="6.17708">
        <ele>188.39999389648</ele>
        <time>2016-11-23T15:47:18Z</time>
      </trkpt>
      <trkpt lat="43.45172" lon="6.17714">
        <ele>188</ele>
        <time>2016-11-23T15:47:20Z</time>
      </trkpt>
      <trkpt lat="43.45164" lon="6.17726">
        <ele>187.39999389648</ele>
        <time>2016-11-23T15:47:24Z</time>
      </trkpt>
      <trkpt lat="43.4515" lon="6.1775">
        <ele>188.39999389648</ele>
        <time>2016-11-23T15:47:30Z</time>
      </trkpt>
      <trkpt lat="43.45145" lon="6.17758">
        <ele>189.60000610352</ele>
        <time>2016-11-23T15:47:32Z</time>
      </trkpt>
      <trkpt lat="43.45135" lon="6.17785">
        <ele>190.39999389648</ele>
        <time>2016-11-23T15:47:38Z</time>
      </trkpt>
      <trkpt lat="43.45132" lon="6.17794">
        <ele>190.39999389648</ele>
        <time>2016-11-23T15:47:40Z</time>
      </trkpt>
      <trkpt lat="43.45127" lon="6.17807">
        <ele>190.39999389648</ele>
        <time>2016-11-23T15:47:43Z</time>
      </trkpt>
      <trkpt lat="43.45117" lon="6.17832">
        <ele>191.80000305176</ele>
        <time>2016-11-23T15:47:50Z</time>
      </trkpt>
      <trkpt lat="43.45113" lon="6.17846">
        <ele>193</ele>
        <time>2016-11-23T15:47:54Z</time>
      </trkpt>
      <trkpt lat="43.45111" lon="6.17849">
        <ele>193.39999389648</ele>
        <time>2016-11-23T15:47:55Z</time>
      </trkpt>
      <trkpt lat="43.45108" lon="6.17867">
        <ele>193.60000610352</ele>
        <time>2016-11-23T15:48:00Z</time>
      </trkpt>
      <trkpt lat="43.45106" lon="6.17888">
        <ele>192.39999389648</ele>
        <time>2016-11-23T15:48:05Z</time>
      </trkpt>
      <trkpt lat="43.45106" lon="6.17908">
        <ele>192.39999389648</ele>
        <time>2016-11-23T15:48:10Z</time>
      </trkpt>
      <trkpt lat="43.45106" lon="6.17933">
        <ele>193.39999389648</ele>
        <time>2016-11-23T15:48:16Z</time>
      </trkpt>
      <trkpt lat="43.45107" lon="6.17949">
        <ele>194.39999389648</ele>
        <time>2016-11-23T15:48:20Z</time>
      </trkpt>
      <trkpt lat="43.45106" lon="6.17986">
        <ele>197.80000305176</ele>
        <time>2016-11-23T15:48:30Z</time>
      </trkpt>
      <trkpt lat="43.45102" lon="6.18022">
        <ele>197.60000610352</ele>
        <time>2016-11-23T15:48:40Z</time>
      </trkpt>
      <trkpt lat="43.45094" lon="6.18058">
        <ele>197.60000610352</ele>
        <time>2016-11-23T15:48:50Z</time>
      </trkpt>
      <trkpt lat="43.45088" lon="6.18079">
        <ele>198</ele>
        <time>2016-11-23T15:48:56Z</time>
      </trkpt>
      <trkpt lat="43.45085" lon="6.18089">
        <ele>199.19999694824</ele>
        <time>2016-11-23T15:49:00Z</time>
      </trkpt>
      <trkpt lat="43.45082" lon="6.18097">
        <ele>200.19999694824</ele>
        <time>2016-11-23T15:49:03Z</time>
      </trkpt>
      <trkpt lat="43.45078" lon="6.1811">
        <ele>200</ele>
        <time>2016-11-23T15:49:07Z</time>
      </trkpt>
      <trkpt lat="43.45075" lon="6.18119">
        <ele>199.19999694824</ele>
        <time>2016-11-23T15:49:10Z</time>
      </trkpt>
      <trkpt lat="43.45063" lon="6.18148">
        <ele>200.80000305176</ele>
        <time>2016-11-23T15:49:19Z</time>
      </trkpt>
      <trkpt lat="43.45062" lon="6.18151">
        <ele>201</ele>
        <time>2016-11-23T15:49:20Z</time>
      </trkpt>
      <trkpt lat="43.4505" lon="6.18185">
        <ele>201.60000610352</ele>
        <time>2016-11-23T15:49:30Z</time>
      </trkpt>
      <trkpt lat="43.45039" lon="6.18216">
        <ele>202.39999389648</ele>
        <time>2016-11-23T15:49:40Z</time>
      </trkpt>
      <trkpt lat="43.45036" lon="6.18222">
        <ele>203</ele>
        <time>2016-11-23T15:49:42Z</time>
      </trkpt>
      <trkpt lat="43.45033" lon="6.1823">
        <ele>204</ele>
        <time>2016-11-23T15:49:45Z</time>
      </trkpt>
      <trkpt lat="43.45029" lon="6.1824">
        <ele>205.39999389648</ele>
        <time>2016-11-23T15:49:48Z</time>
      </trkpt>
      <trkpt lat="43.45027" lon="6.18246">
        <ele>206.19999694824</ele>
        <time>2016-11-23T15:49:50Z</time>
      </trkpt>
      <trkpt lat="43.45026" lon="6.1825">
        <ele>206.60000610352</ele>
        <time>2016-11-23T15:49:51Z</time>
      </trkpt>
      <trkpt lat="43.45024" lon="6.18259">
        <ele>207.80000305176</ele>
        <time>2016-11-23T15:49:54Z</time>
      </trkpt>
      <trkpt lat="43.45023" lon="6.18281">
        <ele>208.39999389648</ele>
        <time>2016-11-23T15:50:00Z</time>
      </trkpt>
      <trkpt lat="43.45021" lon="6.18293">
        <ele>208.80000305176</ele>
        <time>2016-11-23T15:50:04Z</time>
      </trkpt>
      <trkpt lat="43.4502" lon="6.18311">
        <ele>209.19999694824</ele>
        <time>2016-11-23T15:50:10Z</time>
      </trkpt>
      <trkpt lat="43.45017" lon="6.18324">
        <ele>210</ele>
        <time>2016-11-23T15:50:14Z</time>
      </trkpt>
      <trkpt lat="43.45013" lon="6.18341">
        <ele>211.39999389648</ele>
        <time>2016-11-23T15:50:20Z</time>
      </trkpt>
      <trkpt lat="43.45008" lon="6.18355">
        <ele>212.19999694824</ele>
        <time>2016-11-23T15:50:25Z</time>
      </trkpt>
      <trkpt lat="43.45003" lon="6.18368">
        <ele>213</ele>
        <time>2016-11-23T15:50:30Z</time>
      </trkpt>
      <trkpt lat="43.44995" lon="6.18386">
        <ele>212.60000610352</ele>
        <time>2016-11-23T15:50:37Z</time>
      </trkpt>
      <trkpt lat="43.44991" lon="6.18395">
        <ele>212.60000610352</ele>
        <time>2016-11-23T15:50:40Z</time>
      </trkpt>
      <trkpt lat="43.44989" lon="6.18404">
        <ele>213.39999389648</ele>
        <time>2016-11-23T15:50:43Z</time>
      </trkpt>
      <trkpt lat="43.44986" lon="6.18417">
        <ele>214.39999389648</ele>
        <time>2016-11-23T15:50:47Z</time>
      </trkpt>
      <trkpt lat="43.44985" lon="6.18426">
        <ele>215</ele>
        <time>2016-11-23T15:50:50Z</time>
      </trkpt>
      <trkpt lat="43.44983" lon="6.18438">
        <ele>215.60000610352</ele>
        <time>2016-11-23T15:50:54Z</time>
      </trkpt>
      <trkpt lat="43.4498" lon="6.18451">
        <ele>216.60000610352</ele>
        <time>2016-11-23T15:50:58Z</time>
      </trkpt>
      <trkpt lat="43.44978" lon="6.18467">
        <ele>217.80000305176</ele>
        <time>2016-11-23T15:51:04Z</time>
      </trkpt>
      <trkpt lat="43.44976" lon="6.18478">
        <ele>219</ele>
        <time>2016-11-23T15:51:08Z</time>
      </trkpt>
      <trkpt lat="43.44975" lon="6.18484">
        <ele>219.39999389648</ele>
        <time>2016-11-23T15:51:10Z</time>
      </trkpt>
      <trkpt lat="43.44974" lon="6.18494">
        <ele>219.80000305176</ele>
        <time>2016-11-23T15:51:14Z</time>
      </trkpt>
      <trkpt lat="43.44971" lon="6.18507">
        <ele>220.19999694824</ele>
        <time>2016-11-23T15:51:19Z</time>
      </trkpt>
      <trkpt lat="43.44971" lon="6.18509">
        <ele>220.39999389648</ele>
        <time>2016-11-23T15:51:20Z</time>
      </trkpt>
      <trkpt lat="43.4497" lon="6.18526">
        <ele>221</ele>
        <time>2016-11-23T15:51:26Z</time>
      </trkpt>
      <trkpt lat="43.44969" lon="6.18542">
        <ele>221.19999694824</ele>
        <time>2016-11-23T15:51:31Z</time>
      </trkpt>
      <trkpt lat="43.44966" lon="6.18574">
        <ele>222.39999389648</ele>
        <time>2016-11-23T15:51:41Z</time>
      </trkpt>
      <trkpt lat="43.44968" lon="6.18604">
        <ele>222.80000305176</ele>
        <time>2016-11-23T15:51:49Z</time>
      </trkpt>
      <trkpt lat="43.44972" lon="6.18621">
        <ele>221.39999389648</ele>
        <time>2016-11-23T15:51:52Z</time>
      </trkpt>
      <trkpt lat="43.44973" lon="6.18628">
        <ele>220.19999694824</ele>
        <time>2016-11-23T15:51:53Z</time>
      </trkpt>
      <trkpt lat="43.44975" lon="6.18636">
        <ele>219.19999694824</ele>
        <time>2016-11-23T15:51:54Z</time>
      </trkpt>
      <trkpt lat="43.44977" lon="6.18649">
        <ele>217.39999389648</ele>
        <time>2016-11-23T15:51:56Z</time>
      </trkpt>
      <trkpt lat="43.44979" lon="6.18658">
        <ele>217.19999694824</ele>
        <time>2016-11-23T15:52:00Z</time>
      </trkpt>
      <trkpt lat="43.44979" lon="6.18658">
        <ele>217.80000305176</ele>
        <time>2016-11-23T15:52:10Z</time>
      </trkpt>
      <trkpt lat="43.44979" lon="6.18658">
        <ele>218.19999694824</ele>
        <time>2016-11-23T15:52:20Z</time>
      </trkpt>
      <trkpt lat="43.44979" lon="6.18659">
        <ele>218.60000610352</ele>
        <time>2016-11-23T15:52:29Z</time>
      </trkpt>
      <trkpt lat="43.44979" lon="6.18659">
        <ele>218.60000610352</ele>
        <time>2016-11-23T15:52:40Z</time>
      </trkpt>
      <trkpt lat="43.44979" lon="6.18658">
        <ele>217.39999389648</ele>
        <time>2016-11-23T15:53:00Z</time>
      </trkpt>
      <trkpt lat="43.44979" lon="6.18658">
        <ele>219</ele>
        <time>2016-11-23T15:53:10Z</time>
      </trkpt>
      <trkpt lat="43.44978" lon="6.18658">
        <ele>218.19999694824</ele>
        <time>2016-11-23T15:54:00Z</time>
      </trkpt>
      <trkpt lat="43.44978" lon="6.18658">
        <ele>217.60000610352</ele>
        <time>2016-11-23T15:54:10Z</time>
      </trkpt>
      <trkpt lat="43.44978" lon="6.18658">
        <ele>218</ele>
        <time>2016-11-23T15:54:20Z</time>
      </trkpt>
      <trkpt lat="43.44978" lon="6.18658">
        <ele>218</ele>
        <time>2016-11-23T15:54:30Z</time>
      </trkpt>
      <trkpt lat="43.44978" lon="6.18657">
        <ele>218.39999389648</ele>
        <time>2016-11-23T15:54:40Z</time>
      </trkpt>
      <trkpt lat="43.44972" lon="6.18665">
        <ele>219.60000610352</ele>
        <time>2016-11-23T15:54:48Z</time>
      </trkpt>
      <trkpt lat="43.44967" lon="6.1867">
        <ele>219.39999389648</ele>
        <time>2016-11-23T15:54:50Z</time>
      </trkpt>
      <trkpt lat="43.44942" lon="6.18705">
        <ele>217.19999694824</ele>
        <time>2016-11-23T15:54:57Z</time>
      </trkpt>
      <trkpt lat="43.44938" lon="6.18712">
        <ele>216.80000305176</ele>
        <time>2016-11-23T15:54:58Z</time>
      </trkpt>
      <trkpt lat="43.4493" lon="6.18727">
        <ele>215.60000610352</ele>
        <time>2016-11-23T15:55:00Z</time>
      </trkpt>
      <trkpt lat="43.44922" lon="6.18744">
        <ele>214</ele>
        <time>2016-11-23T15:55:02Z</time>
      </trkpt>
      <trkpt lat="43.44915" lon="6.18762">
        <ele>212.60000610352</ele>
        <time>2016-11-23T15:55:04Z</time>
      </trkpt>
      <trkpt lat="43.44909" lon="6.18781">
        <ele>211.39999389648</ele>
        <time>2016-11-23T15:55:06Z</time>
      </trkpt>
      <trkpt lat="43.4489" lon="6.18822">
        <ele>208.60000610352</ele>
        <time>2016-11-23T15:55:10Z</time>
      </trkpt>
      <trkpt lat="43.44881" lon="6.18843">
        <ele>207</ele>
        <time>2016-11-23T15:55:12Z</time>
      </trkpt>
      <trkpt lat="43.44871" lon="6.18866">
        <ele>205.80000305176</ele>
        <time>2016-11-23T15:55:14Z</time>
      </trkpt>
      <trkpt lat="43.44861" lon="6.18889">
        <ele>204.60000610352</ele>
        <time>2016-11-23T15:55:16Z</time>
      </trkpt>
      <trkpt lat="43.44851" lon="6.18912">
        <ele>203.39999389648</ele>
        <time>2016-11-23T15:55:18Z</time>
      </trkpt>
      <trkpt lat="43.44832" lon="6.18948">
        <ele>200.39999389648</ele>
        <time>2016-11-23T15:55:21Z</time>
      </trkpt>
      <trkpt lat="43.44826" lon="6.1896">
        <ele>199.19999694824</ele>
        <time>2016-11-23T15:55:22Z</time>
      </trkpt>
      <trkpt lat="43.4482" lon="6.18973">
        <ele>198</ele>
        <time>2016-11-23T15:55:23Z</time>
      </trkpt>
      <trkpt lat="43.44814" lon="6.18986">
        <ele>196.60000610352</ele>
        <time>2016-11-23T15:55:24Z</time>
      </trkpt>
      <trkpt lat="43.44805" lon="6.19012">
        <ele>195.19999694824</ele>
        <time>2016-11-23T15:55:26Z</time>
      </trkpt>
      <trkpt lat="43.44801" lon="6.19026">
        <ele>194.19999694824</ele>
        <time>2016-11-23T15:55:27Z</time>
      </trkpt>
      <trkpt lat="43.44799" lon="6.19038">
        <ele>193</ele>
        <time>2016-11-23T15:55:28Z</time>
      </trkpt>
      <trkpt lat="43.44793" lon="6.19061">
        <ele>190.80000305176</ele>
        <time>2016-11-23T15:55:30Z</time>
      </trkpt>
      <trkpt lat="43.44789" lon="6.19069">
        <ele>189.39999389648</ele>
        <time>2016-11-23T15:55:31Z</time>
      </trkpt>
      <trkpt lat="43.44783" lon="6.19074">
        <ele>188</ele>
        <time>2016-11-23T15:55:32Z</time>
      </trkpt>
      <trkpt lat="43.44776" lon="6.19077">
        <ele>186.80000305176</ele>
        <time>2016-11-23T15:55:33Z</time>
      </trkpt>
      <trkpt lat="43.44768" lon="6.19079">
        <ele>186.19999694824</ele>
        <time>2016-11-23T15:55:34Z</time>
      </trkpt>
      <trkpt lat="43.4476" lon="6.1908">
        <ele>185.19999694824</ele>
        <time>2016-11-23T15:55:35Z</time>
      </trkpt>
      <trkpt lat="43.44752" lon="6.19082">
        <ele>184.39999389648</ele>
        <time>2016-11-23T15:55:36Z</time>
      </trkpt>
      <trkpt lat="43.44746" lon="6.19088">
        <ele>183.39999389648</ele>
        <time>2016-11-23T15:55:37Z</time>
      </trkpt>
      <trkpt lat="43.44742" lon="6.19096">
        <ele>182.80000305176</ele>
        <time>2016-11-23T15:55:38Z</time>
      </trkpt>
      <trkpt lat="43.44741" lon="6.19105">
        <ele>182.39999389648</ele>
        <time>2016-11-23T15:55:39Z</time>
      </trkpt>
      <trkpt lat="43.44741" lon="6.19115">
        <ele>182</ele>
        <time>2016-11-23T15:55:40Z</time>
      </trkpt>
      <trkpt lat="43.4474" lon="6.19125">
        <ele>181.80000305176</ele>
        <time>2016-11-23T15:55:41Z</time>
      </trkpt>
      <trkpt lat="43.44734" lon="6.19157">
        <ele>181.19999694824</ele>
        <time>2016-11-23T15:55:44Z</time>
      </trkpt>
      <trkpt lat="43.4473" lon="6.19192">
        <ele>180.19999694824</ele>
        <time>2016-11-23T15:55:47Z</time>
      </trkpt>
      <trkpt lat="43.44722" lon="6.19255">
        <ele>177</ele>
        <time>2016-11-23T15:55:52Z</time>
      </trkpt>
      <trkpt lat="43.44719" lon="6.19281">
        <ele>175.60000610352</ele>
        <time>2016-11-23T15:55:54Z</time>
      </trkpt>
      <trkpt lat="43.44716" lon="6.19323">
        <ele>174.19999694824</ele>
        <time>2016-11-23T15:55:57Z</time>
      </trkpt>
      <trkpt lat="43.44715" lon="6.1935">
        <ele>172.80000305176</ele>
        <time>2016-11-23T15:55:59Z</time>
      </trkpt>
      <trkpt lat="43.44714" lon="6.19364">
        <ele>172.19999694824</ele>
        <time>2016-11-23T15:56:00Z</time>
      </trkpt>
      <trkpt lat="43.44714" lon="6.19379">
        <ele>171.60000610352</ele>
        <time>2016-11-23T15:56:01Z</time>
      </trkpt>
      <trkpt lat="43.44714" lon="6.19407">
        <ele>169.80000305176</ele>
        <time>2016-11-23T15:56:03Z</time>
      </trkpt>
      <trkpt lat="43.44713" lon="6.19432">
        <ele>168.39999389648</ele>
        <time>2016-11-23T15:56:05Z</time>
      </trkpt>
      <trkpt lat="43.44712" lon="6.19454">
        <ele>167</ele>
        <time>2016-11-23T15:56:07Z</time>
      </trkpt>
      <trkpt lat="43.4471" lon="6.19463">
        <ele>166.19999694824</ele>
        <time>2016-11-23T15:56:08Z</time>
      </trkpt>
      <trkpt lat="43.44706" lon="6.19471">
        <ele>165.80000305176</ele>
        <time>2016-11-23T15:56:09Z</time>
      </trkpt>
      <trkpt lat="43.44702" lon="6.19477">
        <ele>165.19999694824</ele>
        <time>2016-11-23T15:56:10Z</time>
      </trkpt>
      <trkpt lat="43.44694" lon="6.19487">
        <ele>164.80000305176</ele>
        <time>2016-11-23T15:56:12Z</time>
      </trkpt>
      <trkpt lat="43.44688" lon="6.19491">
        <ele>164.60000610352</ele>
        <time>2016-11-23T15:56:13Z</time>
      </trkpt>
      <trkpt lat="43.44668" lon="6.19509">
        <ele>164.39999389648</ele>
        <time>2016-11-23T15:56:17Z</time>
      </trkpt>
      <trkpt lat="43.44652" lon="6.19521">
        <ele>163.60000610352</ele>
        <time>2016-11-23T15:56:20Z</time>
      </trkpt>
      <trkpt lat="43.44613" lon="6.19563">
        <ele>164</ele>
        <time>2016-11-23T15:56:29Z</time>
      </trkpt>
      <trkpt lat="43.44609" lon="6.19568">
        <ele>163.80000305176</ele>
        <time>2016-11-23T15:56:30Z</time>
      </trkpt>
      <trkpt lat="43.44588" lon="6.19591">
        <ele>163.60000610352</ele>
        <time>2016-11-23T15:56:35Z</time>
      </trkpt>
      <trkpt lat="43.44567" lon="6.19611">
        <ele>164.60000610352</ele>
        <time>2016-11-23T15:56:40Z</time>
      </trkpt>
      <trkpt lat="43.44553" lon="6.19621">
        <ele>164.80000305176</ele>
        <time>2016-11-23T15:56:43Z</time>
      </trkpt>
      <trkpt lat="43.44543" lon="6.19623">
        <ele>164.39999389648</ele>
        <time>2016-11-23T15:56:45Z</time>
      </trkpt>
      <trkpt lat="43.44527" lon="6.19621">
        <ele>164</ele>
        <time>2016-11-23T15:56:48Z</time>
      </trkpt>
      <trkpt lat="43.44519" lon="6.19616">
        <ele>164</ele>
        <time>2016-11-23T15:56:50Z</time>
      </trkpt>
      <trkpt lat="43.44508" lon="6.19606">
        <ele>164.39999389648</ele>
        <time>2016-11-23T15:56:53Z</time>
      </trkpt>
      <trkpt lat="43.44508" lon="6.19579">
        <ele>164.60000610352</ele>
        <time>2016-11-23T15:56:59Z</time>
      </trkpt>
      <trkpt lat="43.4451" lon="6.19576">
        <ele>164.60000610352</ele>
        <time>2016-11-23T15:57:00Z</time>
      </trkpt>
      <trkpt lat="43.44526" lon="6.19557">
        <ele>165.80000305176</ele>
        <time>2016-11-23T15:57:07Z</time>
      </trkpt>
      <trkpt lat="43.44531" lon="6.19547">
        <ele>166.80000305176</ele>
        <time>2016-11-23T15:57:10Z</time>
      </trkpt>
      <trkpt lat="43.44529" lon="6.19535">
        <ele>168</ele>
        <time>2016-11-23T15:57:13Z</time>
      </trkpt>
      <trkpt lat="43.44523" lon="6.19527">
        <ele>169.19999694824</ele>
        <time>2016-11-23T15:57:16Z</time>
      </trkpt>
      <trkpt lat="43.44518" lon="6.19525">
        <ele>170.19999694824</ele>
        <time>2016-11-23T15:57:18Z</time>
      </trkpt>
      <trkpt lat="43.44512" lon="6.19525">
        <ele>171.39999389648</ele>
        <time>2016-11-23T15:57:20Z</time>
      </trkpt>
      <trkpt lat="43.44503" lon="6.19526">
        <ele>172.60000610352</ele>
        <time>2016-11-23T15:57:23Z</time>
      </trkpt>
      <trkpt lat="43.44485" lon="6.19529">
        <ele>173.19999694824</ele>
        <time>2016-11-23T15:57:30Z</time>
      </trkpt>
      <trkpt lat="43.44478" lon="6.1953">
        <ele>173.60000610352</ele>
        <time>2016-11-23T15:57:33Z</time>
      </trkpt>
      <trkpt lat="43.44461" lon="6.19528">
        <ele>174.60000610352</ele>
        <time>2016-11-23T15:57:40Z</time>
      </trkpt>
      <trkpt lat="43.44443" lon="6.1951">
        <ele>175.60000610352</ele>
        <time>2016-11-23T15:57:50Z</time>
      </trkpt>
      <trkpt lat="43.44439" lon="6.19501">
        <ele>175.80000305176</ele>
        <time>2016-11-23T15:57:53Z</time>
      </trkpt>
      <trkpt lat="43.44434" lon="6.19478">
        <ele>176.60000610352</ele>
        <time>2016-11-23T15:58:00Z</time>
      </trkpt>
      <trkpt lat="43.44428" lon="6.19441">
        <ele>177</ele>
        <time>2016-11-23T15:58:10Z</time>
      </trkpt>
      <trkpt lat="43.44424" lon="6.19414">
        <ele>178</ele>
        <time>2016-11-23T15:58:17Z</time>
      </trkpt>
      <trkpt lat="43.44421" lon="6.19402">
        <ele>178.39999389648</ele>
        <time>2016-11-23T15:58:20Z</time>
      </trkpt>
      <trkpt lat="43.44416" lon="6.19378">
        <ele>179</ele>
        <time>2016-11-23T15:58:26Z</time>
      </trkpt>
      <trkpt lat="43.44409" lon="6.1936">
        <ele>179.60000610352</ele>
        <time>2016-11-23T15:58:32Z</time>
      </trkpt>
      <trkpt lat="43.44405" lon="6.19335">
        <ele>180</ele>
        <time>2016-11-23T15:58:40Z</time>
      </trkpt>
      <trkpt lat="43.44403" lon="6.19324">
        <ele>180.39999389648</ele>
        <time>2016-11-23T15:58:43Z</time>
      </trkpt>
      <trkpt lat="43.44402" lon="6.19313">
        <ele>181</ele>
        <time>2016-11-23T15:58:46Z</time>
      </trkpt>
      <trkpt lat="43.444" lon="6.193">
        <ele>181.60000610352</ele>
        <time>2016-11-23T15:58:50Z</time>
      </trkpt>
      <trkpt lat="43.44405" lon="6.19284">
        <ele>181.19999694824</ele>
        <time>2016-11-23T15:58:55Z</time>
      </trkpt>
      <trkpt lat="43.44412" lon="6.19276">
        <ele>181</ele>
        <time>2016-11-23T15:58:58Z</time>
      </trkpt>
      <trkpt lat="43.44418" lon="6.19272">
        <ele>181.19999694824</ele>
        <time>2016-11-23T15:59:00Z</time>
      </trkpt>
      <trkpt lat="43.44428" lon="6.19266">
        <ele>181.19999694824</ele>
        <time>2016-11-23T15:59:03Z</time>
      </trkpt>
      <trkpt lat="43.44436" lon="6.19261">
        <ele>181.39999389648</ele>
        <time>2016-11-23T15:59:05Z</time>
      </trkpt>
      <trkpt lat="43.44456" lon="6.19249">
        <ele>181.39999389648</ele>
        <time>2016-11-23T15:59:10Z</time>
      </trkpt>
      <trkpt lat="43.44474" lon="6.19229">
        <ele>181.19999694824</ele>
        <time>2016-11-23T15:59:15Z</time>
      </trkpt>
      <trkpt lat="43.44482" lon="6.19219">
        <ele>181</ele>
        <time>2016-11-23T15:59:17Z</time>
      </trkpt>
      <trkpt lat="43.44491" lon="6.19202">
        <ele>180.60000610352</ele>
        <time>2016-11-23T15:59:20Z</time>
      </trkpt>
      <trkpt lat="43.44504" lon="6.19176">
        <ele>180</ele>
        <time>2016-11-23T15:59:24Z</time>
      </trkpt>
      <trkpt lat="43.44526" lon="6.19131">
        <ele>179</ele>
        <time>2016-11-23T15:59:30Z</time>
      </trkpt>
      <trkpt lat="43.4453" lon="6.19124">
        <ele>179</ele>
        <time>2016-11-23T15:59:31Z</time>
      </trkpt>
      <trkpt lat="43.44543" lon="6.19093">
        <ele>178</ele>
        <time>2016-11-23T15:59:35Z</time>
      </trkpt>
      <trkpt lat="43.44547" lon="6.19076">
        <ele>177.60000610352</ele>
        <time>2016-11-23T15:59:37Z</time>
      </trkpt>
      <trkpt lat="43.44546" lon="6.1905">
        <ele>177.39999389648</ele>
        <time>2016-11-23T15:59:40Z</time>
      </trkpt>
      <trkpt lat="43.44545" lon="6.19016">
        <ele>176.60000610352</ele>
        <time>2016-11-23T15:59:44Z</time>
      </trkpt>
      <trkpt lat="43.44542" lon="6.1896">
        <ele>176</ele>
        <time>2016-11-23T15:59:50Z</time>
      </trkpt>
      <trkpt lat="43.44541" lon="6.18941">
        <ele>175.60000610352</ele>
        <time>2016-11-23T15:59:52Z</time>
      </trkpt>
      <trkpt lat="43.44538" lon="6.18875">
        <ele>174.60000610352</ele>
        <time>2016-11-23T15:59:59Z</time>
      </trkpt>
      <trkpt lat="43.44537" lon="6.18866">
        <ele>174.39999389648</ele>
        <time>2016-11-23T16:00:00Z</time>
      </trkpt>
      <trkpt lat="43.44528" lon="6.1882">
        <ele>173.60000610352</ele>
        <time>2016-11-23T16:00:05Z</time>
      </trkpt>
      <trkpt lat="43.44525" lon="6.18812">
        <ele>173.60000610352</ele>
        <time>2016-11-23T16:00:06Z</time>
      </trkpt>
      <trkpt lat="43.4451" lon="6.18786">
        <ele>173.39999389648</ele>
        <time>2016-11-23T16:00:10Z</time>
      </trkpt>
      <trkpt lat="43.44486" lon="6.18754">
        <ele>173.19999694824</ele>
        <time>2016-11-23T16:00:16Z</time>
      </trkpt>
      <trkpt lat="43.4447" lon="6.18732">
        <ele>173.80000305176</ele>
        <time>2016-11-23T16:00:20Z</time>
      </trkpt>
      <trkpt lat="43.44457" lon="6.18718">
        <ele>174</ele>
        <time>2016-11-23T16:00:23Z</time>
      </trkpt>
      <trkpt lat="43.4444" lon="6.18705">
        <ele>174.60000610352</ele>
        <time>2016-11-23T16:00:27Z</time>
      </trkpt>
      <trkpt lat="43.44427" lon="6.18698">
        <ele>175.39999389648</ele>
        <time>2016-11-23T16:00:30Z</time>
      </trkpt>
      <trkpt lat="43.44403" lon="6.18685">
        <ele>175.19999694824</ele>
        <time>2016-11-23T16:00:35Z</time>
      </trkpt>
      <trkpt lat="43.44394" lon="6.18676">
        <ele>175.39999389648</ele>
        <time>2016-11-23T16:00:37Z</time>
      </trkpt>
      <trkpt lat="43.44387" lon="6.18665">
        <ele>175.60000610352</ele>
        <time>2016-11-23T16:00:39Z</time>
      </trkpt>
      <trkpt lat="43.44384" lon="6.18659">
        <ele>175.60000610352</ele>
        <time>2016-11-23T16:00:40Z</time>
      </trkpt>
      <trkpt lat="43.44382" lon="6.18652">
        <ele>175.80000305176</ele>
        <time>2016-11-23T16:00:41Z</time>
      </trkpt>
      <trkpt lat="43.44379" lon="6.1864">
        <ele>176</ele>
        <time>2016-11-23T16:00:43Z</time>
      </trkpt>
      <trkpt lat="43.44379" lon="6.1862">
        <ele>176.80000305176</ele>
        <time>2016-11-23T16:00:46Z</time>
      </trkpt>
      <trkpt lat="43.44379" lon="6.18613">
        <ele>176.80000305176</ele>
        <time>2016-11-23T16:00:47Z</time>
      </trkpt>
      <trkpt lat="43.44379" lon="6.18601">
        <ele>177</ele>
        <time>2016-11-23T16:00:49Z</time>
      </trkpt>
      <trkpt lat="43.44379" lon="6.18596">
        <ele>177</ele>
        <time>2016-11-23T16:00:50Z</time>
      </trkpt>
      <trkpt lat="43.44379" lon="6.18575">
        <ele>177</ele>
        <time>2016-11-23T16:00:54Z</time>
      </trkpt>
      <trkpt lat="43.44379" lon="6.18533">
        <ele>176.39999389648</ele>
        <time>2016-11-23T16:01:00Z</time>
      </trkpt>
      <trkpt lat="43.44377" lon="6.18508">
        <ele>175.19999694824</ele>
        <time>2016-11-23T16:01:03Z</time>
      </trkpt>
      <trkpt lat="43.44375" lon="6.18491">
        <ele>174</ele>
        <time>2016-11-23T16:01:05Z</time>
      </trkpt>
      <trkpt lat="43.44368" lon="6.18456">
        <ele>171.60000610352</ele>
        <time>2016-11-23T16:01:09Z</time>
      </trkpt>
      <trkpt lat="43.44366" lon="6.18447">
        <ele>171</ele>
        <time>2016-11-23T16:01:10Z</time>
      </trkpt>
      <trkpt lat="43.44363" lon="6.18438">
        <ele>170.60000610352</ele>
        <time>2016-11-23T16:01:11Z</time>
      </trkpt>
      <trkpt lat="43.44356" lon="6.1842">
        <ele>169.39999389648</ele>
        <time>2016-11-23T16:01:13Z</time>
      </trkpt>
      <trkpt lat="43.44342" lon="6.18392">
        <ele>168.39999389648</ele>
        <time>2016-11-23T16:01:16Z</time>
      </trkpt>
      <trkpt lat="43.44331" lon="6.18371">
        <ele>167.80000305176</ele>
        <time>2016-11-23T16:01:18Z</time>
      </trkpt>
      <trkpt lat="43.44323" lon="6.18347">
        <ele>167.19999694824</ele>
        <time>2016-11-23T16:01:20Z</time>
      </trkpt>
      <trkpt lat="43.44315" lon="6.18323">
        <ele>166.80000305176</ele>
        <time>2016-11-23T16:01:22Z</time>
      </trkpt>
      <trkpt lat="43.44308" lon="6.18299">
        <ele>166.19999694824</ele>
        <time>2016-11-23T16:01:24Z</time>
      </trkpt>
      <trkpt lat="43.44299" lon="6.18266">
        <ele>165.19999694824</ele>
        <time>2016-11-23T16:01:27Z</time>
      </trkpt>
      <trkpt lat="43.44291" lon="6.18234">
        <ele>164.60000610352</ele>
        <time>2016-11-23T16:01:30Z</time>
      </trkpt>
      <trkpt lat="43.44272" lon="6.18161">
        <ele>165.19999694824</ele>
        <time>2016-11-23T16:01:38Z</time>
      </trkpt>
      <trkpt lat="43.44269" lon="6.18143">
        <ele>165</ele>
        <time>2016-11-23T16:01:40Z</time>
      </trkpt>
      <trkpt lat="43.44263" lon="6.1812">
        <ele>164.60000610352</ele>
        <time>2016-11-23T16:01:43Z</time>
      </trkpt>
      <trkpt lat="43.4426" lon="6.18105">
        <ele>164.60000610352</ele>
        <time>2016-11-23T16:01:45Z</time>
      </trkpt>
      <trkpt lat="43.44255" lon="6.18085">
        <ele>164.60000610352</ele>
        <time>2016-11-23T16:01:48Z</time>
      </trkpt>
      <trkpt lat="43.44251" lon="6.18071">
        <ele>164.80000305176</ele>
        <time>2016-11-23T16:01:50Z</time>
      </trkpt>
      <trkpt lat="43.44246" lon="6.18049">
        <ele>164.80000305176</ele>
        <time>2016-11-23T16:01:53Z</time>
      </trkpt>
      <trkpt lat="43.44232" lon="6.17999">
        <ele>164.19999694824</ele>
        <time>2016-11-23T16:02:00Z</time>
      </trkpt>
      <trkpt lat="43.4423" lon="6.17992">
        <ele>164.19999694824</ele>
        <time>2016-11-23T16:02:01Z</time>
      </trkpt>
      <trkpt lat="43.44211" lon="6.17927">
        <ele>164.80000305176</ele>
        <time>2016-11-23T16:02:10Z</time>
      </trkpt>
      <trkpt lat="43.442" lon="6.17884">
        <ele>165.19999694824</ele>
        <time>2016-11-23T16:02:16Z</time>
      </trkpt>
      <trkpt lat="43.44199" lon="6.17875">
        <ele>165.39999389648</ele>
        <time>2016-11-23T16:02:17Z</time>
      </trkpt>
      <trkpt lat="43.44197" lon="6.17854">
        <ele>165.80000305176</ele>
        <time>2016-11-23T16:02:19Z</time>
      </trkpt>
      <trkpt lat="43.44196" lon="6.17845">
        <ele>165.80000305176</ele>
        <time>2016-11-23T16:02:20Z</time>
      </trkpt>
      <trkpt lat="43.44209" lon="6.17781">
        <ele>166</ele>
        <time>2016-11-23T16:02:28Z</time>
      </trkpt>
      <trkpt lat="43.44213" lon="6.17767">
        <ele>166</ele>
        <time>2016-11-23T16:02:30Z</time>
      </trkpt>
      <trkpt lat="43.44232" lon="6.17701">
        <ele>166.19999694824</ele>
        <time>2016-11-23T16:02:40Z</time>
      </trkpt>
      <trkpt lat="43.44238" lon="6.1764">
        <ele>165.39999389648</ele>
        <time>2016-11-23T16:02:50Z</time>
      </trkpt>
      <trkpt lat="43.44255" lon="6.17583">
        <ele>165.19999694824</ele>
        <time>2016-11-23T16:03:00Z</time>
      </trkpt>
      <trkpt lat="43.44258" lon="6.17562">
        <ele>165.39999389648</ele>
        <time>2016-11-23T16:03:03Z</time>
      </trkpt>
      <trkpt lat="43.44257" lon="6.17541">
        <ele>165.39999389648</ele>
        <time>2016-11-23T16:03:06Z</time>
      </trkpt>
      <trkpt lat="43.4425" lon="6.17513">
        <ele>165</ele>
        <time>2016-11-23T16:03:10Z</time>
      </trkpt>
      <trkpt lat="43.44233" lon="6.17443">
        <ele>165.19999694824</ele>
        <time>2016-11-23T16:03:20Z</time>
      </trkpt>
      <trkpt lat="43.44208" lon="6.17378">
        <ele>165.80000305176</ele>
        <time>2016-11-23T16:03:30Z</time>
      </trkpt>
      <trkpt lat="43.44193" lon="6.17352">
        <ele>165.80000305176</ele>
        <time>2016-11-23T16:03:35Z</time>
      </trkpt>
      <trkpt lat="43.4418" lon="6.17336">
        <ele>166.19999694824</ele>
        <time>2016-11-23T16:03:39Z</time>
      </trkpt>
      <trkpt lat="43.44166" lon="6.1732">
        <ele>166.19999694824</ele>
        <time>2016-11-23T16:03:43Z</time>
      </trkpt>
      <trkpt lat="43.44152" lon="6.17307">
        <ele>166.39999389648</ele>
        <time>2016-11-23T16:03:47Z</time>
      </trkpt>
      <trkpt lat="43.44139" lon="6.173">
        <ele>166.60000610352</ele>
        <time>2016-11-23T16:03:50Z</time>
      </trkpt>
      <trkpt lat="43.44093" lon="6.17273">
        <ele>166.39999389648</ele>
        <time>2016-11-23T16:04:00Z</time>
      </trkpt>
      <trkpt lat="43.44041" lon="6.17245">
        <ele>166.19999694824</ele>
        <time>2016-11-23T16:04:10Z</time>
      </trkpt>
      <trkpt lat="43.43968" lon="6.17209">
        <ele>165.19999694824</ele>
        <time>2016-11-23T16:04:24Z</time>
      </trkpt>
      <trkpt lat="43.43943" lon="6.17194">
        <ele>165.19999694824</ele>
        <time>2016-11-23T16:04:29Z</time>
      </trkpt>
      <trkpt lat="43.43938" lon="6.1719">
        <ele>165.19999694824</ele>
        <time>2016-11-23T16:04:30Z</time>
      </trkpt>
      <trkpt lat="43.43896" lon="6.17152">
        <ele>166</ele>
        <time>2016-11-23T16:04:39Z</time>
      </trkpt>
      <trkpt lat="43.43891" lon="6.17148">
        <ele>166</ele>
        <time>2016-11-23T16:04:40Z</time>
      </trkpt>
      <trkpt lat="43.43847" lon="6.1711">
        <ele>166.39999389648</ele>
        <time>2016-11-23T16:04:50Z</time>
      </trkpt>
      <trkpt lat="43.43823" lon="6.17084">
        <ele>166.80000305176</ele>
        <time>2016-11-23T16:04:56Z</time>
      </trkpt>
      <trkpt lat="43.43814" lon="6.17069">
        <ele>167.39999389648</ele>
        <time>2016-11-23T16:04:59Z</time>
      </trkpt>
      <trkpt lat="43.4378" lon="6.1701">
        <ele>168.39999389648</ele>
        <time>2016-11-23T16:05:10Z</time>
      </trkpt>
      <trkpt lat="43.43773" lon="6.16998">
        <ele>168.19999694824</ele>
        <time>2016-11-23T16:05:13Z</time>
      </trkpt>
      <trkpt lat="43.43758" lon="6.16967">
        <ele>168.39999389648</ele>
        <time>2016-11-23T16:05:20Z</time>
      </trkpt>
      <trkpt lat="43.43711" lon="6.16869">
        <ele>168.39999389648</ele>
        <time>2016-11-23T16:05:40Z</time>
      </trkpt>
      <trkpt lat="43.43707" lon="6.16858">
        <ele>168.39999389648</ele>
        <time>2016-11-23T16:05:42Z</time>
      </trkpt>
      <trkpt lat="43.4369" lon="6.16809">
        <ele>169.19999694824</ele>
        <time>2016-11-23T16:05:50Z</time>
      </trkpt>
      <trkpt lat="43.43682" lon="6.16777">
        <ele>169.60000610352</ele>
        <time>2016-11-23T16:05:55Z</time>
      </trkpt>
      <trkpt lat="43.43673" lon="6.16747">
        <ele>170.39999389648</ele>
        <time>2016-11-23T16:06:00Z</time>
      </trkpt>
      <trkpt lat="43.43658" lon="6.16689">
        <ele>169</ele>
        <time>2016-11-23T16:06:10Z</time>
      </trkpt>
      <trkpt lat="43.43647" lon="6.16645">
        <ele>169.19999694824</ele>
        <time>2016-11-23T16:06:18Z</time>
      </trkpt>
      <trkpt lat="43.43644" lon="6.16634">
        <ele>169.19999694824</ele>
        <time>2016-11-23T16:06:20Z</time>
      </trkpt>
      <trkpt lat="43.43639" lon="6.1659">
        <ele>169.80000305176</ele>
        <time>2016-11-23T16:06:27Z</time>
      </trkpt>
      <trkpt lat="43.43637" lon="6.16572">
        <ele>170</ele>
        <time>2016-11-23T16:06:30Z</time>
      </trkpt>
      <trkpt lat="43.43637" lon="6.16529">
        <ele>170.60000610352</ele>
        <time>2016-11-23T16:06:37Z</time>
      </trkpt>
      <trkpt lat="43.4364" lon="6.16513">
        <ele>171</ele>
        <time>2016-11-23T16:06:40Z</time>
      </trkpt>
      <trkpt lat="43.43643" lon="6.16484">
        <ele>171.80000305176</ele>
        <time>2016-11-23T16:06:46Z</time>
      </trkpt>
      <trkpt lat="43.43645" lon="6.16474">
        <ele>172</ele>
        <time>2016-11-23T16:06:49Z</time>
      </trkpt>
      <trkpt lat="43.43645" lon="6.16471">
        <ele>172.19999694824</ele>
        <time>2016-11-23T16:06:50Z</time>
      </trkpt>
      <trkpt lat="43.43645" lon="6.16469">
        <ele>172.60000610352</ele>
        <time>2016-11-23T16:07:00Z</time>
      </trkpt>
      <trkpt lat="43.43645" lon="6.16469">
        <ele>171.60000610352</ele>
        <time>2016-11-23T16:07:20Z</time>
      </trkpt>
      <trkpt lat="43.43645" lon="6.16469">
        <ele>171.60000610352</ele>
        <time>2016-11-23T16:07:44Z</time>
      </trkpt>
      <trkpt lat="43.43645" lon="6.16464">
        <ele>172</ele>
        <time>2016-11-23T16:07:48Z</time>
      </trkpt>
      <trkpt lat="43.43645" lon="6.16457">
        <ele>172.19999694824</ele>
        <time>2016-11-23T16:07:50Z</time>
      </trkpt>
      <trkpt lat="43.43645" lon="6.16453">
        <ele>172.39999389648</ele>
        <time>2016-11-23T16:07:51Z</time>
      </trkpt>
      <trkpt lat="43.43645" lon="6.16417">
        <ele>170.39999389648</ele>
        <time>2016-11-23T16:07:58Z</time>
      </trkpt>
      <trkpt lat="43.43645" lon="6.16406">
        <ele>170</ele>
        <time>2016-11-23T16:08:00Z</time>
      </trkpt>
      <trkpt lat="43.43645" lon="6.16382">
        <ele>169.19999694824</ele>
        <time>2016-11-23T16:08:04Z</time>
      </trkpt>
      <trkpt lat="43.43646" lon="6.16351">
        <ele>170.60000610352</ele>
        <time>2016-11-23T16:08:09Z</time>
      </trkpt>
      <trkpt lat="43.4365" lon="6.16313">
        <ele>171.60000610352</ele>
        <time>2016-11-23T16:08:15Z</time>
      </trkpt>
      <trkpt lat="43.43653" lon="6.16294">
        <ele>172.60000610352</ele>
        <time>2016-11-23T16:08:18Z</time>
      </trkpt>
      <trkpt lat="43.43656" lon="6.16281">
        <ele>173</ele>
        <time>2016-11-23T16:08:20Z</time>
      </trkpt>
      <trkpt lat="43.43668" lon="6.16215">
        <ele>173.39999389648</ele>
        <time>2016-11-23T16:08:30Z</time>
      </trkpt>
      <trkpt lat="43.43671" lon="6.16188">
        <ele>173.80000305176</ele>
        <time>2016-11-23T16:08:34Z</time>
      </trkpt>
      <trkpt lat="43.43674" lon="6.16147">
        <ele>174</ele>
        <time>2016-11-23T16:08:40Z</time>
      </trkpt>
      <trkpt lat="43.43677" lon="6.1609">
        <ele>174.80000305176</ele>
        <time>2016-11-23T16:08:48Z</time>
      </trkpt>
      <trkpt lat="43.43678" lon="6.16074">
        <ele>175.19999694824</ele>
        <time>2016-11-23T16:08:50Z</time>
      </trkpt>
      <trkpt lat="43.43679" lon="6.16057">
        <ele>175.19999694824</ele>
        <time>2016-11-23T16:08:52Z</time>
      </trkpt>
      <trkpt lat="43.4368" lon="6.15986">
        <ele>174.39999389648</ele>
        <time>2016-11-23T16:09:00Z</time>
      </trkpt>
      <trkpt lat="43.4368" lon="6.15946">
        <ele>174.19999694824</ele>
        <time>2016-11-23T16:09:05Z</time>
      </trkpt>
      <trkpt lat="43.43681" lon="6.15911">
        <ele>174.39999389648</ele>
        <time>2016-11-23T16:09:10Z</time>
      </trkpt>
      <trkpt lat="43.43683" lon="6.15892">
        <ele>174</ele>
        <time>2016-11-23T16:09:13Z</time>
      </trkpt>
      <trkpt lat="43.43688" lon="6.15847">
        <ele>174.39999389648</ele>
        <time>2016-11-23T16:09:20Z</time>
      </trkpt>
      <trkpt lat="43.43689" lon="6.15841">
        <ele>174.60000610352</ele>
        <time>2016-11-23T16:09:21Z</time>
      </trkpt>
      <trkpt lat="43.43709" lon="6.15788">
        <ele>175.19999694824</ele>
        <time>2016-11-23T16:09:30Z</time>
      </trkpt>
      <trkpt lat="43.43732" lon="6.15731">
        <ele>174.80000305176</ele>
        <time>2016-11-23T16:09:40Z</time>
      </trkpt>
      <trkpt lat="43.43757" lon="6.15672">
        <ele>174.39999389648</ele>
        <time>2016-11-23T16:09:50Z</time>
      </trkpt>
      <trkpt lat="43.43778" lon="6.15615">
        <ele>174.39999389648</ele>
        <time>2016-11-23T16:10:00Z</time>
      </trkpt>
      <trkpt lat="43.43789" lon="6.15578">
        <ele>173.80000305176</ele>
        <time>2016-11-23T16:10:07Z</time>
      </trkpt>
      <trkpt lat="43.43793" lon="6.15559">
        <ele>173.60000610352</ele>
        <time>2016-11-23T16:10:10Z</time>
      </trkpt>
      <trkpt lat="43.43797" lon="6.15516">
        <ele>173.39999389648</ele>
        <time>2016-11-23T16:10:17Z</time>
      </trkpt>
      <trkpt lat="43.43794" lon="6.15497">
        <ele>173.19999694824</ele>
        <time>2016-11-23T16:10:20Z</time>
      </trkpt>
      <trkpt lat="43.43793" lon="6.15492">
        <ele>173.19999694824</ele>
        <time>2016-11-23T16:10:21Z</time>
      </trkpt>
      <trkpt lat="43.43776" lon="6.15424">
        <ele>173.19999694824</ele>
        <time>2016-11-23T16:10:33Z</time>
      </trkpt>
      <trkpt lat="43.43766" lon="6.15391">
        <ele>173.80000305176</ele>
        <time>2016-11-23T16:10:39Z</time>
      </trkpt>
      <trkpt lat="43.43747" lon="6.15336">
        <ele>174</ele>
        <time>2016-11-23T16:10:49Z</time>
      </trkpt>
      <trkpt lat="43.43745" lon="6.1533">
        <ele>173.80000305176</ele>
        <time>2016-11-23T16:10:50Z</time>
      </trkpt>
      <trkpt lat="43.43737" lon="6.15314">
        <ele>172.60000610352</ele>
        <time>2016-11-23T16:10:53Z</time>
      </trkpt>
      <trkpt lat="43.43727" lon="6.153">
        <ele>172.19999694824</ele>
        <time>2016-11-23T16:10:56Z</time>
      </trkpt>
      <trkpt lat="43.43718" lon="6.15287">
        <ele>172</ele>
        <time>2016-11-23T16:10:59Z</time>
      </trkpt>
      <trkpt lat="43.43715" lon="6.15283">
        <ele>172</ele>
        <time>2016-11-23T16:11:00Z</time>
      </trkpt>
      <trkpt lat="43.43702" lon="6.15265">
        <ele>172</ele>
        <time>2016-11-23T16:11:04Z</time>
      </trkpt>
      <trkpt lat="43.43683" lon="6.15236">
        <ele>172</ele>
        <time>2016-11-23T16:11:10Z</time>
      </trkpt>
      <trkpt lat="43.43663" lon="6.15204">
        <ele>171.60000610352</ele>
        <time>2016-11-23T16:11:17Z</time>
      </trkpt>
      <trkpt lat="43.43653" lon="6.15192">
        <ele>171.19999694824</ele>
        <time>2016-11-23T16:11:20Z</time>
      </trkpt>
      <trkpt lat="43.43631" lon="6.15166">
        <ele>172.80000305176</ele>
        <time>2016-11-23T16:11:27Z</time>
      </trkpt>
      <trkpt lat="43.43621" lon="6.15154">
        <ele>172.80000305176</ele>
        <time>2016-11-23T16:11:30Z</time>
      </trkpt>
      <trkpt lat="43.43585" lon="6.15116">
        <ele>173</ele>
        <time>2016-11-23T16:11:40Z</time>
      </trkpt>
      <trkpt lat="43.43577" lon="6.15109">
        <ele>173</ele>
        <time>2016-11-23T16:11:42Z</time>
      </trkpt>
      <trkpt lat="43.43545" lon="6.15082">
        <ele>173</ele>
        <time>2016-11-23T16:11:50Z</time>
      </trkpt>
      <trkpt lat="43.43528" lon="6.15069">
        <ele>172.80000305176</ele>
        <time>2016-11-23T16:11:54Z</time>
      </trkpt>
      <trkpt lat="43.43512" lon="6.15059">
        <ele>172.80000305176</ele>
        <time>2016-11-23T16:11:58Z</time>
      </trkpt>
      <trkpt lat="43.43504" lon="6.15053">
        <ele>173</ele>
        <time>2016-11-23T16:12:00Z</time>
      </trkpt>
      <trkpt lat="43.43488" lon="6.15038">
        <ele>173.39999389648</ele>
        <time>2016-11-23T16:12:04Z</time>
      </trkpt>
      <trkpt lat="43.43478" lon="6.1503">
        <ele>173.80000305176</ele>
        <time>2016-11-23T16:12:06Z</time>
      </trkpt>
      <trkpt lat="43.43459" lon="6.15012">
        <ele>174.60000610352</ele>
        <time>2016-11-23T16:12:10Z</time>
      </trkpt>
      <trkpt lat="43.43449" lon="6.15001">
        <ele>174.80000305176</ele>
        <time>2016-11-23T16:12:12Z</time>
      </trkpt>
      <trkpt lat="43.4342" lon="6.14954">
        <ele>174.80000305176</ele>
        <time>2016-11-23T16:12:20Z</time>
      </trkpt>
      <trkpt lat="43.43391" lon="6.14896">
        <ele>174.80000305176</ele>
        <time>2016-11-23T16:12:30Z</time>
      </trkpt>
      <trkpt lat="43.43365" lon="6.14842">
        <ele>174.60000610352</ele>
        <time>2016-11-23T16:12:40Z</time>
      </trkpt>
      <trkpt lat="43.43351" lon="6.14798">
        <ele>174.60000610352</ele>
        <time>2016-11-23T16:12:47Z</time>
      </trkpt>
      <trkpt lat="43.43349" lon="6.14777">
        <ele>174.80000305176</ele>
        <time>2016-11-23T16:12:50Z</time>
      </trkpt>
      <trkpt lat="43.43349" lon="6.14707">
        <ele>175.39999389648</ele>
        <time>2016-11-23T16:13:00Z</time>
      </trkpt>
      <trkpt lat="43.43344" lon="6.14642">
        <ele>175.80000305176</ele>
        <time>2016-11-23T16:13:10Z</time>
      </trkpt>
      <trkpt lat="43.43316" lon="6.14595">
        <ele>175.19999694824</ele>
        <time>2016-11-23T16:13:19Z</time>
      </trkpt>
      <trkpt lat="43.43312" lon="6.1459">
        <ele>175.19999694824</ele>
        <time>2016-11-23T16:13:20Z</time>
      </trkpt>
      <trkpt lat="43.43291" lon="6.14562">
        <ele>175</ele>
        <time>2016-11-23T16:13:27Z</time>
      </trkpt>
      <trkpt lat="43.43282" lon="6.14548">
        <ele>174.80000305176</ele>
        <time>2016-11-23T16:13:30Z</time>
      </trkpt>
      <trkpt lat="43.43251" lon="6.14502">
        <ele>174.19999694824</ele>
        <time>2016-11-23T16:13:40Z</time>
      </trkpt>
      <trkpt lat="43.43242" lon="6.14488">
        <ele>173.80000305176</ele>
        <time>2016-11-23T16:13:43Z</time>
      </trkpt>
      <trkpt lat="43.43221" lon="6.14456">
        <ele>174.19999694824</ele>
        <time>2016-11-23T16:13:50Z</time>
      </trkpt>
      <trkpt lat="43.43209" lon="6.14435">
        <ele>174.19999694824</ele>
        <time>2016-11-23T16:13:54Z</time>
      </trkpt>
      <trkpt lat="43.43204" lon="6.14416">
        <ele>174</ele>
        <time>2016-11-23T16:13:57Z</time>
      </trkpt>
      <trkpt lat="43.43202" lon="6.14397">
        <ele>174</ele>
        <time>2016-11-23T16:14:00Z</time>
      </trkpt>
      <trkpt lat="43.43202" lon="6.14371">
        <ele>174.39999389648</ele>
        <time>2016-11-23T16:14:04Z</time>
      </trkpt>
      <trkpt lat="43.43207" lon="6.14329">
        <ele>174.19999694824</ele>
        <time>2016-11-23T16:14:10Z</time>
      </trkpt>
      <trkpt lat="43.43213" lon="6.14281">
        <ele>174.60000610352</ele>
        <time>2016-11-23T16:14:17Z</time>
      </trkpt>
      <trkpt lat="43.43217" lon="6.14263">
        <ele>174.39999389648</ele>
        <time>2016-11-23T16:14:20Z</time>
      </trkpt>
      <trkpt lat="43.43234" lon="6.14205">
        <ele>174.19999694824</ele>
        <time>2016-11-23T16:14:30Z</time>
      </trkpt>
      <trkpt lat="43.43256" lon="6.14149">
        <ele>174.19999694824</ele>
        <time>2016-11-23T16:14:40Z</time>
      </trkpt>
      <trkpt lat="43.43274" lon="6.14089">
        <ele>174.19999694824</ele>
        <time>2016-11-23T16:14:50Z</time>
      </trkpt>
      <trkpt lat="43.43277" lon="6.14024">
        <ele>174.39999389648</ele>
        <time>2016-11-23T16:15:00Z</time>
      </trkpt>
      <trkpt lat="43.43267" lon="6.13962">
        <ele>174</ele>
        <time>2016-11-23T16:15:10Z</time>
      </trkpt>
      <trkpt lat="43.43256" lon="6.13934">
        <ele>174</ele>
        <time>2016-11-23T16:15:15Z</time>
      </trkpt>
      <trkpt lat="43.43243" lon="6.13911">
        <ele>174.19999694824</ele>
        <time>2016-11-23T16:15:20Z</time>
      </trkpt>
      <trkpt lat="43.43215" lon="6.13862">
        <ele>174.60000610352</ele>
        <time>2016-11-23T16:15:30Z</time>
      </trkpt>
      <trkpt lat="43.43185" lon="6.13806">
        <ele>174.60000610352</ele>
        <time>2016-11-23T16:15:40Z</time>
      </trkpt>
      <trkpt lat="43.43178" lon="6.13795">
        <ele>174.80000305176</ele>
        <time>2016-11-23T16:15:42Z</time>
      </trkpt>
      <trkpt lat="43.43155" lon="6.13753">
        <ele>175</ele>
        <time>2016-11-23T16:15:50Z</time>
      </trkpt>
      <trkpt lat="43.43144" lon="6.13733">
        <ele>175.39999389648</ele>
        <time>2016-11-23T16:15:54Z</time>
      </trkpt>
      <trkpt lat="43.43128" lon="6.13703">
        <ele>175.60000610352</ele>
        <time>2016-11-23T16:16:00Z</time>
      </trkpt>
      <trkpt lat="43.43123" lon="6.13693">
        <ele>175.80000305176</ele>
        <time>2016-11-23T16:16:02Z</time>
      </trkpt>
      <trkpt lat="43.43105" lon="6.13651">
        <ele>176.39999389648</ele>
        <time>2016-11-23T16:16:10Z</time>
      </trkpt>
      <trkpt lat="43.43096" lon="6.13629">
        <ele>177</ele>
        <time>2016-11-23T16:16:14Z</time>
      </trkpt>
      <trkpt lat="43.43085" lon="6.13595">
        <ele>177.60000610352</ele>
        <time>2016-11-23T16:16:20Z</time>
      </trkpt>
      <trkpt lat="43.43074" lon="6.1353">
        <ele>176.80000305176</ele>
        <time>2016-11-23T16:16:30Z</time>
      </trkpt>
      <trkpt lat="43.43077" lon="6.13503">
        <ele>176.80000305176</ele>
        <time>2016-11-23T16:16:34Z</time>
      </trkpt>
      <trkpt lat="43.43089" lon="6.13465">
        <ele>176</ele>
        <time>2016-11-23T16:16:40Z</time>
      </trkpt>
      <trkpt lat="43.43095" lon="6.13448">
        <ele>175.80000305176</ele>
        <time>2016-11-23T16:16:43Z</time>
      </trkpt>
      <trkpt lat="43.43116" lon="6.13389">
        <ele>176.80000305176</ele>
        <time>2016-11-23T16:16:54Z</time>
      </trkpt>
      <trkpt lat="43.43123" lon="6.13352">
        <ele>177.39999389648</ele>
        <time>2016-11-23T16:17:00Z</time>
      </trkpt>
      <trkpt lat="43.4313" lon="6.13289">
        <ele>176.80000305176</ele>
        <time>2016-11-23T16:17:10Z</time>
      </trkpt>
      <trkpt lat="43.43124" lon="6.13227">
        <ele>176.80000305176</ele>
        <time>2016-11-23T16:17:20Z</time>
      </trkpt>
      <trkpt lat="43.43114" lon="6.13182">
        <ele>176.80000305176</ele>
        <time>2016-11-23T16:17:26Z</time>
      </trkpt>
      <trkpt lat="43.43107" lon="6.13157">
        <ele>177</ele>
        <time>2016-11-23T16:17:29Z</time>
      </trkpt>
      <trkpt lat="43.43105" lon="6.13149">
        <ele>177</ele>
        <time>2016-11-23T16:17:30Z</time>
      </trkpt>
      <trkpt lat="43.43094" lon="6.13105">
        <ele>177</ele>
        <time>2016-11-23T16:17:35Z</time>
      </trkpt>
      <trkpt lat="43.43083" lon="6.13065">
        <ele>176.39999389648</ele>
        <time>2016-11-23T16:17:40Z</time>
      </trkpt>
      <trkpt lat="43.43077" lon="6.13043">
        <ele>176</ele>
        <time>2016-11-23T16:17:43Z</time>
      </trkpt>
      <trkpt lat="43.43072" lon="6.13023">
        <ele>175.80000305176</ele>
        <time>2016-11-23T16:17:46Z</time>
      </trkpt>
      <trkpt lat="43.43066" lon="6.12997">
        <ele>175.19999694824</ele>
        <time>2016-11-23T16:17:50Z</time>
      </trkpt>
      <trkpt lat="43.43052" lon="6.12938">
        <ele>175.60000610352</ele>
        <time>2016-11-23T16:18:00Z</time>
      </trkpt>
      <trkpt lat="43.43043" lon="6.12905">
        <ele>175.80000305176</ele>
        <time>2016-11-23T16:18:06Z</time>
      </trkpt>
      <trkpt lat="43.43037" lon="6.12882">
        <ele>175.80000305176</ele>
        <time>2016-11-23T16:18:10Z</time>
      </trkpt>
      <trkpt lat="43.43026" lon="6.12836">
        <ele>177</ele>
        <time>2016-11-23T16:18:18Z</time>
      </trkpt>
      <trkpt lat="43.43023" lon="6.12824">
        <ele>177</ele>
        <time>2016-11-23T16:18:20Z</time>
      </trkpt>
      <trkpt lat="43.43021" lon="6.12812">
        <ele>176.80000305176</ele>
        <time>2016-11-23T16:18:22Z</time>
      </trkpt>
      <trkpt lat="43.43019" lon="6.12761">
        <ele>176.39999389648</ele>
        <time>2016-11-23T16:18:30Z</time>
      </trkpt>
      <trkpt lat="43.4302" lon="6.1271">
        <ele>175.80000305176</ele>
        <time>2016-11-23T16:18:38Z</time>
      </trkpt>
      <trkpt lat="43.43021" lon="6.12698">
        <ele>175.80000305176</ele>
        <time>2016-11-23T16:18:40Z</time>
      </trkpt>
      <trkpt lat="43.43023" lon="6.12641">
        <ele>176</ele>
        <time>2016-11-23T16:18:50Z</time>
      </trkpt>
      <trkpt lat="43.43022" lon="6.12577">
        <ele>176</ele>
        <time>2016-11-23T16:19:00Z</time>
      </trkpt>
      <trkpt lat="43.43013" lon="6.12514">
        <ele>177</ele>
        <time>2016-11-23T16:19:11Z</time>
      </trkpt>
      <trkpt lat="43.43007" lon="6.12476">
        <ele>177.39999389648</ele>
        <time>2016-11-23T16:19:18Z</time>
      </trkpt>
      <trkpt lat="43.43005" lon="6.12465">
        <ele>177.60000610352</ele>
        <time>2016-11-23T16:19:20Z</time>
      </trkpt>
      <trkpt lat="43.43" lon="6.12449">
        <ele>178</ele>
        <time>2016-11-23T16:19:23Z</time>
      </trkpt>
      <trkpt lat="43.42993" lon="6.12425">
        <ele>178.60000610352</ele>
        <time>2016-11-23T16:19:28Z</time>
      </trkpt>
      <trkpt lat="43.4299" lon="6.12411">
        <ele>179</ele>
        <time>2016-11-23T16:19:31Z</time>
      </trkpt>
      <trkpt lat="43.42978" lon="6.12374">
        <ele>180.19999694824</ele>
        <time>2016-11-23T16:19:40Z</time>
      </trkpt>
      <trkpt lat="43.4297" lon="6.12332">
        <ele>180</ele>
        <time>2016-11-23T16:19:50Z</time>
      </trkpt>
      <trkpt lat="43.42939" lon="6.12318">
        <ele>180.19999694824</ele>
        <time>2016-11-23T16:19:59Z</time>
      </trkpt>
      <trkpt lat="43.42934" lon="6.12319">
        <ele>180.39999389648</ele>
        <time>2016-11-23T16:20:00Z</time>
      </trkpt>
      <trkpt lat="43.42901" lon="6.12324">
        <ele>179.60000610352</ele>
        <time>2016-11-23T16:20:07Z</time>
      </trkpt>
      <trkpt lat="43.42887" lon="6.1233">
        <ele>179.39999389648</ele>
        <time>2016-11-23T16:20:10Z</time>
      </trkpt>
      <trkpt lat="43.42879" lon="6.12337">
        <ele>179.39999389648</ele>
        <time>2016-11-23T16:20:12Z</time>
      </trkpt>
      <trkpt lat="43.42867" lon="6.12353">
        <ele>179.19999694824</ele>
        <time>2016-11-23T16:20:15Z</time>
      </trkpt>
      <trkpt lat="43.42848" lon="6.12383">
        <ele>179.19999694824</ele>
        <time>2016-11-23T16:20:20Z</time>
      </trkpt>
      <trkpt lat="43.42839" lon="6.12394">
        <ele>179</ele>
        <time>2016-11-23T16:20:22Z</time>
      </trkpt>
      <trkpt lat="43.42813" lon="6.12432">
        <ele>178.60000610352</ele>
        <time>2016-11-23T16:20:28Z</time>
      </trkpt>
      <trkpt lat="43.42804" lon="6.12443">
        <ele>178.39999389648</ele>
        <time>2016-11-23T16:20:30Z</time>
      </trkpt>
      <trkpt lat="43.4278" lon="6.12463">
        <ele>177.80000305176</ele>
        <time>2016-11-23T16:20:35Z</time>
      </trkpt>
      <trkpt lat="43.42759" lon="6.12471">
        <ele>177.19999694824</ele>
        <time>2016-11-23T16:20:40Z</time>
      </trkpt>
      <trkpt lat="43.42746" lon="6.12474">
        <ele>176.80000305176</ele>
        <time>2016-11-23T16:20:43Z</time>
      </trkpt>
      <trkpt lat="43.42733" lon="6.12476">
        <ele>176.80000305176</ele>
        <time>2016-11-23T16:20:46Z</time>
      </trkpt>
      <trkpt lat="43.42717" lon="6.12476">
        <ele>176.80000305176</ele>
        <time>2016-11-23T16:20:50Z</time>
      </trkpt>
      <trkpt lat="43.42693" lon="6.12477">
        <ele>177.60000610352</ele>
        <time>2016-11-23T16:20:56Z</time>
      </trkpt>
      <trkpt lat="43.42685" lon="6.12477">
        <ele>178</ele>
        <time>2016-11-23T16:20:58Z</time>
      </trkpt>
      <trkpt lat="43.42677" lon="6.12476">
        <ele>178.19999694824</ele>
        <time>2016-11-23T16:21:00Z</time>
      </trkpt>
      <trkpt lat="43.42655" lon="6.12471">
        <ele>178.80000305176</ele>
        <time>2016-11-23T16:21:05Z</time>
      </trkpt>
      <trkpt lat="43.42651" lon="6.1247">
        <ele>179</ele>
        <time>2016-11-23T16:21:06Z</time>
      </trkpt>
      <trkpt lat="43.4264" lon="6.12462">
        <ele>179</ele>
        <time>2016-11-23T16:21:09Z</time>
      </trkpt>
      <trkpt lat="43.42636" lon="6.12459">
        <ele>179.19999694824</ele>
        <time>2016-11-23T16:21:10Z</time>
      </trkpt>
      <trkpt lat="43.42626" lon="6.12447">
        <ele>179.39999389648</ele>
        <time>2016-11-23T16:21:13Z</time>
      </trkpt>
      <trkpt lat="43.42614" lon="6.12431">
        <ele>179.80000305176</ele>
        <time>2016-11-23T16:21:17Z</time>
      </trkpt>
      <trkpt lat="43.42606" lon="6.12417">
        <ele>180</ele>
        <time>2016-11-23T16:21:20Z</time>
      </trkpt>
      <trkpt lat="43.42574" lon="6.1237">
        <ele>179.60000610352</ele>
        <time>2016-11-23T16:21:30Z</time>
      </trkpt>
      <trkpt lat="43.42548" lon="6.12311">
        <ele>179.19999694824</ele>
        <time>2016-11-23T16:21:40Z</time>
      </trkpt>
      <trkpt lat="43.42524" lon="6.12251">
        <ele>178.19999694824</ele>
        <time>2016-11-23T16:21:50Z</time>
      </trkpt>
      <trkpt lat="43.42511" lon="6.12223">
        <ele>178</ele>
        <time>2016-11-23T16:21:55Z</time>
      </trkpt>
      <trkpt lat="43.42499" lon="6.12193">
        <ele>178.39999389648</ele>
        <time>2016-11-23T16:22:00Z</time>
      </trkpt>
      <trkpt lat="43.42476" lon="6.1215">
        <ele>178.19999694824</ele>
        <time>2016-11-23T16:22:08Z</time>
      </trkpt>
      <trkpt lat="43.42469" lon="6.12142">
        <ele>178.19999694824</ele>
        <time>2016-11-23T16:22:10Z</time>
      </trkpt>
      <trkpt lat="43.42433" lon="6.12099">
        <ele>179</ele>
        <time>2016-11-23T16:22:20Z</time>
      </trkpt>
      <trkpt lat="43.42406" lon="6.12047">
        <ele>179.39999389648</ele>
        <time>2016-11-23T16:22:30Z</time>
      </trkpt>
      <trkpt lat="43.42388" lon="6.11989">
        <ele>179.39999389648</ele>
        <time>2016-11-23T16:22:40Z</time>
      </trkpt>
      <trkpt lat="43.42374" lon="6.11929">
        <ele>179.80000305176</ele>
        <time>2016-11-23T16:22:50Z</time>
      </trkpt>
      <trkpt lat="43.42367" lon="6.11899">
        <ele>180</ele>
        <time>2016-11-23T16:22:55Z</time>
      </trkpt>
      <trkpt lat="43.42359" lon="6.1187">
        <ele>180.19999694824</ele>
        <time>2016-11-23T16:23:00Z</time>
      </trkpt>
      <trkpt lat="43.4235" lon="6.11838">
        <ele>181</ele>
        <time>2016-11-23T16:23:06Z</time>
      </trkpt>
      <trkpt lat="43.42341" lon="6.11816">
        <ele>181.60000610352</ele>
        <time>2016-11-23T16:23:10Z</time>
      </trkpt>
      <trkpt lat="43.42333" lon="6.118">
        <ele>181.60000610352</ele>
        <time>2016-11-23T16:23:13Z</time>
      </trkpt>
      <trkpt lat="43.42315" lon="6.11774">
        <ele>181.39999389648</ele>
        <time>2016-11-23T16:23:18Z</time>
      </trkpt>
      <trkpt lat="43.42307" lon="6.11764">
        <ele>181.19999694824</ele>
        <time>2016-11-23T16:23:20Z</time>
      </trkpt>
      <trkpt lat="43.42291" lon="6.11745">
        <ele>181</ele>
        <time>2016-11-23T16:23:24Z</time>
      </trkpt>
      <trkpt lat="43.4227" lon="6.11717">
        <ele>180.60000610352</ele>
        <time>2016-11-23T16:23:30Z</time>
      </trkpt>
      <trkpt lat="43.42239" lon="6.11678">
        <ele>180.19999694824</ele>
        <time>2016-11-23T16:23:40Z</time>
      </trkpt>
      <trkpt lat="43.42224" lon="6.11655">
        <ele>180.39999389648</ele>
        <time>2016-11-23T16:23:45Z</time>
      </trkpt>
      <trkpt lat="43.42209" lon="6.11632">
        <ele>180.39999389648</ele>
        <time>2016-11-23T16:23:50Z</time>
      </trkpt>
      <trkpt lat="43.42203" lon="6.11621">
        <ele>180.39999389648</ele>
        <time>2016-11-23T16:23:53Z</time>
      </trkpt>
      <trkpt lat="43.42194" lon="6.11604">
        <ele>180.39999389648</ele>
        <time>2016-11-23T16:24:00Z</time>
      </trkpt>
      <trkpt lat="43.42189" lon="6.11588">
        <ele>181</ele>
        <time>2016-11-23T16:24:10Z</time>
      </trkpt>
      <trkpt lat="43.42189" lon="6.11588">
        <ele>181</ele>
        <time>2016-11-23T16:24:30Z</time>
      </trkpt>
      <trkpt lat="43.42189" lon="6.11588">
        <ele>180.80000305176</ele>
        <time>2016-11-23T16:24:40Z</time>
      </trkpt>
      <trkpt lat="43.42185" lon="6.11581">
        <ele>181</ele>
        <time>2016-11-23T16:24:50Z</time>
      </trkpt>
      <trkpt lat="43.42181" lon="6.11574">
        <ele>181</ele>
        <time>2016-11-23T16:24:52Z</time>
      </trkpt>
      <trkpt lat="43.42162" lon="6.11545">
        <ele>181.19999694824</ele>
        <time>2016-11-23T16:24:58Z</time>
      </trkpt>
      <trkpt lat="43.42155" lon="6.11534">
        <ele>181.19999694824</ele>
        <time>2016-11-23T16:25:00Z</time>
      </trkpt>
      <trkpt lat="43.42146" lon="6.11517">
        <ele>181.19999694824</ele>
        <time>2016-11-23T16:25:03Z</time>
      </trkpt>
      <trkpt lat="43.42124" lon="6.11482">
        <ele>181.39999389648</ele>
        <time>2016-11-23T16:25:10Z</time>
      </trkpt>
      <trkpt lat="43.42091" lon="6.11428">
        <ele>180.60000610352</ele>
        <time>2016-11-23T16:25:20Z</time>
      </trkpt>
      <trkpt lat="43.42084" lon="6.11409">
        <ele>180.60000610352</ele>
        <time>2016-11-23T16:25:23Z</time>
      </trkpt>
      <trkpt lat="43.42062" lon="6.11369">
        <ele>180.60000610352</ele>
        <time>2016-11-23T16:25:30Z</time>
      </trkpt>
      <trkpt lat="43.42037" lon="6.11325">
        <ele>180.60000610352</ele>
        <time>2016-11-23T16:25:38Z</time>
      </trkpt>
      <trkpt lat="43.42031" lon="6.11314">
        <ele>180.60000610352</ele>
        <time>2016-11-23T16:25:40Z</time>
      </trkpt>
      <trkpt lat="43.41998" lon="6.11267">
        <ele>180.19999694824</ele>
        <time>2016-11-23T16:25:50Z</time>
      </trkpt>
      <trkpt lat="43.41994" lon="6.11262">
        <ele>180</ele>
        <time>2016-11-23T16:25:51Z</time>
      </trkpt>
      <trkpt lat="43.41964" lon="6.11221">
        <ele>179.39999389648</ele>
        <time>2016-11-23T16:26:00Z</time>
      </trkpt>
      <trkpt lat="43.41935" lon="6.11169">
        <ele>179.80000305176</ele>
        <time>2016-11-23T16:26:10Z</time>
      </trkpt>
      <trkpt lat="43.41918" lon="6.11116">
        <ele>180.19999694824</ele>
        <time>2016-11-23T16:26:19Z</time>
      </trkpt>
      <trkpt lat="43.41917" lon="6.1111">
        <ele>180</ele>
        <time>2016-11-23T16:26:20Z</time>
      </trkpt>
      <trkpt lat="43.4192" lon="6.11071">
        <ele>179.80000305176</ele>
        <time>2016-11-23T16:26:26Z</time>
      </trkpt>
      <trkpt lat="43.41923" lon="6.11046">
        <ele>179.80000305176</ele>
        <time>2016-11-23T16:26:30Z</time>
      </trkpt>
      <trkpt lat="43.41927" lon="6.11004">
        <ele>180.39999389648</ele>
        <time>2016-11-23T16:26:37Z</time>
      </trkpt>
      <trkpt lat="43.41927" lon="6.10988">
        <ele>180.80000305176</ele>
        <time>2016-11-23T16:26:40Z</time>
      </trkpt>
      <trkpt lat="43.41927" lon="6.10982">
        <ele>181</ele>
        <time>2016-11-23T16:26:41Z</time>
      </trkpt>
      <trkpt lat="43.41916" lon="6.10934">
        <ele>181.80000305176</ele>
        <time>2016-11-23T16:26:50Z</time>
      </trkpt>
      <trkpt lat="43.41908" lon="6.10905">
        <ele>182.19999694824</ele>
        <time>2016-11-23T16:26:55Z</time>
      </trkpt>
      <trkpt lat="43.41904" lon="6.10874">
        <ele>182.39999389648</ele>
        <time>2016-11-23T16:27:00Z</time>
      </trkpt>
      <trkpt lat="43.41906" lon="6.10828">
        <ele>181.80000305176</ele>
        <time>2016-11-23T16:27:07Z</time>
      </trkpt>
      <trkpt lat="43.41909" lon="6.10811">
        <ele>181.60000610352</ele>
        <time>2016-11-23T16:27:10Z</time>
      </trkpt>
      <trkpt lat="43.41913" lon="6.10766">
        <ele>181.60000610352</ele>
        <time>2016-11-23T16:27:17Z</time>
      </trkpt>
      <trkpt lat="43.41914" lon="6.1076">
        <ele>181.60000610352</ele>
        <time>2016-11-23T16:27:18Z</time>
      </trkpt>
      <trkpt lat="43.41917" lon="6.10747">
        <ele>182</ele>
        <time>2016-11-23T16:27:20Z</time>
      </trkpt>
      <trkpt lat="43.41933" lon="6.10696">
        <ele>182.39999389648</ele>
        <time>2016-11-23T16:27:29Z</time>
      </trkpt>
      <trkpt lat="43.41936" lon="6.1069">
        <ele>182.39999389648</ele>
        <time>2016-11-23T16:27:30Z</time>
      </trkpt>
      <trkpt lat="43.41957" lon="6.10627">
        <ele>182.39999389648</ele>
        <time>2016-11-23T16:27:40Z</time>
      </trkpt>
      <trkpt lat="43.41978" lon="6.10566">
        <ele>182.39999389648</ele>
        <time>2016-11-23T16:27:50Z</time>
      </trkpt>
      <trkpt lat="43.41985" lon="6.10529">
        <ele>183</ele>
        <time>2016-11-23T16:27:56Z</time>
      </trkpt>
      <trkpt lat="43.41989" lon="6.10501">
        <ele>183</ele>
        <time>2016-11-23T16:28:00Z</time>
      </trkpt>
      <trkpt lat="43.4199" lon="6.10471">
        <ele>183.19999694824</ele>
        <time>2016-11-23T16:28:04Z</time>
      </trkpt>
      <trkpt lat="43.41993" lon="6.10427">
        <ele>183.60000610352</ele>
        <time>2016-11-23T16:28:10Z</time>
      </trkpt>
      <trkpt lat="43.41995" lon="6.10408">
        <ele>184.19999694824</ele>
        <time>2016-11-23T16:28:13Z</time>
      </trkpt>
      <trkpt lat="43.42001" lon="6.10365">
        <ele>185.19999694824</ele>
        <time>2016-11-23T16:28:20Z</time>
      </trkpt>
      <trkpt lat="43.42002" lon="6.1036">
        <ele>185.19999694824</ele>
        <time>2016-11-23T16:28:21Z</time>
      </trkpt>
      <trkpt lat="43.4201" lon="6.10305">
        <ele>185.60000610352</ele>
        <time>2016-11-23T16:28:30Z</time>
      </trkpt>
      <trkpt lat="43.42017" lon="6.10253">
        <ele>186.39999389648</ele>
        <time>2016-11-23T16:28:39Z</time>
      </trkpt>
      <trkpt lat="43.42018" lon="6.10247">
        <ele>186.39999389648</ele>
        <time>2016-11-23T16:28:40Z</time>
      </trkpt>
      <trkpt lat="43.42026" lon="6.10189">
        <ele>187</ele>
        <time>2016-11-23T16:28:50Z</time>
      </trkpt>
      <trkpt lat="43.42027" lon="6.10173">
        <ele>187.19999694824</ele>
        <time>2016-11-23T16:28:53Z</time>
      </trkpt>
      <trkpt lat="43.4203" lon="6.1015">
        <ele>187.60000610352</ele>
        <time>2016-11-23T16:28:57Z</time>
      </trkpt>
      <trkpt lat="43.42032" lon="6.10132">
        <ele>187.60000610352</ele>
        <time>2016-11-23T16:29:00Z</time>
      </trkpt>
      <trkpt lat="43.42036" lon="6.10105">
        <ele>187.80000305176</ele>
        <time>2016-11-23T16:29:05Z</time>
      </trkpt>
      <trkpt lat="43.42039" lon="6.10079">
        <ele>188</ele>
        <time>2016-11-23T16:29:10Z</time>
      </trkpt>
      <trkpt lat="43.42045" lon="6.10044">
        <ele>186.80000305176</ele>
        <time>2016-11-23T16:29:17Z</time>
      </trkpt>
      <trkpt lat="43.42048" lon="6.10028">
        <ele>186.60000610352</ele>
        <time>2016-11-23T16:29:20Z</time>
      </trkpt>
      <trkpt lat="43.42059" lon="6.0997">
        <ele>187.39999389648</ele>
        <time>2016-11-23T16:29:30Z</time>
      </trkpt>
      <trkpt lat="43.42068" lon="6.09935">
        <ele>187</ele>
        <time>2016-11-23T16:29:36Z</time>
      </trkpt>
      <trkpt lat="43.42075" lon="6.09915">
        <ele>186.80000305176</ele>
        <time>2016-11-23T16:29:40Z</time>
      </trkpt>
      <trkpt lat="43.42078" lon="6.0991">
        <ele>186.80000305176</ele>
        <time>2016-11-23T16:29:41Z</time>
      </trkpt>
      <trkpt lat="43.42089" lon="6.0988">
        <ele>186.60000610352</ele>
        <time>2016-11-23T16:29:46Z</time>
      </trkpt>
      <trkpt lat="43.42091" lon="6.09873">
        <ele>186.39999389648</ele>
        <time>2016-11-23T16:29:47Z</time>
      </trkpt>
      <trkpt lat="43.42094" lon="6.09859">
        <ele>186.39999389648</ele>
        <time>2016-11-23T16:29:49Z</time>
      </trkpt>
      <trkpt lat="43.42094" lon="6.09852">
        <ele>186.19999694824</ele>
        <time>2016-11-23T16:29:50Z</time>
      </trkpt>
      <trkpt lat="43.42095" lon="6.09833">
        <ele>186.19999694824</ele>
        <time>2016-11-23T16:29:53Z</time>
      </trkpt>
      <trkpt lat="43.42096" lon="6.0982">
        <ele>186</ele>
        <time>2016-11-23T16:29:55Z</time>
      </trkpt>
      <trkpt lat="43.42093" lon="6.09785">
        <ele>186</ele>
        <time>2016-11-23T16:30:00Z</time>
      </trkpt>
      <trkpt lat="43.42084" lon="6.09747">
        <ele>185.60000610352</ele>
        <time>2016-11-23T16:30:06Z</time>
      </trkpt>
      <trkpt lat="43.42073" lon="6.09725">
        <ele>185.19999694824</ele>
        <time>2016-11-23T16:30:10Z</time>
      </trkpt>
      <trkpt lat="43.42035" lon="6.09681">
        <ele>185</ele>
        <time>2016-11-23T16:30:20Z</time>
      </trkpt>
      <trkpt lat="43.41984" lon="6.09662">
        <ele>185</ele>
        <time>2016-11-23T16:30:30Z</time>
      </trkpt>
      <trkpt lat="43.41968" lon="6.09657">
        <ele>184.60000610352</ele>
        <time>2016-11-23T16:30:33Z</time>
      </trkpt>
      <trkpt lat="43.41955" lon="6.09657">
        <ele>184.80000305176</ele>
        <time>2016-11-23T16:30:35Z</time>
      </trkpt>
      <trkpt lat="43.41939" lon="6.09655">
        <ele>185.60000610352</ele>
        <time>2016-11-23T16:30:39Z</time>
      </trkpt>
      <trkpt lat="43.41934" lon="6.09654">
        <ele>185.39999389648</ele>
        <time>2016-11-23T16:30:40Z</time>
      </trkpt>
      <trkpt lat="43.41889" lon="6.0965">
        <ele>185.19999694824</ele>
        <time>2016-11-23T16:30:50Z</time>
      </trkpt>
      <trkpt lat="43.41857" lon="6.09646">
        <ele>185.39999389648</ele>
        <time>2016-11-23T16:30:58Z</time>
      </trkpt>
      <trkpt lat="43.41848" lon="6.09645">
        <ele>185.39999389648</ele>
        <time>2016-11-23T16:31:00Z</time>
      </trkpt>
      <trkpt lat="43.41839" lon="6.09642">
        <ele>185.19999694824</ele>
        <time>2016-11-23T16:31:02Z</time>
      </trkpt>
      <trkpt lat="43.41826" lon="6.09633">
        <ele>184.80000305176</ele>
        <time>2016-11-23T16:31:05Z</time>
      </trkpt>
      <trkpt lat="43.41818" lon="6.09624">
        <ele>184.80000305176</ele>
        <time>2016-11-23T16:31:07Z</time>
      </trkpt>
      <trkpt lat="43.41809" lon="6.0961">
        <ele>184.39999389648</ele>
        <time>2016-11-23T16:31:10Z</time>
      </trkpt>
      <trkpt lat="43.41807" lon="6.09605">
        <ele>184.39999389648</ele>
        <time>2016-11-23T16:31:11Z</time>
      </trkpt>
      <trkpt lat="43.41799" lon="6.09589">
        <ele>184.39999389648</ele>
        <time>2016-11-23T16:31:14Z</time>
      </trkpt>
      <trkpt lat="43.4179" lon="6.09568">
        <ele>184.19999694824</ele>
        <time>2016-11-23T16:31:18Z</time>
      </trkpt>
      <trkpt lat="43.41785" lon="6.09558">
        <ele>184.19999694824</ele>
        <time>2016-11-23T16:31:20Z</time>
      </trkpt>
      <trkpt lat="43.41764" lon="6.09504">
        <ele>184.39999389648</ele>
        <time>2016-11-23T16:31:30Z</time>
      </trkpt>
      <trkpt lat="43.41763" lon="6.09498">
        <ele>184.60000610352</ele>
        <time>2016-11-23T16:31:31Z</time>
      </trkpt>
      <trkpt lat="43.41758" lon="6.0948">
        <ele>185</ele>
        <time>2016-11-23T16:31:34Z</time>
      </trkpt>
      <trkpt lat="43.41756" lon="6.09467">
        <ele>185</ele>
        <time>2016-11-23T16:31:36Z</time>
      </trkpt>
      <trkpt lat="43.41751" lon="6.09442">
        <ele>185.19999694824</ele>
        <time>2016-11-23T16:31:40Z</time>
      </trkpt>
      <trkpt lat="43.41735" lon="6.09381">
        <ele>185</ele>
        <time>2016-11-23T16:31:50Z</time>
      </trkpt>
      <trkpt lat="43.41726" lon="6.09343">
        <ele>184.80000305176</ele>
        <time>2016-11-23T16:31:56Z</time>
      </trkpt>
      <trkpt lat="43.41725" lon="6.09315">
        <ele>185</ele>
        <time>2016-11-23T16:32:00Z</time>
      </trkpt>
      <trkpt lat="43.41725" lon="6.09302">
        <ele>185</ele>
        <time>2016-11-23T16:32:02Z</time>
      </trkpt>
      <trkpt lat="43.41724" lon="6.09272">
        <ele>185</ele>
        <time>2016-11-23T16:32:07Z</time>
      </trkpt>
      <trkpt lat="43.41723" lon="6.09254">
        <ele>185.19999694824</ele>
        <time>2016-11-23T16:32:10Z</time>
      </trkpt>
      <trkpt lat="43.41722" lon="6.09208">
        <ele>185</ele>
        <time>2016-11-23T16:32:18Z</time>
      </trkpt>
      <trkpt lat="43.41722" lon="6.09195">
        <ele>185</ele>
        <time>2016-11-23T16:32:20Z</time>
      </trkpt>
      <trkpt lat="43.41721" lon="6.09131">
        <ele>184.80000305176</ele>
        <time>2016-11-23T16:32:30Z</time>
      </trkpt>
      <trkpt lat="43.41723" lon="6.0907">
        <ele>184.80000305176</ele>
        <time>2016-11-23T16:32:40Z</time>
      </trkpt>
      <trkpt lat="43.41729" lon="6.09005">
        <ele>184.80000305176</ele>
        <time>2016-11-23T16:32:50Z</time>
      </trkpt>
      <trkpt lat="43.41733" lon="6.08979">
        <ele>184.60000610352</ele>
        <time>2016-11-23T16:32:54Z</time>
      </trkpt>
      <trkpt lat="43.41736" lon="6.08939">
        <ele>184.19999694824</ele>
        <time>2016-11-23T16:33:00Z</time>
      </trkpt>
      <trkpt lat="43.41737" lon="6.0892">
        <ele>184.19999694824</ele>
        <time>2016-11-23T16:33:03Z</time>
      </trkpt>
      <trkpt lat="43.41736" lon="6.08894">
        <ele>184.39999389648</ele>
        <time>2016-11-23T16:33:07Z</time>
      </trkpt>
      <trkpt lat="43.41734" lon="6.08881">
        <ele>184.60000610352</ele>
        <time>2016-11-23T16:33:09Z</time>
      </trkpt>
      <trkpt lat="43.41732" lon="6.08875">
        <ele>184.60000610352</ele>
        <time>2016-11-23T16:33:10Z</time>
      </trkpt>
      <trkpt lat="43.41703" lon="6.08818">
        <ele>185.19999694824</ele>
        <time>2016-11-23T16:33:20Z</time>
      </trkpt>
      <trkpt lat="43.41673" lon="6.08767">
        <ele>185.19999694824</ele>
        <time>2016-11-23T16:33:30Z</time>
      </trkpt>
      <trkpt lat="43.41668" lon="6.08758">
        <ele>185.39999389648</ele>
        <time>2016-11-23T16:33:32Z</time>
      </trkpt>
      <trkpt lat="43.41648" lon="6.0872">
        <ele>185</ele>
        <time>2016-11-23T16:33:40Z</time>
      </trkpt>
      <trkpt lat="43.41623" lon="6.0867">
        <ele>185</ele>
        <time>2016-11-23T16:33:50Z</time>
      </trkpt>
      <trkpt lat="43.41605" lon="6.08611">
        <ele>185.19999694824</ele>
        <time>2016-11-23T16:34:00Z</time>
      </trkpt>
      <trkpt lat="43.41599" lon="6.08558">
        <ele>185.80000305176</ele>
        <time>2016-11-23T16:34:09Z</time>
      </trkpt>
      <trkpt lat="43.41598" lon="6.08551">
        <ele>186</ele>
        <time>2016-11-23T16:34:10Z</time>
      </trkpt>
      <trkpt lat="43.41589" lon="6.08487">
        <ele>185.80000305176</ele>
        <time>2016-11-23T16:34:20Z</time>
      </trkpt>
      <trkpt lat="43.41578" lon="6.08419">
        <ele>185.60000610352</ele>
        <time>2016-11-23T16:34:30Z</time>
      </trkpt>
      <trkpt lat="43.41565" lon="6.08352">
        <ele>185</ele>
        <time>2016-11-23T16:34:40Z</time>
      </trkpt>
      <trkpt lat="43.41552" lon="6.08291">
        <ele>184.60000610352</ele>
        <time>2016-11-23T16:34:48Z</time>
      </trkpt>
      <trkpt lat="43.41549" lon="6.08276">
        <ele>184.60000610352</ele>
        <time>2016-11-23T16:34:50Z</time>
      </trkpt>
      <trkpt lat="43.41524" lon="6.08209">
        <ele>185.39999389648</ele>
        <time>2016-11-23T16:35:00Z</time>
      </trkpt>
      <trkpt lat="43.41508" lon="6.08178">
        <ele>186.19999694824</ele>
        <time>2016-11-23T16:35:05Z</time>
      </trkpt>
      <trkpt lat="43.41502" lon="6.08167">
        <ele>186.60000610352</ele>
        <time>2016-11-23T16:35:07Z</time>
      </trkpt>
      <trkpt lat="43.4146" lon="6.081">
        <ele>186.39999389648</ele>
        <time>2016-11-23T16:35:20Z</time>
      </trkpt>
      <trkpt lat="43.41427" lon="6.08047">
        <ele>186.19999694824</ele>
        <time>2016-11-23T16:35:30Z</time>
      </trkpt>
      <trkpt lat="43.41413" lon="6.08021">
        <ele>186.19999694824</ele>
        <time>2016-11-23T16:35:35Z</time>
      </trkpt>
      <trkpt lat="43.414" lon="6.07996">
        <ele>186.19999694824</ele>
        <time>2016-11-23T16:35:40Z</time>
      </trkpt>
      <trkpt lat="43.41389" lon="6.07977">
        <ele>186.19999694824</ele>
        <time>2016-11-23T16:35:44Z</time>
      </trkpt>
      <trkpt lat="43.41383" lon="6.07967">
        <ele>186.39999389648</ele>
        <time>2016-11-23T16:35:46Z</time>
      </trkpt>
      <trkpt lat="43.4137" lon="6.0795">
        <ele>186.39999389648</ele>
        <time>2016-11-23T16:35:50Z</time>
      </trkpt>
      <trkpt lat="43.41339" lon="6.07917">
        <ele>186.19999694824</ele>
        <time>2016-11-23T16:36:00Z</time>
      </trkpt>
      <trkpt lat="43.41324" lon="6.07863">
        <ele>186.39999389648</ele>
        <time>2016-11-23T16:36:10Z</time>
      </trkpt>
      <trkpt lat="43.41306" lon="6.07798">
        <ele>185.80000305176</ele>
        <time>2016-11-23T16:36:20Z</time>
      </trkpt>
      <trkpt lat="43.41291" lon="6.07737">
        <ele>186</ele>
        <time>2016-11-23T16:36:30Z</time>
      </trkpt>
      <trkpt lat="43.4129" lon="6.07725">
        <ele>186.19999694824</ele>
        <time>2016-11-23T16:36:32Z</time>
      </trkpt>
      <trkpt lat="43.41291" lon="6.07705">
        <ele>186.19999694824</ele>
        <time>2016-11-23T16:36:35Z</time>
      </trkpt>
      <trkpt lat="43.41295" lon="6.07678">
        <ele>186.39999389648</ele>
        <time>2016-11-23T16:36:39Z</time>
      </trkpt>
      <trkpt lat="43.41297" lon="6.07671">
        <ele>186.39999389648</ele>
        <time>2016-11-23T16:36:40Z</time>
      </trkpt>
      <trkpt lat="43.41315" lon="6.07611">
        <ele>186.60000610352</ele>
        <time>2016-11-23T16:36:50Z</time>
      </trkpt>
      <trkpt lat="43.41334" lon="6.07547">
        <ele>187</ele>
        <time>2016-11-23T16:37:00Z</time>
      </trkpt>
      <trkpt lat="43.41341" lon="6.07514">
        <ele>187.19999694824</ele>
        <time>2016-11-23T16:37:05Z</time>
      </trkpt>
      <trkpt lat="43.41344" lon="6.07498">
        <ele>187.19999694824</ele>
        <time>2016-11-23T16:37:08Z</time>
      </trkpt>
      <trkpt lat="43.41345" lon="6.07488">
        <ele>187.39999389648</ele>
        <time>2016-11-23T16:37:10Z</time>
      </trkpt>
      <trkpt lat="43.41346" lon="6.07483">
        <ele>187.60000610352</ele>
        <time>2016-11-23T16:37:11Z</time>
      </trkpt>
      <trkpt lat="43.41354" lon="6.0745">
        <ele>188.19999694824</ele>
        <time>2016-11-23T16:37:18Z</time>
      </trkpt>
      <trkpt lat="43.41358" lon="6.07431">
        <ele>188.60000610352</ele>
        <time>2016-11-23T16:37:22Z</time>
      </trkpt>
      <trkpt lat="43.41366" lon="6.0739">
        <ele>189</ele>
        <time>2016-11-23T16:37:30Z</time>
      </trkpt>
      <trkpt lat="43.41371" lon="6.0737">
        <ele>189.60000610352</ele>
        <time>2016-11-23T16:37:34Z</time>
      </trkpt>
      <trkpt lat="43.41376" lon="6.07343">
        <ele>189.80000305176</ele>
        <time>2016-11-23T16:37:40Z</time>
      </trkpt>
      <trkpt lat="43.41388" lon="6.07299">
        <ele>190.39999389648</ele>
        <time>2016-11-23T16:37:50Z</time>
      </trkpt>
      <trkpt lat="43.41392" lon="6.07285">
        <ele>190.60000610352</ele>
        <time>2016-11-23T16:37:53Z</time>
      </trkpt>
      <trkpt lat="43.41403" lon="6.07249">
        <ele>190.80000305176</ele>
        <time>2016-11-23T16:38:00Z</time>
      </trkpt>
      <trkpt lat="43.41408" lon="6.0723">
        <ele>190.60000610352</ele>
        <time>2016-11-23T16:38:04Z</time>
      </trkpt>
      <trkpt lat="43.41417" lon="6.07202">
        <ele>191</ele>
        <time>2016-11-23T16:38:10Z</time>
      </trkpt>
      <trkpt lat="43.41433" lon="6.07154">
        <ele>191.60000610352</ele>
        <time>2016-11-23T16:38:19Z</time>
      </trkpt>
      <trkpt lat="43.41434" lon="6.07149">
        <ele>191.60000610352</ele>
        <time>2016-11-23T16:38:20Z</time>
      </trkpt>
      <trkpt lat="43.41454" lon="6.07095">
        <ele>191.39999389648</ele>
        <time>2016-11-23T16:38:30Z</time>
      </trkpt>
      <trkpt lat="43.41458" lon="6.07082">
        <ele>191.19999694824</ele>
        <time>2016-11-23T16:38:33Z</time>
      </trkpt>
      <trkpt lat="43.41461" lon="6.07079">
        <ele>191.19999694824</ele>
        <time>2016-11-23T16:38:35Z</time>
      </trkpt>
      <trkpt lat="43.41465" lon="6.07079">
        <ele>191.39999389648</ele>
        <time>2016-11-23T16:38:38Z</time>
      </trkpt>
      <trkpt lat="43.41468" lon="6.07079">
        <ele>192</ele>
        <time>2016-11-23T16:38:40Z</time>
      </trkpt>
      <trkpt lat="43.41472" lon="6.07078">
        <ele>192.39999389648</ele>
        <time>2016-11-23T16:38:43Z</time>
      </trkpt>
      <trkpt lat="43.41474" lon="6.07078">
        <ele>192.60000610352</ele>
        <time>2016-11-23T16:38:44Z</time>
      </trkpt>
      <trkpt lat="43.41475" lon="6.07079">
        <ele>193</ele>
        <time>2016-11-23T16:38:50Z</time>
      </trkpt>
      <trkpt lat="43.41475" lon="6.07079">
        <ele>193.60000610352</ele>
        <time>2016-11-23T16:39:00Z</time>
      </trkpt>
      <trkpt lat="43.41476" lon="6.07079">
        <ele>191.60000610352</ele>
        <time>2016-11-23T16:39:20Z</time>
      </trkpt>
      <trkpt lat="43.41477" lon="6.07079">
        <ele>192.60000610352</ele>
        <time>2016-11-23T16:39:26Z</time>
      </trkpt>
      <trkpt lat="43.41477" lon="6.07079">
        <ele>193.19999694824</ele>
        <time>2016-11-23T16:39:30Z</time>
      </trkpt>
      <trkpt lat="43.41478" lon="6.07078">
        <ele>193.19999694824</ele>
        <time>2016-11-23T16:39:31Z</time>
      </trkpt>
      <trkpt lat="43.41484" lon="6.07079">
        <ele>192.80000305176</ele>
        <time>2016-11-23T16:39:34Z</time>
      </trkpt>
      <trkpt lat="43.41503" lon="6.07083">
        <ele>192</ele>
        <time>2016-11-23T16:39:40Z</time>
      </trkpt>
      <trkpt lat="43.41537" lon="6.0708">
        <ele>193</ele>
        <time>2016-11-23T16:39:49Z</time>
      </trkpt>
      <trkpt lat="43.41541" lon="6.07083">
        <ele>193.19999694824</ele>
        <time>2016-11-23T16:39:50Z</time>
      </trkpt>
      <trkpt lat="43.41544" lon="6.07091">
        <ele>193.60000610352</ele>
        <time>2016-11-23T16:39:52Z</time>
      </trkpt>
      <trkpt lat="43.41551" lon="6.07114">
        <ele>194.19999694824</ele>
        <time>2016-11-23T16:39:57Z</time>
      </trkpt>
      <trkpt lat="43.41561" lon="6.07118">
        <ele>193.60000610352</ele>
        <time>2016-11-23T16:40:00Z</time>
      </trkpt>
      <trkpt lat="43.41572" lon="6.07116">
        <ele>193.60000610352</ele>
        <time>2016-11-23T16:40:10Z</time>
      </trkpt>
      <trkpt lat="43.41572" lon="6.07116">
        <ele>193.60000610352</ele>
        <time>2016-11-23T16:40:15Z</time>
      </trkpt>
      <trkpt lat="43.41572" lon="6.07116">
        <ele>194.60000610352</ele>
        <time>2016-11-23T16:40:27Z</time>
      </trkpt>
      <trkpt lat="43.41572" lon="6.07116">
        <ele>193.60000610352</ele>
        <time>2016-11-23T16:41:59Z</time>
      </trkpt>
      <trkpt lat="43.41572" lon="6.07116">
        <ele>193.39999389648</ele>
        <time>2016-11-23T16:42:10Z</time>
      </trkpt>
      <trkpt lat="43.41572" lon="6.07116">
        <ele>193.39999389648</ele>
        <time>2016-11-23T16:42:56Z</time>
      </trkpt>
      <trkpt lat="43.41577" lon="6.07111">
        <ele>193</ele>
        <time>2016-11-23T16:43:00Z</time>
      </trkpt>
      <trkpt lat="43.41583" lon="6.0711">
        <ele>193</ele>
        <time>2016-11-23T16:43:03Z</time>
      </trkpt>
      <trkpt lat="43.41582" lon="6.07093">
        <ele>193</ele>
        <time>2016-11-23T16:43:08Z</time>
      </trkpt>
      <trkpt lat="43.41581" lon="6.07083">
        <ele>193</ele>
        <time>2016-11-23T16:43:10Z</time>
      </trkpt>
      <trkpt lat="43.41578" lon="6.07052">
        <ele>193</ele>
        <time>2016-11-23T16:43:17Z</time>
      </trkpt>
      <trkpt lat="43.41577" lon="6.07042">
        <ele>192.60000610352</ele>
        <time>2016-11-23T16:43:20Z</time>
      </trkpt>
      <trkpt lat="43.41576" lon="6.07037">
        <ele>193.19999694824</ele>
        <time>2016-11-23T16:43:30Z</time>
      </trkpt>
      <trkpt lat="43.41576" lon="6.07037">
        <ele>193.39999389648</ele>
        <time>2016-11-23T16:43:51Z</time>
      </trkpt>
    </trkseg>
  </trk>
</gpx>